<?xml version='1.0' encoding='UTF-8'?><gpx version="1.1" creator="JPX - https://github.com/jenetics/jpx" xmlns="http://www.topografix.com/GPX/1/1"><trk><trkseg><trkpt lat="40.0187386" lon="18.1608712"><ele>113.0</ele><time>2026-04-11T14:22:38.109Z</time></trkpt><trkpt lat="40.0187225" lon="18.1609842"><ele>113.0</ele><time>2026-04-11T14:22:40.109Z</time></trkpt><trkpt lat="40.0185269" lon="18.1610084"><ele>113.0</ele><time>2026-04-11T14:22:45.11Z</time></trkpt><trkpt lat="40.018433" lon="18.1609969"><ele>113.0</ele><time>2026-04-11T14:22:46.11Z</time></trkpt><trkpt lat="40.0183366" lon="18.1609807"><ele>112.4</ele><time>2026-04-11T14:22:47.111Z</time></trkpt><trkpt lat="40.0182379" lon="18.1609627"><ele>111.80000000000001</ele><time>2026-04-11T14:22:48.111Z</time></trkpt><trkpt lat="40.0181343" lon="18.1609437"><ele>111.2</ele><time>2026-04-11T14:22:49.11Z</time></trkpt><trkpt lat="40.0180221" lon="18.160921"><ele>110.6</ele><time>2026-04-11T14:22:50.11Z</time></trkpt><trkpt lat="40.0178967" lon="18.1609017"><ele>110.0</ele><time>2026-04-11T14:22:51.11Z</time></trkpt><trkpt lat="40.01777" lon="18.1608817"><ele>110.0</ele><time>2026-04-11T14:22:52.111Z</time></trkpt><trkpt lat="40.0176417" lon="18.160865"><ele>110.0</ele><time>2026-04-11T14:22:53.111Z</time></trkpt><trkpt lat="40.0175133" lon="18.1608417"><ele>110.0</ele><time>2026-04-11T14:22:54.11Z</time></trkpt><trkpt lat="40.017385" lon="18.1608183"><ele>110.0</ele><time>2026-04-11T14:22:55.11Z</time></trkpt><trkpt lat="40.01726" lon="18.1607967"><ele>110.16666666666666</ele><time>2026-04-11T14:22:56.11Z</time></trkpt><trkpt lat="40.0171517" lon="18.1607817"><ele>110.33333333333333</ele><time>2026-04-11T14:22:57.11Z</time></trkpt><trkpt lat="40.0170583" lon="18.1607667"><ele>110.5</ele><time>2026-04-11T14:22:58.11Z</time></trkpt><trkpt lat="40.0169833" lon="18.16075"><ele>110.66666666666666</ele><time>2026-04-11T14:22:59.11Z</time></trkpt><trkpt lat="40.0169" lon="18.1607283"><ele>110.83333333333333</ele><time>2026-04-11T14:23:01.11Z</time></trkpt><trkpt lat="40.01683" lon="18.1607283"><ele>111.0</ele><time>2026-04-11T14:23:04.11Z</time></trkpt><trkpt lat="40.016715" lon="18.1607233"><ele>111.19999999999999</ele><time>2026-04-11T14:23:06.11Z</time></trkpt><trkpt lat="40.01663" lon="18.1607017"><ele>111.39999999999999</ele><time>2026-04-11T14:23:07.11Z</time></trkpt><trkpt lat="40.0165333" lon="18.1606867"><ele>111.6</ele><time>2026-04-11T14:23:08.111Z</time></trkpt><trkpt lat="40.0164267" lon="18.160675"><ele>111.8</ele><time>2026-04-11T14:23:09.11Z</time></trkpt><trkpt lat="40.0163217" lon="18.1606533"><ele>112.0</ele><time>2026-04-11T14:23:10.11Z</time></trkpt><trkpt lat="40.0162283" lon="18.160635"><ele>112.0</ele><time>2026-04-11T14:23:11.111Z</time></trkpt><trkpt lat="40.0161333" lon="18.160615"><ele>111.99999999999999</ele><time>2026-04-11T14:23:12.111Z</time></trkpt><trkpt lat="40.0160317" lon="18.1605983"><ele>111.99999999999999</ele><time>2026-04-11T14:23:13.11Z</time></trkpt><trkpt lat="40.0159217" lon="18.16058"><ele>112.0</ele><time>2026-04-11T14:23:14.11Z</time></trkpt><trkpt lat="40.0158083" lon="18.1605583"><ele>112.0</ele><time>2026-04-11T14:23:15.111Z</time></trkpt><trkpt lat="40.015695" lon="18.1605383"><ele>112.19999999999999</ele><time>2026-04-11T14:23:16.111Z</time></trkpt><trkpt lat="40.0155933" lon="18.16052"><ele>112.39999999999999</ele><time>2026-04-11T14:23:17.11Z</time></trkpt><trkpt lat="40.0155133" lon="18.160505"><ele>112.60000000000001</ele><time>2026-04-11T14:23:18.11Z</time></trkpt><trkpt lat="40.0154083" lon="18.1604817"><ele>112.80000000000001</ele><time>2026-04-11T14:23:20.11Z</time></trkpt><trkpt lat="40.0153267" lon="18.1604667"><ele>113.0</ele><time>2026-04-11T14:23:23.11Z</time></trkpt><trkpt lat="40.0152217" lon="18.1604533"><ele>112.99999999999999</ele><time>2026-04-11T14:23:25.11Z</time></trkpt><trkpt lat="40.015155" lon="18.1604433"><ele>113.0</ele><time>2026-04-11T14:23:26.11Z</time></trkpt><trkpt lat="40.0150767" lon="18.1604317"><ele>113.0</ele><time>2026-04-11T14:23:27.11Z</time></trkpt><trkpt lat="40.0149967" lon="18.1604183"><ele>113.0</ele><time>2026-04-11T14:23:28.11Z</time></trkpt><trkpt lat="40.0149217" lon="18.1604067"><ele>112.99999999999999</ele><time>2026-04-11T14:23:29.111Z</time></trkpt><trkpt lat="40.014855" lon="18.1604017"><ele>113.0</ele><time>2026-04-11T14:23:30.111Z</time></trkpt><trkpt lat="40.0147417" lon="18.1603933"><ele>113.0</ele><time>2026-04-11T14:23:32.11Z</time></trkpt><trkpt lat="40.0146783" lon="18.1603883"><ele>113.0</ele><time>2026-04-11T14:23:33.111Z</time></trkpt><trkpt lat="40.0146067" lon="18.1603783"><ele>113.0</ele><time>2026-04-11T14:23:34.11Z</time></trkpt><trkpt lat="40.0145317" lon="18.1603717"><ele>113.0</ele><time>2026-04-11T14:23:35.11Z</time></trkpt><trkpt lat="40.014465" lon="18.1603617"><ele>113.0</ele><time>2026-04-11T14:23:36.11Z</time></trkpt><trkpt lat="40.0143783" lon="18.1603467"><ele>113.0</ele><time>2026-04-11T14:23:38.11Z</time></trkpt><trkpt lat="40.0143017" lon="18.16038"><ele>113.0</ele><time>2026-04-11T14:23:42.111Z</time></trkpt><trkpt lat="40.014275" lon="18.1604883"><ele>112.99999999999999</ele><time>2026-04-11T14:23:44.11Z</time></trkpt><trkpt lat="40.0142667" lon="18.1605717"><ele>113.0</ele><time>2026-04-11T14:23:45.111Z</time></trkpt><trkpt lat="40.0142533" lon="18.160665"><ele>113.0</ele><time>2026-04-11T14:23:46.11Z</time></trkpt><trkpt lat="40.01424" lon="18.1607717"><ele>113.0</ele><time>2026-04-11T14:23:47.11Z</time></trkpt><trkpt lat="40.0142267" lon="18.160885"><ele>112.99999999999999</ele><time>2026-04-11T14:23:48.11Z</time></trkpt><trkpt lat="40.0142167" lon="18.16099"><ele>113.0</ele><time>2026-04-11T14:23:49.11Z</time></trkpt><trkpt lat="40.01421" lon="18.1610833"><ele>113.0</ele><time>2026-04-11T14:23:50.11Z</time></trkpt><trkpt lat="40.014205" lon="18.1611683"><ele>113.00000000000001</ele><time>2026-04-11T14:23:51.111Z</time></trkpt><trkpt lat="40.014195" lon="18.1613183"><ele>113.00000000000001</ele><time>2026-04-11T14:23:53.11Z</time></trkpt><trkpt lat="40.0141883" lon="18.1614467"><ele>113.0</ele><time>2026-04-11T14:23:55.11Z</time></trkpt><trkpt lat="40.0142017" lon="18.1615683"><ele>113.0</ele><time>2026-04-11T14:23:57.111Z</time></trkpt><trkpt lat="40.01425" lon="18.1616817"><ele>112.80000000000001</ele><time>2026-04-11T14:23:59.111Z</time></trkpt><trkpt lat="40.0143233" lon="18.1618033"><ele>112.60000000000001</ele><time>2026-04-11T14:24:01.11Z</time></trkpt><trkpt lat="40.0144033" lon="18.1619117"><ele>112.39999999999999</ele><time>2026-04-11T14:24:03.11Z</time></trkpt><trkpt lat="40.0144717" lon="18.1620117"><ele>112.19999999999999</ele><time>2026-04-11T14:24:05.111Z</time></trkpt><trkpt lat="40.0145433" lon="18.1621067"><ele>112.0</ele><time>2026-04-11T14:24:07.11Z</time></trkpt><trkpt lat="40.014645" lon="18.1621567"><ele>112.0</ele><time>2026-04-11T14:24:09.11Z</time></trkpt><trkpt lat="40.0147533" lon="18.1621717"><ele>111.99999999999999</ele><time>2026-04-11T14:24:11.111Z</time></trkpt><trkpt lat="40.01485" lon="18.1621717"><ele>111.99999999999999</ele><time>2026-04-11T14:24:13.11Z</time></trkpt><trkpt lat="40.014945" lon="18.1621667"><ele>112.0</ele><time>2026-04-11T14:24:15.111Z</time></trkpt><trkpt lat="40.0150467" lon="18.1621783"><ele>112.0</ele><time>2026-04-11T14:24:17.11Z</time></trkpt><trkpt lat="40.0151217" lon="18.16217"><ele>112.0</ele><time>2026-04-11T14:24:18.11Z</time></trkpt><trkpt lat="40.0152133" lon="18.162165"><ele>111.99999999999999</ele><time>2026-04-11T14:24:19.11Z</time></trkpt><trkpt lat="40.01531" lon="18.162165"><ele>111.99999999999999</ele><time>2026-04-11T14:24:20.111Z</time></trkpt><trkpt lat="40.0154083" lon="18.162165"><ele>112.0</ele><time>2026-04-11T14:24:21.11Z</time></trkpt><trkpt lat="40.0155017" lon="18.16216"><ele>112.0</ele><time>2026-04-11T14:24:22.11Z</time></trkpt><trkpt lat="40.0155983" lon="18.1621533"><ele>112.0</ele><time>2026-04-11T14:24:23.11Z</time></trkpt><trkpt lat="40.0156983" lon="18.16215"><ele>111.99999999999999</ele><time>2026-04-11T14:24:24.111Z</time></trkpt><trkpt lat="40.0157983" lon="18.1621467"><ele>111.99999999999999</ele><time>2026-04-11T14:24:25.11Z</time></trkpt><trkpt lat="40.0159167" lon="18.162145"><ele>112.0</ele><time>2026-04-11T14:24:26.11Z</time></trkpt><trkpt lat="40.016045" lon="18.16215"><ele>112.0</ele><time>2026-04-11T14:24:27.11Z</time></trkpt><trkpt lat="40.01616" lon="18.1621567"><ele>111.66666666666667</ele><time>2026-04-11T14:24:28.111Z</time></trkpt><trkpt lat="40.0162567" lon="18.1621633"><ele>111.33333333333334</ele><time>2026-04-11T14:24:29.11Z</time></trkpt><trkpt lat="40.0163367" lon="18.1621683"><ele>111.0</ele><time>2026-04-11T14:24:30.11Z</time></trkpt><trkpt lat="40.0164033" lon="18.1621717"><ele>110.66666666666666</ele><time>2026-04-11T14:24:31.111Z</time></trkpt><trkpt lat="40.016515" lon="18.1621833"><ele>110.33333333333333</ele><time>2026-04-11T14:24:33.111Z</time></trkpt><trkpt lat="40.0165917" lon="18.1621883"><ele>110.0</ele><time>2026-04-11T14:24:35.111Z</time></trkpt><trkpt lat="40.0166533" lon="18.162255"><ele>109.99999999999999</ele><time>2026-04-11T14:25:02.11Z</time></trkpt><trkpt lat="40.0166767" lon="18.162355"><ele>110.0</ele><time>2026-04-11T14:25:04.11Z</time></trkpt><trkpt lat="40.0166733" lon="18.162445"><ele>110.0</ele><time>2026-04-11T14:25:05.111Z</time></trkpt><trkpt lat="40.0166733" lon="18.162555"><ele>110.0</ele><time>2026-04-11T14:25:06.11Z</time></trkpt><trkpt lat="40.016675" lon="18.16268"><ele>109.99999999999999</ele><time>2026-04-11T14:25:07.11Z</time></trkpt><trkpt lat="40.0166783" lon="18.1628217"><ele>110.0</ele><time>2026-04-11T14:25:08.11Z</time></trkpt><trkpt lat="40.0166833" lon="18.1629783"><ele>110.5</ele><time>2026-04-11T14:25:09.11Z</time></trkpt><trkpt lat="40.0166917" lon="18.1631433"><ele>111.0</ele><time>2026-04-11T14:25:10.11Z</time></trkpt><trkpt lat="40.0167033" lon="18.1633133"><ele>111.5</ele><time>2026-04-11T14:25:11.111Z</time></trkpt><trkpt lat="40.0167167" lon="18.1634883"><ele>112.0</ele><time>2026-04-11T14:25:12.11Z</time></trkpt><trkpt lat="40.0167333" lon="18.1636717"><ele>112.75</ele><time>2026-04-11T14:25:13.11Z</time></trkpt><trkpt lat="40.0167567" lon="18.1638633"><ele>113.5</ele><time>2026-04-11T14:25:14.11Z</time></trkpt><trkpt lat="40.0167817" lon="18.1640583"><ele>114.25</ele><time>2026-04-11T14:25:15.111Z</time></trkpt><trkpt lat="40.0168133" lon="18.1642467"><ele>115.0</ele><time>2026-04-11T14:25:16.11Z</time></trkpt><trkpt lat="40.0168467" lon="18.1644333"><ele>115.33333333333334</ele><time>2026-04-11T14:25:17.111Z</time></trkpt><trkpt lat="40.0168833" lon="18.1646333"><ele>115.66666666666666</ele><time>2026-04-11T14:25:18.11Z</time></trkpt><trkpt lat="40.016925" lon="18.1648483"><ele>116.0</ele><time>2026-04-11T14:25:19.111Z</time></trkpt><trkpt lat="40.01697" lon="18.16507"><ele>117.33333333333333</ele><time>2026-04-11T14:25:20.111Z</time></trkpt><trkpt lat="40.01702" lon="18.1653"><ele>118.66666666666666</ele><time>2026-04-11T14:25:21.111Z</time></trkpt><trkpt lat="40.01707" lon="18.1655317"><ele>120.0</ele><time>2026-04-11T14:25:22.111Z</time></trkpt><trkpt lat="40.0171167" lon="18.1657617"><ele>122.0</ele><time>2026-04-11T14:25:23.11Z</time></trkpt><trkpt lat="40.0171633" lon="18.16599"><ele>124.0</ele><time>2026-04-11T14:25:24.11Z</time></trkpt><trkpt lat="40.017215" lon="18.16622"><ele>126.0</ele><time>2026-04-11T14:25:25.111Z</time></trkpt><trkpt lat="40.0172683" lon="18.1664483"><ele>128.0</ele><time>2026-04-11T14:25:26.11Z</time></trkpt><trkpt lat="40.0173217" lon="18.1666717"><ele>130.0</ele><time>2026-04-11T14:25:27.11Z</time></trkpt><trkpt lat="40.0173733" lon="18.1668983"><ele>132.0</ele><time>2026-04-11T14:25:28.111Z</time></trkpt><trkpt lat="40.0174233" lon="18.167125"><ele>132.0</ele><time>2026-04-11T14:25:29.111Z</time></trkpt><trkpt lat="40.0174717" lon="18.167355"><ele>132.0</ele><time>2026-04-11T14:25:30.11Z</time></trkpt><trkpt lat="40.0175217" lon="18.1675783"><ele>132.0</ele><time>2026-04-11T14:25:31.111Z</time></trkpt><trkpt lat="40.0175717" lon="18.167785"><ele>132.75</ele><time>2026-04-11T14:25:32.11Z</time></trkpt><trkpt lat="40.0176167" lon="18.1679717"><ele>133.5</ele><time>2026-04-11T14:25:33.11Z</time></trkpt><trkpt lat="40.0176567" lon="18.1681517"><ele>134.25</ele><time>2026-04-11T14:25:34.11Z</time></trkpt><trkpt lat="40.0176967" lon="18.1683367"><ele>135.0</ele><time>2026-04-11T14:25:35.11Z</time></trkpt><trkpt lat="40.0177367" lon="18.16852"><ele>135.0</ele><time>2026-04-11T14:25:36.11Z</time></trkpt><trkpt lat="40.017775" lon="18.168695"><ele>135.0</ele><time>2026-04-11T14:25:37.111Z</time></trkpt><trkpt lat="40.0178117" lon="18.168855"><ele>135.0</ele><time>2026-04-11T14:25:38.11Z</time></trkpt><trkpt lat="40.0178433" lon="18.168995"><ele>135.0</ele><time>2026-04-11T14:25:39.11Z</time></trkpt><trkpt lat="40.0178667" lon="18.16911"><ele>134.8</ele><time>2026-04-11T14:25:40.11Z</time></trkpt><trkpt lat="40.0178833" lon="18.1692"><ele>134.6</ele><time>2026-04-11T14:25:41.11Z</time></trkpt><trkpt lat="40.0179017" lon="18.1693317"><ele>134.4</ele><time>2026-04-11T14:25:43.111Z</time></trkpt><trkpt lat="40.01793" lon="18.1694567"><ele>134.2</ele><time>2026-04-11T14:25:46.11Z</time></trkpt><trkpt lat="40.01797" lon="18.1696067"><ele>134.0</ele><time>2026-04-11T14:25:48.111Z</time></trkpt><trkpt lat="40.018" lon="18.1696983"><ele>134.0</ele><time>2026-04-11T14:25:49.111Z</time></trkpt><trkpt lat="40.01802" lon="18.169795"><ele>134.0</ele><time>2026-04-11T14:25:50.11Z</time></trkpt><trkpt lat="40.01804" lon="18.1698967"><ele>134.0</ele><time>2026-04-11T14:25:51.111Z</time></trkpt><trkpt lat="40.0180583" lon="18.1700033"><ele>134.0</ele><time>2026-04-11T14:25:52.11Z</time></trkpt><trkpt lat="40.01808" lon="18.1701067"><ele>134.0</ele><time>2026-04-11T14:25:53.11Z</time></trkpt><trkpt lat="40.0181017" lon="18.170195"><ele>134.0</ele><time>2026-04-11T14:25:54.111Z</time></trkpt><trkpt lat="40.018145" lon="18.1703317"><ele>133.8</ele><time>2026-04-11T14:25:56.11Z</time></trkpt><trkpt lat="40.01824" lon="18.1704217"><ele>133.60000000000002</ele><time>2026-04-11T14:25:58.11Z</time></trkpt><trkpt lat="40.0183167" lon="18.170455"><ele>133.4</ele><time>2026-04-11T14:25:59.109Z</time></trkpt><trkpt lat="40.018405" lon="18.1704833"><ele>133.20000000000002</ele><time>2026-04-11T14:26:00.109Z</time></trkpt><trkpt lat="40.0185" lon="18.1705117"><ele>133.0</ele><time>2026-04-11T14:26:01.109Z</time></trkpt><trkpt lat="40.0185983" lon="18.1705433"><ele>133.0</ele><time>2026-04-11T14:26:02.109Z</time></trkpt><trkpt lat="40.0186917" lon="18.1705733"><ele>133.0</ele><time>2026-04-11T14:26:03.109Z</time></trkpt><trkpt lat="40.0187783" lon="18.1706017"><ele>133.0</ele><time>2026-04-11T14:26:04.11Z</time></trkpt><trkpt lat="40.01886" lon="18.170625"><ele>133.0</ele><time>2026-04-11T14:26:05.109Z</time></trkpt><trkpt lat="40.0189433" lon="18.17065"><ele>133.0</ele><time>2026-04-11T14:26:06.109Z</time></trkpt><trkpt lat="40.0190233" lon="18.1706817"><ele>133.0</ele><time>2026-04-11T14:26:07.109Z</time></trkpt><trkpt lat="40.0190967" lon="18.1707183"><ele>133.33333333333334</ele><time>2026-04-11T14:26:08.109Z</time></trkpt><trkpt lat="40.0191633" lon="18.1707583"><ele>133.66666666666669</ele><time>2026-04-11T14:26:09.109Z</time></trkpt><trkpt lat="40.0192283" lon="18.1707983"><ele>134.0</ele><time>2026-04-11T14:26:10.109Z</time></trkpt><trkpt lat="40.0192883" lon="18.17084"><ele>134.33333333333334</ele><time>2026-04-11T14:26:11.11Z</time></trkpt><trkpt lat="40.0193733" lon="18.17091"><ele>134.66666666666666</ele><time>2026-04-11T14:26:13.11Z</time></trkpt><trkpt lat="40.0194183" lon="18.170985"><ele>135.0</ele><time>2026-04-11T14:26:15.109Z</time></trkpt><trkpt lat="40.0194467" lon="18.1710967"><ele>135.0</ele><time>2026-04-11T14:26:17.11Z</time></trkpt><trkpt lat="40.01949" lon="18.17122"><ele>135.0</ele><time>2026-04-11T14:26:19.11Z</time></trkpt><trkpt lat="40.0196083" lon="18.1713"><ele>135.0</ele><time>2026-04-11T14:26:21.109Z</time></trkpt><trkpt lat="40.0196967" lon="18.1713117"><ele>135.0</ele><time>2026-04-11T14:26:22.11Z</time></trkpt><trkpt lat="40.0197933" lon="18.17132"><ele>135.0</ele><time>2026-04-11T14:26:23.109Z</time></trkpt><trkpt lat="40.0198933" lon="18.1713417"><ele>135.6</ele><time>2026-04-11T14:26:24.11Z</time></trkpt><trkpt lat="40.01999" lon="18.1713717"><ele>136.2</ele><time>2026-04-11T14:26:25.109Z</time></trkpt><trkpt lat="40.0200917" lon="18.17141"><ele>136.8</ele><time>2026-04-11T14:26:26.11Z</time></trkpt><trkpt lat="40.0201983" lon="18.1714583"><ele>137.4</ele><time>2026-04-11T14:26:27.11Z</time></trkpt><trkpt lat="40.020305" lon="18.1715133"><ele>138.0</ele><time>2026-04-11T14:26:28.109Z</time></trkpt><trkpt lat="40.02041" lon="18.1715767"><ele>139.25</ele><time>2026-04-11T14:26:29.109Z</time></trkpt><trkpt lat="40.02052" lon="18.1716467"><ele>140.5</ele><time>2026-04-11T14:26:30.109Z</time></trkpt><trkpt lat="40.0206333" lon="18.1717183"><ele>141.75</ele><time>2026-04-11T14:26:31.109Z</time></trkpt><trkpt lat="40.0207483" lon="18.1717917"><ele>143.0</ele><time>2026-04-11T14:26:32.109Z</time></trkpt><trkpt lat="40.02088" lon="18.17187"><ele>143.33333333333331</ele><time>2026-04-11T14:26:33.11Z</time></trkpt><trkpt lat="40.0210333" lon="18.1719567"><ele>143.66666666666666</ele><time>2026-04-11T14:26:34.11Z</time></trkpt><trkpt lat="40.0211883" lon="18.17206"><ele>144.0</ele><time>2026-04-11T14:26:35.11Z</time></trkpt><trkpt lat="40.02135" lon="18.1721767"><ele>144.0</ele><time>2026-04-11T14:26:36.109Z</time></trkpt><trkpt lat="40.0215283" lon="18.1723"><ele>144.0</ele><time>2026-04-11T14:26:37.109Z</time></trkpt><trkpt lat="40.0217233" lon="18.1724267"><ele>144.0</ele><time>2026-04-11T14:26:38.11Z</time></trkpt><trkpt lat="40.0219233" lon="18.1725617"><ele>147.5</ele><time>2026-04-11T14:26:39.11Z</time></trkpt><trkpt lat="40.0221317" lon="18.1727033"><ele>151.0</ele><time>2026-04-11T14:26:40.109Z</time></trkpt><trkpt lat="40.02234" lon="18.1728517"><ele>151.5</ele><time>2026-04-11T14:26:41.109Z</time></trkpt><trkpt lat="40.0225517" lon="18.1729967"><ele>152.0</ele><time>2026-04-11T14:26:42.109Z</time></trkpt><trkpt lat="40.0227617" lon="18.17314"><ele>152.0</ele><time>2026-04-11T14:26:43.109Z</time></trkpt><trkpt lat="40.0229767" lon="18.17328"><ele>152.0</ele><time>2026-04-11T14:26:44.109Z</time></trkpt><trkpt lat="40.0231983" lon="18.1734217"><ele>152.0</ele><time>2026-04-11T14:26:45.11Z</time></trkpt><trkpt lat="40.0234217" lon="18.1735633"><ele>152.0</ele><time>2026-04-11T14:26:46.11Z</time></trkpt><trkpt lat="40.0236483" lon="18.1737133"><ele>152.0</ele><time>2026-04-11T14:26:47.109Z</time></trkpt><trkpt lat="40.0238767" lon="18.173875"><ele>152.0</ele><time>2026-04-11T14:26:48.109Z</time></trkpt><trkpt lat="40.02411" lon="18.1740383"><ele>153.5</ele><time>2026-04-11T14:26:49.11Z</time></trkpt><trkpt lat="40.02435" lon="18.1742"><ele>155.0</ele><time>2026-04-11T14:26:50.109Z</time></trkpt><trkpt lat="40.0245933" lon="18.1743583"><ele>155.0</ele><time>2026-04-11T14:26:51.109Z</time></trkpt><trkpt lat="40.0248417" lon="18.1745183"><ele>155.0</ele><time>2026-04-11T14:26:52.109Z</time></trkpt><trkpt lat="40.0250917" lon="18.1746817"><ele>154.5</ele><time>2026-04-11T14:26:53.109Z</time></trkpt><trkpt lat="40.0253417" lon="18.1748483"><ele>154.0</ele><time>2026-04-11T14:26:54.109Z</time></trkpt><trkpt lat="40.0255917" lon="18.175015"><ele>155.0</ele><time>2026-04-11T14:26:55.109Z</time></trkpt><trkpt lat="40.0258433" lon="18.1751817"><ele>156.0</ele><time>2026-04-11T14:26:56.11Z</time></trkpt><trkpt lat="40.0260967" lon="18.1753483"><ele>156.0</ele><time>2026-04-11T14:26:57.11Z</time></trkpt><trkpt lat="40.0263533" lon="18.1755167"><ele>156.0</ele><time>2026-04-11T14:26:58.11Z</time></trkpt><trkpt lat="40.02661" lon="18.17569"><ele>155.5</ele><time>2026-04-11T14:26:59.11Z</time></trkpt><trkpt lat="40.026865" lon="18.1758683"><ele>155.0</ele><time>2026-04-11T14:27:00.109Z</time></trkpt><trkpt lat="40.027115" lon="18.1760583"><ele>155.0</ele><time>2026-04-11T14:27:01.11Z</time></trkpt><trkpt lat="40.0273617" lon="18.1762633"><ele>155.0</ele><time>2026-04-11T14:27:02.109Z</time></trkpt><trkpt lat="40.0276017" lon="18.1764883"><ele>155.5</ele><time>2026-04-11T14:27:03.11Z</time></trkpt><trkpt lat="40.0278317" lon="18.1767317"><ele>156.0</ele><time>2026-04-11T14:27:04.109Z</time></trkpt><trkpt lat="40.028055" lon="18.1769883"><ele>156.0</ele><time>2026-04-11T14:27:05.11Z</time></trkpt><trkpt lat="40.02827" lon="18.1772617"><ele>156.0</ele><time>2026-04-11T14:27:06.109Z</time></trkpt><trkpt lat="40.0284733" lon="18.1775483"><ele>156.5</ele><time>2026-04-11T14:27:07.11Z</time></trkpt><trkpt lat="40.0286633" lon="18.17785"><ele>157.0</ele><time>2026-04-11T14:27:08.11Z</time></trkpt><trkpt lat="40.0288417" lon="18.1781667"><ele>157.0</ele><time>2026-04-11T14:27:09.11Z</time></trkpt><trkpt lat="40.0290033" lon="18.178495"><ele>157.0</ele><time>2026-04-11T14:27:10.11Z</time></trkpt><trkpt lat="40.0291483" lon="18.1788367"><ele>157.5</ele><time>2026-04-11T14:27:11.11Z</time></trkpt><trkpt lat="40.0292817" lon="18.17919"><ele>158.0</ele><time>2026-04-11T14:27:12.11Z</time></trkpt><trkpt lat="40.0294017" lon="18.1795517"><ele>158.0</ele><time>2026-04-11T14:27:13.109Z</time></trkpt><trkpt lat="40.029515" lon="18.17992"><ele>158.0</ele><time>2026-04-11T14:27:14.109Z</time></trkpt><trkpt lat="40.0296267" lon="18.18029"><ele>158.0</ele><time>2026-04-11T14:27:15.109Z</time></trkpt><trkpt lat="40.0297383" lon="18.18066"><ele>158.0</ele><time>2026-04-11T14:27:16.109Z</time></trkpt><trkpt lat="40.02985" lon="18.1810317"><ele>158.0</ele><time>2026-04-11T14:27:17.11Z</time></trkpt><trkpt lat="40.0299633" lon="18.1814"><ele>158.0</ele><time>2026-04-11T14:27:18.11Z</time></trkpt><trkpt lat="40.0300767" lon="18.18177"><ele>157.5</ele><time>2026-04-11T14:27:19.109Z</time></trkpt><trkpt lat="40.0301867" lon="18.1821417"><ele>157.0</ele><time>2026-04-11T14:27:20.11Z</time></trkpt><trkpt lat="40.030295" lon="18.1825117"><ele>157.0</ele><time>2026-04-11T14:27:21.109Z</time></trkpt><trkpt lat="40.0304033" lon="18.1828817"><ele>157.0</ele><time>2026-04-11T14:27:22.109Z</time></trkpt><trkpt lat="40.0305117" lon="18.18325"><ele>157.0</ele><time>2026-04-11T14:27:23.109Z</time></trkpt><trkpt lat="40.0306233" lon="18.1836167"><ele>157.0</ele><time>2026-04-11T14:27:24.109Z</time></trkpt><trkpt lat="40.030735" lon="18.1839817"><ele>156.5</ele><time>2026-04-11T14:27:25.109Z</time></trkpt><trkpt lat="40.03085" lon="18.1843433"><ele>156.0</ele><time>2026-04-11T14:27:26.109Z</time></trkpt><trkpt lat="40.0309733" lon="18.1847"><ele>155.5</ele><time>2026-04-11T14:27:27.11Z</time></trkpt><trkpt lat="40.0311067" lon="18.18505"><ele>155.0</ele><time>2026-04-11T14:27:28.11Z</time></trkpt><trkpt lat="40.031255" lon="18.185395"><ele>155.0</ele><time>2026-04-11T14:27:29.109Z</time></trkpt><trkpt lat="40.0314083" lon="18.185735"><ele>155.0</ele><time>2026-04-11T14:27:30.109Z</time></trkpt><trkpt lat="40.0315667" lon="18.1860717"><ele>154.5</ele><time>2026-04-11T14:27:31.11Z</time></trkpt><trkpt lat="40.0317283" lon="18.186405"><ele>154.0</ele><time>2026-04-11T14:27:32.109Z</time></trkpt><trkpt lat="40.0318917" lon="18.1867417"><ele>153.5</ele><time>2026-04-11T14:27:33.109Z</time></trkpt><trkpt lat="40.032055" lon="18.1870783"><ele>153.0</ele><time>2026-04-11T14:27:34.11Z</time></trkpt><trkpt lat="40.03222" lon="18.1874167"><ele>152.0</ele><time>2026-04-11T14:27:35.109Z</time></trkpt><trkpt lat="40.03239" lon="18.187755"><ele>151.0</ele><time>2026-04-11T14:27:36.109Z</time></trkpt><trkpt lat="40.0325583" lon="18.1880933"><ele>150.5</ele><time>2026-04-11T14:27:37.109Z</time></trkpt><trkpt lat="40.032725" lon="18.1884317"><ele>150.0</ele><time>2026-04-11T14:27:38.109Z</time></trkpt><trkpt lat="40.03289" lon="18.1887683"><ele>149.0</ele><time>2026-04-11T14:27:39.11Z</time></trkpt><trkpt lat="40.0330517" lon="18.189105"><ele>148.0</ele><time>2026-04-11T14:27:40.109Z</time></trkpt><trkpt lat="40.0332117" lon="18.1894433"><ele>149.0</ele><time>2026-04-11T14:27:41.11Z</time></trkpt><trkpt lat="40.0333717" lon="18.18978"><ele>150.0</ele><time>2026-04-11T14:27:42.109Z</time></trkpt><trkpt lat="40.03353" lon="18.190115"><ele>148.0</ele><time>2026-04-11T14:27:43.11Z</time></trkpt><trkpt lat="40.0336867" lon="18.1904467"><ele>146.0</ele><time>2026-04-11T14:27:44.109Z</time></trkpt><trkpt lat="40.033845" lon="18.1907683"><ele>146.0</ele><time>2026-04-11T14:27:45.109Z</time></trkpt><trkpt lat="40.0340017" lon="18.1910683"><ele>146.0</ele><time>2026-04-11T14:27:46.11Z</time></trkpt><trkpt lat="40.0341633" lon="18.1913383"><ele>145.5</ele><time>2026-04-11T14:27:47.111Z</time></trkpt><trkpt lat="40.0343383" lon="18.1915833"><ele>145.0</ele><time>2026-04-11T14:27:48.11Z</time></trkpt><trkpt lat="40.0345267" lon="18.1918083"><ele>145.0</ele><time>2026-04-11T14:27:49.11Z</time></trkpt><trkpt lat="40.0347233" lon="18.1920133"><ele>145.0</ele><time>2026-04-11T14:27:50.11Z</time></trkpt><trkpt lat="40.0349233" lon="18.192195"><ele>146.0</ele><time>2026-04-11T14:27:51.111Z</time></trkpt><trkpt lat="40.0351283" lon="18.19236"><ele>147.0</ele><time>2026-04-11T14:27:52.11Z</time></trkpt><trkpt lat="40.0353367" lon="18.19251"><ele>147.0</ele><time>2026-04-11T14:27:53.111Z</time></trkpt><trkpt lat="40.03555" lon="18.19264"><ele>147.0</ele><time>2026-04-11T14:27:54.11Z</time></trkpt><trkpt lat="40.0357683" lon="18.1927533"><ele>147.5</ele><time>2026-04-11T14:27:55.11Z</time></trkpt><trkpt lat="40.035995" lon="18.1928483"><ele>148.0</ele><time>2026-04-11T14:27:56.111Z</time></trkpt><trkpt lat="40.0362267" lon="18.1929167"><ele>148.0</ele><time>2026-04-11T14:27:57.111Z</time></trkpt><trkpt lat="40.03646" lon="18.1929783"><ele>148.0</ele><time>2026-04-11T14:27:58.111Z</time></trkpt><trkpt lat="40.0366967" lon="18.1930167"><ele>147.5</ele><time>2026-04-11T14:27:59.111Z</time></trkpt><trkpt lat="40.0369383" lon="18.1930317"><ele>147.0</ele><time>2026-04-11T14:28:00.111Z</time></trkpt><trkpt lat="40.037185" lon="18.19303"><ele>147.0</ele><time>2026-04-11T14:28:01.11Z</time></trkpt><trkpt lat="40.0374367" lon="18.1930067"><ele>147.0</ele><time>2026-04-11T14:28:02.11Z</time></trkpt><trkpt lat="40.0376933" lon="18.1929617"><ele>147.5</ele><time>2026-04-11T14:28:03.11Z</time></trkpt><trkpt lat="40.0379583" lon="18.1928867"><ele>148.0</ele><time>2026-04-11T14:28:04.11Z</time></trkpt><trkpt lat="40.0382317" lon="18.192795"><ele>147.5</ele><time>2026-04-11T14:28:05.111Z</time></trkpt><trkpt lat="40.0385117" lon="18.1926917"><ele>147.0</ele><time>2026-04-11T14:28:06.11Z</time></trkpt><trkpt lat="40.038795" lon="18.192585"><ele>147.0</ele><time>2026-04-11T14:28:07.11Z</time></trkpt><trkpt lat="40.0390833" lon="18.19248"><ele>147.0</ele><time>2026-04-11T14:28:08.11Z</time></trkpt><trkpt lat="40.0393733" lon="18.1923767"><ele>147.0</ele><time>2026-04-11T14:28:09.11Z</time></trkpt><trkpt lat="40.0396717" lon="18.1922733"><ele>147.0</ele><time>2026-04-11T14:28:10.11Z</time></trkpt><trkpt lat="40.03997" lon="18.1921667"><ele>147.0</ele><time>2026-04-11T14:28:11.11Z</time></trkpt><trkpt lat="40.04027" lon="18.1920567"><ele>147.0</ele><time>2026-04-11T14:28:12.111Z</time></trkpt><trkpt lat="40.0405667" lon="18.1919467"><ele>146.5</ele><time>2026-04-11T14:28:13.11Z</time></trkpt><trkpt lat="40.040865" lon="18.1918333"><ele>146.0</ele><time>2026-04-11T14:28:14.111Z</time></trkpt><trkpt lat="40.0411633" lon="18.19172"><ele>146.0</ele><time>2026-04-11T14:28:15.11Z</time></trkpt><trkpt lat="40.04146" lon="18.1916067"><ele>146.0</ele><time>2026-04-11T14:28:16.111Z</time></trkpt><trkpt lat="40.04176" lon="18.1914967"><ele>146.0</ele><time>2026-04-11T14:28:17.11Z</time></trkpt><trkpt lat="40.04206" lon="18.19139"><ele>146.0</ele><time>2026-04-11T14:28:18.111Z</time></trkpt><trkpt lat="40.04236" lon="18.1912817"><ele>146.0</ele><time>2026-04-11T14:28:19.111Z</time></trkpt><trkpt lat="40.0426633" lon="18.1911683"><ele>146.0</ele><time>2026-04-11T14:28:20.111Z</time></trkpt><trkpt lat="40.042965" lon="18.1910517"><ele>146.0</ele><time>2026-04-11T14:28:21.11Z</time></trkpt><trkpt lat="40.0432683" lon="18.1909367"><ele>146.0</ele><time>2026-04-11T14:28:22.11Z</time></trkpt><trkpt lat="40.0435733" lon="18.1908233"><ele>145.5</ele><time>2026-04-11T14:28:23.11Z</time></trkpt><trkpt lat="40.04388" lon="18.19071"><ele>145.0</ele><time>2026-04-11T14:28:24.111Z</time></trkpt><trkpt lat="40.044185" lon="18.1906"><ele>144.0</ele><time>2026-04-11T14:28:25.111Z</time></trkpt><trkpt lat="40.0444917" lon="18.1905"><ele>143.0</ele><time>2026-04-11T14:28:26.111Z</time></trkpt><trkpt lat="40.0447967" lon="18.1903933"><ele>143.0</ele><time>2026-04-11T14:28:27.111Z</time></trkpt><trkpt lat="40.0451017" lon="18.190285"><ele>143.0</ele><time>2026-04-11T14:28:28.11Z</time></trkpt><trkpt lat="40.04541" lon="18.19017"><ele>143.0</ele><time>2026-04-11T14:28:29.111Z</time></trkpt><trkpt lat="40.0457183" lon="18.1900533"><ele>143.0</ele><time>2026-04-11T14:28:30.11Z</time></trkpt><trkpt lat="40.046025" lon="18.1899383"><ele>142.0</ele><time>2026-04-11T14:28:31.111Z</time></trkpt><trkpt lat="40.04633" lon="18.1898233"><ele>141.0</ele><time>2026-04-11T14:28:32.111Z</time></trkpt><trkpt lat="40.04663" lon="18.1897083"><ele>141.0</ele><time>2026-04-11T14:28:33.11Z</time></trkpt><trkpt lat="40.0469333" lon="18.1895917"><ele>141.0</ele><time>2026-04-11T14:28:34.111Z</time></trkpt><trkpt lat="40.0472367" lon="18.1894733"><ele>141.5</ele><time>2026-04-11T14:28:35.111Z</time></trkpt><trkpt lat="40.0475383" lon="18.1893583"><ele>142.0</ele><time>2026-04-11T14:28:36.11Z</time></trkpt><trkpt lat="40.0478383" lon="18.189245"><ele>142.0</ele><time>2026-04-11T14:28:37.11Z</time></trkpt><trkpt lat="40.04814" lon="18.1891283"><ele>142.0</ele><time>2026-04-11T14:28:38.11Z</time></trkpt><trkpt lat="40.04844" lon="18.1890133"><ele>141.5</ele><time>2026-04-11T14:28:39.111Z</time></trkpt><trkpt lat="40.0487417" lon="18.1888967"><ele>141.0</ele><time>2026-04-11T14:28:40.11Z</time></trkpt><trkpt lat="40.04904" lon="18.1887833"><ele>140.5</ele><time>2026-04-11T14:28:41.111Z</time></trkpt><trkpt lat="40.0493383" lon="18.18867"><ele>140.0</ele><time>2026-04-11T14:28:42.111Z</time></trkpt><trkpt lat="40.0496383" lon="18.1885583"><ele>140.0</ele><time>2026-04-11T14:28:43.111Z</time></trkpt><trkpt lat="40.0499383" lon="18.1884467"><ele>140.0</ele><time>2026-04-11T14:28:44.111Z</time></trkpt><trkpt lat="40.0502383" lon="18.1883367"><ele>139.5</ele><time>2026-04-11T14:28:45.11Z</time></trkpt><trkpt lat="40.05054" lon="18.1882267"><ele>139.0</ele><time>2026-04-11T14:28:46.111Z</time></trkpt><trkpt lat="40.05084" lon="18.1881167"><ele>139.0</ele><time>2026-04-11T14:28:47.11Z</time></trkpt><trkpt lat="40.05114" lon="18.188005"><ele>139.0</ele><time>2026-04-11T14:28:48.11Z</time></trkpt><trkpt lat="40.05144" lon="18.1878917"><ele>139.0</ele><time>2026-04-11T14:28:49.11Z</time></trkpt><trkpt lat="40.05174" lon="18.1877767"><ele>139.0</ele><time>2026-04-11T14:28:50.11Z</time></trkpt><trkpt lat="40.0520383" lon="18.187665"><ele>139.0</ele><time>2026-04-11T14:28:51.11Z</time></trkpt><trkpt lat="40.0523383" lon="18.1875617"><ele>139.0</ele><time>2026-04-11T14:28:52.11Z</time></trkpt><trkpt lat="40.0526383" lon="18.187465"><ele>139.0</ele><time>2026-04-11T14:28:53.111Z</time></trkpt><trkpt lat="40.05294" lon="18.187385"><ele>139.0</ele><time>2026-04-11T14:28:54.111Z</time></trkpt><trkpt lat="40.0532467" lon="18.1873333"><ele>137.5</ele><time>2026-04-11T14:28:55.11Z</time></trkpt><trkpt lat="40.0535533" lon="18.1872967"><ele>136.0</ele><time>2026-04-11T14:28:56.11Z</time></trkpt><trkpt lat="40.05386" lon="18.1872817"><ele>134.5</ele><time>2026-04-11T14:28:57.11Z</time></trkpt><trkpt lat="40.0541667" lon="18.187285"><ele>133.0</ele><time>2026-04-11T14:28:58.11Z</time></trkpt><trkpt lat="40.0544717" lon="18.187315"><ele>132.5</ele><time>2026-04-11T14:28:59.11Z</time></trkpt><trkpt lat="40.054775" lon="18.1873683"><ele>132.0</ele><time>2026-04-11T14:29:00.111Z</time></trkpt><trkpt lat="40.055075" lon="18.18744"><ele>131.5</ele><time>2026-04-11T14:29:01.111Z</time></trkpt><trkpt lat="40.0553717" lon="18.187525"><ele>131.0</ele><time>2026-04-11T14:29:02.111Z</time></trkpt><trkpt lat="40.0556667" lon="18.187615"><ele>132.5</ele><time>2026-04-11T14:29:03.11Z</time></trkpt><trkpt lat="40.0559617" lon="18.1877083"><ele>134.0</ele><time>2026-04-11T14:29:04.11Z</time></trkpt><trkpt lat="40.056255" lon="18.187805"><ele>134.0</ele><time>2026-04-11T14:29:05.11Z</time></trkpt><trkpt lat="40.0565483" lon="18.1878983"><ele>134.0</ele><time>2026-04-11T14:29:06.111Z</time></trkpt><trkpt lat="40.0568417" lon="18.1879933"><ele>133.5</ele><time>2026-04-11T14:29:07.11Z</time></trkpt><trkpt lat="40.057135" lon="18.18809"><ele>133.0</ele><time>2026-04-11T14:29:08.111Z</time></trkpt><trkpt lat="40.0574283" lon="18.1881867"><ele>133.0</ele><time>2026-04-11T14:29:09.11Z</time></trkpt><trkpt lat="40.0577217" lon="18.1882833"><ele>133.0</ele><time>2026-04-11T14:29:10.11Z</time></trkpt><trkpt lat="40.0580167" lon="18.18838"><ele>132.5</ele><time>2026-04-11T14:29:11.11Z</time></trkpt><trkpt lat="40.05831" lon="18.188475"><ele>132.0</ele><time>2026-04-11T14:29:12.111Z</time></trkpt><trkpt lat="40.0586033" lon="18.18857"><ele>132.0</ele><time>2026-04-11T14:29:13.11Z</time></trkpt><trkpt lat="40.058895" lon="18.1886633"><ele>132.0</ele><time>2026-04-11T14:29:14.11Z</time></trkpt><trkpt lat="40.0591883" lon="18.1887583"><ele>131.5</ele><time>2026-04-11T14:29:15.111Z</time></trkpt><trkpt lat="40.0594817" lon="18.1888567"><ele>131.0</ele><time>2026-04-11T14:29:16.111Z</time></trkpt><trkpt lat="40.0597767" lon="18.1889533"><ele>129.5</ele><time>2026-04-11T14:29:17.11Z</time></trkpt><trkpt lat="40.0600717" lon="18.1890483"><ele>128.0</ele><time>2026-04-11T14:29:18.111Z</time></trkpt><trkpt lat="40.0603683" lon="18.1891433"><ele>128.0</ele><time>2026-04-11T14:29:19.11Z</time></trkpt><trkpt lat="40.060665" lon="18.1892383"><ele>128.0</ele><time>2026-04-11T14:29:20.11Z</time></trkpt><trkpt lat="40.06096" lon="18.189335"><ele>128.0</ele><time>2026-04-11T14:29:21.11Z</time></trkpt><trkpt lat="40.0612533" lon="18.1894317"><ele>128.0</ele><time>2026-04-11T14:29:22.11Z</time></trkpt><trkpt lat="40.0615483" lon="18.1895267"><ele>127.0</ele><time>2026-04-11T14:29:23.11Z</time></trkpt><trkpt lat="40.06184" lon="18.1896233"><ele>126.0</ele><time>2026-04-11T14:29:24.111Z</time></trkpt><trkpt lat="40.0621333" lon="18.1897183"><ele>126.0</ele><time>2026-04-11T14:29:25.111Z</time></trkpt><trkpt lat="40.062425" lon="18.1898133"><ele>126.0</ele><time>2026-04-11T14:29:26.11Z</time></trkpt><trkpt lat="40.0627183" lon="18.18991"><ele>125.5</ele><time>2026-04-11T14:29:27.111Z</time></trkpt><trkpt lat="40.0630083" lon="18.1900083"><ele>125.0</ele><time>2026-04-11T14:29:28.111Z</time></trkpt><trkpt lat="40.0632983" lon="18.1901067"><ele>125.0</ele><time>2026-04-11T14:29:29.11Z</time></trkpt><trkpt lat="40.06359" lon="18.1902033"><ele>125.0</ele><time>2026-04-11T14:29:30.11Z</time></trkpt><trkpt lat="40.0638833" lon="18.1902983"><ele>123.5</ele><time>2026-04-11T14:29:31.111Z</time></trkpt><trkpt lat="40.0641733" lon="18.1903933"><ele>122.0</ele><time>2026-04-11T14:29:32.11Z</time></trkpt><trkpt lat="40.0644617" lon="18.1904883"><ele>122.0</ele><time>2026-04-11T14:29:33.11Z</time></trkpt><trkpt lat="40.0647517" lon="18.1905817"><ele>122.0</ele><time>2026-04-11T14:29:34.111Z</time></trkpt><trkpt lat="40.0650417" lon="18.190675"><ele>121.0</ele><time>2026-04-11T14:29:35.111Z</time></trkpt><trkpt lat="40.0653317" lon="18.190765"><ele>120.0</ele><time>2026-04-11T14:29:36.11Z</time></trkpt><trkpt lat="40.0656083" lon="18.19085"><ele>120.5</ele><time>2026-04-11T14:29:37.111Z</time></trkpt><trkpt lat="40.06587" lon="18.1909333"><ele>121.0</ele><time>2026-04-11T14:29:38.111Z</time></trkpt><trkpt lat="40.0661183" lon="18.1910117"><ele>121.0</ele><time>2026-04-11T14:29:39.111Z</time></trkpt><trkpt lat="40.0663633" lon="18.1910917"><ele>121.0</ele><time>2026-04-11T14:29:40.111Z</time></trkpt><trkpt lat="40.0666067" lon="18.1911667"><ele>120.0</ele><time>2026-04-11T14:29:41.11Z</time></trkpt><trkpt lat="40.0668433" lon="18.1912383"><ele>119.0</ele><time>2026-04-11T14:29:42.111Z</time></trkpt><trkpt lat="40.0670667" lon="18.1913033"><ele>119.0</ele><time>2026-04-11T14:29:43.11Z</time></trkpt><trkpt lat="40.0672733" lon="18.19136"><ele>119.0</ele><time>2026-04-11T14:29:44.11Z</time></trkpt><trkpt lat="40.0674617" lon="18.1914"><ele>119.0</ele><time>2026-04-11T14:29:45.11Z</time></trkpt><trkpt lat="40.06764" lon="18.1914233"><ele>118.75</ele><time>2026-04-11T14:29:46.11Z</time></trkpt><trkpt lat="40.067765" lon="18.1914217"><ele>118.5</ele><time>2026-04-11T14:29:47.11Z</time></trkpt><trkpt lat="40.0678967" lon="18.1914267"><ele>118.25</ele><time>2026-04-11T14:29:48.111Z</time></trkpt><trkpt lat="40.0680067" lon="18.1914383"><ele>118.0</ele><time>2026-04-11T14:29:49.111Z</time></trkpt><trkpt lat="40.068105" lon="18.1914667"><ele>118.0</ele><time>2026-04-11T14:29:50.111Z</time></trkpt><trkpt lat="40.0682" lon="18.1915183"><ele>118.00000000000001</ele><time>2026-04-11T14:29:51.111Z</time></trkpt><trkpt lat="40.0682833" lon="18.191585"><ele>118.00000000000001</ele><time>2026-04-11T14:29:52.111Z</time></trkpt><trkpt lat="40.06836" lon="18.191665"><ele>118.0</ele><time>2026-04-11T14:29:53.111Z</time></trkpt><trkpt lat="40.06842" lon="18.1917717"><ele>118.0</ele><time>2026-04-11T14:29:54.11Z</time></trkpt><trkpt lat="40.06846" lon="18.1919067"><ele>117.25</ele><time>2026-04-11T14:29:55.111Z</time></trkpt><trkpt lat="40.0684983" lon="18.1920383"><ele>116.5</ele><time>2026-04-11T14:29:56.11Z</time></trkpt><trkpt lat="40.068535" lon="18.1921817"><ele>115.75</ele><time>2026-04-11T14:29:57.111Z</time></trkpt><trkpt lat="40.0685667" lon="18.1923367"><ele>115.0</ele><time>2026-04-11T14:29:58.11Z</time></trkpt><trkpt lat="40.0686033" lon="18.1925017"><ele>114.25</ele><time>2026-04-11T14:29:59.11Z</time></trkpt><trkpt lat="40.0686367" lon="18.1926717"><ele>113.5</ele><time>2026-04-11T14:30:00.11Z</time></trkpt><trkpt lat="40.0686733" lon="18.19285"><ele>112.75</ele><time>2026-04-11T14:30:01.11Z</time></trkpt><trkpt lat="40.0687133" lon="18.193035"><ele>112.0</ele><time>2026-04-11T14:30:02.11Z</time></trkpt><trkpt lat="40.0687517" lon="18.19323"><ele>110.66666666666667</ele><time>2026-04-11T14:30:03.11Z</time></trkpt><trkpt lat="40.068785" lon="18.1934317"><ele>109.33333333333334</ele><time>2026-04-11T14:30:04.11Z</time></trkpt><trkpt lat="40.06881" lon="18.193645"><ele>108.0</ele><time>2026-04-11T14:30:05.11Z</time></trkpt><trkpt lat="40.0688417" lon="18.1938617"><ele>107.33333333333334</ele><time>2026-04-11T14:30:06.111Z</time></trkpt><trkpt lat="40.068875" lon="18.1940833"><ele>106.66666666666667</ele><time>2026-04-11T14:30:07.11Z</time></trkpt><trkpt lat="40.0689083" lon="18.19431"><ele>106.0</ele><time>2026-04-11T14:30:08.11Z</time></trkpt><trkpt lat="40.0689417" lon="18.1945433"><ele>106.0</ele><time>2026-04-11T14:30:09.11Z</time></trkpt><trkpt lat="40.0689767" lon="18.1947783"><ele>106.0</ele><time>2026-04-11T14:30:10.111Z</time></trkpt><trkpt lat="40.0690083" lon="18.1950167"><ele>106.0</ele><time>2026-04-11T14:30:11.111Z</time></trkpt><trkpt lat="40.06904" lon="18.1952567"><ele>106.0</ele><time>2026-04-11T14:30:12.111Z</time></trkpt><trkpt lat="40.0690683" lon="18.1954833"><ele>106.0</ele><time>2026-04-11T14:30:13.111Z</time></trkpt><trkpt lat="40.06911" lon="18.195695"><ele>106.0</ele><time>2026-04-11T14:30:14.11Z</time></trkpt><trkpt lat="40.06914" lon="18.1958883"><ele>106.0</ele><time>2026-04-11T14:30:15.111Z</time></trkpt><trkpt lat="40.069165" lon="18.196075"><ele>106.0</ele><time>2026-04-11T14:30:16.111Z</time></trkpt><trkpt lat="40.06919" lon="18.1962667"><ele>106.0</ele><time>2026-04-11T14:30:17.11Z</time></trkpt><trkpt lat="40.069215" lon="18.1964383"><ele>106.0</ele><time>2026-04-11T14:30:18.11Z</time></trkpt><trkpt lat="40.069235" lon="18.19658"><ele>106.00000000000001</ele><time>2026-04-11T14:30:19.111Z</time></trkpt><trkpt lat="40.06925" lon="18.1966983"><ele>106.0</ele><time>2026-04-11T14:30:20.11Z</time></trkpt><trkpt lat="40.0692617" lon="18.1968"><ele>106.0</ele><time>2026-04-11T14:30:21.111Z</time></trkpt><trkpt lat="40.0692767" lon="18.1968967"><ele>106.0</ele><time>2026-04-11T14:30:22.111Z</time></trkpt><trkpt lat="40.069295" lon="18.1969867"><ele>106.00000000000001</ele><time>2026-04-11T14:30:23.11Z</time></trkpt><trkpt lat="40.0693183" lon="18.1971167"><ele>106.0</ele><time>2026-04-11T14:30:25.11Z</time></trkpt><trkpt lat="40.0693617" lon="18.1971967"><ele>106.00000000000001</ele><time>2026-04-11T14:30:27.11Z</time></trkpt><trkpt lat="40.069425" lon="18.1972417"><ele>106.0</ele><time>2026-04-11T14:30:29.11Z</time></trkpt><trkpt lat="40.0694967" lon="18.1972167"><ele>106.0</ele><time>2026-04-11T14:30:32.11Z</time></trkpt><trkpt lat="40.0694983" lon="18.1971233"><ele>106.0</ele><time>2026-04-11T14:30:34.11Z</time></trkpt><trkpt lat="40.069485" lon="18.1969867"><ele>106.00000000000001</ele><time>2026-04-11T14:30:36.111Z</time></trkpt><trkpt lat="40.0694833" lon="18.196855"><ele>106.0</ele><time>2026-04-11T14:30:38.111Z</time></trkpt><trkpt lat="40.06952" lon="18.196735"><ele>106.00000000000001</ele><time>2026-04-11T14:30:40.11Z</time></trkpt><trkpt lat="40.0696117" lon="18.1966433"><ele>106.0</ele><time>2026-04-11T14:30:42.11Z</time></trkpt><trkpt lat="40.0696733" lon="18.196605"><ele>106.0</ele><time>2026-04-11T14:30:43.11Z</time></trkpt><trkpt lat="40.0697567" lon="18.1965967"><ele>106.0</ele><time>2026-04-11T14:30:44.111Z</time></trkpt><trkpt lat="40.0698267" lon="18.1965183"><ele>106.00000000000001</ele><time>2026-04-11T14:30:45.11Z</time></trkpt><trkpt lat="40.0699017" lon="18.1964717"><ele>106.0</ele><time>2026-04-11T14:30:46.11Z</time></trkpt><trkpt lat="40.069965" lon="18.1964417"><ele>106.8</ele><time>2026-04-11T14:30:47.111Z</time></trkpt><trkpt lat="40.0700283" lon="18.1964267"><ele>107.6</ele><time>2026-04-11T14:30:48.111Z</time></trkpt><trkpt lat="40.070105" lon="18.1964167"><ele>108.4</ele><time>2026-04-11T14:30:49.11Z</time></trkpt><trkpt lat="40.0702017" lon="18.1964083"><ele>109.2</ele><time>2026-04-11T14:30:50.111Z</time></trkpt><trkpt lat="40.07031" lon="18.1963933"><ele>110.0</ele><time>2026-04-11T14:30:51.11Z</time></trkpt><trkpt lat="40.0704183" lon="18.196365"><ele>110.0</ele><time>2026-04-11T14:30:52.11Z</time></trkpt><trkpt lat="40.0705183" lon="18.1963433"><ele>110.0</ele><time>2026-04-11T14:30:53.111Z</time></trkpt><trkpt lat="40.0706133" lon="18.1963233"><ele>110.0</ele><time>2026-04-11T14:30:54.11Z</time></trkpt><trkpt lat="40.0707033" lon="18.196305"><ele>110.0</ele><time>2026-04-11T14:30:55.11Z</time></trkpt><trkpt lat="40.0707883" lon="18.1962617"><ele>110.0</ele><time>2026-04-11T14:30:56.11Z</time></trkpt><trkpt lat="40.0708733" lon="18.196215"><ele>110.4</ele><time>2026-04-11T14:30:57.111Z</time></trkpt><trkpt lat="40.0709567" lon="18.1961617"><ele>110.8</ele><time>2026-04-11T14:30:58.111Z</time></trkpt><trkpt lat="40.0710317" lon="18.1960783"><ele>111.19999999999999</ele><time>2026-04-11T14:30:59.11Z</time></trkpt><trkpt lat="40.07111" lon="18.1959867"><ele>111.6</ele><time>2026-04-11T14:31:00.11Z</time></trkpt><trkpt lat="40.0711833" lon="18.1958967"><ele>112.0</ele><time>2026-04-11T14:31:01.111Z</time></trkpt><trkpt lat="40.0712483" lon="18.195855"><ele>112.00000000000001</ele><time>2026-04-11T14:31:02.11Z</time></trkpt><trkpt lat="40.0713317" lon="18.1958417"><ele>112.0</ele><time>2026-04-11T14:31:04.11Z</time></trkpt><trkpt lat="40.071405" lon="18.1958817"><ele>112.0</ele><time>2026-04-11T14:31:06.11Z</time></trkpt><trkpt lat="40.071485" lon="18.1958283"><ele>112.0</ele><time>2026-04-11T14:31:08.11Z</time></trkpt><trkpt lat="40.0715733" lon="18.1957367"><ele>112.00000000000001</ele><time>2026-04-11T14:31:10.11Z</time></trkpt><trkpt lat="40.0716267" lon="18.1956833"><ele>112.0</ele><time>2026-04-11T14:31:11.111Z</time></trkpt><trkpt lat="40.0716817" lon="18.1956333"><ele>112.00000000000001</ele><time>2026-04-11T14:31:12.11Z</time></trkpt><trkpt lat="40.0717267" lon="18.195575"><ele>112.0</ele><time>2026-04-11T14:31:13.11Z</time></trkpt><trkpt lat="40.0717767" lon="18.1955233"><ele>112.0</ele><time>2026-04-11T14:31:14.111Z</time></trkpt><trkpt lat="40.07184" lon="18.1954167"><ele>112.0</ele><time>2026-04-11T14:31:16.11Z</time></trkpt><trkpt lat="40.071875" lon="18.1952717"><ele>112.00000000000001</ele><time>2026-04-11T14:31:18.11Z</time></trkpt><trkpt lat="40.0718717" lon="18.195185"><ele>112.0</ele><time>2026-04-11T14:31:19.11Z</time></trkpt><trkpt lat="40.0719017" lon="18.195035"><ele>112.00000000000001</ele><time>2026-04-11T14:31:21.111Z</time></trkpt><trkpt lat="40.07199" lon="18.194935"><ele>112.0</ele><time>2026-04-11T14:31:23.11Z</time></trkpt><trkpt lat="40.0720567" lon="18.1949083"><ele>112.0</ele><time>2026-04-11T14:31:24.11Z</time></trkpt><trkpt lat="40.072135" lon="18.1948867"><ele>112.0</ele><time>2026-04-11T14:31:25.11Z</time></trkpt><trkpt lat="40.07221" lon="18.19486"><ele>112.00000000000001</ele><time>2026-04-11T14:31:26.111Z</time></trkpt><trkpt lat="40.0722867" lon="18.1948383"><ele>112.0</ele><time>2026-04-11T14:31:27.111Z</time></trkpt><trkpt lat="40.0723733" lon="18.1948233"><ele>112.8</ele><time>2026-04-11T14:31:28.111Z</time></trkpt><trkpt lat="40.0724717" lon="18.1948117"><ele>113.6</ele><time>2026-04-11T14:31:29.111Z</time></trkpt><trkpt lat="40.07256" lon="18.1947767"><ele>114.39999999999999</ele><time>2026-04-11T14:31:30.11Z</time></trkpt><trkpt lat="40.0726567" lon="18.1947267"><ele>115.19999999999999</ele><time>2026-04-11T14:31:31.11Z</time></trkpt><trkpt lat="40.0727583" lon="18.194685"><ele>116.0</ele><time>2026-04-11T14:31:32.11Z</time></trkpt><trkpt lat="40.072855" lon="18.1946417"><ele>116.0</ele><time>2026-04-11T14:31:33.11Z</time></trkpt><trkpt lat="40.07295" lon="18.1946"><ele>116.0</ele><time>2026-04-11T14:31:34.11Z</time></trkpt><trkpt lat="40.07304" lon="18.1945317"><ele>116.0</ele><time>2026-04-11T14:31:35.111Z</time></trkpt><trkpt lat="40.0731317" lon="18.194445"><ele>116.0</ele><time>2026-04-11T14:31:36.111Z</time></trkpt><trkpt lat="40.0732433" lon="18.1943567"><ele>116.0</ele><time>2026-04-11T14:31:37.11Z</time></trkpt><trkpt lat="40.07336" lon="18.194255"><ele>115.75</ele><time>2026-04-11T14:31:38.11Z</time></trkpt><trkpt lat="40.0734817" lon="18.194155"><ele>115.5</ele><time>2026-04-11T14:31:39.11Z</time></trkpt><trkpt lat="40.0735633" lon="18.194035"><ele>115.25</ele><time>2026-04-11T14:31:40.111Z</time></trkpt><trkpt lat="40.0736733" lon="18.1939583"><ele>115.0</ele><time>2026-04-11T14:31:41.111Z</time></trkpt><trkpt lat="40.07379" lon="18.1938833"><ele>115.0</ele><time>2026-04-11T14:31:42.111Z</time></trkpt><trkpt lat="40.073895" lon="18.193795"><ele>115.0</ele><time>2026-04-11T14:31:43.111Z</time></trkpt><trkpt lat="40.0739967" lon="18.1937117"><ele>115.0</ele><time>2026-04-11T14:31:44.111Z</time></trkpt><trkpt lat="40.074085" lon="18.19363"><ele>115.0</ele><time>2026-04-11T14:31:45.11Z</time></trkpt><trkpt lat="40.0741633" lon="18.1935617"><ele>115.0</ele><time>2026-04-11T14:31:46.111Z</time></trkpt><trkpt lat="40.0742317" lon="18.193495"><ele>115.00000000000001</ele><time>2026-04-11T14:31:47.111Z</time></trkpt><trkpt lat="40.0742767" lon="18.1934083"><ele>115.0</ele><time>2026-04-11T14:31:48.111Z</time></trkpt><trkpt lat="40.0742783" lon="18.1933233"><ele>115.0</ele><time>2026-04-11T14:31:49.11Z</time></trkpt><trkpt lat="40.0743583" lon="18.1932833"><ele>115.0</ele><time>2026-04-11T14:31:50.11Z</time></trkpt><trkpt lat="40.0743867" lon="18.1931283"><ele>115.00000000000001</ele><time>2026-04-11T14:31:52.111Z</time></trkpt><trkpt lat="40.07437" lon="18.1930317"><ele>115.0</ele><time>2026-04-11T14:31:53.11Z</time></trkpt><trkpt lat="40.0743333" lon="18.19292"><ele>115.0</ele><time>2026-04-11T14:31:54.11Z</time></trkpt><trkpt lat="40.074295" lon="18.1928133"><ele>115.0</ele><time>2026-04-11T14:31:55.11Z</time></trkpt><trkpt lat="40.074255" lon="18.192705"><ele>115.0</ele><time>2026-04-11T14:31:56.11Z</time></trkpt><trkpt lat="40.0742217" lon="18.192595"><ele>115.0</ele><time>2026-04-11T14:31:57.109Z</time></trkpt><trkpt lat="40.0741867" lon="18.192485"><ele>115.0</ele><time>2026-04-11T14:31:58.109Z</time></trkpt><trkpt lat="40.0741517" lon="18.19238"><ele>115.00000000000001</ele><time>2026-04-11T14:31:59.109Z</time></trkpt><trkpt lat="40.0741217" lon="18.192285"><ele>115.0</ele><time>2026-04-11T14:32:00.109Z</time></trkpt><trkpt lat="40.0741" lon="18.192205"><ele>115.0</ele><time>2026-04-11T14:32:01.109Z</time></trkpt><trkpt lat="40.0741" lon="18.1920517"><ele>115.0</ele><time>2026-04-11T14:32:03.109Z</time></trkpt><trkpt lat="40.07418" lon="18.1919383"><ele>115.00000000000001</ele><time>2026-04-11T14:32:05.109Z</time></trkpt><trkpt lat="40.0742367" lon="18.191895"><ele>115.0</ele><time>2026-04-11T14:32:06.109Z</time></trkpt><trkpt lat="40.0743017" lon="18.19185"><ele>115.2</ele><time>2026-04-11T14:32:07.109Z</time></trkpt><trkpt lat="40.0743717" lon="18.1918"><ele>115.4</ele><time>2026-04-11T14:32:08.11Z</time></trkpt><trkpt lat="40.0744533" lon="18.1917433"><ele>115.6</ele><time>2026-04-11T14:32:09.109Z</time></trkpt><trkpt lat="40.07454" lon="18.1916783"><ele>115.8</ele><time>2026-04-11T14:32:10.11Z</time></trkpt><trkpt lat="40.07463" lon="18.191615"><ele>116.0</ele><time>2026-04-11T14:32:11.11Z</time></trkpt><trkpt lat="40.0747267" lon="18.19155"><ele>116.0</ele><time>2026-04-11T14:32:12.109Z</time></trkpt><trkpt lat="40.0748267" lon="18.1914817"><ele>116.0</ele><time>2026-04-11T14:32:13.109Z</time></trkpt><trkpt lat="40.074925" lon="18.19142"><ele>116.0</ele><time>2026-04-11T14:32:14.11Z</time></trkpt><trkpt lat="40.0750267" lon="18.19137"><ele>116.0</ele><time>2026-04-11T14:32:15.109Z</time></trkpt><trkpt lat="40.0751333" lon="18.1913317"><ele>116.0</ele><time>2026-04-11T14:32:16.109Z</time></trkpt><trkpt lat="40.07525" lon="18.1913"><ele>116.0</ele><time>2026-04-11T14:32:17.109Z</time></trkpt><trkpt lat="40.0753783" lon="18.19127"><ele>116.0</ele><time>2026-04-11T14:32:18.11Z</time></trkpt><trkpt lat="40.0754967" lon="18.1912417"><ele>116.0</ele><time>2026-04-11T14:32:19.11Z</time></trkpt><trkpt lat="40.0755817" lon="18.1912217"><ele>116.0</ele><time>2026-04-11T14:32:20.11Z</time></trkpt><trkpt lat="40.0756817" lon="18.1912033"><ele>116.0</ele><time>2026-04-11T14:32:22.109Z</time></trkpt><trkpt lat="40.0757533" lon="18.1911917"><ele>115.83333333333333</ele><time>2026-04-11T14:32:24.109Z</time></trkpt><trkpt lat="40.07583" lon="18.1911767"><ele>115.66666666666666</ele><time>2026-04-11T14:32:26.109Z</time></trkpt><trkpt lat="40.0759083" lon="18.1911633"><ele>115.5</ele><time>2026-04-11T14:32:28.109Z</time></trkpt><trkpt lat="40.076025" lon="18.1911433"><ele>115.33333333333334</ele><time>2026-04-11T14:32:30.109Z</time></trkpt><trkpt lat="40.0760983" lon="18.1911317"><ele>115.16666666666667</ele><time>2026-04-11T14:32:31.11Z</time></trkpt><trkpt lat="40.0761733" lon="18.1911217"><ele>115.0</ele><time>2026-04-11T14:32:32.109Z</time></trkpt><trkpt lat="40.0762367" lon="18.191105"><ele>115.0</ele><time>2026-04-11T14:32:33.109Z</time></trkpt><trkpt lat="40.0763283" lon="18.1910367"><ele>115.0</ele><time>2026-04-11T14:32:35.109Z</time></trkpt><trkpt lat="40.07637" lon="18.1909083"><ele>115.0</ele><time>2026-04-11T14:32:37.109Z</time></trkpt><trkpt lat="40.076405" lon="18.1907967"><ele>115.0</ele><time>2026-04-11T14:32:39.109Z</time></trkpt><trkpt lat="40.0764917" lon="18.1907267"><ele>115.0</ele><time>2026-04-11T14:32:41.11Z</time></trkpt><trkpt lat="40.076555" lon="18.1906967"><ele>115.25</ele><time>2026-04-11T14:32:42.11Z</time></trkpt><trkpt lat="40.0766317" lon="18.1906567"><ele>115.5</ele><time>2026-04-11T14:32:43.109Z</time></trkpt><trkpt lat="40.0767383" lon="18.1905983"><ele>115.75</ele><time>2026-04-11T14:32:44.109Z</time></trkpt><trkpt lat="40.07686" lon="18.1905333"><ele>116.0</ele><time>2026-04-11T14:32:45.109Z</time></trkpt><trkpt lat="40.0769783" lon="18.1904667"><ele>116.0</ele><time>2026-04-11T14:32:46.11Z</time></trkpt><trkpt lat="40.077075" lon="18.1904067"><ele>116.0</ele><time>2026-04-11T14:32:47.11Z</time></trkpt><trkpt lat="40.07715" lon="18.1903617"><ele>116.0</ele><time>2026-04-11T14:32:48.109Z</time></trkpt><trkpt lat="40.0772367" lon="18.1903083"><ele>116.0</ele><time>2026-04-11T14:32:50.109Z</time></trkpt><trkpt lat="40.0772967" lon="18.1902067"><ele>116.0</ele><time>2026-04-11T14:32:57.109Z</time></trkpt><trkpt lat="40.0773533" lon="18.1900967"><ele>116.0</ele><time>2026-04-11T14:32:59.109Z</time></trkpt><trkpt lat="40.0773717" lon="18.189965"><ele>116.0</ele><time>2026-04-11T14:33:01.11Z</time></trkpt><trkpt lat="40.07735" lon="18.1898583"><ele>116.0</ele><time>2026-04-11T14:33:02.109Z</time></trkpt><trkpt lat="40.0773233" lon="18.189715"><ele>116.0</ele><time>2026-04-11T14:33:03.109Z</time></trkpt><trkpt lat="40.077275" lon="18.18959"><ele>116.0</ele><time>2026-04-11T14:33:04.109Z</time></trkpt><trkpt lat="40.07722" lon="18.18945"><ele>116.0</ele><time>2026-04-11T14:33:05.109Z</time></trkpt><trkpt lat="40.0771483" lon="18.189325"><ele>116.0</ele><time>2026-04-11T14:33:06.11Z</time></trkpt><trkpt lat="40.0771017" lon="18.1891933"><ele>116.0</ele><time>2026-04-11T14:33:07.109Z</time></trkpt><trkpt lat="40.07708" lon="18.1890533"><ele>116.0</ele><time>2026-04-11T14:33:08.109Z</time></trkpt><trkpt lat="40.0770717" lon="18.188945"><ele>116.0</ele><time>2026-04-11T14:33:09.11Z</time></trkpt><trkpt lat="40.0770883" lon="18.1888067"><ele>115.99999999999999</ele><time>2026-04-11T14:33:11.11Z</time></trkpt><trkpt lat="40.0771467" lon="18.1887467"><ele>116.0</ele><time>2026-04-11T14:33:13.109Z</time></trkpt><trkpt lat="40.0772517" lon="18.1886933"><ele>116.0</ele><time>2026-04-11T14:33:15.109Z</time></trkpt><trkpt lat="40.0773367" lon="18.18865"><ele>116.0</ele><time>2026-04-11T14:33:16.109Z</time></trkpt><trkpt lat="40.0773983" lon="18.1886167"><ele>115.99999999999999</ele><time>2026-04-11T14:33:17.11Z</time></trkpt><trkpt lat="40.0774633" lon="18.18858"><ele>116.0</ele><time>2026-04-11T14:33:18.11Z</time></trkpt><trkpt lat="40.0775267" lon="18.1885467"><ele>116.0</ele><time>2026-04-11T14:33:19.109Z</time></trkpt><trkpt lat="40.0775983" lon="18.18851"><ele>116.0</ele><time>2026-04-11T14:33:20.11Z</time></trkpt><trkpt lat="40.07769" lon="18.18843"><ele>116.0</ele><time>2026-04-11T14:33:22.109Z</time></trkpt><trkpt lat="40.077725" lon="18.1882967"><ele>116.0</ele><time>2026-04-11T14:33:24.11Z</time></trkpt><trkpt lat="40.0777" lon="18.1881017"><ele>116.0</ele><time>2026-04-11T14:33:26.109Z</time></trkpt><trkpt lat="40.07767" lon="18.1879917"><ele>116.75</ele><time>2026-04-11T14:33:27.109Z</time></trkpt><trkpt lat="40.0776383" lon="18.1878533"><ele>117.5</ele><time>2026-04-11T14:33:28.109Z</time></trkpt><trkpt lat="40.077585" lon="18.1877083"><ele>118.25</ele><time>2026-04-11T14:33:29.109Z</time></trkpt><trkpt lat="40.0775183" lon="18.1875733"><ele>119.0</ele><time>2026-04-11T14:33:30.11Z</time></trkpt><trkpt lat="40.0774617" lon="18.1874"><ele>118.5</ele><time>2026-04-11T14:33:31.109Z</time></trkpt><trkpt lat="40.07741" lon="18.18723"><ele>118.0</ele><time>2026-04-11T14:33:32.109Z</time></trkpt><trkpt lat="40.0773567" lon="18.1871033"><ele>117.5</ele><time>2026-04-11T14:33:33.11Z</time></trkpt><trkpt lat="40.077325" lon="18.1869733"><ele>117.0</ele><time>2026-04-11T14:33:34.109Z</time></trkpt><trkpt lat="40.0772817" lon="18.1868583"><ele>117.0</ele><time>2026-04-11T14:33:35.11Z</time></trkpt><trkpt lat="40.077255" lon="18.1867383"><ele>117.0</ele><time>2026-04-11T14:33:36.109Z</time></trkpt><trkpt lat="40.077235" lon="18.186615"><ele>117.0</ele><time>2026-04-11T14:33:37.109Z</time></trkpt><trkpt lat="40.0771867" lon="18.1865483"><ele>117.0</ele><time>2026-04-11T14:33:38.109Z</time></trkpt><trkpt lat="40.0771717" lon="18.1864333"><ele>117.0</ele><time>2026-04-11T14:33:39.109Z</time></trkpt><trkpt lat="40.0771433" lon="18.1863117"><ele>117.0</ele><time>2026-04-11T14:33:40.11Z</time></trkpt><trkpt lat="40.0771067" lon="18.1862067"><ele>117.19999999999999</ele><time>2026-04-11T14:33:41.11Z</time></trkpt><trkpt lat="40.0770683" lon="18.1860583"><ele>117.39999999999999</ele><time>2026-04-11T14:33:42.109Z</time></trkpt><trkpt lat="40.0770317" lon="18.1859117"><ele>117.60000000000001</ele><time>2026-04-11T14:33:43.11Z</time></trkpt><trkpt lat="40.0769917" lon="18.18581"><ele>117.80000000000001</ele><time>2026-04-11T14:33:44.11Z</time></trkpt><trkpt lat="40.076965" lon="18.185715"><ele>118.0</ele><time>2026-04-11T14:33:45.109Z</time></trkpt><trkpt lat="40.0769383" lon="18.1856367"><ele>118.25</ele><time>2026-04-11T14:33:46.109Z</time></trkpt><trkpt lat="40.0769" lon="18.1855333"><ele>118.5</ele><time>2026-04-11T14:33:48.11Z</time></trkpt><trkpt lat="40.07707" lon="18.1854767"><ele>118.75</ele><time>2026-04-11T14:33:53.109Z</time></trkpt><trkpt lat="40.077175" lon="18.185495"><ele>119.0</ele><time>2026-04-11T14:33:54.11Z</time></trkpt><trkpt lat="40.07728" lon="18.1855383"><ele>119.0</ele><time>2026-04-11T14:33:55.109Z</time></trkpt><trkpt lat="40.077395" lon="18.1855817"><ele>119.0</ele><time>2026-04-11T14:33:56.109Z</time></trkpt><trkpt lat="40.0775267" lon="18.1856217"><ele>119.0</ele><time>2026-04-11T14:33:57.11Z</time></trkpt><trkpt lat="40.0776617" lon="18.1856683"><ele>119.0</ele><time>2026-04-11T14:33:58.11Z</time></trkpt><trkpt lat="40.07781" lon="18.1857167"><ele>119.0</ele><time>2026-04-11T14:33:59.11Z</time></trkpt><trkpt lat="40.0779567" lon="18.18577"><ele>119.0</ele><time>2026-04-11T14:34:00.11Z</time></trkpt><trkpt lat="40.07811" lon="18.18582"><ele>119.0</ele><time>2026-04-11T14:34:01.109Z</time></trkpt><trkpt lat="40.0782467" lon="18.185855"><ele>118.99999999999999</ele><time>2026-04-11T14:34:02.11Z</time></trkpt><trkpt lat="40.07834" lon="18.185875"><ele>119.0</ele><time>2026-04-11T14:34:03.109Z</time></trkpt><trkpt lat="40.078395" lon="18.1859183"><ele>119.0</ele><time>2026-04-11T14:34:05.109Z</time></trkpt><trkpt lat="40.0784367" lon="18.1858517"><ele>119.0</ele><time>2026-04-11T14:34:07.11Z</time></trkpt><trkpt lat="40.07843" lon="18.1857533"><ele>118.99999999999999</ele><time>2026-04-11T14:34:10.109Z</time></trkpt><trkpt lat="40.078425" lon="18.1856167"><ele>119.0</ele><time>2026-04-11T14:34:13.109Z</time></trkpt><trkpt lat="40.0784083" lon="18.1854567"><ele>118.99999999999999</ele><time>2026-04-11T14:34:15.11Z</time></trkpt><trkpt lat="40.0783967" lon="18.1853633"><ele>119.0</ele><time>2026-04-11T14:34:16.109Z</time></trkpt><trkpt lat="40.078375" lon="18.18525"><ele>119.0</ele><time>2026-04-11T14:34:17.109Z</time></trkpt><trkpt lat="40.0783683" lon="18.18514"><ele>119.0</ele><time>2026-04-11T14:34:18.109Z</time></trkpt><trkpt lat="40.0783783" lon="18.185035"><ele>118.99999999999999</ele><time>2026-04-11T14:34:19.11Z</time></trkpt><trkpt lat="40.07836" lon="18.1849017"><ele>119.0</ele><time>2026-04-11T14:34:20.11Z</time></trkpt><trkpt lat="40.0783483" lon="18.1847667"><ele>119.2</ele><time>2026-04-11T14:34:21.11Z</time></trkpt><trkpt lat="40.0783267" lon="18.1846083"><ele>119.4</ele><time>2026-04-11T14:34:22.109Z</time></trkpt><trkpt lat="40.0782917" lon="18.184455"><ele>119.6</ele><time>2026-04-11T14:34:23.109Z</time></trkpt><trkpt lat="40.0782717" lon="18.1843283"><ele>119.8</ele><time>2026-04-11T14:34:24.109Z</time></trkpt><trkpt lat="40.07827" lon="18.1842267"><ele>120.0</ele><time>2026-04-11T14:34:25.109Z</time></trkpt><trkpt lat="40.0782583" lon="18.1840883"><ele>120.0</ele><time>2026-04-11T14:34:27.109Z</time></trkpt><trkpt lat="40.0783033" lon="18.1840083"><ele>120.0</ele><time>2026-04-11T14:34:29.11Z</time></trkpt><trkpt lat="40.0783917" lon="18.1839717"><ele>120.0</ele><time>2026-04-11T14:34:31.11Z</time></trkpt><trkpt lat="40.078455" lon="18.18396"><ele>120.0</ele><time>2026-04-11T14:34:32.111Z</time></trkpt><trkpt lat="40.07856" lon="18.1839367"><ele>120.0</ele><time>2026-04-11T14:34:34.11Z</time></trkpt><trkpt lat="40.0786283" lon="18.1839233"><ele>120.0</ele><time>2026-04-11T14:34:36.11Z</time></trkpt><trkpt lat="40.0787033" lon="18.1839083"><ele>120.0</ele><time>2026-04-11T14:34:38.11Z</time></trkpt><trkpt lat="40.07879" lon="18.1838933"><ele>120.0</ele><time>2026-04-11T14:34:40.11Z</time></trkpt><trkpt lat="40.0788783" lon="18.1838717"><ele>120.0</ele><time>2026-04-11T14:34:42.111Z</time></trkpt><trkpt lat="40.0789867" lon="18.1838483"><ele>120.0</ele><time>2026-04-11T14:34:44.11Z</time></trkpt><trkpt lat="40.079095" lon="18.18383"><ele>120.0</ele><time>2026-04-11T14:34:46.11Z</time></trkpt><trkpt lat="40.0791867" lon="18.1838117"><ele>120.0</ele><time>2026-04-11T14:34:48.11Z</time></trkpt><trkpt lat="40.0792517" lon="18.1838"><ele>120.0</ele><time>2026-04-11T14:34:50.111Z</time></trkpt><trkpt lat="40.0793183" lon="18.18378"><ele>120.0</ele><time>2026-04-11T14:35:11.11Z</time></trkpt><trkpt lat="40.0793883" lon="18.1837483"><ele>120.0</ele><time>2026-04-11T14:35:13.11Z</time></trkpt><trkpt lat="40.0794667" lon="18.1837233"><ele>120.0</ele><time>2026-04-11T14:35:15.11Z</time></trkpt><trkpt lat="40.0795533" lon="18.183695"><ele>120.0</ele><time>2026-04-11T14:35:17.111Z</time></trkpt><trkpt lat="40.0796433" lon="18.1836667"><ele>120.0</ele><time>2026-04-11T14:35:19.11Z</time></trkpt><trkpt lat="40.079735" lon="18.1836333"><ele>120.0</ele><time>2026-04-11T14:35:21.11Z</time></trkpt><trkpt lat="40.07982" lon="18.1836083"><ele>120.0</ele><time>2026-04-11T14:35:23.11Z</time></trkpt><trkpt lat="40.0799" lon="18.18361"><ele>120.0</ele><time>2026-04-11T14:35:25.111Z</time></trkpt><trkpt lat="40.0799733" lon="18.1836117"><ele>120.0</ele><time>2026-04-11T14:35:28.11Z</time></trkpt><trkpt lat="40.079915" lon="18.18366"><ele>120.0</ele><time>2026-04-11T14:36:03.111Z</time></trkpt><trkpt lat="40.07985" lon="18.1836817"><ele>120.0</ele><time>2026-04-11T14:36:05.111Z</time></trkpt><trkpt lat="40.07977" lon="18.1836817"><ele>120.0</ele><time>2026-04-11T14:36:07.11Z</time></trkpt><trkpt lat="40.07968" lon="18.1837067"><ele>120.0</ele><time>2026-04-11T14:36:09.11Z</time></trkpt><trkpt lat="40.0795883" lon="18.183725"><ele>120.0</ele><time>2026-04-11T14:36:11.11Z</time></trkpt><trkpt lat="40.0795" lon="18.1837483"><ele>120.0</ele><time>2026-04-11T14:36:13.11Z</time></trkpt><trkpt lat="40.0794083" lon="18.183775"><ele>120.0</ele><time>2026-04-11T14:36:15.11Z</time></trkpt><trkpt lat="40.0793183" lon="18.1837967"><ele>120.0</ele><time>2026-04-11T14:36:17.11Z</time></trkpt><trkpt lat="40.0792133" lon="18.1838183"><ele>120.0</ele><time>2026-04-11T14:36:19.11Z</time></trkpt><trkpt lat="40.079105" lon="18.183835"><ele>120.0</ele><time>2026-04-11T14:36:21.111Z</time></trkpt><trkpt lat="40.0790133" lon="18.1838583"><ele>120.0</ele><time>2026-04-11T14:36:23.11Z</time></trkpt><trkpt lat="40.0789367" lon="18.183875"><ele>120.0</ele><time>2026-04-11T14:36:25.111Z</time></trkpt><trkpt lat="40.07882" lon="18.1839083"><ele>120.0</ele><time>2026-04-11T14:36:27.11Z</time></trkpt><trkpt lat="40.0787567" lon="18.1838933"><ele>120.0</ele><time>2026-04-11T14:36:28.111Z</time></trkpt><trkpt lat="40.0786917" lon="18.1839033"><ele>120.0</ele><time>2026-04-11T14:36:29.11Z</time></trkpt><trkpt lat="40.07861" lon="18.1839233"><ele>120.0</ele><time>2026-04-11T14:36:32.11Z</time></trkpt><trkpt lat="40.0785483" lon="18.1839467"><ele>120.0</ele><time>2026-04-11T14:36:33.11Z</time></trkpt><trkpt lat="40.07844" lon="18.1839683"><ele>120.0</ele><time>2026-04-11T14:36:35.11Z</time></trkpt><trkpt lat="40.078355" lon="18.183995"><ele>120.0</ele><time>2026-04-11T14:36:37.11Z</time></trkpt><trkpt lat="40.0782883" lon="18.184015"><ele>120.0</ele><time>2026-04-11T14:36:40.111Z</time></trkpt><trkpt lat="40.07826" lon="18.1840917"><ele>120.0</ele><time>2026-04-11T14:36:42.111Z</time></trkpt><trkpt lat="40.0782617" lon="18.1841833"><ele>120.0</ele><time>2026-04-11T14:36:44.11Z</time></trkpt><trkpt lat="40.0782567" lon="18.1842717"><ele>120.0</ele><time>2026-04-11T14:36:46.11Z</time></trkpt><trkpt lat="40.07826" lon="18.184395"><ele>120.0</ele><time>2026-04-11T14:36:49.11Z</time></trkpt><trkpt lat="40.0782683" lon="18.1844783"><ele>120.0</ele><time>2026-04-11T14:36:51.11Z</time></trkpt><trkpt lat="40.07828" lon="18.1845867"><ele>120.0</ele><time>2026-04-11T14:36:53.11Z</time></trkpt><trkpt lat="40.0782967" lon="18.1846867"><ele>120.0</ele><time>2026-04-11T14:36:55.11Z</time></trkpt><trkpt lat="40.0783" lon="18.1848"><ele>120.0</ele><time>2026-04-11T14:36:57.11Z</time></trkpt><trkpt lat="40.0783083" lon="18.1849117"><ele>120.0</ele><time>2026-04-11T14:36:59.111Z</time></trkpt><trkpt lat="40.0783283" lon="18.18503"><ele>120.0</ele><time>2026-04-11T14:37:01.11Z</time></trkpt><trkpt lat="40.07834" lon="18.185175"><ele>119.83333333333333</ele><time>2026-04-11T14:37:03.11Z</time></trkpt><trkpt lat="40.0783433" lon="18.1852717"><ele>119.66666666666666</ele><time>2026-04-11T14:37:04.11Z</time></trkpt><trkpt lat="40.0783667" lon="18.1853833"><ele>119.5</ele><time>2026-04-11T14:37:05.11Z</time></trkpt><trkpt lat="40.0783683" lon="18.1855"><ele>119.33333333333333</ele><time>2026-04-11T14:37:06.11Z</time></trkpt><trkpt lat="40.0783933" lon="18.1856017"><ele>119.16666666666666</ele><time>2026-04-11T14:37:07.11Z</time></trkpt><trkpt lat="40.0784117" lon="18.18575"><ele>119.0</ele><time>2026-04-11T14:37:09.11Z</time></trkpt><trkpt lat="40.0784167" lon="18.185835"><ele>118.83333333333333</ele><time>2026-04-11T14:37:11.111Z</time></trkpt><trkpt lat="40.07845" lon="18.1859367"><ele>118.66666666666666</ele><time>2026-04-11T14:37:15.11Z</time></trkpt><trkpt lat="40.07856" lon="18.1859433"><ele>118.5</ele><time>2026-04-11T14:37:17.11Z</time></trkpt><trkpt lat="40.0786283" lon="18.1859517"><ele>118.33333333333334</ele><time>2026-04-11T14:37:18.111Z</time></trkpt><trkpt lat="40.078705" lon="18.1859767"><ele>118.16666666666667</ele><time>2026-04-11T14:37:19.11Z</time></trkpt><trkpt lat="40.0787717" lon="18.1859733"><ele>118.0</ele><time>2026-04-11T14:37:20.11Z</time></trkpt><trkpt lat="40.07885" lon="18.185975"><ele>118.0</ele><time>2026-04-11T14:37:21.11Z</time></trkpt><trkpt lat="40.0789383" lon="18.1859883"><ele>118.00000000000001</ele><time>2026-04-11T14:37:22.11Z</time></trkpt><trkpt lat="40.0790233" lon="18.1859833"><ele>118.00000000000001</ele><time>2026-04-11T14:37:23.11Z</time></trkpt><trkpt lat="40.079115" lon="18.1859867"><ele>118.0</ele><time>2026-04-11T14:37:24.11Z</time></trkpt><trkpt lat="40.0792117" lon="18.1859883"><ele>118.0</ele><time>2026-04-11T14:37:25.111Z</time></trkpt><trkpt lat="40.0793167" lon="18.186"><ele>118.25</ele><time>2026-04-11T14:37:26.11Z</time></trkpt><trkpt lat="40.07946" lon="18.1860067"><ele>118.5</ele><time>2026-04-11T14:37:27.11Z</time></trkpt><trkpt lat="40.0795517" lon="18.1859817"><ele>118.75</ele><time>2026-04-11T14:37:28.11Z</time></trkpt><trkpt lat="40.0796517" lon="18.1860067"><ele>119.0</ele><time>2026-04-11T14:37:29.11Z</time></trkpt><trkpt lat="40.0797867" lon="18.18598"><ele>119.0</ele><time>2026-04-11T14:37:30.11Z</time></trkpt><trkpt lat="40.079905" lon="18.1859817"><ele>119.0</ele><time>2026-04-11T14:37:31.111Z</time></trkpt><trkpt lat="40.0801217" lon="18.1859967"><ele>119.0</ele><time>2026-04-11T14:37:33.11Z</time></trkpt><trkpt lat="40.0802567" lon="18.186025"><ele>119.0</ele><time>2026-04-11T14:37:34.11Z</time></trkpt><trkpt lat="40.0803983" lon="18.1860533"><ele>119.0</ele><time>2026-04-11T14:37:35.11Z</time></trkpt><trkpt lat="40.0805133" lon="18.1860783"><ele>119.0</ele><time>2026-04-11T14:37:36.11Z</time></trkpt><trkpt lat="40.0806533" lon="18.1861033"><ele>119.0</ele><time>2026-04-11T14:37:37.11Z</time></trkpt><trkpt lat="40.0807133" lon="18.1861967"><ele>119.0</ele><time>2026-04-11T14:37:41.11Z</time></trkpt><trkpt lat="40.08073" lon="18.1863133"><ele>119.0</ele><time>2026-04-11T14:37:43.11Z</time></trkpt><trkpt lat="40.0807517" lon="18.1864683"><ele>119.0</ele><time>2026-04-11T14:37:45.11Z</time></trkpt><trkpt lat="40.0807633" lon="18.1865817"><ele>119.0</ele><time>2026-04-11T14:37:46.11Z</time></trkpt><trkpt lat="40.0807833" lon="18.1867017"><ele>119.0</ele><time>2026-04-11T14:37:47.11Z</time></trkpt><trkpt lat="40.0808067" lon="18.186825"><ele>118.2</ele><time>2026-04-11T14:37:48.111Z</time></trkpt><trkpt lat="40.0808217" lon="18.1869583"><ele>117.4</ele><time>2026-04-11T14:37:49.11Z</time></trkpt><trkpt lat="40.0808383" lon="18.1871"><ele>116.6</ele><time>2026-04-11T14:37:50.11Z</time></trkpt><trkpt lat="40.0808533" lon="18.1872483"><ele>115.8</ele><time>2026-04-11T14:37:51.11Z</time></trkpt><trkpt lat="40.0808717" lon="18.1874"><ele>115.0</ele><time>2026-04-11T14:37:52.111Z</time></trkpt><trkpt lat="40.080885" lon="18.1875583"><ele>115.0</ele><time>2026-04-11T14:37:53.111Z</time></trkpt><trkpt lat="40.0808983" lon="18.1877217"><ele>115.0</ele><time>2026-04-11T14:37:54.111Z</time></trkpt><trkpt lat="40.0809117" lon="18.1878917"><ele>115.0</ele><time>2026-04-11T14:37:55.111Z</time></trkpt><trkpt lat="40.0809317" lon="18.1880667"><ele>115.0</ele><time>2026-04-11T14:37:56.11Z</time></trkpt><trkpt lat="40.080955" lon="18.188245"><ele>114.75</ele><time>2026-04-11T14:37:57.111Z</time></trkpt><trkpt lat="40.080975" lon="18.188425"><ele>114.5</ele><time>2026-04-11T14:37:58.11Z</time></trkpt><trkpt lat="40.0810133" lon="18.1886083"><ele>114.25</ele><time>2026-04-11T14:37:59.111Z</time></trkpt><trkpt lat="40.0810483" lon="18.1888"><ele>114.0</ele><time>2026-04-11T14:38:00.111Z</time></trkpt><trkpt lat="40.08109" lon="18.1889933"><ele>113.66666666666666</ele><time>2026-04-11T14:38:01.111Z</time></trkpt><trkpt lat="40.081115" lon="18.1891917"><ele>113.33333333333333</ele><time>2026-04-11T14:38:02.111Z</time></trkpt><trkpt lat="40.0811367" lon="18.1893917"><ele>113.0</ele><time>2026-04-11T14:38:03.11Z</time></trkpt><trkpt lat="40.0811633" lon="18.1895967"><ele>113.0</ele><time>2026-04-11T14:38:04.11Z</time></trkpt><trkpt lat="40.0811967" lon="18.1898017"><ele>113.0</ele><time>2026-04-11T14:38:05.111Z</time></trkpt><trkpt lat="40.0812217" lon="18.190005"><ele>113.0</ele><time>2026-04-11T14:38:06.11Z</time></trkpt><trkpt lat="40.0812483" lon="18.19021"><ele>113.0</ele><time>2026-04-11T14:38:07.11Z</time></trkpt><trkpt lat="40.0812717" lon="18.1904017"><ele>113.0</ele><time>2026-04-11T14:38:08.11Z</time></trkpt><trkpt lat="40.0812967" lon="18.1905917"><ele>113.0</ele><time>2026-04-11T14:38:09.11Z</time></trkpt><trkpt lat="40.0813183" lon="18.1907817"><ele>113.0</ele><time>2026-04-11T14:38:10.11Z</time></trkpt><trkpt lat="40.0813417" lon="18.1909617"><ele>113.4</ele><time>2026-04-11T14:38:11.11Z</time></trkpt><trkpt lat="40.0813633" lon="18.1911217"><ele>113.80000000000001</ele><time>2026-04-11T14:38:12.111Z</time></trkpt><trkpt lat="40.0813767" lon="18.1912667"><ele>114.2</ele><time>2026-04-11T14:38:13.11Z</time></trkpt><trkpt lat="40.0813917" lon="18.19139"><ele>114.6</ele><time>2026-04-11T14:38:14.11Z</time></trkpt><trkpt lat="40.081405" lon="18.1915017"><ele>115.0</ele><time>2026-04-11T14:38:15.11Z</time></trkpt><trkpt lat="40.081445" lon="18.1916433"><ele>115.0</ele><time>2026-04-11T14:38:17.109Z</time></trkpt><trkpt lat="40.0815333" lon="18.1917083"><ele>115.0</ele><time>2026-04-11T14:38:19.109Z</time></trkpt><trkpt lat="40.0816733" lon="18.19173"><ele>115.0</ele><time>2026-04-11T14:38:21.11Z</time></trkpt><trkpt lat="40.0817683" lon="18.1917017"><ele>115.0</ele><time>2026-04-11T14:38:22.11Z</time></trkpt><trkpt lat="40.0818783" lon="18.1916833"><ele>114.8</ele><time>2026-04-11T14:38:23.11Z</time></trkpt><trkpt lat="40.0819767" lon="18.1916783"><ele>114.6</ele><time>2026-04-11T14:38:24.109Z</time></trkpt><trkpt lat="40.0820717" lon="18.1916667"><ele>114.4</ele><time>2026-04-11T14:38:25.109Z</time></trkpt><trkpt lat="40.0821783" lon="18.19166"><ele>114.2</ele><time>2026-04-11T14:38:26.11Z</time></trkpt><trkpt lat="40.08229" lon="18.191665"><ele>114.0</ele><time>2026-04-11T14:38:27.11Z</time></trkpt><trkpt lat="40.0824033" lon="18.1916717"><ele>113.85714285714285</ele><time>2026-04-11T14:38:28.109Z</time></trkpt><trkpt lat="40.0824967" lon="18.1916967"><ele>113.7142857142857</ele><time>2026-04-11T14:38:29.109Z</time></trkpt><trkpt lat="40.0825533" lon="18.191745"><ele>113.57142857142857</ele><time>2026-04-11T14:38:30.109Z</time></trkpt><trkpt lat="40.0826033" lon="18.1918117"><ele>113.42857142857142</ele><time>2026-04-11T14:38:31.109Z</time></trkpt><trkpt lat="40.0826333" lon="18.191895"><ele>113.28571428571428</ele><time>2026-04-11T14:38:32.109Z</time></trkpt><trkpt lat="40.082645" lon="18.1919833"><ele>113.14285714285714</ele><time>2026-04-11T14:38:33.11Z</time></trkpt><trkpt lat="40.0826667" lon="18.1920783"><ele>113.0</ele><time>2026-04-11T14:38:34.109Z</time></trkpt><trkpt lat="40.08269" lon="18.19219"><ele>112.99999999999999</ele><time>2026-04-11T14:38:35.109Z</time></trkpt><trkpt lat="40.0827167" lon="18.192305"><ele>113.0</ele><time>2026-04-11T14:38:36.109Z</time></trkpt><trkpt lat="40.0827483" lon="18.1924133"><ele>113.0</ele><time>2026-04-11T14:38:37.109Z</time></trkpt><trkpt lat="40.08278" lon="18.1925183"><ele>113.0</ele><time>2026-04-11T14:38:38.11Z</time></trkpt><trkpt lat="40.08281" lon="18.1926233"><ele>112.99999999999999</ele><time>2026-04-11T14:38:39.109Z</time></trkpt><trkpt lat="40.08284" lon="18.19273"><ele>113.0</ele><time>2026-04-11T14:38:40.109Z</time></trkpt><trkpt lat="40.0828667" lon="18.1928217"><ele>113.4</ele><time>2026-04-11T14:38:41.109Z</time></trkpt><trkpt lat="40.0828983" lon="18.1929483"><ele>113.80000000000001</ele><time>2026-04-11T14:38:43.109Z</time></trkpt><trkpt lat="40.0829183" lon="18.19304"><ele>114.2</ele><time>2026-04-11T14:38:53.109Z</time></trkpt><trkpt lat="40.0829667" lon="18.1931833"><ele>114.6</ele><time>2026-04-11T14:38:55.11Z</time></trkpt><trkpt lat="40.0829917" lon="18.1932817"><ele>115.0</ele><time>2026-04-11T14:38:56.109Z</time></trkpt><trkpt lat="40.0830233" lon="18.1933983"><ele>115.25</ele><time>2026-04-11T14:38:57.11Z</time></trkpt><trkpt lat="40.0830633" lon="18.19353"><ele>115.5</ele><time>2026-04-11T14:38:58.109Z</time></trkpt><trkpt lat="40.0831083" lon="18.1936633"><ele>115.75</ele><time>2026-04-11T14:38:59.109Z</time></trkpt><trkpt lat="40.08315" lon="18.1938"><ele>116.0</ele><time>2026-04-11T14:39:00.109Z</time></trkpt><trkpt lat="40.0831883" lon="18.193945"><ele>116.0</ele><time>2026-04-11T14:39:01.11Z</time></trkpt><trkpt lat="40.0832317" lon="18.1940917"><ele>116.0</ele><time>2026-04-11T14:39:02.109Z</time></trkpt><trkpt lat="40.0832817" lon="18.194235"><ele>116.0</ele><time>2026-04-11T14:39:03.11Z</time></trkpt><trkpt lat="40.08333" lon="18.1943817"><ele>116.0</ele><time>2026-04-11T14:39:04.11Z</time></trkpt><trkpt lat="40.08338" lon="18.1945367"><ele>115.5</ele><time>2026-04-11T14:39:05.11Z</time></trkpt><trkpt lat="40.0834317" lon="18.1947033"><ele>115.0</ele><time>2026-04-11T14:39:06.11Z</time></trkpt><trkpt lat="40.08349" lon="18.1948817"><ele>114.5</ele><time>2026-04-11T14:39:07.11Z</time></trkpt><trkpt lat="40.0835433" lon="18.1950517"><ele>114.0</ele><time>2026-04-11T14:39:08.11Z</time></trkpt><trkpt lat="40.0835933" lon="18.195215"><ele>114.0</ele><time>2026-04-11T14:39:09.109Z</time></trkpt><trkpt lat="40.0836433" lon="18.19538"><ele>114.0</ele><time>2026-04-11T14:39:10.109Z</time></trkpt><trkpt lat="40.0836967" lon="18.19555"><ele>114.0</ele><time>2026-04-11T14:39:11.109Z</time></trkpt><trkpt lat="40.0837517" lon="18.1957217"><ele>114.0</ele><time>2026-04-11T14:39:12.109Z</time></trkpt><trkpt lat="40.0838033" lon="18.1958917"><ele>113.66666666666666</ele><time>2026-04-11T14:39:13.109Z</time></trkpt><trkpt lat="40.0838567" lon="18.1960667"><ele>113.33333333333333</ele><time>2026-04-11T14:39:14.109Z</time></trkpt><trkpt lat="40.0839133" lon="18.19625"><ele>113.0</ele><time>2026-04-11T14:39:15.109Z</time></trkpt><trkpt lat="40.083975" lon="18.1964433"><ele>112.66666666666666</ele><time>2026-04-11T14:39:16.11Z</time></trkpt><trkpt lat="40.0840383" lon="18.196645"><ele>112.33333333333334</ele><time>2026-04-11T14:39:17.109Z</time></trkpt><trkpt lat="40.0841" lon="18.1968517"><ele>112.0</ele><time>2026-04-11T14:39:18.109Z</time></trkpt><trkpt lat="40.0841617" lon="18.1970583"><ele>112.0</ele><time>2026-04-11T14:39:19.109Z</time></trkpt><trkpt lat="40.0842283" lon="18.197265"><ele>112.0</ele><time>2026-04-11T14:39:20.109Z</time></trkpt><trkpt lat="40.0842967" lon="18.197475"><ele>112.0</ele><time>2026-04-11T14:39:21.11Z</time></trkpt><trkpt lat="40.0843617" lon="18.1976867"><ele>112.0</ele><time>2026-04-11T14:39:22.11Z</time></trkpt><trkpt lat="40.0844283" lon="18.1978967"><ele>112.0</ele><time>2026-04-11T14:39:23.109Z</time></trkpt><trkpt lat="40.084495" lon="18.1981033"><ele>112.0</ele><time>2026-04-11T14:39:24.11Z</time></trkpt><trkpt lat="40.084565" lon="18.1983133"><ele>112.66666666666667</ele><time>2026-04-11T14:39:25.11Z</time></trkpt><trkpt lat="40.0846333" lon="18.1985217"><ele>113.33333333333334</ele><time>2026-04-11T14:39:26.11Z</time></trkpt><trkpt lat="40.0846983" lon="18.1987233"><ele>114.0</ele><time>2026-04-11T14:39:27.11Z</time></trkpt><trkpt lat="40.08476" lon="18.1989167"><ele>113.75</ele><time>2026-04-11T14:39:28.109Z</time></trkpt><trkpt lat="40.08482" lon="18.199105"><ele>113.5</ele><time>2026-04-11T14:39:29.109Z</time></trkpt><trkpt lat="40.084875" lon="18.199285"><ele>113.25</ele><time>2026-04-11T14:39:30.11Z</time></trkpt><trkpt lat="40.0849317" lon="18.1994533"><ele>113.0</ele><time>2026-04-11T14:39:31.11Z</time></trkpt><trkpt lat="40.0849867" lon="18.1996067"><ele>113.0</ele><time>2026-04-11T14:39:32.109Z</time></trkpt><trkpt lat="40.0850367" lon="18.199755"><ele>113.0</ele><time>2026-04-11T14:39:33.109Z</time></trkpt><trkpt lat="40.0850833" lon="18.1999"><ele>113.0</ele><time>2026-04-11T14:39:34.109Z</time></trkpt><trkpt lat="40.08513" lon="18.2000433"><ele>113.0</ele><time>2026-04-11T14:39:35.109Z</time></trkpt><trkpt lat="40.085175" lon="18.2001783"><ele>112.60000000000001</ele><time>2026-04-11T14:39:36.11Z</time></trkpt><trkpt lat="40.085215" lon="18.2003017"><ele>112.20000000000002</ele><time>2026-04-11T14:39:37.109Z</time></trkpt><trkpt lat="40.0852483" lon="18.2004083"><ele>111.8</ele><time>2026-04-11T14:39:38.109Z</time></trkpt><trkpt lat="40.085275" lon="18.200495"><ele>111.4</ele><time>2026-04-11T14:39:39.11Z</time></trkpt><trkpt lat="40.0853333" lon="18.2006117"><ele>111.0</ele><time>2026-04-11T14:39:41.109Z</time></trkpt><trkpt lat="40.0854533" lon="18.2006467"><ele>111.0</ele><time>2026-04-11T14:39:43.109Z</time></trkpt><trkpt lat="40.08553" lon="18.2006333"><ele>111.0</ele><time>2026-04-11T14:39:44.11Z</time></trkpt><trkpt lat="40.085615" lon="18.2006033"><ele>111.0</ele><time>2026-04-11T14:39:45.109Z</time></trkpt><trkpt lat="40.085705" lon="18.20057"><ele>111.0</ele><time>2026-04-11T14:39:46.109Z</time></trkpt><trkpt lat="40.0858033" lon="18.2005317"><ele>111.0</ele><time>2026-04-11T14:39:47.109Z</time></trkpt><trkpt lat="40.0859067" lon="18.2004933"><ele>111.16666666666667</ele><time>2026-04-11T14:39:48.109Z</time></trkpt><trkpt lat="40.0860083" lon="18.2004567"><ele>111.33333333333334</ele><time>2026-04-11T14:39:49.109Z</time></trkpt><trkpt lat="40.0860983" lon="18.2004283"><ele>111.5</ele><time>2026-04-11T14:39:50.109Z</time></trkpt><trkpt lat="40.0861733" lon="18.2004117"><ele>111.66666666666667</ele><time>2026-04-11T14:39:51.11Z</time></trkpt><trkpt lat="40.0862367" lon="18.2004117"><ele>111.83333333333334</ele><time>2026-04-11T14:39:52.109Z</time></trkpt><trkpt lat="40.0862967" lon="18.2004383"><ele>112.0</ele><time>2026-04-11T14:39:53.109Z</time></trkpt><trkpt lat="40.08636" lon="18.20049"><ele>112.0</ele><time>2026-04-11T14:39:54.11Z</time></trkpt><trkpt lat="40.08643" lon="18.20056"><ele>111.99999999999999</ele><time>2026-04-11T14:39:55.11Z</time></trkpt><trkpt lat="40.08651" lon="18.2006317"><ele>111.99999999999999</ele><time>2026-04-11T14:39:56.11Z</time></trkpt><trkpt lat="40.086605" lon="18.2006917"><ele>112.0</ele><time>2026-04-11T14:39:57.11Z</time></trkpt><trkpt lat="40.0867117" lon="18.200745"><ele>112.0</ele><time>2026-04-11T14:39:58.11Z</time></trkpt><trkpt lat="40.0868267" lon="18.2007933"><ele>111.75</ele><time>2026-04-11T14:39:59.109Z</time></trkpt><trkpt lat="40.086945" lon="18.2008417"><ele>111.5</ele><time>2026-04-11T14:40:00.109Z</time></trkpt><trkpt lat="40.0870683" lon="18.2008833"><ele>111.25</ele><time>2026-04-11T14:40:01.109Z</time></trkpt><trkpt lat="40.0871917" lon="18.2009167"><ele>111.0</ele><time>2026-04-11T14:40:02.109Z</time></trkpt><trkpt lat="40.0873233" lon="18.2009417"><ele>110.75</ele><time>2026-04-11T14:40:03.109Z</time></trkpt><trkpt lat="40.087455" lon="18.2009717"><ele>110.5</ele><time>2026-04-11T14:40:04.109Z</time></trkpt><trkpt lat="40.087595" lon="18.20101"><ele>110.25</ele><time>2026-04-11T14:40:05.11Z</time></trkpt><trkpt lat="40.087745" lon="18.2010567"><ele>110.0</ele><time>2026-04-11T14:40:06.11Z</time></trkpt><trkpt lat="40.0879017" lon="18.2011033"><ele>110.0</ele><time>2026-04-11T14:40:07.11Z</time></trkpt><trkpt lat="40.0880617" lon="18.2011383"><ele>110.0</ele><time>2026-04-11T14:40:08.109Z</time></trkpt><trkpt lat="40.0882117" lon="18.201165"><ele>110.0</ele><time>2026-04-11T14:40:09.11Z</time></trkpt><trkpt lat="40.0883433" lon="18.2011917"><ele>110.0</ele><time>2026-04-11T14:40:10.11Z</time></trkpt><trkpt lat="40.0884583" lon="18.2012333"><ele>110.0</ele><time>2026-04-11T14:40:11.109Z</time></trkpt><trkpt lat="40.0885583" lon="18.2012967"><ele>110.0</ele><time>2026-04-11T14:40:12.109Z</time></trkpt><trkpt lat="40.0886533" lon="18.20137"><ele>110.0</ele><time>2026-04-11T14:40:13.11Z</time></trkpt><trkpt lat="40.0887417" lon="18.2014417"><ele>110.0</ele><time>2026-04-11T14:40:14.11Z</time></trkpt><trkpt lat="40.08882" lon="18.201505"><ele>110.0</ele><time>2026-04-11T14:40:15.109Z</time></trkpt><trkpt lat="40.0888867" lon="18.2015517"><ele>109.99999999999999</ele><time>2026-04-11T14:40:16.109Z</time></trkpt><trkpt lat="40.08895" lon="18.201575"><ele>110.0</ele><time>2026-04-11T14:40:17.11Z</time></trkpt><trkpt lat="40.0890583" lon="18.201525"><ele>110.0</ele><time>2026-04-11T14:40:19.11Z</time></trkpt><trkpt lat="40.0891233" lon="18.2014733"><ele>110.0</ele><time>2026-04-11T14:40:20.11Z</time></trkpt><trkpt lat="40.089195" lon="18.2014183"><ele>109.99999999999999</ele><time>2026-04-11T14:40:21.109Z</time></trkpt><trkpt lat="40.0892667" lon="18.201375"><ele>110.0</ele><time>2026-04-11T14:40:22.109Z</time></trkpt><trkpt lat="40.0893317" lon="18.20135"><ele>109.6</ele><time>2026-04-11T14:40:23.109Z</time></trkpt><trkpt lat="40.0894483" lon="18.2013767"><ele>109.2</ele><time>2026-04-11T14:40:25.109Z</time></trkpt><trkpt lat="40.0895067" lon="18.201425"><ele>108.80000000000001</ele><time>2026-04-11T14:40:26.11Z</time></trkpt><trkpt lat="40.08957" lon="18.2015"><ele>108.4</ele><time>2026-04-11T14:40:27.109Z</time></trkpt><trkpt lat="40.0896333" lon="18.2016067"><ele>108.0</ele><time>2026-04-11T14:40:28.11Z</time></trkpt><trkpt lat="40.0896967" lon="18.20173"><ele>108.0</ele><time>2026-04-11T14:40:29.109Z</time></trkpt><trkpt lat="40.0897617" lon="18.2018633"><ele>108.0</ele><time>2026-04-11T14:40:30.11Z</time></trkpt><trkpt lat="40.08983" lon="18.202"><ele>108.0</ele><time>2026-04-11T14:40:31.11Z</time></trkpt><trkpt lat="40.089905" lon="18.2021317"><ele>108.0</ele><time>2026-04-11T14:40:32.11Z</time></trkpt><trkpt lat="40.089985" lon="18.2022483"><ele>108.0</ele><time>2026-04-11T14:40:33.11Z</time></trkpt><trkpt lat="40.0900767" lon="18.2023467"><ele>108.0</ele><time>2026-04-11T14:40:34.111Z</time></trkpt><trkpt lat="40.09017" lon="18.2024367"><ele>108.0</ele><time>2026-04-11T14:40:35.11Z</time></trkpt><trkpt lat="40.0902617" lon="18.202525"><ele>108.0</ele><time>2026-04-11T14:40:36.11Z</time></trkpt><trkpt lat="40.0903483" lon="18.202605"><ele>108.0</ele><time>2026-04-11T14:40:37.11Z</time></trkpt><trkpt lat="40.09043" lon="18.20268"><ele>108.00000000000001</ele><time>2026-04-11T14:40:38.11Z</time></trkpt><trkpt lat="40.0904967" lon="18.2027467"><ele>108.00000000000001</ele><time>2026-04-11T14:40:39.11Z</time></trkpt><trkpt lat="40.0905717" lon="18.2028317"><ele>108.0</ele><time>2026-04-11T14:40:41.111Z</time></trkpt><trkpt lat="40.0906533" lon="18.2028567"><ele>108.0</ele><time>2026-04-11T14:40:45.111Z</time></trkpt><trkpt lat="40.09079" lon="18.2027917"><ele>107.25</ele><time>2026-04-11T14:40:47.111Z</time></trkpt><trkpt lat="40.0908933" lon="18.2027217"><ele>106.5</ele><time>2026-04-11T14:40:48.11Z</time></trkpt><trkpt lat="40.0910117" lon="18.2026483"><ele>105.75</ele><time>2026-04-11T14:40:49.111Z</time></trkpt><trkpt lat="40.09114" lon="18.2025717"><ele>105.0</ele><time>2026-04-11T14:40:50.11Z</time></trkpt><trkpt lat="40.0912783" lon="18.20249"><ele>105.0</ele><time>2026-04-11T14:40:51.11Z</time></trkpt><trkpt lat="40.091425" lon="18.2024033"><ele>105.0</ele><time>2026-04-11T14:40:52.11Z</time></trkpt><trkpt lat="40.09158" lon="18.2023083"><ele>105.0</ele><time>2026-04-11T14:40:53.11Z</time></trkpt><trkpt lat="40.0917433" lon="18.2022083"><ele>103.33333333333334</ele><time>2026-04-11T14:40:54.11Z</time></trkpt><trkpt lat="40.091915" lon="18.2021067"><ele>101.66666666666667</ele><time>2026-04-11T14:40:55.11Z</time></trkpt><trkpt lat="40.0920933" lon="18.202005"><ele>100.0</ele><time>2026-04-11T14:40:56.111Z</time></trkpt><trkpt lat="40.0922767" lon="18.2018967"><ele>101.33333333333334</ele><time>2026-04-11T14:40:57.11Z</time></trkpt><trkpt lat="40.0924617" lon="18.2017867"><ele>102.66666666666666</ele><time>2026-04-11T14:40:58.11Z</time></trkpt><trkpt lat="40.09265" lon="18.2016717"><ele>104.0</ele><time>2026-04-11T14:40:59.111Z</time></trkpt><trkpt lat="40.0928433" lon="18.2015567"><ele>102.0</ele><time>2026-04-11T14:41:00.111Z</time></trkpt><trkpt lat="40.0930267" lon="18.201445"><ele>100.0</ele><time>2026-04-11T14:41:01.11Z</time></trkpt><trkpt lat="40.0932" lon="18.2013467"><ele>98.0</ele><time>2026-04-11T14:41:02.111Z</time></trkpt><trkpt lat="40.0933667" lon="18.2012583"><ele>98.0</ele><time>2026-04-11T14:41:03.111Z</time></trkpt><trkpt lat="40.0935383" lon="18.201185"><ele>98.0</ele><time>2026-04-11T14:41:04.11Z</time></trkpt><trkpt lat="40.093715" lon="18.2011317"><ele>98.0</ele><time>2026-04-11T14:41:05.11Z</time></trkpt><trkpt lat="40.0938967" lon="18.2011033"><ele>98.0</ele><time>2026-04-11T14:41:06.11Z</time></trkpt><trkpt lat="40.0940867" lon="18.2010983"><ele>98.0</ele><time>2026-04-11T14:41:07.11Z</time></trkpt><trkpt lat="40.0942817" lon="18.20111"><ele>98.0</ele><time>2026-04-11T14:41:08.11Z</time></trkpt><trkpt lat="40.09448" lon="18.2011467"><ele>100.0</ele><time>2026-04-11T14:41:09.111Z</time></trkpt><trkpt lat="40.0946833" lon="18.2012017"><ele>102.0</ele><time>2026-04-11T14:41:10.111Z</time></trkpt><trkpt lat="40.09489" lon="18.201265"><ele>104.0</ele><time>2026-04-11T14:41:11.111Z</time></trkpt><trkpt lat="40.0951033" lon="18.2013383"><ele>104.0</ele><time>2026-04-11T14:41:12.11Z</time></trkpt><trkpt lat="40.0953183" lon="18.20141"><ele>104.0</ele><time>2026-04-11T14:41:13.11Z</time></trkpt><trkpt lat="40.0955383" lon="18.2014817"><ele>104.0</ele><time>2026-04-11T14:41:14.11Z</time></trkpt><trkpt lat="40.0957617" lon="18.2015517"><ele>103.5</ele><time>2026-04-11T14:41:15.11Z</time></trkpt><trkpt lat="40.0959917" lon="18.2016233"><ele>103.0</ele><time>2026-04-11T14:41:16.11Z</time></trkpt><trkpt lat="40.0962233" lon="18.2017"><ele>103.0</ele><time>2026-04-11T14:41:17.111Z</time></trkpt><trkpt lat="40.0964533" lon="18.2017767"><ele>103.0</ele><time>2026-04-11T14:41:18.111Z</time></trkpt><trkpt lat="40.09668" lon="18.2018517"><ele>102.66666666666667</ele><time>2026-04-11T14:41:19.111Z</time></trkpt><trkpt lat="40.0968983" lon="18.2019233"><ele>102.33333333333334</ele><time>2026-04-11T14:41:20.11Z</time></trkpt><trkpt lat="40.0971067" lon="18.2019917"><ele>102.0</ele><time>2026-04-11T14:41:21.11Z</time></trkpt><trkpt lat="40.0973083" lon="18.2020567"><ele>101.66666666666666</ele><time>2026-04-11T14:41:22.11Z</time></trkpt><trkpt lat="40.0975067" lon="18.2021167"><ele>101.33333333333333</ele><time>2026-04-11T14:41:23.111Z</time></trkpt><trkpt lat="40.0977033" lon="18.2021733"><ele>101.0</ele><time>2026-04-11T14:41:24.111Z</time></trkpt><trkpt lat="40.0979067" lon="18.2022783"><ele>101.0</ele><time>2026-04-11T14:41:25.11Z</time></trkpt><trkpt lat="40.0980867" lon="18.202305"><ele>101.0</ele><time>2026-04-11T14:41:26.111Z</time></trkpt><trkpt lat="40.0982867" lon="18.2022583"><ele>101.0</ele><time>2026-04-11T14:41:27.111Z</time></trkpt><trkpt lat="40.098505" lon="18.2022867"><ele>100.66666666666666</ele><time>2026-04-11T14:41:28.11Z</time></trkpt><trkpt lat="40.0987233" lon="18.2022717"><ele>100.33333333333334</ele><time>2026-04-11T14:41:29.11Z</time></trkpt><trkpt lat="40.0989417" lon="18.202215"><ele>100.0</ele><time>2026-04-11T14:41:30.11Z</time></trkpt><trkpt lat="40.099175" lon="18.2022183"><ele>99.5</ele><time>2026-04-11T14:41:31.111Z</time></trkpt><trkpt lat="40.0994" lon="18.202195"><ele>99.0</ele><time>2026-04-11T14:41:32.11Z</time></trkpt><trkpt lat="40.099625" lon="18.2021733"><ele>99.0</ele><time>2026-04-11T14:41:33.11Z</time></trkpt><trkpt lat="40.0998517" lon="18.2021533"><ele>99.0</ele><time>2026-04-11T14:41:34.111Z</time></trkpt><trkpt lat="40.1000783" lon="18.2021317"><ele>98.5</ele><time>2026-04-11T14:41:35.11Z</time></trkpt><trkpt lat="40.1003117" lon="18.20213"><ele>98.0</ele><time>2026-04-11T14:41:36.111Z</time></trkpt><trkpt lat="40.10054" lon="18.2020767"><ele>97.0</ele><time>2026-04-11T14:41:37.11Z</time></trkpt><trkpt lat="40.1007717" lon="18.20204"><ele>96.0</ele><time>2026-04-11T14:41:38.11Z</time></trkpt><trkpt lat="40.1009967" lon="18.2020517"><ele>96.0</ele><time>2026-04-11T14:41:39.11Z</time></trkpt><trkpt lat="40.1011967" lon="18.2020517"><ele>96.0</ele><time>2026-04-11T14:41:40.11Z</time></trkpt><trkpt lat="40.1013517" lon="18.2020467"><ele>96.0</ele><time>2026-04-11T14:41:41.111Z</time></trkpt><trkpt lat="40.1014817" lon="18.202045"><ele>94.75</ele><time>2026-04-11T14:41:42.11Z</time></trkpt><trkpt lat="40.1016083" lon="18.2020383"><ele>93.5</ele><time>2026-04-11T14:41:43.11Z</time></trkpt><trkpt lat="40.101745" lon="18.2020283"><ele>92.25</ele><time>2026-04-11T14:41:44.11Z</time></trkpt><trkpt lat="40.1018967" lon="18.202015"><ele>91.0</ele><time>2026-04-11T14:41:45.11Z</time></trkpt><trkpt lat="40.1020633" lon="18.202"><ele>91.0</ele><time>2026-04-11T14:41:46.11Z</time></trkpt><trkpt lat="40.1022367" lon="18.2019833"><ele>91.0</ele><time>2026-04-11T14:41:47.111Z</time></trkpt><trkpt lat="40.102415" lon="18.2019767"><ele>91.0</ele><time>2026-04-11T14:41:48.11Z</time></trkpt><trkpt lat="40.1025983" lon="18.201975"><ele>90.0</ele><time>2026-04-11T14:41:49.11Z</time></trkpt><trkpt lat="40.102785" lon="18.2019617"><ele>89.0</ele><time>2026-04-11T14:41:50.11Z</time></trkpt><trkpt lat="40.1029733" lon="18.2019467"><ele>88.0</ele><time>2026-04-11T14:41:51.11Z</time></trkpt><trkpt lat="40.103165" lon="18.201925"><ele>89.33333333333333</ele><time>2026-04-11T14:41:52.11Z</time></trkpt><trkpt lat="40.103355" lon="18.2019067"><ele>90.66666666666667</ele><time>2026-04-11T14:41:53.11Z</time></trkpt><trkpt lat="40.1035433" lon="18.201855"><ele>92.0</ele><time>2026-04-11T14:41:54.11Z</time></trkpt><trkpt lat="40.1037217" lon="18.201875"><ele>92.0</ele><time>2026-04-11T14:41:55.11Z</time></trkpt><trkpt lat="40.103885" lon="18.2018667"><ele>92.0</ele><time>2026-04-11T14:41:56.11Z</time></trkpt><trkpt lat="40.1040233" lon="18.2018383"><ele>92.0</ele><time>2026-04-11T14:41:57.111Z</time></trkpt><trkpt lat="40.10412" lon="18.2018283"><ele>92.0</ele><time>2026-04-11T14:41:58.111Z</time></trkpt><trkpt lat="40.1041967" lon="18.2018217"><ele>92.0</ele><time>2026-04-11T14:41:59.111Z</time></trkpt><trkpt lat="40.1042967" lon="18.2017967"><ele>92.0</ele><time>2026-04-11T14:42:01.11Z</time></trkpt><trkpt lat="40.1042033" lon="18.201805"><ele>92.0</ele><time>2026-04-11T14:42:10.11Z</time></trkpt><trkpt lat="40.1041383" lon="18.20182"><ele>92.0</ele><time>2026-04-11T14:42:11.111Z</time></trkpt><trkpt lat="40.1040517" lon="18.201825"><ele>92.0</ele><time>2026-04-11T14:42:12.111Z</time></trkpt><trkpt lat="40.1039517" lon="18.2018233"><ele>92.0</ele><time>2026-04-11T14:42:13.111Z</time></trkpt><trkpt lat="40.1038417" lon="18.2018267"><ele>92.0</ele><time>2026-04-11T14:42:14.11Z</time></trkpt><trkpt lat="40.1037217" lon="18.2018383"><ele>92.0</ele><time>2026-04-11T14:42:15.111Z</time></trkpt><trkpt lat="40.10359" lon="18.2018383"><ele>92.0</ele><time>2026-04-11T14:42:16.11Z</time></trkpt><trkpt lat="40.1034483" lon="18.2018367"><ele>92.0</ele><time>2026-04-11T14:42:17.11Z</time></trkpt><trkpt lat="40.1033067" lon="18.2018417"><ele>91.0</ele><time>2026-04-11T14:42:18.11Z</time></trkpt><trkpt lat="40.1031733" lon="18.201855"><ele>90.0</ele><time>2026-04-11T14:42:19.111Z</time></trkpt><trkpt lat="40.10305" lon="18.2018733"><ele>89.0</ele><time>2026-04-11T14:42:20.11Z</time></trkpt><trkpt lat="40.10293" lon="18.2018933"><ele>88.0</ele><time>2026-04-11T14:42:21.111Z</time></trkpt><trkpt lat="40.1028083" lon="18.201895"><ele>88.0</ele><time>2026-04-11T14:42:22.111Z</time></trkpt><trkpt lat="40.1026583" lon="18.2019133"><ele>88.0</ele><time>2026-04-11T14:42:23.11Z</time></trkpt><trkpt lat="40.10255" lon="18.2019317"><ele>88.0</ele><time>2026-04-11T14:42:24.11Z</time></trkpt><trkpt lat="40.1024217" lon="18.2019483"><ele>88.0</ele><time>2026-04-11T14:42:25.11Z</time></trkpt><trkpt lat="40.102285" lon="18.2019617"><ele>88.75</ele><time>2026-04-11T14:42:26.11Z</time></trkpt><trkpt lat="40.1021533" lon="18.201965"><ele>89.5</ele><time>2026-04-11T14:42:27.11Z</time></trkpt><trkpt lat="40.1020267" lon="18.2019733"><ele>90.25</ele><time>2026-04-11T14:42:28.111Z</time></trkpt><trkpt lat="40.1019083" lon="18.2019783"><ele>91.0</ele><time>2026-04-11T14:42:29.11Z</time></trkpt><trkpt lat="40.1017833" lon="18.201975"><ele>91.0</ele><time>2026-04-11T14:42:30.111Z</time></trkpt><trkpt lat="40.1016683" lon="18.20198"><ele>91.0</ele><time>2026-04-11T14:42:31.111Z</time></trkpt><trkpt lat="40.1015683" lon="18.202"><ele>91.0</ele><time>2026-04-11T14:42:32.11Z</time></trkpt><trkpt lat="40.1014783" lon="18.20201"><ele>91.0</ele><time>2026-04-11T14:42:33.111Z</time></trkpt><trkpt lat="40.1013517" lon="18.20202"><ele>91.0</ele><time>2026-04-11T14:42:35.111Z</time></trkpt><trkpt lat="40.10136" lon="18.2021483"><ele>91.8</ele><time>2026-04-11T14:42:38.11Z</time></trkpt><trkpt lat="40.1013817" lon="18.2023233"><ele>92.6</ele><time>2026-04-11T14:42:40.11Z</time></trkpt><trkpt lat="40.101395" lon="18.2024283"><ele>93.4</ele><time>2026-04-11T14:42:41.111Z</time></trkpt><trkpt lat="40.10141" lon="18.202535"><ele>94.2</ele><time>2026-04-11T14:42:42.11Z</time></trkpt><trkpt lat="40.1014333" lon="18.2026317"><ele>95.0</ele><time>2026-04-11T14:42:43.11Z</time></trkpt><trkpt lat="40.1014567" lon="18.2027767"><ele>95.0</ele><time>2026-04-11T14:42:44.11Z</time></trkpt><trkpt lat="40.101475" lon="18.202925"><ele>95.0</ele><time>2026-04-11T14:42:45.11Z</time></trkpt><trkpt lat="40.1015083" lon="18.2030683"><ele>95.0</ele><time>2026-04-11T14:42:46.111Z</time></trkpt><trkpt lat="40.1015533" lon="18.203205"><ele>95.0</ele><time>2026-04-11T14:42:47.11Z</time></trkpt><trkpt lat="40.1015933" lon="18.2033517"><ele>94.0</ele><time>2026-04-11T14:42:48.11Z</time></trkpt><trkpt lat="40.10162" lon="18.2035117"><ele>93.0</ele><time>2026-04-11T14:42:49.111Z</time></trkpt><trkpt lat="40.1016467" lon="18.2036717"><ele>92.0</ele><time>2026-04-11T14:42:50.111Z</time></trkpt><trkpt lat="40.1016867" lon="18.2038267"><ele>91.0</ele><time>2026-04-11T14:42:51.11Z</time></trkpt><trkpt lat="40.1017233" lon="18.20399"><ele>91.75</ele><time>2026-04-11T14:42:52.11Z</time></trkpt><trkpt lat="40.1017783" lon="18.2041583"><ele>92.5</ele><time>2026-04-11T14:42:53.11Z</time></trkpt><trkpt lat="40.10179" lon="18.20434"><ele>93.25</ele><time>2026-04-11T14:42:54.11Z</time></trkpt><trkpt lat="40.101815" lon="18.2045033"><ele>94.0</ele><time>2026-04-11T14:42:55.11Z</time></trkpt><trkpt lat="40.101875" lon="18.2046567"><ele>94.0</ele><time>2026-04-11T14:42:56.11Z</time></trkpt><trkpt lat="40.1018933" lon="18.2047833"><ele>94.0</ele><time>2026-04-11T14:42:57.111Z</time></trkpt><trkpt lat="40.1019133" lon="18.204895"><ele>94.0</ele><time>2026-04-11T14:42:58.111Z</time></trkpt><trkpt lat="40.1019417" lon="18.20499"><ele>94.0</ele><time>2026-04-11T14:42:59.11Z</time></trkpt><trkpt lat="40.1019683" lon="18.2051133"><ele>94.0</ele><time>2026-04-11T14:43:01.111Z</time></trkpt><trkpt lat="40.102035" lon="18.205165"><ele>94.0</ele><time>2026-04-11T14:43:05.11Z</time></trkpt><trkpt lat="40.1021317" lon="18.2051417"><ele>94.0</ele><time>2026-04-11T14:43:07.11Z</time></trkpt><trkpt lat="40.1021967" lon="18.2051283"><ele>94.0</ele><time>2026-04-11T14:43:08.111Z</time></trkpt><trkpt lat="40.1022617" lon="18.2050933"><ele>94.0</ele><time>2026-04-11T14:43:09.11Z</time></trkpt><trkpt lat="40.10233" lon="18.2050867"><ele>94.0</ele><time>2026-04-11T14:43:10.11Z</time></trkpt><trkpt lat="40.1024" lon="18.2051017"><ele>94.0</ele><time>2026-04-11T14:43:11.111Z</time></trkpt><trkpt lat="40.1024617" lon="18.20516"><ele>94.0</ele><time>2026-04-11T14:43:12.11Z</time></trkpt><trkpt lat="40.1024833" lon="18.20527"><ele>94.0</ele><time>2026-04-11T14:43:13.111Z</time></trkpt><trkpt lat="40.102515" lon="18.2053917"><ele>94.0</ele><time>2026-04-11T14:43:14.11Z</time></trkpt><trkpt lat="40.1025533" lon="18.205545"><ele>94.0</ele><time>2026-04-11T14:43:15.11Z</time></trkpt><trkpt lat="40.1025883" lon="18.205715"><ele>94.0</ele><time>2026-04-11T14:43:16.111Z</time></trkpt><trkpt lat="40.1026167" lon="18.2058917"><ele>94.0</ele><time>2026-04-11T14:43:17.11Z</time></trkpt><trkpt lat="40.1026483" lon="18.2060717"><ele>94.0</ele><time>2026-04-11T14:43:18.111Z</time></trkpt><trkpt lat="40.1026867" lon="18.2062417"><ele>94.0</ele><time>2026-04-11T14:43:19.111Z</time></trkpt><trkpt lat="40.1027133" lon="18.206395"><ele>94.0</ele><time>2026-04-11T14:43:20.11Z</time></trkpt><trkpt lat="40.1027367" lon="18.2065317"><ele>94.0</ele><time>2026-04-11T14:43:21.11Z</time></trkpt><trkpt lat="40.1027683" lon="18.2066583"><ele>94.0</ele><time>2026-04-11T14:43:22.11Z</time></trkpt><trkpt lat="40.10282" lon="18.2067817"><ele>94.0</ele><time>2026-04-11T14:43:23.111Z</time></trkpt><trkpt lat="40.1028733" lon="18.2069083"><ele>94.0</ele><time>2026-04-11T14:43:24.11Z</time></trkpt><trkpt lat="40.10294" lon="18.2070433"><ele>94.0</ele><time>2026-04-11T14:43:25.11Z</time></trkpt><trkpt lat="40.1029983" lon="18.2071833"><ele>94.0</ele><time>2026-04-11T14:43:26.111Z</time></trkpt><trkpt lat="40.103065" lon="18.2073233"><ele>94.0</ele><time>2026-04-11T14:43:27.111Z</time></trkpt><trkpt lat="40.103145" lon="18.2074633"><ele>94.0</ele><time>2026-04-11T14:43:28.11Z</time></trkpt><trkpt lat="40.1032417" lon="18.2075967"><ele>94.0</ele><time>2026-04-11T14:43:29.11Z</time></trkpt><trkpt lat="40.1033317" lon="18.2077333"><ele>94.0</ele><time>2026-04-11T14:43:30.11Z</time></trkpt><trkpt lat="40.1034267" lon="18.2078617"><ele>94.0</ele><time>2026-04-11T14:43:31.11Z</time></trkpt><trkpt lat="40.1035233" lon="18.2079733"><ele>94.0</ele><time>2026-04-11T14:43:32.11Z</time></trkpt><trkpt lat="40.1036117" lon="18.2080883"><ele>94.0</ele><time>2026-04-11T14:43:33.111Z</time></trkpt><trkpt lat="40.1036867" lon="18.20822"><ele>94.0</ele><time>2026-04-11T14:43:34.11Z</time></trkpt><trkpt lat="40.10375" lon="18.20837"><ele>94.0</ele><time>2026-04-11T14:43:35.111Z</time></trkpt><trkpt lat="40.1037833" lon="18.20855"><ele>94.0</ele><time>2026-04-11T14:43:36.11Z</time></trkpt><trkpt lat="40.10383" lon="18.2087317"><ele>94.0</ele><time>2026-04-11T14:43:37.111Z</time></trkpt><trkpt lat="40.1039133" lon="18.2089067"><ele>93.5</ele><time>2026-04-11T14:43:38.11Z</time></trkpt><trkpt lat="40.1039883" lon="18.2090817"><ele>93.0</ele><time>2026-04-11T14:43:39.11Z</time></trkpt><trkpt lat="40.1040617" lon="18.2092417"><ele>92.5</ele><time>2026-04-11T14:43:40.11Z</time></trkpt><trkpt lat="40.1041367" lon="18.2093833"><ele>92.0</ele><time>2026-04-11T14:43:41.11Z</time></trkpt><trkpt lat="40.1042133" lon="18.20952"><ele>91.8</ele><time>2026-04-11T14:43:42.11Z</time></trkpt><trkpt lat="40.1042367" lon="18.2096517"><ele>91.6</ele><time>2026-04-11T14:43:43.11Z</time></trkpt><trkpt lat="40.1042267" lon="18.2097833"><ele>91.39999999999999</ele><time>2026-04-11T14:43:44.11Z</time></trkpt><trkpt lat="40.1042583" lon="18.2099233"><ele>91.19999999999999</ele><time>2026-04-11T14:43:45.11Z</time></trkpt><trkpt lat="40.1042467" lon="18.21003"><ele>91.0</ele><time>2026-04-11T14:43:46.111Z</time></trkpt><trkpt lat="40.1042483" lon="18.2101683"><ele>91.0</ele><time>2026-04-11T14:43:48.11Z</time></trkpt><trkpt lat="40.1042183" lon="18.2102683"><ele>91.0</ele><time>2026-04-11T14:43:51.11Z</time></trkpt><trkpt lat="40.1040833" lon="18.21031"><ele>91.0</ele><time>2026-04-11T14:43:53.111Z</time></trkpt><trkpt lat="40.1039583" lon="18.2103417"><ele>91.0</ele><time>2026-04-11T14:43:54.111Z</time></trkpt><trkpt lat="40.1038317" lon="18.210395"><ele>90.66666666666666</ele><time>2026-04-11T14:43:55.11Z</time></trkpt><trkpt lat="40.1036817" lon="18.2104367"><ele>90.33333333333333</ele><time>2026-04-11T14:43:56.11Z</time></trkpt><trkpt lat="40.1035167" lon="18.2104683"><ele>90.0</ele><time>2026-04-11T14:43:57.11Z</time></trkpt><trkpt lat="40.103335" lon="18.210565"><ele>90.0</ele><time>2026-04-11T14:43:58.11Z</time></trkpt><trkpt lat="40.103145" lon="18.21065"><ele>90.0</ele><time>2026-04-11T14:43:59.11Z</time></trkpt><trkpt lat="40.102945" lon="18.2107317"><ele>90.0</ele><time>2026-04-11T14:44:00.111Z</time></trkpt><trkpt lat="40.1027433" lon="18.210815"><ele>90.0</ele><time>2026-04-11T14:44:01.11Z</time></trkpt><trkpt lat="40.1025383" lon="18.2108667"><ele>90.0</ele><time>2026-04-11T14:44:02.111Z</time></trkpt><trkpt lat="40.1023317" lon="18.2108983"><ele>90.0</ele><time>2026-04-11T14:44:03.11Z</time></trkpt><trkpt lat="40.1021283" lon="18.2109767"><ele>90.0</ele><time>2026-04-11T14:44:04.11Z</time></trkpt><trkpt lat="40.1019183" lon="18.21108"><ele>90.0</ele><time>2026-04-11T14:44:05.111Z</time></trkpt><trkpt lat="40.1016867" lon="18.2111433"><ele>90.0</ele><time>2026-04-11T14:44:06.11Z</time></trkpt><trkpt lat="40.1014717" lon="18.2112083"><ele>90.0</ele><time>2026-04-11T14:44:07.11Z</time></trkpt><trkpt lat="40.1012483" lon="18.2113233"><ele>90.0</ele><time>2026-04-11T14:44:08.111Z</time></trkpt><trkpt lat="40.1010217" lon="18.2113683"><ele>90.0</ele><time>2026-04-11T14:44:09.11Z</time></trkpt><trkpt lat="40.100805" lon="18.2114683"><ele>91.0</ele><time>2026-04-11T14:44:10.11Z</time></trkpt><trkpt lat="40.100585" lon="18.21156"><ele>92.0</ele><time>2026-04-11T14:44:11.11Z</time></trkpt><trkpt lat="40.1003633" lon="18.21164"><ele>92.0</ele><time>2026-04-11T14:44:12.11Z</time></trkpt><trkpt lat="40.1001383" lon="18.21171"><ele>92.0</ele><time>2026-04-11T14:44:13.11Z</time></trkpt><trkpt lat="40.0999117" lon="18.21179"><ele>91.5</ele><time>2026-04-11T14:44:14.111Z</time></trkpt><trkpt lat="40.0996817" lon="18.2118733"><ele>91.0</ele><time>2026-04-11T14:44:15.111Z</time></trkpt><trkpt lat="40.0994517" lon="18.211955"><ele>91.0</ele><time>2026-04-11T14:44:16.111Z</time></trkpt><trkpt lat="40.09922" lon="18.2120383"><ele>91.0</ele><time>2026-04-11T14:44:17.111Z</time></trkpt><trkpt lat="40.098985" lon="18.2121217"><ele>91.5</ele><time>2026-04-11T14:44:18.11Z</time></trkpt><trkpt lat="40.0987517" lon="18.212205"><ele>92.0</ele><time>2026-04-11T14:44:19.11Z</time></trkpt><trkpt lat="40.0985183" lon="18.2122883"><ele>92.5</ele><time>2026-04-11T14:44:20.111Z</time></trkpt><trkpt lat="40.0982833" lon="18.2123733"><ele>93.0</ele><time>2026-04-11T14:44:21.111Z</time></trkpt><trkpt lat="40.0980467" lon="18.2124583"><ele>93.5</ele><time>2026-04-11T14:44:22.111Z</time></trkpt><trkpt lat="40.0978083" lon="18.2125417"><ele>94.0</ele><time>2026-04-11T14:44:23.11Z</time></trkpt><trkpt lat="40.09757" lon="18.212625"><ele>95.0</ele><time>2026-04-11T14:44:24.11Z</time></trkpt><trkpt lat="40.09733" lon="18.2127083"><ele>96.0</ele><time>2026-04-11T14:44:25.11Z</time></trkpt><trkpt lat="40.09709" lon="18.2127933"><ele>96.0</ele><time>2026-04-11T14:44:26.111Z</time></trkpt><trkpt lat="40.09685" lon="18.2128833"><ele>96.0</ele><time>2026-04-11T14:44:27.109Z</time></trkpt><trkpt lat="40.0966083" lon="18.2129717"><ele>96.0</ele><time>2026-04-11T14:44:28.11Z</time></trkpt><trkpt lat="40.0963667" lon="18.2130583"><ele>96.0</ele><time>2026-04-11T14:44:29.11Z</time></trkpt><trkpt lat="40.0961233" lon="18.2131467"><ele>97.0</ele><time>2026-04-11T14:44:30.11Z</time></trkpt><trkpt lat="40.09588" lon="18.2132333"><ele>98.0</ele><time>2026-04-11T14:44:31.109Z</time></trkpt><trkpt lat="40.0956367" lon="18.2133217"><ele>98.5</ele><time>2026-04-11T14:44:32.11Z</time></trkpt><trkpt lat="40.0953933" lon="18.21341"><ele>99.0</ele><time>2026-04-11T14:44:33.109Z</time></trkpt><trkpt lat="40.0951517" lon="18.2135033"><ele>100.0</ele><time>2026-04-11T14:44:34.109Z</time></trkpt><trkpt lat="40.09491" lon="18.2135967"><ele>101.0</ele><time>2026-04-11T14:44:35.11Z</time></trkpt><trkpt lat="40.0946667" lon="18.2136867"><ele>101.0</ele><time>2026-04-11T14:44:36.109Z</time></trkpt><trkpt lat="40.0944217" lon="18.2137767"><ele>101.0</ele><time>2026-04-11T14:44:37.109Z</time></trkpt><trkpt lat="40.094175" lon="18.213865"><ele>101.0</ele><time>2026-04-11T14:44:38.11Z</time></trkpt><trkpt lat="40.0939283" lon="18.2139567"><ele>101.0</ele><time>2026-04-11T14:44:39.11Z</time></trkpt><trkpt lat="40.0936817" lon="18.214045"><ele>101.5</ele><time>2026-04-11T14:44:40.109Z</time></trkpt><trkpt lat="40.0934317" lon="18.214135"><ele>102.0</ele><time>2026-04-11T14:44:41.11Z</time></trkpt><trkpt lat="40.0931817" lon="18.2142233"><ele>102.0</ele><time>2026-04-11T14:44:42.11Z</time></trkpt><trkpt lat="40.0929333" lon="18.214315"><ele>102.0</ele><time>2026-04-11T14:44:43.11Z</time></trkpt><trkpt lat="40.0926817" lon="18.214405"><ele>102.0</ele><time>2026-04-11T14:44:44.109Z</time></trkpt><trkpt lat="40.0924317" lon="18.2144917"><ele>102.0</ele><time>2026-04-11T14:44:45.109Z</time></trkpt><trkpt lat="40.09218" lon="18.21458"><ele>102.5</ele><time>2026-04-11T14:44:46.109Z</time></trkpt><trkpt lat="40.09193" lon="18.21467"><ele>103.0</ele><time>2026-04-11T14:44:47.11Z</time></trkpt><trkpt lat="40.0916783" lon="18.2147617"><ele>103.5</ele><time>2026-04-11T14:44:48.109Z</time></trkpt><trkpt lat="40.09143" lon="18.2148517"><ele>104.0</ele><time>2026-04-11T14:44:49.109Z</time></trkpt><trkpt lat="40.0911817" lon="18.21494"><ele>104.0</ele><time>2026-04-11T14:44:50.109Z</time></trkpt><trkpt lat="40.0909333" lon="18.21503"><ele>104.0</ele><time>2026-04-11T14:44:51.109Z</time></trkpt><trkpt lat="40.0906867" lon="18.2151183"><ele>103.5</ele><time>2026-04-11T14:44:52.109Z</time></trkpt><trkpt lat="40.09044" lon="18.2152083"><ele>103.0</ele><time>2026-04-11T14:44:53.11Z</time></trkpt><trkpt lat="40.090195" lon="18.2152967"><ele>103.0</ele><time>2026-04-11T14:44:54.109Z</time></trkpt><trkpt lat="40.0899517" lon="18.215385"><ele>103.0</ele><time>2026-04-11T14:44:55.109Z</time></trkpt><trkpt lat="40.0897067" lon="18.2154717"><ele>104.0</ele><time>2026-04-11T14:44:56.109Z</time></trkpt><trkpt lat="40.089465" lon="18.2155583"><ele>105.0</ele><time>2026-04-11T14:44:57.109Z</time></trkpt><trkpt lat="40.08922" lon="18.2156467"><ele>105.0</ele><time>2026-04-11T14:44:58.11Z</time></trkpt><trkpt lat="40.088975" lon="18.2157367"><ele>105.0</ele><time>2026-04-11T14:44:59.11Z</time></trkpt><trkpt lat="40.0887317" lon="18.2158283"><ele>105.0</ele><time>2026-04-11T14:45:00.11Z</time></trkpt><trkpt lat="40.088485" lon="18.2159183"><ele>105.0</ele><time>2026-04-11T14:45:01.11Z</time></trkpt><trkpt lat="40.0882383" lon="18.2160083"><ele>106.0</ele><time>2026-04-11T14:45:02.109Z</time></trkpt><trkpt lat="40.0879933" lon="18.216095"><ele>107.0</ele><time>2026-04-11T14:45:03.109Z</time></trkpt><trkpt lat="40.0877483" lon="18.2161817"><ele>107.0</ele><time>2026-04-11T14:45:04.11Z</time></trkpt><trkpt lat="40.0875017" lon="18.2162683"><ele>107.0</ele><time>2026-04-11T14:45:05.109Z</time></trkpt><trkpt lat="40.087255" lon="18.216355"><ele>107.5</ele><time>2026-04-11T14:45:06.11Z</time></trkpt><trkpt lat="40.0870083" lon="18.2164417"><ele>108.0</ele><time>2026-04-11T14:45:07.109Z</time></trkpt><trkpt lat="40.0867617" lon="18.21653"><ele>108.0</ele><time>2026-04-11T14:45:08.109Z</time></trkpt><trkpt lat="40.086515" lon="18.21662"><ele>108.0</ele><time>2026-04-11T14:45:09.11Z</time></trkpt><trkpt lat="40.086265" lon="18.2167067"><ele>108.0</ele><time>2026-04-11T14:45:10.11Z</time></trkpt><trkpt lat="40.086015" lon="18.2167933"><ele>108.0</ele><time>2026-04-11T14:45:11.109Z</time></trkpt><trkpt lat="40.0857733" lon="18.2168833"><ele>108.0</ele><time>2026-04-11T14:45:12.109Z</time></trkpt><trkpt lat="40.0855333" lon="18.2169717"><ele>108.0</ele><time>2026-04-11T14:45:13.11Z</time></trkpt><trkpt lat="40.0852933" lon="18.2170567"><ele>108.0</ele><time>2026-04-11T14:45:14.109Z</time></trkpt><trkpt lat="40.0850517" lon="18.2171417"><ele>108.0</ele><time>2026-04-11T14:45:15.11Z</time></trkpt><trkpt lat="40.08481" lon="18.21723"><ele>107.5</ele><time>2026-04-11T14:45:16.109Z</time></trkpt><trkpt lat="40.084565" lon="18.21732"><ele>107.0</ele><time>2026-04-11T14:45:17.109Z</time></trkpt><trkpt lat="40.08432" lon="18.2174083"><ele>107.5</ele><time>2026-04-11T14:45:18.109Z</time></trkpt><trkpt lat="40.0840717" lon="18.217495"><ele>108.0</ele><time>2026-04-11T14:45:19.109Z</time></trkpt><trkpt lat="40.0838233" lon="18.2175817"><ele>108.0</ele><time>2026-04-11T14:45:20.109Z</time></trkpt><trkpt lat="40.0835733" lon="18.2176683"><ele>108.0</ele><time>2026-04-11T14:45:21.109Z</time></trkpt><trkpt lat="40.0833267" lon="18.21776"><ele>108.0</ele><time>2026-04-11T14:45:22.11Z</time></trkpt><trkpt lat="40.0830817" lon="18.21785"><ele>108.0</ele><time>2026-04-11T14:45:23.109Z</time></trkpt><trkpt lat="40.082835" lon="18.21794"><ele>108.0</ele><time>2026-04-11T14:45:24.109Z</time></trkpt><trkpt lat="40.08259" lon="18.21803"><ele>108.0</ele><time>2026-04-11T14:45:25.109Z</time></trkpt><trkpt lat="40.0823433" lon="18.21812"><ele>109.0</ele><time>2026-04-11T14:45:26.11Z</time></trkpt><trkpt lat="40.0820967" lon="18.2182067"><ele>110.0</ele><time>2026-04-11T14:45:27.109Z</time></trkpt><trkpt lat="40.0818483" lon="18.2182933"><ele>110.0</ele><time>2026-04-11T14:45:28.109Z</time></trkpt><trkpt lat="40.0816" lon="18.2183817"><ele>110.0</ele><time>2026-04-11T14:45:29.109Z</time></trkpt><trkpt lat="40.0813533" lon="18.21847"><ele>109.0</ele><time>2026-04-11T14:45:30.11Z</time></trkpt><trkpt lat="40.081105" lon="18.2185583"><ele>108.0</ele><time>2026-04-11T14:45:31.109Z</time></trkpt><trkpt lat="40.0808567" lon="18.21865"><ele>108.5</ele><time>2026-04-11T14:45:32.109Z</time></trkpt><trkpt lat="40.0806083" lon="18.21874"><ele>109.0</ele><time>2026-04-11T14:45:33.11Z</time></trkpt><trkpt lat="40.0803583" lon="18.21883"><ele>109.0</ele><time>2026-04-11T14:45:34.11Z</time></trkpt><trkpt lat="40.08011" lon="18.2189217"><ele>109.0</ele><time>2026-04-11T14:45:35.109Z</time></trkpt><trkpt lat="40.07986" lon="18.21901"><ele>109.5</ele><time>2026-04-11T14:45:36.109Z</time></trkpt><trkpt lat="40.07961" lon="18.2190983"><ele>110.0</ele><time>2026-04-11T14:45:37.109Z</time></trkpt><trkpt lat="40.07936" lon="18.21919"><ele>110.0</ele><time>2026-04-11T14:45:38.109Z</time></trkpt><trkpt lat="40.0791117" lon="18.21928"><ele>110.0</ele><time>2026-04-11T14:45:39.11Z</time></trkpt><trkpt lat="40.0788633" lon="18.2193667"><ele>110.0</ele><time>2026-04-11T14:45:40.109Z</time></trkpt><trkpt lat="40.078615" lon="18.2194533"><ele>110.0</ele><time>2026-04-11T14:45:41.109Z</time></trkpt><trkpt lat="40.0783667" lon="18.2195383"><ele>110.0</ele><time>2026-04-11T14:45:42.109Z</time></trkpt><trkpt lat="40.0781217" lon="18.219625"><ele>110.0</ele><time>2026-04-11T14:45:43.109Z</time></trkpt><trkpt lat="40.077895" lon="18.2197067"><ele>110.0</ele><time>2026-04-11T14:45:44.11Z</time></trkpt><trkpt lat="40.077685" lon="18.2197833"><ele>110.0</ele><time>2026-04-11T14:45:45.11Z</time></trkpt><trkpt lat="40.0774867" lon="18.219855"><ele>110.0</ele><time>2026-04-11T14:45:46.11Z</time></trkpt><trkpt lat="40.0773" lon="18.21992"><ele>110.0</ele><time>2026-04-11T14:45:47.11Z</time></trkpt><trkpt lat="40.0771283" lon="18.2199817"><ele>110.0</ele><time>2026-04-11T14:45:48.109Z</time></trkpt><trkpt lat="40.0769767" lon="18.2200383"><ele>110.0</ele><time>2026-04-11T14:45:49.11Z</time></trkpt><trkpt lat="40.07684" lon="18.2200833"><ele>110.0</ele><time>2026-04-11T14:45:50.109Z</time></trkpt><trkpt lat="40.0767117" lon="18.220125"><ele>110.0</ele><time>2026-04-11T14:45:51.109Z</time></trkpt><trkpt lat="40.0766017" lon="18.220155"><ele>110.0</ele><time>2026-04-11T14:45:52.109Z</time></trkpt><trkpt lat="40.0764967" lon="18.2201767"><ele>110.0</ele><time>2026-04-11T14:45:53.11Z</time></trkpt><trkpt lat="40.07641" lon="18.2201817"><ele>110.0</ele><time>2026-04-11T14:45:54.109Z</time></trkpt><trkpt lat="40.0763417" lon="18.2201667"><ele>110.0</ele><time>2026-04-11T14:45:55.109Z</time></trkpt><trkpt lat="40.0762733" lon="18.2201367"><ele>110.0</ele><time>2026-04-11T14:45:56.109Z</time></trkpt><trkpt lat="40.0761967" lon="18.2201017"><ele>110.0</ele><time>2026-04-11T14:45:57.11Z</time></trkpt><trkpt lat="40.0761133" lon="18.22005"><ele>110.0</ele><time>2026-04-11T14:45:58.109Z</time></trkpt><trkpt lat="40.0760117" lon="18.2199667"><ele>110.0</ele><time>2026-04-11T14:45:59.109Z</time></trkpt><trkpt lat="40.0759083" lon="18.2198483"><ele>110.33333333333333</ele><time>2026-04-11T14:46:00.109Z</time></trkpt><trkpt lat="40.0758067" lon="18.2196933"><ele>110.66666666666666</ele><time>2026-04-11T14:46:01.109Z</time></trkpt><trkpt lat="40.0757033" lon="18.21951"><ele>111.0</ele><time>2026-04-11T14:46:02.109Z</time></trkpt><trkpt lat="40.0755983" lon="18.21932"><ele>111.33333333333334</ele><time>2026-04-11T14:46:03.11Z</time></trkpt><trkpt lat="40.0754833" lon="18.219115"><ele>111.66666666666667</ele><time>2026-04-11T14:46:04.11Z</time></trkpt><trkpt lat="40.0753583" lon="18.2189017"><ele>112.0</ele><time>2026-04-11T14:46:05.109Z</time></trkpt><trkpt lat="40.0752283" lon="18.21868"><ele>112.0</ele><time>2026-04-11T14:46:06.109Z</time></trkpt><trkpt lat="40.0750967" lon="18.2184467"><ele>112.0</ele><time>2026-04-11T14:46:07.109Z</time></trkpt><trkpt lat="40.0749583" lon="18.218205"><ele>111.5</ele><time>2026-04-11T14:46:08.11Z</time></trkpt><trkpt lat="40.0748167" lon="18.217955"><ele>111.0</ele><time>2026-04-11T14:46:09.11Z</time></trkpt><trkpt lat="40.0746717" lon="18.2177"><ele>111.0</ele><time>2026-04-11T14:46:10.109Z</time></trkpt><trkpt lat="40.0745233" lon="18.2174383"><ele>111.0</ele><time>2026-04-11T14:46:11.109Z</time></trkpt><trkpt lat="40.07437" lon="18.2171717"><ele>111.0</ele><time>2026-04-11T14:46:12.11Z</time></trkpt><trkpt lat="40.0742183" lon="18.2168967"><ele>111.0</ele><time>2026-04-11T14:46:13.109Z</time></trkpt><trkpt lat="40.0740633" lon="18.2166233"><ele>112.5</ele><time>2026-04-11T14:46:14.109Z</time></trkpt><trkpt lat="40.0739083" lon="18.216345"><ele>114.0</ele><time>2026-04-11T14:46:15.109Z</time></trkpt><trkpt lat="40.07375" lon="18.2160583"><ele>114.0</ele><time>2026-04-11T14:46:16.11Z</time></trkpt><trkpt lat="40.0735917" lon="18.2157667"><ele>114.0</ele><time>2026-04-11T14:46:17.11Z</time></trkpt><trkpt lat="40.0734283" lon="18.2154667"><ele>113.5</ele><time>2026-04-11T14:46:18.11Z</time></trkpt><trkpt lat="40.0732633" lon="18.215165"><ele>113.0</ele><time>2026-04-11T14:46:19.109Z</time></trkpt><trkpt lat="40.07309" lon="18.2148633"><ele>113.0</ele><time>2026-04-11T14:46:20.109Z</time></trkpt><trkpt lat="40.0729183" lon="18.2145633"><ele>113.0</ele><time>2026-04-11T14:46:21.109Z</time></trkpt><trkpt lat="40.0727483" lon="18.2142667"><ele>112.5</ele><time>2026-04-11T14:46:22.11Z</time></trkpt><trkpt lat="40.0725817" lon="18.21397"><ele>112.0</ele><time>2026-04-11T14:46:23.11Z</time></trkpt><trkpt lat="40.07242" lon="18.2136733"><ele>112.0</ele><time>2026-04-11T14:46:24.11Z</time></trkpt><trkpt lat="40.0722583" lon="18.2133783"><ele>112.0</ele><time>2026-04-11T14:46:25.11Z</time></trkpt><trkpt lat="40.0721017" lon="18.2130817"><ele>112.5</ele><time>2026-04-11T14:46:26.11Z</time></trkpt><trkpt lat="40.0719517" lon="18.2127833"><ele>113.0</ele><time>2026-04-11T14:46:27.109Z</time></trkpt><trkpt lat="40.0718117" lon="18.212475"><ele>113.0</ele><time>2026-04-11T14:46:28.109Z</time></trkpt><trkpt lat="40.071685" lon="18.2121567"><ele>113.0</ele><time>2026-04-11T14:46:29.11Z</time></trkpt><trkpt lat="40.0715733" lon="18.2118283"><ele>113.0</ele><time>2026-04-11T14:46:30.109Z</time></trkpt><trkpt lat="40.0714733" lon="18.2114867"><ele>113.0</ele><time>2026-04-11T14:46:31.109Z</time></trkpt><trkpt lat="40.0713917" lon="18.2111333"><ele>113.0</ele><time>2026-04-11T14:46:32.109Z</time></trkpt><trkpt lat="40.071325" lon="18.2107733"><ele>113.0</ele><time>2026-04-11T14:46:33.11Z</time></trkpt><trkpt lat="40.071265" lon="18.2104033"><ele>113.0</ele><time>2026-04-11T14:46:34.109Z</time></trkpt><trkpt lat="40.0712083" lon="18.2100317"><ele>113.0</ele><time>2026-04-11T14:46:35.109Z</time></trkpt><trkpt lat="40.0711517" lon="18.2096567"><ele>113.0</ele><time>2026-04-11T14:46:36.109Z</time></trkpt><trkpt lat="40.0710967" lon="18.2092817"><ele>113.0</ele><time>2026-04-11T14:46:37.109Z</time></trkpt><trkpt lat="40.0710383" lon="18.2089117"><ele>113.0</ele><time>2026-04-11T14:46:38.11Z</time></trkpt><trkpt lat="40.0709833" lon="18.20854"><ele>113.0</ele><time>2026-04-11T14:46:39.109Z</time></trkpt><trkpt lat="40.070925" lon="18.208165"><ele>113.0</ele><time>2026-04-11T14:46:40.11Z</time></trkpt><trkpt lat="40.0708717" lon="18.2077917"><ele>113.0</ele><time>2026-04-11T14:46:41.11Z</time></trkpt><trkpt lat="40.0708167" lon="18.20742"><ele>112.5</ele><time>2026-04-11T14:46:42.11Z</time></trkpt><trkpt lat="40.0707633" lon="18.20705"><ele>112.0</ele><time>2026-04-11T14:46:43.109Z</time></trkpt><trkpt lat="40.0707117" lon="18.2066983"><ele>112.0</ele><time>2026-04-11T14:46:44.11Z</time></trkpt><trkpt lat="40.070665" lon="18.2063717"><ele>112.0</ele><time>2026-04-11T14:46:45.109Z</time></trkpt><trkpt lat="40.0706217" lon="18.2060633"><ele>112.0</ele><time>2026-04-11T14:46:46.11Z</time></trkpt><trkpt lat="40.0705833" lon="18.2057983"><ele>112.0</ele><time>2026-04-11T14:46:47.11Z</time></trkpt><trkpt lat="40.0705467" lon="18.2055433"><ele>112.0</ele><time>2026-04-11T14:46:48.11Z</time></trkpt><trkpt lat="40.0705183" lon="18.2053317"><ele>112.5</ele><time>2026-04-11T14:46:49.109Z</time></trkpt><trkpt lat="40.0704917" lon="18.20515"><ele>113.0</ele><time>2026-04-11T14:46:50.109Z</time></trkpt><trkpt lat="40.0704683" lon="18.204985"><ele>113.5</ele><time>2026-04-11T14:46:51.11Z</time></trkpt><trkpt lat="40.0704517" lon="18.204845"><ele>114.0</ele><time>2026-04-11T14:46:52.109Z</time></trkpt><trkpt lat="40.07044" lon="18.2047167"><ele>114.0</ele><time>2026-04-11T14:46:53.109Z</time></trkpt><trkpt lat="40.0704467" lon="18.2045933"><ele>114.0</ele><time>2026-04-11T14:46:54.109Z</time></trkpt><trkpt lat="40.0705383" lon="18.2044667"><ele>114.0</ele><time>2026-04-11T14:46:56.109Z</time></trkpt><trkpt lat="40.070565" lon="18.20435"><ele>114.0</ele><time>2026-04-11T14:46:57.109Z</time></trkpt><trkpt lat="40.070565" lon="18.2042267"><ele>114.0</ele><time>2026-04-11T14:46:58.11Z</time></trkpt><trkpt lat="40.07053" lon="18.204105"><ele>113.75</ele><time>2026-04-11T14:46:59.109Z</time></trkpt><trkpt lat="40.0704617" lon="18.2039883"><ele>113.5</ele><time>2026-04-11T14:47:00.109Z</time></trkpt><trkpt lat="40.0703817" lon="18.2038583"><ele>113.25</ele><time>2026-04-11T14:47:01.109Z</time></trkpt><trkpt lat="40.0703117" lon="18.2037017"><ele>113.0</ele><time>2026-04-11T14:47:02.11Z</time></trkpt><trkpt lat="40.0702633" lon="18.2035167"><ele>113.0</ele><time>2026-04-11T14:47:03.11Z</time></trkpt><trkpt lat="40.0702267" lon="18.203315"><ele>113.0</ele><time>2026-04-11T14:47:04.11Z</time></trkpt><trkpt lat="40.0701933" lon="18.2030983"><ele>113.0</ele><time>2026-04-11T14:47:05.109Z</time></trkpt><trkpt lat="40.070155" lon="18.202865"><ele>113.0</ele><time>2026-04-11T14:47:06.109Z</time></trkpt><trkpt lat="40.0701183" lon="18.20262"><ele>113.0</ele><time>2026-04-11T14:47:07.109Z</time></trkpt><trkpt lat="40.0700817" lon="18.2023667"><ele>113.0</ele><time>2026-04-11T14:47:08.109Z</time></trkpt><trkpt lat="40.0700433" lon="18.2021017"><ele>112.66666666666666</ele><time>2026-04-11T14:47:09.109Z</time></trkpt><trkpt lat="40.0700033" lon="18.2018283"><ele>112.33333333333334</ele><time>2026-04-11T14:47:10.11Z</time></trkpt><trkpt lat="40.0699633" lon="18.201545"><ele>112.0</ele><time>2026-04-11T14:47:11.109Z</time></trkpt><trkpt lat="40.069925" lon="18.2012533"><ele>110.5</ele><time>2026-04-11T14:47:12.11Z</time></trkpt><trkpt lat="40.0698833" lon="18.200955"><ele>109.0</ele><time>2026-04-11T14:47:13.109Z</time></trkpt><trkpt lat="40.0698417" lon="18.2006483"><ele>107.5</ele><time>2026-04-11T14:47:14.109Z</time></trkpt><trkpt lat="40.0697967" lon="18.2003333"><ele>106.0</ele><time>2026-04-11T14:47:15.109Z</time></trkpt><trkpt lat="40.0697517" lon="18.2000167"><ele>106.0</ele><time>2026-04-11T14:47:16.109Z</time></trkpt><trkpt lat="40.0697033" lon="18.199695"><ele>106.0</ele><time>2026-04-11T14:47:17.109Z</time></trkpt><trkpt lat="40.0696567" lon="18.199365"><ele>106.0</ele><time>2026-04-11T14:47:18.109Z</time></trkpt><trkpt lat="40.06961" lon="18.1990433"><ele>106.0</ele><time>2026-04-11T14:47:19.11Z</time></trkpt><trkpt lat="40.0695667" lon="18.19874"><ele>106.0</ele><time>2026-04-11T14:47:20.11Z</time></trkpt><trkpt lat="40.0695283" lon="18.1984583"><ele>106.0</ele><time>2026-04-11T14:47:21.11Z</time></trkpt><trkpt lat="40.0694917" lon="18.198185"><ele>106.0</ele><time>2026-04-11T14:47:22.11Z</time></trkpt><trkpt lat="40.0694533" lon="18.1979267"><ele>106.0</ele><time>2026-04-11T14:47:23.109Z</time></trkpt><trkpt lat="40.0694167" lon="18.1976933"><ele>106.0</ele><time>2026-04-11T14:47:24.109Z</time></trkpt><trkpt lat="40.0693817" lon="18.1974767"><ele>106.0</ele><time>2026-04-11T14:47:25.11Z</time></trkpt><trkpt lat="40.069355" lon="18.1972967"><ele>106.0</ele><time>2026-04-11T14:47:26.109Z</time></trkpt><trkpt lat="40.0693317" lon="18.1971467"><ele>106.0</ele><time>2026-04-11T14:47:27.11Z</time></trkpt><trkpt lat="40.0693133" lon="18.1970183"><ele>106.0</ele><time>2026-04-11T14:47:28.11Z</time></trkpt><trkpt lat="40.0693033" lon="18.1969"><ele>106.0</ele><time>2026-04-11T14:47:29.109Z</time></trkpt><trkpt lat="40.069305" lon="18.1967967"><ele>106.0</ele><time>2026-04-11T14:47:30.109Z</time></trkpt><trkpt lat="40.06932" lon="18.1967083"><ele>106.00000000000001</ele><time>2026-04-11T14:47:31.109Z</time></trkpt><trkpt lat="40.06937" lon="18.1965767"><ele>106.0</ele><time>2026-04-11T14:47:33.109Z</time></trkpt><trkpt lat="40.06939" lon="18.1964667"><ele>106.0</ele><time>2026-04-11T14:47:35.109Z</time></trkpt><trkpt lat="40.0693817" lon="18.19638"><ele>106.0</ele><time>2026-04-11T14:47:37.109Z</time></trkpt><trkpt lat="40.06935" lon="18.19628"><ele>106.00000000000001</ele><time>2026-04-11T14:47:40.109Z</time></trkpt><trkpt lat="40.0692883" lon="18.196255"><ele>106.0</ele><time>2026-04-11T14:47:42.109Z</time></trkpt><trkpt lat="40.0692367" lon="18.196325"><ele>106.0</ele><time>2026-04-11T14:47:45.11Z</time></trkpt><trkpt lat="40.0692267" lon="18.19647"><ele>106.0</ele><time>2026-04-11T14:47:47.109Z</time></trkpt><trkpt lat="40.0692333" lon="18.1965783"><ele>106.0</ele><time>2026-04-11T14:47:48.109Z</time></trkpt><trkpt lat="40.06925" lon="18.196705"><ele>106.0</ele><time>2026-04-11T14:47:49.109Z</time></trkpt><trkpt lat="40.069275" lon="18.1968617"><ele>106.0</ele><time>2026-04-11T14:47:50.109Z</time></trkpt><trkpt lat="40.0692983" lon="18.1970317"><ele>106.0</ele><time>2026-04-11T14:47:51.109Z</time></trkpt><trkpt lat="40.0693217" lon="18.197205"><ele>106.0</ele><time>2026-04-11T14:47:52.109Z</time></trkpt><trkpt lat="40.06935" lon="18.197385"><ele>106.0</ele><time>2026-04-11T14:47:53.11Z</time></trkpt><trkpt lat="40.06938" lon="18.1975733"><ele>106.0</ele><time>2026-04-11T14:47:54.109Z</time></trkpt><trkpt lat="40.0694133" lon="18.19777"><ele>106.0</ele><time>2026-04-11T14:47:55.109Z</time></trkpt><trkpt lat="40.069445" lon="18.1979717"><ele>106.0</ele><time>2026-04-11T14:47:56.109Z</time></trkpt><trkpt lat="40.0694733" lon="18.1981733"><ele>106.0</ele><time>2026-04-11T14:47:57.109Z</time></trkpt><trkpt lat="40.0695" lon="18.1983667"><ele>106.0</ele><time>2026-04-11T14:47:58.109Z</time></trkpt><trkpt lat="40.0695217" lon="18.1985417"><ele>106.0</ele><time>2026-04-11T14:47:59.109Z</time></trkpt><trkpt lat="40.0695383" lon="18.19869"><ele>106.0</ele><time>2026-04-11T14:48:00.109Z</time></trkpt><trkpt lat="40.0695433" lon="18.198815"><ele>106.0</ele><time>2026-04-11T14:48:01.109Z</time></trkpt><trkpt lat="40.0695417" lon="18.1989283"><ele>106.0</ele><time>2026-04-11T14:48:02.11Z</time></trkpt><trkpt lat="40.06954" lon="18.1990317"><ele>106.00000000000001</ele><time>2026-04-11T14:48:03.11Z</time></trkpt><trkpt lat="40.069545" lon="18.1991333"><ele>106.0</ele><time>2026-04-11T14:48:04.11Z</time></trkpt><trkpt lat="40.0695517" lon="18.19923"><ele>106.0</ele><time>2026-04-11T14:48:05.111Z</time></trkpt><trkpt lat="40.069555" lon="18.199315"><ele>106.0</ele><time>2026-04-11T14:48:06.11Z</time></trkpt><trkpt lat="40.0695183" lon="18.199445"><ele>106.00000000000001</ele><time>2026-04-11T14:48:08.111Z</time></trkpt><trkpt lat="40.069465" lon="18.1994967"><ele>106.0</ele><time>2026-04-11T14:48:09.11Z</time></trkpt><trkpt lat="40.0693883" lon="18.199545"><ele>106.0</ele><time>2026-04-11T14:48:10.111Z</time></trkpt><trkpt lat="40.0693" lon="18.1995917"><ele>106.0</ele><time>2026-04-11T14:48:11.111Z</time></trkpt><trkpt lat="40.0692067" lon="18.1996383"><ele>106.0</ele><time>2026-04-11T14:48:12.11Z</time></trkpt><trkpt lat="40.0691033" lon="18.1996883"><ele>106.0</ele><time>2026-04-11T14:48:13.111Z</time></trkpt><trkpt lat="40.068995" lon="18.199745"><ele>106.0</ele><time>2026-04-11T14:48:14.111Z</time></trkpt><trkpt lat="40.068885" lon="18.1998033"><ele>105.25</ele><time>2026-04-11T14:48:15.111Z</time></trkpt><trkpt lat="40.0687717" lon="18.1998617"><ele>104.5</ele><time>2026-04-11T14:48:16.11Z</time></trkpt><trkpt lat="40.0686583" lon="18.1999217"><ele>103.75</ele><time>2026-04-11T14:48:17.11Z</time></trkpt><trkpt lat="40.0685483" lon="18.1999867"><ele>103.0</ele><time>2026-04-11T14:48:18.111Z</time></trkpt><trkpt lat="40.06844" lon="18.200055"><ele>103.0</ele><time>2026-04-11T14:48:19.11Z</time></trkpt><trkpt lat="40.0683267" lon="18.2001217"><ele>103.0</ele><time>2026-04-11T14:48:20.111Z</time></trkpt><trkpt lat="40.06821" lon="18.2001867"><ele>103.0</ele><time>2026-04-11T14:48:21.111Z</time></trkpt><trkpt lat="40.068095" lon="18.2002517"><ele>103.0</ele><time>2026-04-11T14:48:22.11Z</time></trkpt><trkpt lat="40.0679817" lon="18.2003117"><ele>103.0</ele><time>2026-04-11T14:48:23.11Z</time></trkpt><trkpt lat="40.067875" lon="18.2003683"><ele>103.0</ele><time>2026-04-11T14:48:24.11Z</time></trkpt><trkpt lat="40.0677783" lon="18.20042"><ele>103.0</ele><time>2026-04-11T14:48:25.11Z</time></trkpt><trkpt lat="40.067685" lon="18.2004733"><ele>103.0</ele><time>2026-04-11T14:48:26.11Z</time></trkpt><trkpt lat="40.0675917" lon="18.200535"><ele>103.0</ele><time>2026-04-11T14:48:27.11Z</time></trkpt><trkpt lat="40.0675" lon="18.2005967"><ele>102.80000000000001</ele><time>2026-04-11T14:48:28.11Z</time></trkpt><trkpt lat="40.0674083" lon="18.2006617"><ele>102.6</ele><time>2026-04-11T14:48:29.11Z</time></trkpt><trkpt lat="40.0673133" lon="18.2007317"><ele>102.4</ele><time>2026-04-11T14:48:30.111Z</time></trkpt><trkpt lat="40.0672217" lon="18.2008017"><ele>102.19999999999999</ele><time>2026-04-11T14:48:31.11Z</time></trkpt><trkpt lat="40.0671383" lon="18.2008683"><ele>102.0</ele><time>2026-04-11T14:48:32.111Z</time></trkpt><trkpt lat="40.067065" lon="18.2009217"><ele>102.0</ele><time>2026-04-11T14:48:33.11Z</time></trkpt><trkpt lat="40.0669967" lon="18.2009767"><ele>102.0</ele><time>2026-04-11T14:48:34.11Z</time></trkpt><trkpt lat="40.066925" lon="18.201035"><ele>102.0</ele><time>2026-04-11T14:48:35.11Z</time></trkpt><trkpt lat="40.0668583" lon="18.20109"><ele>102.0</ele><time>2026-04-11T14:48:36.11Z</time></trkpt><trkpt lat="40.0668" lon="18.2011333"><ele>102.0</ele><time>2026-04-11T14:48:37.111Z</time></trkpt><trkpt lat="40.0667367" lon="18.2011717"><ele>102.0</ele><time>2026-04-11T14:48:38.111Z</time></trkpt><trkpt lat="40.06666" lon="18.2012133"><ele>101.83333333333333</ele><time>2026-04-11T14:48:39.11Z</time></trkpt><trkpt lat="40.0665833" lon="18.2012583"><ele>101.66666666666666</ele><time>2026-04-11T14:48:40.11Z</time></trkpt><trkpt lat="40.06651" lon="18.201305"><ele>101.5</ele><time>2026-04-11T14:48:41.111Z</time></trkpt><trkpt lat="40.0664383" lon="18.2013517"><ele>101.33333333333333</ele><time>2026-04-11T14:48:42.11Z</time></trkpt><trkpt lat="40.0663683" lon="18.2014"><ele>101.16666666666666</ele><time>2026-04-11T14:48:43.11Z</time></trkpt><trkpt lat="40.0662967" lon="18.20145"><ele>101.0</ele><time>2026-04-11T14:48:44.11Z</time></trkpt><trkpt lat="40.066225" lon="18.20149"><ele>100.83333333333333</ele><time>2026-04-11T14:48:45.11Z</time></trkpt><trkpt lat="40.0661567" lon="18.2015233"><ele>100.66666666666666</ele><time>2026-04-11T14:48:46.11Z</time></trkpt><trkpt lat="40.066085" lon="18.20156"><ele>100.5</ele><time>2026-04-11T14:48:47.111Z</time></trkpt><trkpt lat="40.0660033" lon="18.201605"><ele>100.33333333333334</ele><time>2026-04-11T14:48:48.11Z</time></trkpt><trkpt lat="40.0659183" lon="18.20165"><ele>100.16666666666667</ele><time>2026-04-11T14:48:49.111Z</time></trkpt><trkpt lat="40.065835" lon="18.201695"><ele>100.0</ele><time>2026-04-11T14:48:50.11Z</time></trkpt><trkpt lat="40.0657533" lon="18.2017483"><ele>100.00000000000001</ele><time>2026-04-11T14:48:51.111Z</time></trkpt><trkpt lat="40.065675" lon="18.2018"><ele>100.0</ele><time>2026-04-11T14:48:52.111Z</time></trkpt><trkpt lat="40.0655967" lon="18.20185"><ele>100.0</ele><time>2026-04-11T14:48:53.111Z</time></trkpt><trkpt lat="40.0655117" lon="18.2018983"><ele>100.0</ele><time>2026-04-11T14:48:54.11Z</time></trkpt><trkpt lat="40.0654267" lon="18.2019483"><ele>100.00000000000001</ele><time>2026-04-11T14:48:55.11Z</time></trkpt><trkpt lat="40.0653483" lon="18.201995"><ele>100.0</ele><time>2026-04-11T14:48:56.11Z</time></trkpt><trkpt lat="40.06528" lon="18.2020367"><ele>100.00000000000001</ele><time>2026-04-11T14:48:57.11Z</time></trkpt><trkpt lat="40.06522" lon="18.2020717"><ele>100.0</ele><time>2026-04-11T14:48:58.111Z</time></trkpt><trkpt lat="40.065135" lon="18.20212"><ele>100.0</ele><time>2026-04-11T14:49:00.11Z</time></trkpt><trkpt lat="40.065095" lon="18.20222"><ele>100.0</ele><time>2026-04-11T14:49:12.111Z</time></trkpt><trkpt lat="40.06514" lon="18.2023217"><ele>100.00000000000001</ele><time>2026-04-11T14:49:14.11Z</time></trkpt><trkpt lat="40.06518" lon="18.20239"><ele>100.0</ele><time>2026-04-11T14:49:15.11Z</time></trkpt><trkpt lat="40.0652217" lon="18.2024683"><ele>99.85714285714286</ele><time>2026-04-11T14:49:16.11Z</time></trkpt><trkpt lat="40.0652617" lon="18.2025517"><ele>99.71428571428572</ele><time>2026-04-11T14:49:17.111Z</time></trkpt><trkpt lat="40.0653017" lon="18.2026317"><ele>99.57142857142858</ele><time>2026-04-11T14:49:18.11Z</time></trkpt><trkpt lat="40.0653417" lon="18.2027083"><ele>99.42857142857143</ele><time>2026-04-11T14:49:19.11Z</time></trkpt><trkpt lat="40.0653767" lon="18.2027783"><ele>99.28571428571428</ele><time>2026-04-11T14:49:20.11Z</time></trkpt><trkpt lat="40.0654167" lon="18.2028583"><ele>99.14285714285715</ele><time>2026-04-11T14:49:21.11Z</time></trkpt><trkpt lat="40.0654583" lon="18.202945"><ele>99.0</ele><time>2026-04-11T14:49:22.111Z</time></trkpt><trkpt lat="40.0655017" lon="18.2030317"><ele>99.0</ele><time>2026-04-11T14:49:23.11Z</time></trkpt><trkpt lat="40.0655433" lon="18.2031217"><ele>99.0</ele><time>2026-04-11T14:49:24.11Z</time></trkpt><trkpt lat="40.065585" lon="18.20321"><ele>99.0</ele><time>2026-04-11T14:49:25.111Z</time></trkpt><trkpt lat="40.0656267" lon="18.2033"><ele>99.0</ele><time>2026-04-11T14:49:26.111Z</time></trkpt><trkpt lat="40.0656733" lon="18.2033933"><ele>99.0</ele><time>2026-04-11T14:49:27.11Z</time></trkpt><trkpt lat="40.06572" lon="18.20349"><ele>99.0</ele><time>2026-04-11T14:49:28.111Z</time></trkpt><trkpt lat="40.0657683" lon="18.2035883"><ele>99.4</ele><time>2026-04-11T14:49:29.111Z</time></trkpt><trkpt lat="40.06582" lon="18.2036883"><ele>99.80000000000001</ele><time>2026-04-11T14:49:30.11Z</time></trkpt><trkpt lat="40.0658717" lon="18.20379"><ele>100.19999999999999</ele><time>2026-04-11T14:49:31.11Z</time></trkpt><trkpt lat="40.065925" lon="18.2038933"><ele>100.6</ele><time>2026-04-11T14:49:32.11Z</time></trkpt><trkpt lat="40.0659767" lon="18.2039933"><ele>101.0</ele><time>2026-04-11T14:49:33.11Z</time></trkpt><trkpt lat="40.06602" lon="18.2040783"><ele>101.14285714285714</ele><time>2026-04-11T14:49:34.11Z</time></trkpt><trkpt lat="40.0660617" lon="18.2041583"><ele>101.28571428571428</ele><time>2026-04-11T14:49:35.111Z</time></trkpt><trkpt lat="40.0661017" lon="18.2042333"><ele>101.42857142857143</ele><time>2026-04-11T14:49:36.11Z</time></trkpt><trkpt lat="40.0661383" lon="18.2043083"><ele>101.57142857142857</ele><time>2026-04-11T14:49:37.11Z</time></trkpt><trkpt lat="40.0661767" lon="18.2043833"><ele>101.71428571428572</ele><time>2026-04-11T14:49:38.11Z</time></trkpt><trkpt lat="40.06622" lon="18.2044683"><ele>101.85714285714286</ele><time>2026-04-11T14:49:39.11Z</time></trkpt><trkpt lat="40.0662617" lon="18.2045583"><ele>102.0</ele><time>2026-04-11T14:49:40.11Z</time></trkpt><trkpt lat="40.0663067" lon="18.20465"><ele>102.0</ele><time>2026-04-11T14:49:41.111Z</time></trkpt><trkpt lat="40.0663517" lon="18.20474"><ele>102.0</ele><time>2026-04-11T14:49:42.11Z</time></trkpt><trkpt lat="40.0664" lon="18.2048367"><ele>102.0</ele><time>2026-04-11T14:49:43.111Z</time></trkpt><trkpt lat="40.06645" lon="18.204935"><ele>102.0</ele><time>2026-04-11T14:49:44.11Z</time></trkpt><trkpt lat="40.0665" lon="18.2050317"><ele>102.0</ele><time>2026-04-11T14:49:45.111Z</time></trkpt><trkpt lat="40.0665517" lon="18.20513"><ele>102.0</ele><time>2026-04-11T14:49:46.11Z</time></trkpt><trkpt lat="40.0666017" lon="18.205225"><ele>103.0</ele><time>2026-04-11T14:49:47.111Z</time></trkpt><trkpt lat="40.066645" lon="18.2053083"><ele>104.0</ele><time>2026-04-11T14:49:48.11Z</time></trkpt><trkpt lat="40.0666867" lon="18.2053917"><ele>105.0</ele><time>2026-04-11T14:49:49.111Z</time></trkpt><trkpt lat="40.06673" lon="18.2054783"><ele>106.0</ele><time>2026-04-11T14:49:50.11Z</time></trkpt><trkpt lat="40.066775" lon="18.2055667"><ele>107.0</ele><time>2026-04-11T14:49:51.111Z</time></trkpt><trkpt lat="40.0668217" lon="18.2056583"><ele>108.0</ele><time>2026-04-11T14:49:52.111Z</time></trkpt><trkpt lat="40.0668683" lon="18.2057567"><ele>108.0</ele><time>2026-04-11T14:49:53.11Z</time></trkpt><trkpt lat="40.0669183" lon="18.20586"><ele>108.00000000000001</ele><time>2026-04-11T14:49:54.11Z</time></trkpt><trkpt lat="40.06697" lon="18.205965"><ele>108.00000000000001</ele><time>2026-04-11T14:49:55.111Z</time></trkpt><trkpt lat="40.0670233" lon="18.2060733"><ele>108.0</ele><time>2026-04-11T14:49:56.111Z</time></trkpt><trkpt lat="40.0670767" lon="18.2061833"><ele>108.0</ele><time>2026-04-11T14:49:57.111Z</time></trkpt><trkpt lat="40.0671317" lon="18.206295"><ele>108.0</ele><time>2026-04-11T14:49:58.11Z</time></trkpt><trkpt lat="40.067185" lon="18.2064017"><ele>108.00000000000001</ele><time>2026-04-11T14:49:59.111Z</time></trkpt><trkpt lat="40.0672383" lon="18.2065083"><ele>108.00000000000001</ele><time>2026-04-11T14:50:00.11Z</time></trkpt><trkpt lat="40.0672933" lon="18.2066183"><ele>108.0</ele><time>2026-04-11T14:50:01.111Z</time></trkpt><trkpt lat="40.06735" lon="18.2067317"><ele>108.0</ele><time>2026-04-11T14:50:02.111Z</time></trkpt><trkpt lat="40.0674083" lon="18.206845"><ele>108.60000000000001</ele><time>2026-04-11T14:50:03.11Z</time></trkpt><trkpt lat="40.067465" lon="18.2069567"><ele>109.20000000000002</ele><time>2026-04-11T14:50:04.11Z</time></trkpt><trkpt lat="40.0675233" lon="18.2070667"><ele>109.8</ele><time>2026-04-11T14:50:05.11Z</time></trkpt><trkpt lat="40.0675817" lon="18.2071717"><ele>110.4</ele><time>2026-04-11T14:50:06.11Z</time></trkpt><trkpt lat="40.0676383" lon="18.2072717"><ele>111.0</ele><time>2026-04-11T14:50:07.111Z</time></trkpt><trkpt lat="40.067695" lon="18.2073633"><ele>111.19999999999999</ele><time>2026-04-11T14:50:08.111Z</time></trkpt><trkpt lat="40.067745" lon="18.2074567"><ele>111.39999999999999</ele><time>2026-04-11T14:50:09.111Z</time></trkpt><trkpt lat="40.0677883" lon="18.2075583"><ele>111.6</ele><time>2026-04-11T14:50:10.11Z</time></trkpt><trkpt lat="40.0678317" lon="18.20766"><ele>111.8</ele><time>2026-04-11T14:50:11.111Z</time></trkpt><trkpt lat="40.0678767" lon="18.207765"><ele>112.0</ele><time>2026-04-11T14:50:12.11Z</time></trkpt><trkpt lat="40.0679283" lon="18.207875"><ele>112.0</ele><time>2026-04-11T14:50:13.11Z</time></trkpt><trkpt lat="40.0679833" lon="18.2079917"><ele>111.99999999999999</ele><time>2026-04-11T14:50:14.11Z</time></trkpt><trkpt lat="40.0680383" lon="18.208105"><ele>111.99999999999999</ele><time>2026-04-11T14:50:15.11Z</time></trkpt><trkpt lat="40.0680933" lon="18.2082117"><ele>112.0</ele><time>2026-04-11T14:50:16.11Z</time></trkpt><trkpt lat="40.0681383" lon="18.2083067"><ele>112.0</ele><time>2026-04-11T14:50:17.111Z</time></trkpt><trkpt lat="40.06818" lon="18.2083967"><ele>112.16666666666667</ele><time>2026-04-11T14:50:18.11Z</time></trkpt><trkpt lat="40.0682183" lon="18.208485"><ele>112.33333333333334</ele><time>2026-04-11T14:50:19.11Z</time></trkpt><trkpt lat="40.0682533" lon="18.2085717"><ele>112.5</ele><time>2026-04-11T14:50:20.11Z</time></trkpt><trkpt lat="40.068285" lon="18.2086483"><ele>112.66666666666666</ele><time>2026-04-11T14:50:21.11Z</time></trkpt><trkpt lat="40.0683417" lon="18.2087567"><ele>112.83333333333333</ele><time>2026-04-11T14:50:23.11Z</time></trkpt><trkpt lat="40.0684167" lon="18.2088117"><ele>113.0</ele><time>2026-04-11T14:50:25.111Z</time></trkpt><trkpt lat="40.0685217" lon="18.2087783"><ele>112.99999999999999</ele><time>2026-04-11T14:50:27.111Z</time></trkpt><trkpt lat="40.06858" lon="18.208735"><ele>113.0</ele><time>2026-04-11T14:50:28.11Z</time></trkpt><trkpt lat="40.06865" lon="18.2086833"><ele>113.0</ele><time>2026-04-11T14:50:29.11Z</time></trkpt><trkpt lat="40.0687233" lon="18.208635"><ele>113.0</ele><time>2026-04-11T14:50:30.11Z</time></trkpt><trkpt lat="40.0688" lon="18.2085917"><ele>112.99999999999999</ele><time>2026-04-11T14:50:31.111Z</time></trkpt><trkpt lat="40.0688833" lon="18.2085433"><ele>113.0</ele><time>2026-04-11T14:50:32.11Z</time></trkpt><trkpt lat="40.068965" lon="18.2084933"><ele>113.0</ele><time>2026-04-11T14:50:33.111Z</time></trkpt><trkpt lat="40.069045" lon="18.2084367"><ele>113.00000000000001</ele><time>2026-04-11T14:50:34.11Z</time></trkpt><trkpt lat="40.06913" lon="18.2083783"><ele>113.00000000000001</ele><time>2026-04-11T14:50:35.11Z</time></trkpt><trkpt lat="40.0692267" lon="18.2083133"><ele>113.0</ele><time>2026-04-11T14:50:36.111Z</time></trkpt><trkpt lat="40.0693367" lon="18.2082433"><ele>113.0</ele><time>2026-04-11T14:50:37.111Z</time></trkpt><trkpt lat="40.069445" lon="18.20817"><ele>113.0</ele><time>2026-04-11T14:50:38.111Z</time></trkpt><trkpt lat="40.0695483" lon="18.2081"><ele>113.00000000000001</ele><time>2026-04-11T14:50:39.111Z</time></trkpt><trkpt lat="40.0696533" lon="18.2080333"><ele>113.00000000000001</ele><time>2026-04-11T14:50:40.11Z</time></trkpt><trkpt lat="40.0697533" lon="18.2079733"><ele>113.0</ele><time>2026-04-11T14:50:41.11Z</time></trkpt><trkpt lat="40.069845" lon="18.207915"><ele>113.0</ele><time>2026-04-11T14:50:42.11Z</time></trkpt><trkpt lat="40.0699333" lon="18.2078633"><ele>112.60000000000001</ele><time>2026-04-11T14:50:43.11Z</time></trkpt><trkpt lat="40.0700217" lon="18.2078117"><ele>112.20000000000002</ele><time>2026-04-11T14:50:44.111Z</time></trkpt><trkpt lat="40.0701167" lon="18.2077517"><ele>111.8</ele><time>2026-04-11T14:50:45.11Z</time></trkpt><trkpt lat="40.0702067" lon="18.2076933"><ele>111.4</ele><time>2026-04-11T14:50:46.111Z</time></trkpt><trkpt lat="40.0702933" lon="18.2076367"><ele>111.0</ele><time>2026-04-11T14:50:47.111Z</time></trkpt><trkpt lat="40.0703767" lon="18.2075833"><ele>111.0</ele><time>2026-04-11T14:50:48.11Z</time></trkpt><trkpt lat="40.0704517" lon="18.2075367"><ele>111.0</ele><time>2026-04-11T14:50:49.111Z</time></trkpt><trkpt lat="40.0705133" lon="18.2074967"><ele>111.0</ele><time>2026-04-11T14:50:50.11Z</time></trkpt><trkpt lat="40.070615" lon="18.2074583"><ele>111.0</ele><time>2026-04-11T14:50:52.11Z</time></trkpt><trkpt lat="40.0706983" lon="18.2075017"><ele>111.0</ele><time>2026-04-11T14:50:54.11Z</time></trkpt><trkpt lat="40.07076" lon="18.2076383"><ele>111.5</ele><time>2026-04-11T14:50:56.11Z</time></trkpt><trkpt lat="40.0707783" lon="18.2077433"><ele>112.0</ele><time>2026-04-11T14:50:57.11Z</time></trkpt><trkpt lat="40.0707933" lon="18.2078767"><ele>112.5</ele><time>2026-04-11T14:50:58.111Z</time></trkpt><trkpt lat="40.0708167" lon="18.2080433"><ele>113.0</ele><time>2026-04-11T14:50:59.111Z</time></trkpt><trkpt lat="40.070845" lon="18.208225"><ele>113.0</ele><time>2026-04-11T14:51:00.11Z</time></trkpt><trkpt lat="40.0708733" lon="18.208415"><ele>113.0</ele><time>2026-04-11T14:51:01.11Z</time></trkpt><trkpt lat="40.0709" lon="18.2086017"><ele>113.0</ele><time>2026-04-11T14:51:02.11Z</time></trkpt><trkpt lat="40.0709217" lon="18.20877"><ele>113.0</ele><time>2026-04-11T14:51:03.11Z</time></trkpt><trkpt lat="40.070945" lon="18.2089317"><ele>113.25</ele><time>2026-04-11T14:51:04.11Z</time></trkpt><trkpt lat="40.0709683" lon="18.2090983"><ele>113.5</ele><time>2026-04-11T14:51:05.11Z</time></trkpt><trkpt lat="40.0709917" lon="18.2092683"><ele>113.75</ele><time>2026-04-11T14:51:06.11Z</time></trkpt><trkpt lat="40.0710183" lon="18.2094383"><ele>114.0</ele><time>2026-04-11T14:51:07.11Z</time></trkpt><trkpt lat="40.0710483" lon="18.2096067"><ele>114.0</ele><time>2026-04-11T14:51:08.11Z</time></trkpt><trkpt lat="40.0710833" lon="18.2097833"><ele>114.0</ele><time>2026-04-11T14:51:09.11Z</time></trkpt><trkpt lat="40.0711167" lon="18.2099633"><ele>114.0</ele><time>2026-04-11T14:51:10.111Z</time></trkpt><trkpt lat="40.07114" lon="18.2101383"><ele>114.0</ele><time>2026-04-11T14:51:11.11Z</time></trkpt><trkpt lat="40.0711583" lon="18.2103167"><ele>113.75</ele><time>2026-04-11T14:51:12.111Z</time></trkpt><trkpt lat="40.071175" lon="18.2104983"><ele>113.5</ele><time>2026-04-11T14:51:13.11Z</time></trkpt><trkpt lat="40.071195" lon="18.21068"><ele>113.25</ele><time>2026-04-11T14:51:14.111Z</time></trkpt><trkpt lat="40.07122" lon="18.2108667"><ele>113.0</ele><time>2026-04-11T14:51:15.111Z</time></trkpt><trkpt lat="40.0712533" lon="18.2110583"><ele>113.0</ele><time>2026-04-11T14:51:16.11Z</time></trkpt><trkpt lat="40.07129" lon="18.2112483"><ele>113.0</ele><time>2026-04-11T14:51:17.11Z</time></trkpt><trkpt lat="40.0713283" lon="18.2114333"><ele>113.0</ele><time>2026-04-11T14:51:18.11Z</time></trkpt><trkpt lat="40.0713717" lon="18.2116167"><ele>113.0</ele><time>2026-04-11T14:51:19.111Z</time></trkpt><trkpt lat="40.07142" lon="18.2118017"><ele>113.0</ele><time>2026-04-11T14:51:20.11Z</time></trkpt><trkpt lat="40.0714733" lon="18.211985"><ele>113.0</ele><time>2026-04-11T14:51:21.111Z</time></trkpt><trkpt lat="40.07153" lon="18.21216"><ele>113.0</ele><time>2026-04-11T14:51:22.11Z</time></trkpt><trkpt lat="40.0715883" lon="18.21232"><ele>113.0</ele><time>2026-04-11T14:51:23.11Z</time></trkpt><trkpt lat="40.0716517" lon="18.2124733"><ele>113.0</ele><time>2026-04-11T14:51:24.111Z</time></trkpt><trkpt lat="40.07172" lon="18.212625"><ele>113.0</ele><time>2026-04-11T14:51:25.11Z</time></trkpt><trkpt lat="40.0717933" lon="18.2127717"><ele>113.0</ele><time>2026-04-11T14:51:26.11Z</time></trkpt><trkpt lat="40.071865" lon="18.2129083"><ele>113.0</ele><time>2026-04-11T14:51:27.11Z</time></trkpt><trkpt lat="40.0719333" lon="18.2130267"><ele>112.99999999999999</ele><time>2026-04-11T14:51:28.11Z</time></trkpt><trkpt lat="40.07199" lon="18.2131317"><ele>113.0</ele><time>2026-04-11T14:51:29.111Z</time></trkpt><trkpt lat="40.07204" lon="18.21322"><ele>113.0</ele><time>2026-04-11T14:51:30.11Z</time></trkpt><trkpt lat="40.07208" lon="18.2132917"><ele>113.0</ele><time>2026-04-11T14:51:31.11Z</time></trkpt><trkpt lat="40.07212" lon="18.2133617"><ele>112.99999999999999</ele><time>2026-04-11T14:51:32.11Z</time></trkpt><trkpt lat="40.072165" lon="18.21344"><ele>113.0</ele><time>2026-04-11T14:51:33.11Z</time></trkpt><trkpt lat="40.0722133" lon="18.2135317"><ele>112.99999999999999</ele><time>2026-04-11T14:51:34.11Z</time></trkpt><trkpt lat="40.0722683" lon="18.2136283"><ele>113.0</ele><time>2026-04-11T14:51:35.11Z</time></trkpt><trkpt lat="40.0723217" lon="18.2137183"><ele>113.0</ele><time>2026-04-11T14:51:36.11Z</time></trkpt><trkpt lat="40.07237" lon="18.2138067"><ele>113.0</ele><time>2026-04-11T14:51:37.11Z</time></trkpt><trkpt lat="40.0724183" lon="18.213895"><ele>112.99999999999999</ele><time>2026-04-11T14:51:38.111Z</time></trkpt><trkpt lat="40.0724583" lon="18.2139767"><ele>113.0</ele><time>2026-04-11T14:51:39.11Z</time></trkpt><trkpt lat="40.0724883" lon="18.2140567"><ele>112.99999999999999</ele><time>2026-04-11T14:51:40.111Z</time></trkpt><trkpt lat="40.0725" lon="18.2141383"><ele>113.0</ele><time>2026-04-11T14:51:41.11Z</time></trkpt><trkpt lat="40.0725083" lon="18.2142783"><ele>113.0</ele><time>2026-04-11T14:51:43.111Z</time></trkpt><trkpt lat="40.0725417" lon="18.21438"><ele>113.0</ele><time>2026-04-11T14:51:45.11Z</time></trkpt><trkpt lat="40.07259" lon="18.2144333"><ele>112.99999999999999</ele><time>2026-04-11T14:51:47.111Z</time></trkpt><trkpt lat="40.0726783" lon="18.2144517"><ele>113.0</ele><time>2026-04-11T14:52:36.111Z</time></trkpt><trkpt lat="40.0727583" lon="18.2145133"><ele>113.0</ele><time>2026-04-11T14:52:38.11Z</time></trkpt><trkpt lat="40.072835" lon="18.2146017"><ele>113.00000000000001</ele><time>2026-04-11T14:52:40.111Z</time></trkpt><trkpt lat="40.072895" lon="18.2147183"><ele>113.00000000000001</ele><time>2026-04-11T14:52:42.11Z</time></trkpt><trkpt lat="40.0729483" lon="18.2148083"><ele>113.0</ele><time>2026-04-11T14:52:44.111Z</time></trkpt><trkpt lat="40.07302" lon="18.21487"><ele>113.0</ele><time>2026-04-11T14:52:47.11Z</time></trkpt><trkpt lat="40.0730883" lon="18.2149583"><ele>113.0</ele><time>2026-04-11T14:52:49.111Z</time></trkpt><trkpt lat="40.0731333" lon="18.2150333"><ele>113.00000000000001</ele><time>2026-04-11T14:52:50.111Z</time></trkpt><trkpt lat="40.0731867" lon="18.2151333"><ele>113.00000000000001</ele><time>2026-04-11T14:52:51.11Z</time></trkpt><trkpt lat="40.07325" lon="18.215245"><ele>113.0</ele><time>2026-04-11T14:52:52.11Z</time></trkpt><trkpt lat="40.0733217" lon="18.21537"><ele>113.0</ele><time>2026-04-11T14:52:53.111Z</time></trkpt><trkpt lat="40.0734017" lon="18.21551"><ele>113.33333333333333</ele><time>2026-04-11T14:52:54.111Z</time></trkpt><trkpt lat="40.07349" lon="18.215665"><ele>113.66666666666666</ele><time>2026-04-11T14:52:55.111Z</time></trkpt><trkpt lat="40.073585" lon="18.21583"><ele>114.0</ele><time>2026-04-11T14:52:56.11Z</time></trkpt><trkpt lat="40.0736867" lon="18.2160133"><ele>114.0</ele><time>2026-04-11T14:52:57.11Z</time></trkpt><trkpt lat="40.0738067" lon="18.2162133"><ele>114.0</ele><time>2026-04-11T14:52:58.11Z</time></trkpt><trkpt lat="40.0739317" lon="18.2164383"><ele>114.0</ele><time>2026-04-11T14:52:59.111Z</time></trkpt><trkpt lat="40.0740667" lon="18.2166733"><ele>112.5</ele><time>2026-04-11T14:53:00.11Z</time></trkpt><trkpt lat="40.0742017" lon="18.2169133"><ele>111.0</ele><time>2026-04-11T14:53:01.11Z</time></trkpt><trkpt lat="40.07434" lon="18.2171617"><ele>111.0</ele><time>2026-04-11T14:53:02.11Z</time></trkpt><trkpt lat="40.0744883" lon="18.2174217"><ele>111.0</ele><time>2026-04-11T14:53:03.111Z</time></trkpt><trkpt lat="40.0746367" lon="18.21769"><ele>111.0</ele><time>2026-04-11T14:53:04.11Z</time></trkpt><trkpt lat="40.0747867" lon="18.2179583"><ele>111.0</ele><time>2026-04-11T14:53:05.111Z</time></trkpt><trkpt lat="40.0749267" lon="18.2182117"><ele>111.33333333333334</ele><time>2026-04-11T14:53:06.111Z</time></trkpt><trkpt lat="40.0750567" lon="18.2184483"><ele>111.66666666666667</ele><time>2026-04-11T14:53:07.111Z</time></trkpt><trkpt lat="40.0751883" lon="18.2186833"><ele>112.0</ele><time>2026-04-11T14:53:08.11Z</time></trkpt><trkpt lat="40.0753133" lon="18.2189083"><ele>112.0</ele><time>2026-04-11T14:53:09.111Z</time></trkpt><trkpt lat="40.0754333" lon="18.2191167"><ele>112.0</ele><time>2026-04-11T14:53:10.11Z</time></trkpt><trkpt lat="40.0755417" lon="18.2193083"><ele>112.0</ele><time>2026-04-11T14:53:11.111Z</time></trkpt><trkpt lat="40.0756367" lon="18.219475"><ele>112.0</ele><time>2026-04-11T14:53:12.11Z</time></trkpt><trkpt lat="40.07573" lon="18.2196267"><ele>112.0</ele><time>2026-04-11T14:53:13.11Z</time></trkpt><trkpt lat="40.075805" lon="18.219765"><ele>112.0</ele><time>2026-04-11T14:53:14.11Z</time></trkpt><trkpt lat="40.0758817" lon="18.21989"><ele>112.0</ele><time>2026-04-11T14:53:15.11Z</time></trkpt><trkpt lat="40.0759233" lon="18.2200233"><ele>111.6</ele><time>2026-04-11T14:53:16.11Z</time></trkpt><trkpt lat="40.0759483" lon="18.2201617"><ele>111.19999999999999</ele><time>2026-04-11T14:53:17.11Z</time></trkpt><trkpt lat="40.0759617" lon="18.2202933"><ele>110.8</ele><time>2026-04-11T14:53:18.11Z</time></trkpt><trkpt lat="40.075985" lon="18.2204083"><ele>110.4</ele><time>2026-04-11T14:53:19.11Z</time></trkpt><trkpt lat="40.07603" lon="18.220505"><ele>110.0</ele><time>2026-04-11T14:53:20.111Z</time></trkpt><trkpt lat="40.0761033" lon="18.2205833"><ele>110.0</ele><time>2026-04-11T14:53:21.11Z</time></trkpt><trkpt lat="40.0762017" lon="18.2206467"><ele>110.0</ele><time>2026-04-11T14:53:22.111Z</time></trkpt><trkpt lat="40.0763083" lon="18.2207317"><ele>110.0</ele><time>2026-04-11T14:53:23.11Z</time></trkpt><trkpt lat="40.0764117" lon="18.22086"><ele>110.0</ele><time>2026-04-11T14:53:24.111Z</time></trkpt><trkpt lat="40.0765183" lon="18.22103"><ele>109.66666666666666</ele><time>2026-04-11T14:53:25.111Z</time></trkpt><trkpt lat="40.07663" lon="18.2212283"><ele>109.33333333333334</ele><time>2026-04-11T14:53:26.11Z</time></trkpt><trkpt lat="40.0767483" lon="18.2214433"><ele>109.0</ele><time>2026-04-11T14:53:27.11Z</time></trkpt><trkpt lat="40.0768733" lon="18.2216683"><ele>109.0</ele><time>2026-04-11T14:53:28.11Z</time></trkpt><trkpt lat="40.0770083" lon="18.2219017"><ele>109.0</ele><time>2026-04-11T14:53:29.111Z</time></trkpt><trkpt lat="40.077145" lon="18.2221433"><ele>109.5</ele><time>2026-04-11T14:53:30.11Z</time></trkpt><trkpt lat="40.0772667" lon="18.2224067"><ele>110.0</ele><time>2026-04-11T14:53:31.11Z</time></trkpt><trkpt lat="40.07739" lon="18.22266"><ele>109.66666666666666</ele><time>2026-04-11T14:53:32.111Z</time></trkpt><trkpt lat="40.0775317" lon="18.2228617"><ele>109.33333333333334</ele><time>2026-04-11T14:53:33.11Z</time></trkpt><trkpt lat="40.0776617" lon="18.2230817"><ele>109.0</ele><time>2026-04-11T14:53:34.11Z</time></trkpt><trkpt lat="40.0777917" lon="18.22331"><ele>108.5</ele><time>2026-04-11T14:53:35.111Z</time></trkpt><trkpt lat="40.077925" lon="18.223545"><ele>108.0</ele><time>2026-04-11T14:53:36.11Z</time></trkpt><trkpt lat="40.0780583" lon="18.2237867"><ele>108.0</ele><time>2026-04-11T14:53:37.111Z</time></trkpt><trkpt lat="40.0781967" lon="18.2240333"><ele>108.0</ele><time>2026-04-11T14:53:38.111Z</time></trkpt><trkpt lat="40.07834" lon="18.2242883"><ele>109.0</ele><time>2026-04-11T14:53:39.111Z</time></trkpt><trkpt lat="40.0784867" lon="18.224545"><ele>110.0</ele><time>2026-04-11T14:53:40.111Z</time></trkpt><trkpt lat="40.0786333" lon="18.2248033"><ele>109.5</ele><time>2026-04-11T14:53:41.11Z</time></trkpt><trkpt lat="40.07878" lon="18.225065"><ele>109.0</ele><time>2026-04-11T14:53:42.111Z</time></trkpt><trkpt lat="40.0789283" lon="18.2253283"><ele>109.0</ele><time>2026-04-11T14:53:43.11Z</time></trkpt><trkpt lat="40.0790717" lon="18.22559"><ele>109.0</ele><time>2026-04-11T14:53:44.111Z</time></trkpt><trkpt lat="40.079215" lon="18.2258483"><ele>109.0</ele><time>2026-04-11T14:53:45.111Z</time></trkpt><trkpt lat="40.07936" lon="18.226105"><ele>109.0</ele><time>2026-04-11T14:53:46.11Z</time></trkpt><trkpt lat="40.0795067" lon="18.2263617"><ele>108.5</ele><time>2026-04-11T14:53:47.111Z</time></trkpt><trkpt lat="40.0796533" lon="18.2266233"><ele>108.0</ele><time>2026-04-11T14:53:48.111Z</time></trkpt><trkpt lat="40.0798033" lon="18.2268867"><ele>108.5</ele><time>2026-04-11T14:53:49.11Z</time></trkpt><trkpt lat="40.0799533" lon="18.22715"><ele>109.0</ele><time>2026-04-11T14:53:50.111Z</time></trkpt><trkpt lat="40.0801067" lon="18.2274167"><ele>108.0</ele><time>2026-04-11T14:53:51.11Z</time></trkpt><trkpt lat="40.080255" lon="18.2276817"><ele>107.0</ele><time>2026-04-11T14:53:52.11Z</time></trkpt><trkpt lat="40.08041" lon="18.22795"><ele>106.0</ele><time>2026-04-11T14:53:53.11Z</time></trkpt><trkpt lat="40.08056" lon="18.2282117"><ele>105.0</ele><time>2026-04-11T14:53:54.11Z</time></trkpt><trkpt lat="40.0806967" lon="18.2284733"><ele>105.5</ele><time>2026-04-11T14:53:55.111Z</time></trkpt><trkpt lat="40.08085" lon="18.2287333"><ele>106.0</ele><time>2026-04-11T14:53:56.111Z</time></trkpt><trkpt lat="40.081" lon="18.228995"><ele>107.0</ele><time>2026-04-11T14:53:57.11Z</time></trkpt><trkpt lat="40.0811467" lon="18.2292667"><ele>108.0</ele><time>2026-04-11T14:53:58.11Z</time></trkpt><trkpt lat="40.0812967" lon="18.22954"><ele>108.5</ele><time>2026-04-11T14:53:59.111Z</time></trkpt><trkpt lat="40.081445" lon="18.2298133"><ele>109.0</ele><time>2026-04-11T14:54:00.111Z</time></trkpt><trkpt lat="40.0815967" lon="18.2300767"><ele>109.5</ele><time>2026-04-11T14:54:01.11Z</time></trkpt><trkpt lat="40.0817483" lon="18.23035"><ele>110.0</ele><time>2026-04-11T14:54:02.11Z</time></trkpt><trkpt lat="40.0818933" lon="18.23062"><ele>110.0</ele><time>2026-04-11T14:54:03.11Z</time></trkpt><trkpt lat="40.0820433" lon="18.2308817"><ele>110.0</ele><time>2026-04-11T14:54:04.11Z</time></trkpt><trkpt lat="40.0821883" lon="18.2311467"><ele>110.0</ele><time>2026-04-11T14:54:05.109Z</time></trkpt><trkpt lat="40.0823367" lon="18.2314083"><ele>110.0</ele><time>2026-04-11T14:54:06.109Z</time></trkpt><trkpt lat="40.0824817" lon="18.2316717"><ele>109.5</ele><time>2026-04-11T14:54:07.109Z</time></trkpt><trkpt lat="40.0826283" lon="18.231935"><ele>109.0</ele><time>2026-04-11T14:54:08.11Z</time></trkpt><trkpt lat="40.08278" lon="18.232195"><ele>108.5</ele><time>2026-04-11T14:54:09.11Z</time></trkpt><trkpt lat="40.0829217" lon="18.2324683"><ele>108.0</ele><time>2026-04-11T14:54:10.11Z</time></trkpt><trkpt lat="40.0830717" lon="18.2327367"><ele>108.0</ele><time>2026-04-11T14:54:11.11Z</time></trkpt><trkpt lat="40.083225" lon="18.2330067"><ele>108.0</ele><time>2026-04-11T14:54:12.109Z</time></trkpt><trkpt lat="40.0833783" lon="18.2332783"><ele>107.5</ele><time>2026-04-11T14:54:13.109Z</time></trkpt><trkpt lat="40.0835333" lon="18.2335533"><ele>107.0</ele><time>2026-04-11T14:54:14.109Z</time></trkpt><trkpt lat="40.0836883" lon="18.23383"><ele>107.5</ele><time>2026-04-11T14:54:15.11Z</time></trkpt><trkpt lat="40.083845" lon="18.2341083"><ele>108.0</ele><time>2026-04-11T14:54:16.11Z</time></trkpt><trkpt lat="40.0840017" lon="18.23439"><ele>107.5</ele><time>2026-04-11T14:54:17.11Z</time></trkpt><trkpt lat="40.0841617" lon="18.2346767"><ele>107.0</ele><time>2026-04-11T14:54:18.11Z</time></trkpt><trkpt lat="40.084325" lon="18.234965"><ele>107.0</ele><time>2026-04-11T14:54:19.109Z</time></trkpt><trkpt lat="40.0844933" lon="18.2352567"><ele>107.0</ele><time>2026-04-11T14:54:20.11Z</time></trkpt><trkpt lat="40.084655" lon="18.2355517"><ele>107.5</ele><time>2026-04-11T14:54:21.11Z</time></trkpt><trkpt lat="40.0848233" lon="18.235845"><ele>108.0</ele><time>2026-04-11T14:54:22.109Z</time></trkpt><trkpt lat="40.08499" lon="18.2361383"><ele>108.0</ele><time>2026-04-11T14:54:23.11Z</time></trkpt><trkpt lat="40.0851433" lon="18.2364383"><ele>108.0</ele><time>2026-04-11T14:54:24.109Z</time></trkpt><trkpt lat="40.08531" lon="18.2367233"><ele>107.5</ele><time>2026-04-11T14:54:25.109Z</time></trkpt><trkpt lat="40.0854733" lon="18.23701"><ele>107.0</ele><time>2026-04-11T14:54:26.109Z</time></trkpt><trkpt lat="40.0856267" lon="18.2372933"><ele>106.5</ele><time>2026-04-11T14:54:27.109Z</time></trkpt><trkpt lat="40.0857867" lon="18.237575"><ele>106.0</ele><time>2026-04-11T14:54:28.109Z</time></trkpt><trkpt lat="40.0859433" lon="18.2378567"><ele>107.0</ele><time>2026-04-11T14:54:29.109Z</time></trkpt><trkpt lat="40.0861017" lon="18.2381367"><ele>108.0</ele><time>2026-04-11T14:54:30.109Z</time></trkpt><trkpt lat="40.0862567" lon="18.2384133"><ele>108.0</ele><time>2026-04-11T14:54:31.109Z</time></trkpt><trkpt lat="40.0864167" lon="18.2386967"><ele>108.0</ele><time>2026-04-11T14:54:32.11Z</time></trkpt><trkpt lat="40.0865783" lon="18.2389867"><ele>107.0</ele><time>2026-04-11T14:54:33.11Z</time></trkpt><trkpt lat="40.08675" lon="18.239285"><ele>106.0</ele><time>2026-04-11T14:54:34.11Z</time></trkpt><trkpt lat="40.0869283" lon="18.2395933"><ele>105.5</ele><time>2026-04-11T14:54:35.109Z</time></trkpt><trkpt lat="40.087115" lon="18.2399083"><ele>105.0</ele><time>2026-04-11T14:54:36.109Z</time></trkpt><trkpt lat="40.087285" lon="18.2402067"><ele>104.5</ele><time>2026-04-11T14:54:37.109Z</time></trkpt><trkpt lat="40.0874367" lon="18.2404583"><ele>104.0</ele><time>2026-04-11T14:54:38.11Z</time></trkpt><trkpt lat="40.0875817" lon="18.2407133"><ele>103.5</ele><time>2026-04-11T14:54:39.109Z</time></trkpt><trkpt lat="40.0877283" lon="18.2409783"><ele>103.0</ele><time>2026-04-11T14:54:40.109Z</time></trkpt><trkpt lat="40.08789" lon="18.2412567"><ele>102.0</ele><time>2026-04-11T14:54:41.11Z</time></trkpt><trkpt lat="40.0880483" lon="18.24153"><ele>101.0</ele><time>2026-04-11T14:54:42.109Z</time></trkpt><trkpt lat="40.0882067" lon="18.2418167"><ele>100.0</ele><time>2026-04-11T14:54:43.11Z</time></trkpt><trkpt lat="40.08837" lon="18.2421067"><ele>99.0</ele><time>2026-04-11T14:54:44.109Z</time></trkpt><trkpt lat="40.0885317" lon="18.2423967"><ele>98.5</ele><time>2026-04-11T14:54:45.109Z</time></trkpt><trkpt lat="40.088695" lon="18.2426867"><ele>98.0</ele><time>2026-04-11T14:54:46.109Z</time></trkpt><trkpt lat="40.0888583" lon="18.2429783"><ele>98.0</ele><time>2026-04-11T14:54:47.109Z</time></trkpt><trkpt lat="40.0890233" lon="18.2432667"><ele>98.0</ele><time>2026-04-11T14:54:48.109Z</time></trkpt><trkpt lat="40.0892017" lon="18.24356"><ele>97.5</ele><time>2026-04-11T14:54:49.11Z</time></trkpt><trkpt lat="40.08935" lon="18.2438833"><ele>97.0</ele><time>2026-04-11T14:54:50.109Z</time></trkpt><trkpt lat="40.089545" lon="18.24421"><ele>97.0</ele><time>2026-04-11T14:54:51.11Z</time></trkpt><trkpt lat="40.08975" lon="18.2445267"><ele>97.0</ele><time>2026-04-11T14:54:52.11Z</time></trkpt><trkpt lat="40.0899317" lon="18.24489"><ele>96.0</ele><time>2026-04-11T14:54:53.11Z</time></trkpt><trkpt lat="40.0901083" lon="18.2452833"><ele>95.0</ele><time>2026-04-11T14:54:54.109Z</time></trkpt><trkpt lat="40.0903217" lon="18.2456483"><ele>95.0</ele><time>2026-04-11T14:54:55.109Z</time></trkpt><trkpt lat="40.0905367" lon="18.2460217"><ele>95.0</ele><time>2026-04-11T14:54:56.109Z</time></trkpt><trkpt lat="40.0907433" lon="18.2464033"><ele>92.5</ele><time>2026-04-11T14:54:57.109Z</time></trkpt><trkpt lat="40.0909533" lon="18.2467817"><ele>90.0</ele><time>2026-04-11T14:54:58.109Z</time></trkpt><trkpt lat="40.0911633" lon="18.2471583"><ele>90.0</ele><time>2026-04-11T14:54:59.11Z</time></trkpt><trkpt lat="40.0913717" lon="18.2475317"><ele>90.0</ele><time>2026-04-11T14:55:00.109Z</time></trkpt><trkpt lat="40.0915783" lon="18.2479017"><ele>90.5</ele><time>2026-04-11T14:55:01.109Z</time></trkpt><trkpt lat="40.091785" lon="18.2482683"><ele>91.0</ele><time>2026-04-11T14:55:02.109Z</time></trkpt><trkpt lat="40.091995" lon="18.2486233"><ele>90.5</ele><time>2026-04-11T14:55:03.11Z</time></trkpt><trkpt lat="40.0922033" lon="18.24897"><ele>90.0</ele><time>2026-04-11T14:55:04.11Z</time></trkpt><trkpt lat="40.0923983" lon="18.2493167"><ele>90.0</ele><time>2026-04-11T14:55:05.109Z</time></trkpt><trkpt lat="40.0925933" lon="18.2496633"><ele>90.0</ele><time>2026-04-11T14:55:06.11Z</time></trkpt><trkpt lat="40.09279" lon="18.2500067"><ele>89.0</ele><time>2026-04-11T14:55:07.109Z</time></trkpt><trkpt lat="40.0929833" lon="18.2503533"><ele>88.0</ele><time>2026-04-11T14:55:08.109Z</time></trkpt><trkpt lat="40.0931733" lon="18.2507"><ele>88.0</ele><time>2026-04-11T14:55:09.109Z</time></trkpt><trkpt lat="40.093365" lon="18.2510383"><ele>88.0</ele><time>2026-04-11T14:55:10.109Z</time></trkpt><trkpt lat="40.0935533" lon="18.251375"><ele>88.0</ele><time>2026-04-11T14:55:11.11Z</time></trkpt><trkpt lat="40.09364" lon="18.2517467"><ele>88.0</ele><time>2026-04-11T14:55:12.11Z</time></trkpt><trkpt lat="40.0938517" lon="18.252085"><ele>88.0</ele><time>2026-04-11T14:55:13.11Z</time></trkpt><trkpt lat="40.0940367" lon="18.2524117"><ele>88.0</ele><time>2026-04-11T14:55:14.109Z</time></trkpt><trkpt lat="40.0942233" lon="18.2527367"><ele>88.0</ele><time>2026-04-11T14:55:15.109Z</time></trkpt><trkpt lat="40.094405" lon="18.25306"><ele>88.0</ele><time>2026-04-11T14:55:16.109Z</time></trkpt><trkpt lat="40.0945883" lon="18.2533817"><ele>87.5</ele><time>2026-04-11T14:55:17.109Z</time></trkpt><trkpt lat="40.0947767" lon="18.2537083"><ele>87.0</ele><time>2026-04-11T14:55:18.109Z</time></trkpt><trkpt lat="40.0949583" lon="18.254025"><ele>88.0</ele><time>2026-04-11T14:55:19.11Z</time></trkpt><trkpt lat="40.0951317" lon="18.2543233"><ele>89.0</ele><time>2026-04-11T14:55:20.11Z</time></trkpt><trkpt lat="40.0953017" lon="18.254605"><ele>87.0</ele><time>2026-04-11T14:55:21.109Z</time></trkpt><trkpt lat="40.09547" lon="18.25489"><ele>85.0</ele><time>2026-04-11T14:55:22.11Z</time></trkpt><trkpt lat="40.09564" lon="18.2551717"><ele>86.0</ele><time>2026-04-11T14:55:23.11Z</time></trkpt><trkpt lat="40.0958167" lon="18.255485"><ele>87.0</ele><time>2026-04-11T14:55:24.11Z</time></trkpt><trkpt lat="40.0959783" lon="18.2557733"><ele>87.0</ele><time>2026-04-11T14:55:25.109Z</time></trkpt><trkpt lat="40.0961217" lon="18.2558217"><ele>87.0</ele><time>2026-04-11T14:55:26.109Z</time></trkpt><trkpt lat="40.0962883" lon="18.2562017"><ele>85.5</ele><time>2026-04-11T14:55:27.11Z</time></trkpt><trkpt lat="40.096445" lon="18.2565167"><ele>84.0</ele><time>2026-04-11T14:55:28.109Z</time></trkpt><trkpt lat="40.0965983" lon="18.25682"><ele>87.0</ele><time>2026-04-11T14:55:29.109Z</time></trkpt><trkpt lat="40.0967817" lon="18.25708"><ele>90.0</ele><time>2026-04-11T14:55:30.109Z</time></trkpt><trkpt lat="40.0969233" lon="18.2574"><ele>92.5</ele><time>2026-04-11T14:55:31.109Z</time></trkpt><trkpt lat="40.097105" lon="18.2577267"><ele>95.0</ele><time>2026-04-11T14:55:32.11Z</time></trkpt><trkpt lat="40.09729" lon="18.25807"><ele>91.5</ele><time>2026-04-11T14:55:33.109Z</time></trkpt><trkpt lat="40.0974817" lon="18.2584267"><ele>88.0</ele><time>2026-04-11T14:55:34.109Z</time></trkpt><trkpt lat="40.09767" lon="18.25878"><ele>87.5</ele><time>2026-04-11T14:55:35.11Z</time></trkpt><trkpt lat="40.097855" lon="18.2591233"><ele>87.0</ele><time>2026-04-11T14:55:36.109Z</time></trkpt><trkpt lat="40.098045" lon="18.2594617"><ele>86.5</ele><time>2026-04-11T14:55:37.11Z</time></trkpt><trkpt lat="40.0982383" lon="18.2597983"><ele>86.0</ele><time>2026-04-11T14:55:38.109Z</time></trkpt><trkpt lat="40.098435" lon="18.2601417"><ele>85.5</ele><time>2026-04-11T14:55:39.109Z</time></trkpt><trkpt lat="40.0986883" lon="18.2604683"><ele>85.0</ele><time>2026-04-11T14:55:40.11Z</time></trkpt><trkpt lat="40.0988617" lon="18.2608383"><ele>84.0</ele><time>2026-04-11T14:55:41.109Z</time></trkpt><trkpt lat="40.099055" lon="18.2612033"><ele>83.0</ele><time>2026-04-11T14:55:42.11Z</time></trkpt><trkpt lat="40.0992583" lon="18.2615683"><ele>82.5</ele><time>2026-04-11T14:55:43.11Z</time></trkpt><trkpt lat="40.0994667" lon="18.26194"><ele>82.0</ele><time>2026-04-11T14:55:44.109Z</time></trkpt><trkpt lat="40.0996767" lon="18.2623183"><ele>82.0</ele><time>2026-04-11T14:55:45.11Z</time></trkpt><trkpt lat="40.09989" lon="18.2626983"><ele>82.0</ele><time>2026-04-11T14:55:46.11Z</time></trkpt><trkpt lat="40.100105" lon="18.2630833"><ele>83.0</ele><time>2026-04-11T14:55:47.11Z</time></trkpt><trkpt lat="40.1003217" lon="18.2634783"><ele>84.0</ele><time>2026-04-11T14:55:48.109Z</time></trkpt><trkpt lat="40.100545" lon="18.2638767"><ele>83.5</ele><time>2026-04-11T14:55:49.11Z</time></trkpt><trkpt lat="40.10077" lon="18.26428"><ele>83.0</ele><time>2026-04-11T14:55:50.109Z</time></trkpt><trkpt lat="40.100985" lon="18.26467"><ele>83.5</ele><time>2026-04-11T14:55:51.109Z</time></trkpt><trkpt lat="40.1011867" lon="18.2650317"><ele>84.0</ele><time>2026-04-11T14:55:52.11Z</time></trkpt><trkpt lat="40.1013817" lon="18.2653833"><ele>84.0</ele><time>2026-04-11T14:55:53.109Z</time></trkpt><trkpt lat="40.1015767" lon="18.2657333"><ele>84.0</ele><time>2026-04-11T14:55:54.11Z</time></trkpt><trkpt lat="40.1017883" lon="18.26609"><ele>85.0</ele><time>2026-04-11T14:55:55.11Z</time></trkpt><trkpt lat="40.1019883" lon="18.2664417"><ele>86.0</ele><time>2026-04-11T14:55:56.109Z</time></trkpt><trkpt lat="40.1021783" lon="18.2667917"><ele>86.0</ele><time>2026-04-11T14:55:57.11Z</time></trkpt><trkpt lat="40.1023783" lon="18.267145"><ele>86.0</ele><time>2026-04-11T14:55:58.109Z</time></trkpt><trkpt lat="40.102565" lon="18.2674983"><ele>85.0</ele><time>2026-04-11T14:55:59.11Z</time></trkpt><trkpt lat="40.102745" lon="18.26783"><ele>84.0</ele><time>2026-04-11T14:56:00.109Z</time></trkpt><trkpt lat="40.1029067" lon="18.2681367"><ele>84.0</ele><time>2026-04-11T14:56:01.11Z</time></trkpt><trkpt lat="40.1030583" lon="18.26842"><ele>84.0</ele><time>2026-04-11T14:56:02.11Z</time></trkpt><trkpt lat="40.1031883" lon="18.2686617"><ele>83.0</ele><time>2026-04-11T14:56:03.109Z</time></trkpt><trkpt lat="40.103305" lon="18.2688733"><ele>82.0</ele><time>2026-04-11T14:56:04.11Z</time></trkpt><trkpt lat="40.1034217" lon="18.2690733"><ele>81.0</ele><time>2026-04-11T14:56:05.109Z</time></trkpt><trkpt lat="40.1035517" lon="18.26929"><ele>80.66666666666667</ele><time>2026-04-11T14:56:06.11Z</time></trkpt><trkpt lat="40.1036917" lon="18.269495"><ele>80.33333333333334</ele><time>2026-04-11T14:56:07.109Z</time></trkpt><trkpt lat="40.103805" lon="18.2697017"><ele>80.0</ele><time>2026-04-11T14:56:08.11Z</time></trkpt><trkpt lat="40.103925" lon="18.2699067"><ele>79.66666666666667</ele><time>2026-04-11T14:56:09.109Z</time></trkpt><trkpt lat="40.10403" lon="18.2701"><ele>79.33333333333333</ele><time>2026-04-11T14:56:10.11Z</time></trkpt><trkpt lat="40.1041367" lon="18.2702817"><ele>79.0</ele><time>2026-04-11T14:56:11.109Z</time></trkpt><trkpt lat="40.1042367" lon="18.2704533"><ele>79.0</ele><time>2026-04-11T14:56:12.109Z</time></trkpt><trkpt lat="40.10434" lon="18.270645"><ele>79.0</ele><time>2026-04-11T14:56:13.11Z</time></trkpt><trkpt lat="40.1044433" lon="18.2708317"><ele>79.0</ele><time>2026-04-11T14:56:14.109Z</time></trkpt><trkpt lat="40.1045517" lon="18.2710117"><ele>79.0</ele><time>2026-04-11T14:56:15.109Z</time></trkpt><trkpt lat="40.1046567" lon="18.2712"><ele>79.0</ele><time>2026-04-11T14:56:16.109Z</time></trkpt><trkpt lat="40.10472" lon="18.2714"><ele>79.0</ele><time>2026-04-11T14:56:17.109Z</time></trkpt><trkpt lat="40.10483" lon="18.2715133"><ele>79.33333333333333</ele><time>2026-04-11T14:56:18.109Z</time></trkpt><trkpt lat="40.1049183" lon="18.2716683"><ele>79.66666666666667</ele><time>2026-04-11T14:56:19.11Z</time></trkpt><trkpt lat="40.105015" lon="18.27184"><ele>80.0</ele><time>2026-04-11T14:56:20.109Z</time></trkpt><trkpt lat="40.105115" lon="18.2720183"><ele>80.0</ele><time>2026-04-11T14:56:21.109Z</time></trkpt><trkpt lat="40.1052217" lon="18.2722167"><ele>80.0</ele><time>2026-04-11T14:56:22.109Z</time></trkpt><trkpt lat="40.10534" lon="18.2724333"><ele>80.0</ele><time>2026-04-11T14:56:23.109Z</time></trkpt><trkpt lat="40.1054567" lon="18.2726533"><ele>80.33333333333334</ele><time>2026-04-11T14:56:24.109Z</time></trkpt><trkpt lat="40.1055717" lon="18.272865"><ele>80.66666666666667</ele><time>2026-04-11T14:56:25.109Z</time></trkpt><trkpt lat="40.1056883" lon="18.27307"><ele>81.0</ele><time>2026-04-11T14:56:26.109Z</time></trkpt><trkpt lat="40.1058033" lon="18.2732683"><ele>80.33333333333333</ele><time>2026-04-11T14:56:27.109Z</time></trkpt><trkpt lat="40.1059117" lon="18.2734567"><ele>79.66666666666666</ele><time>2026-04-11T14:56:28.109Z</time></trkpt><trkpt lat="40.106015" lon="18.2736417"><ele>79.0</ele><time>2026-04-11T14:56:29.109Z</time></trkpt><trkpt lat="40.10612" lon="18.273825"><ele>79.0</ele><time>2026-04-11T14:56:30.11Z</time></trkpt><trkpt lat="40.1062367" lon="18.2740183"><ele>79.0</ele><time>2026-04-11T14:56:31.109Z</time></trkpt><trkpt lat="40.1063683" lon="18.2742317"><ele>79.0</ele><time>2026-04-11T14:56:32.109Z</time></trkpt><trkpt lat="40.106505" lon="18.27447"><ele>78.5</ele><time>2026-04-11T14:56:33.109Z</time></trkpt><trkpt lat="40.1066383" lon="18.2747267"><ele>78.0</ele><time>2026-04-11T14:56:34.109Z</time></trkpt><trkpt lat="40.1067733" lon="18.2749917"><ele>78.0</ele><time>2026-04-11T14:56:35.109Z</time></trkpt><trkpt lat="40.106915" lon="18.275265"><ele>78.0</ele><time>2026-04-11T14:56:36.109Z</time></trkpt><trkpt lat="40.1070683" lon="18.2755383"><ele>78.5</ele><time>2026-04-11T14:56:37.11Z</time></trkpt><trkpt lat="40.1072267" lon="18.275815"><ele>79.0</ele><time>2026-04-11T14:56:38.109Z</time></trkpt><trkpt lat="40.1073867" lon="18.2760967"><ele>78.5</ele><time>2026-04-11T14:56:39.11Z</time></trkpt><trkpt lat="40.107545" lon="18.2763867"><ele>78.0</ele><time>2026-04-11T14:56:40.11Z</time></trkpt><trkpt lat="40.1077067" lon="18.2766817"><ele>79.5</ele><time>2026-04-11T14:56:41.109Z</time></trkpt><trkpt lat="40.10787" lon="18.27698"><ele>81.0</ele><time>2026-04-11T14:56:42.109Z</time></trkpt><trkpt lat="40.1080367" lon="18.27728"><ele>81.0</ele><time>2026-04-11T14:56:43.109Z</time></trkpt><trkpt lat="40.108205" lon="18.27758"><ele>81.0</ele><time>2026-04-11T14:56:44.109Z</time></trkpt><trkpt lat="40.1083767" lon="18.2778817"><ele>80.5</ele><time>2026-04-11T14:56:45.109Z</time></trkpt><trkpt lat="40.10855" lon="18.2781833"><ele>80.0</ele><time>2026-04-11T14:56:46.109Z</time></trkpt><trkpt lat="40.1087083" lon="18.2785"><ele>80.0</ele><time>2026-04-11T14:56:47.109Z</time></trkpt><trkpt lat="40.1088867" lon="18.2787917"><ele>80.0</ele><time>2026-04-11T14:56:48.11Z</time></trkpt><trkpt lat="40.10907" lon="18.2790867"><ele>82.5</ele><time>2026-04-11T14:56:49.11Z</time></trkpt><trkpt lat="40.109235" lon="18.2793933"><ele>85.0</ele><time>2026-04-11T14:56:50.11Z</time></trkpt><trkpt lat="40.1094" lon="18.2796983"><ele>86.0</ele><time>2026-04-11T14:56:51.109Z</time></trkpt><trkpt lat="40.1095717" lon="18.2800017"><ele>87.0</ele><time>2026-04-11T14:56:52.109Z</time></trkpt><trkpt lat="40.1097417" lon="18.2803033"><ele>88.5</ele><time>2026-04-11T14:56:53.11Z</time></trkpt><trkpt lat="40.1099117" lon="18.2806083"><ele>90.0</ele><time>2026-04-11T14:56:54.109Z</time></trkpt><trkpt lat="40.1100783" lon="18.2809167"><ele>90.0</ele><time>2026-04-11T14:56:55.11Z</time></trkpt><trkpt lat="40.11025" lon="18.2812233"><ele>90.0</ele><time>2026-04-11T14:56:56.11Z</time></trkpt><trkpt lat="40.1104217" lon="18.28153"><ele>90.5</ele><time>2026-04-11T14:56:57.109Z</time></trkpt><trkpt lat="40.110595" lon="18.2818383"><ele>91.0</ele><time>2026-04-11T14:56:58.109Z</time></trkpt><trkpt lat="40.1107683" lon="18.2821483"><ele>90.0</ele><time>2026-04-11T14:56:59.11Z</time></trkpt><trkpt lat="40.11094" lon="18.2824567"><ele>89.0</ele><time>2026-04-11T14:57:00.109Z</time></trkpt><trkpt lat="40.1111133" lon="18.2827617"><ele>89.0</ele><time>2026-04-11T14:57:01.11Z</time></trkpt><trkpt lat="40.1112833" lon="18.2830617"><ele>89.0</ele><time>2026-04-11T14:57:02.109Z</time></trkpt><trkpt lat="40.1114533" lon="18.2833633"><ele>88.5</ele><time>2026-04-11T14:57:03.109Z</time></trkpt><trkpt lat="40.1116233" lon="18.2836683"><ele>88.0</ele><time>2026-04-11T14:57:04.109Z</time></trkpt><trkpt lat="40.1117933" lon="18.2839783"><ele>86.5</ele><time>2026-04-11T14:57:05.109Z</time></trkpt><trkpt lat="40.1119683" lon="18.28429"><ele>85.0</ele><time>2026-04-11T14:57:06.109Z</time></trkpt><trkpt lat="40.1121433" lon="18.2845983"><ele>84.0</ele><time>2026-04-11T14:57:07.11Z</time></trkpt><trkpt lat="40.1123183" lon="18.2849067"><ele>83.0</ele><time>2026-04-11T14:57:08.11Z</time></trkpt><trkpt lat="40.1124933" lon="18.285215"><ele>83.0</ele><time>2026-04-11T14:57:09.109Z</time></trkpt><trkpt lat="40.1126617" lon="18.285525"><ele>83.0</ele><time>2026-04-11T14:57:10.109Z</time></trkpt><trkpt lat="40.11284" lon="18.2858367"><ele>82.5</ele><time>2026-04-11T14:57:11.109Z</time></trkpt><trkpt lat="40.113015" lon="18.2861483"><ele>82.0</ele><time>2026-04-11T14:57:12.11Z</time></trkpt><trkpt lat="40.1131917" lon="18.2864583"><ele>83.5</ele><time>2026-04-11T14:57:13.109Z</time></trkpt><trkpt lat="40.1133667" lon="18.2867683"><ele>85.0</ele><time>2026-04-11T14:57:14.109Z</time></trkpt><trkpt lat="40.1135383" lon="18.2870783"><ele>83.0</ele><time>2026-04-11T14:57:15.109Z</time></trkpt><trkpt lat="40.11371" lon="18.287385"><ele>81.0</ele><time>2026-04-11T14:57:16.11Z</time></trkpt><trkpt lat="40.1138833" lon="18.2876933"><ele>81.0</ele><time>2026-04-11T14:57:17.11Z</time></trkpt><trkpt lat="40.114055" lon="18.2879967"><ele>81.0</ele><time>2026-04-11T14:57:18.109Z</time></trkpt><trkpt lat="40.1142267" lon="18.2883017"><ele>81.0</ele><time>2026-04-11T14:57:19.11Z</time></trkpt><trkpt lat="40.1144" lon="18.2886133"><ele>81.0</ele><time>2026-04-11T14:57:20.109Z</time></trkpt><trkpt lat="40.1145667" lon="18.2889117"><ele>82.5</ele><time>2026-04-11T14:57:21.11Z</time></trkpt><trkpt lat="40.1147217" lon="18.2891967"><ele>84.0</ele><time>2026-04-11T14:57:22.11Z</time></trkpt><trkpt lat="40.1148717" lon="18.2894617"><ele>83.33333333333333</ele><time>2026-04-11T14:57:23.109Z</time></trkpt><trkpt lat="40.1149983" lon="18.2896783"><ele>82.66666666666666</ele><time>2026-04-11T14:57:24.109Z</time></trkpt><trkpt lat="40.1151233" lon="18.2898917"><ele>82.0</ele><time>2026-04-11T14:57:25.109Z</time></trkpt><trkpt lat="40.1152383" lon="18.2900917"><ele>84.0</ele><time>2026-04-11T14:57:26.109Z</time></trkpt><trkpt lat="40.1153417" lon="18.2902783"><ele>86.0</ele><time>2026-04-11T14:57:27.109Z</time></trkpt><trkpt lat="40.11549" lon="18.2905617"><ele>88.0</ele><time>2026-04-11T14:57:28.11Z</time></trkpt><trkpt lat="40.1155983" lon="18.2907517"><ele>88.66666666666666</ele><time>2026-04-11T14:57:29.109Z</time></trkpt><trkpt lat="40.1156967" lon="18.2909417"><ele>89.33333333333333</ele><time>2026-04-11T14:57:30.11Z</time></trkpt><trkpt lat="40.1157933" lon="18.291125"><ele>90.0</ele><time>2026-04-11T14:57:31.109Z</time></trkpt><trkpt lat="40.1158867" lon="18.291315"><ele>90.0</ele><time>2026-04-11T14:57:32.109Z</time></trkpt><trkpt lat="40.1159817" lon="18.291485"><ele>90.0</ele><time>2026-04-11T14:57:33.109Z</time></trkpt><trkpt lat="40.11607" lon="18.2916383"><ele>90.0</ele><time>2026-04-11T14:57:34.11Z</time></trkpt><trkpt lat="40.116145" lon="18.291785"><ele>90.0</ele><time>2026-04-11T14:57:35.11Z</time></trkpt><trkpt lat="40.1162067" lon="18.2919233"><ele>90.0</ele><time>2026-04-11T14:57:36.109Z</time></trkpt><trkpt lat="40.116265" lon="18.29204"><ele>90.0</ele><time>2026-04-11T14:57:37.109Z</time></trkpt><trkpt lat="40.1163367" lon="18.29206"><ele>90.0</ele><time>2026-04-11T14:57:39.11Z</time></trkpt><trkpt lat="40.1163983" lon="18.2921767"><ele>90.0</ele><time>2026-04-11T14:57:40.109Z</time></trkpt><trkpt lat="40.116445" lon="18.292305"><ele>90.0</ele><time>2026-04-11T14:57:41.11Z</time></trkpt><trkpt lat="40.1165033" lon="18.2923733"><ele>90.0</ele><time>2026-04-11T14:57:42.109Z</time></trkpt><trkpt lat="40.1165767" lon="18.2925483"><ele>90.0</ele><time>2026-04-11T14:57:43.109Z</time></trkpt><trkpt lat="40.116645" lon="18.2926933"><ele>90.0</ele><time>2026-04-11T14:57:44.11Z</time></trkpt><trkpt lat="40.1167133" lon="18.2928333"><ele>90.0</ele><time>2026-04-11T14:57:45.109Z</time></trkpt><trkpt lat="40.11678" lon="18.2929533"><ele>90.0</ele><time>2026-04-11T14:57:46.109Z</time></trkpt><trkpt lat="40.1168367" lon="18.2930617"><ele>90.0</ele><time>2026-04-11T14:57:47.109Z</time></trkpt><trkpt lat="40.1168967" lon="18.2931767"><ele>90.0</ele><time>2026-04-11T14:57:48.109Z</time></trkpt><trkpt lat="40.1169583" lon="18.293305"><ele>90.0</ele><time>2026-04-11T14:57:49.11Z</time></trkpt><trkpt lat="40.1170067" lon="18.2934183"><ele>90.0</ele><time>2026-04-11T14:57:50.109Z</time></trkpt><trkpt lat="40.11707" lon="18.2934417"><ele>90.0</ele><time>2026-04-11T14:57:51.11Z</time></trkpt><trkpt lat="40.1171083" lon="18.2935617"><ele>90.0</ele><time>2026-04-11T14:57:52.109Z</time></trkpt><trkpt lat="40.1171317" lon="18.2936917"><ele>90.0</ele><time>2026-04-11T14:57:53.109Z</time></trkpt><trkpt lat="40.1171483" lon="18.2938367"><ele>90.0</ele><time>2026-04-11T14:57:54.109Z</time></trkpt><trkpt lat="40.1171717" lon="18.293985"><ele>90.0</ele><time>2026-04-11T14:57:55.109Z</time></trkpt><trkpt lat="40.1171683" lon="18.29417"><ele>89.8</ele><time>2026-04-11T14:57:56.109Z</time></trkpt><trkpt lat="40.1172133" lon="18.29424"><ele>89.6</ele><time>2026-04-11T14:57:57.11Z</time></trkpt><trkpt lat="40.117235" lon="18.2944383"><ele>89.4</ele><time>2026-04-11T14:57:59.11Z</time></trkpt><trkpt lat="40.117225" lon="18.2945317"><ele>89.2</ele><time>2026-04-11T14:58:00.109Z</time></trkpt><trkpt lat="40.1172667" lon="18.2946383"><ele>89.0</ele><time>2026-04-11T14:58:54.11Z</time></trkpt><trkpt lat="40.117275" lon="18.294725"><ele>88.4</ele><time>2026-04-11T14:58:55.111Z</time></trkpt><trkpt lat="40.1172733" lon="18.294825"><ele>87.80000000000001</ele><time>2026-04-11T14:58:56.111Z</time></trkpt><trkpt lat="40.1172967" lon="18.2949267"><ele>87.19999999999999</ele><time>2026-04-11T14:58:57.111Z</time></trkpt><trkpt lat="40.11731" lon="18.2950233"><ele>86.6</ele><time>2026-04-11T14:58:58.11Z</time></trkpt><trkpt lat="40.1173233" lon="18.295135"><ele>86.0</ele><time>2026-04-11T14:58:59.11Z</time></trkpt><trkpt lat="40.117325" lon="18.2953233"><ele>86.0</ele><time>2026-04-11T14:59:01.11Z</time></trkpt><trkpt lat="40.1173367" lon="18.2955683"><ele>86.0</ele><time>2026-04-11T14:59:02.111Z</time></trkpt><trkpt lat="40.11736" lon="18.2957767"><ele>86.0</ele><time>2026-04-11T14:59:03.11Z</time></trkpt><trkpt lat="40.117435" lon="18.2958783"><ele>86.25</ele><time>2026-04-11T14:59:04.11Z</time></trkpt><trkpt lat="40.117455" lon="18.2960367"><ele>86.5</ele><time>2026-04-11T14:59:05.111Z</time></trkpt><trkpt lat="40.1174867" lon="18.2962483"><ele>86.75</ele><time>2026-04-11T14:59:06.111Z</time></trkpt><trkpt lat="40.1174967" lon="18.2963633"><ele>87.0</ele><time>2026-04-11T14:59:07.11Z</time></trkpt><trkpt lat="40.1175283" lon="18.2965067"><ele>86.6</ele><time>2026-04-11T14:59:09.111Z</time></trkpt><trkpt lat="40.117535" lon="18.296605"><ele>86.19999999999999</ele><time>2026-04-11T14:59:10.11Z</time></trkpt><trkpt lat="40.1175967" lon="18.29665"><ele>85.8</ele><time>2026-04-11T14:59:11.11Z</time></trkpt><trkpt lat="40.1175783" lon="18.29679"><ele>85.4</ele><time>2026-04-11T14:59:12.111Z</time></trkpt><trkpt lat="40.1175783" lon="18.2969433"><ele>85.0</ele><time>2026-04-11T14:59:13.11Z</time></trkpt><trkpt lat="40.1176033" lon="18.2970833"><ele>85.0</ele><time>2026-04-11T14:59:14.11Z</time></trkpt><trkpt lat="40.1176283" lon="18.2972167"><ele>85.0</ele><time>2026-04-11T14:59:15.111Z</time></trkpt><trkpt lat="40.117635" lon="18.2973717"><ele>85.0</ele><time>2026-04-11T14:59:16.11Z</time></trkpt><trkpt lat="40.1176833" lon="18.297445"><ele>85.0</ele><time>2026-04-11T14:59:17.111Z</time></trkpt><trkpt lat="40.1177083" lon="18.29755"><ele>85.0</ele><time>2026-04-11T14:59:18.11Z</time></trkpt><trkpt lat="40.1177133" lon="18.2976767"><ele>84.83333333333333</ele><time>2026-04-11T14:59:20.111Z</time></trkpt><trkpt lat="40.1177233" lon="18.2978367"><ele>84.66666666666666</ele><time>2026-04-11T14:59:22.111Z</time></trkpt><trkpt lat="40.1177283" lon="18.297925"><ele>84.5</ele><time>2026-04-11T14:59:23.11Z</time></trkpt><trkpt lat="40.11774" lon="18.298025"><ele>84.33333333333333</ele><time>2026-04-11T14:59:24.111Z</time></trkpt><trkpt lat="40.1177567" lon="18.2981267"><ele>84.16666666666667</ele><time>2026-04-11T14:59:25.111Z</time></trkpt><trkpt lat="40.1177767" lon="18.298225"><ele>84.0</ele><time>2026-04-11T14:59:26.11Z</time></trkpt><trkpt lat="40.11779" lon="18.2983217"><ele>84.0</ele><time>2026-04-11T14:59:27.11Z</time></trkpt><trkpt lat="40.1178067" lon="18.2984183"><ele>84.0</ele><time>2026-04-11T14:59:28.111Z</time></trkpt><trkpt lat="40.1178233" lon="18.2985133"><ele>84.0</ele><time>2026-04-11T14:59:29.111Z</time></trkpt><trkpt lat="40.1178367" lon="18.2986017"><ele>84.0</ele><time>2026-04-11T14:59:30.111Z</time></trkpt><trkpt lat="40.1178517" lon="18.2986817"><ele>84.0</ele><time>2026-04-11T14:59:31.11Z</time></trkpt><trkpt lat="40.1178567" lon="18.2988117"><ele>84.0</ele><time>2026-04-11T14:59:33.11Z</time></trkpt><trkpt lat="40.1177933" lon="18.2988683"><ele>84.0</ele><time>2026-04-11T14:59:35.111Z</time></trkpt><trkpt lat="40.1176667" lon="18.2988917"><ele>84.0</ele><time>2026-04-11T14:59:37.11Z</time></trkpt><trkpt lat="40.1175733" lon="18.298885"><ele>84.0</ele><time>2026-04-11T14:59:38.11Z</time></trkpt><trkpt lat="40.1174983" lon="18.298935"><ele>84.0</ele><time>2026-04-11T14:59:39.11Z</time></trkpt><trkpt lat="40.1174017" lon="18.2988267"><ele>84.0</ele><time>2026-04-11T14:59:40.111Z</time></trkpt><trkpt lat="40.1172433" lon="18.29887"><ele>84.0</ele><time>2026-04-11T14:59:41.111Z</time></trkpt><trkpt lat="40.117145" lon="18.2989383"><ele>84.0</ele><time>2026-04-11T14:59:42.11Z</time></trkpt><trkpt lat="40.1169833" lon="18.2989533"><ele>84.0</ele><time>2026-04-11T14:59:43.11Z</time></trkpt><trkpt lat="40.1168183" lon="18.2989583"><ele>84.0</ele><time>2026-04-11T14:59:44.11Z</time></trkpt><trkpt lat="40.11666" lon="18.2989633"><ele>83.75</ele><time>2026-04-11T14:59:45.111Z</time></trkpt><trkpt lat="40.1165067" lon="18.29897"><ele>83.5</ele><time>2026-04-11T14:59:46.11Z</time></trkpt><trkpt lat="40.1163683" lon="18.2989833"><ele>83.25</ele><time>2026-04-11T14:59:47.11Z</time></trkpt><trkpt lat="40.116245" lon="18.2989883"><ele>83.0</ele><time>2026-04-11T14:59:48.11Z</time></trkpt><trkpt lat="40.1161333" lon="18.2990033"><ele>83.0</ele><time>2026-04-11T14:59:49.11Z</time></trkpt><trkpt lat="40.1160417" lon="18.299015"><ele>83.0</ele><time>2026-04-11T14:59:50.11Z</time></trkpt><trkpt lat="40.1159617" lon="18.2990183"><ele>83.0</ele><time>2026-04-11T14:59:51.111Z</time></trkpt><trkpt lat="40.115885" lon="18.29902"><ele>83.0</ele><time>2026-04-11T14:59:52.11Z</time></trkpt><trkpt lat="40.1158" lon="18.29902"><ele>83.0</ele><time>2026-04-11T14:59:53.111Z</time></trkpt><trkpt lat="40.1157083" lon="18.2990183"><ele>83.0</ele><time>2026-04-11T14:59:54.111Z</time></trkpt><trkpt lat="40.11562" lon="18.2990167"><ele>83.4</ele><time>2026-04-11T14:59:55.11Z</time></trkpt><trkpt lat="40.1155267" lon="18.29902"><ele>83.80000000000001</ele><time>2026-04-11T14:59:56.11Z</time></trkpt><trkpt lat="40.1154233" lon="18.2990233"><ele>84.2</ele><time>2026-04-11T14:59:57.11Z</time></trkpt><trkpt lat="40.1152983" lon="18.2989933"><ele>84.6</ele><time>2026-04-11T14:59:58.11Z</time></trkpt><trkpt lat="40.1151817" lon="18.2990117"><ele>85.0</ele><time>2026-04-11T14:59:59.11Z</time></trkpt><trkpt lat="40.1151317" lon="18.2990883"><ele>85.0</ele><time>2026-04-11T15:00:00.111Z</time></trkpt><trkpt lat="40.1150583" lon="18.2991317"><ele>85.0</ele><time>2026-04-11T15:00:01.11Z</time></trkpt><trkpt lat="40.1149783" lon="18.299095"><ele>85.0</ele><time>2026-04-11T15:00:02.11Z</time></trkpt><trkpt lat="40.1148267" lon="18.299025"><ele>85.0</ele><time>2026-04-11T15:00:03.111Z</time></trkpt><trkpt lat="40.1147483" lon="18.2990117"><ele>85.0</ele><time>2026-04-11T15:00:04.111Z</time></trkpt><trkpt lat="40.1146883" lon="18.2989783"><ele>84.8</ele><time>2026-04-11T15:00:06.11Z</time></trkpt><trkpt lat="40.11463" lon="18.298935"><ele>84.6</ele><time>2026-04-11T15:00:07.11Z</time></trkpt><trkpt lat="40.1145633" lon="18.29889"><ele>84.4</ele><time>2026-04-11T15:00:08.11Z</time></trkpt><trkpt lat="40.1144117" lon="18.29886"><ele>84.2</ele><time>2026-04-11T15:02:56.11Z</time></trkpt><trkpt lat="40.1143167" lon="18.29893"><ele>84.0</ele><time>2026-04-11T15:03:09.11Z</time></trkpt><trkpt lat="40.1143133" lon="18.2990267"><ele>84.0</ele><time>2026-04-11T15:03:12.111Z</time></trkpt><trkpt lat="40.1144133" lon="18.2990717"><ele>84.0</ele><time>2026-04-11T15:03:15.11Z</time></trkpt><trkpt lat="40.11452" lon="18.2990783"><ele>84.0</ele><time>2026-04-11T15:03:16.11Z</time></trkpt><trkpt lat="40.1146217" lon="18.2990733"><ele>84.0</ele><time>2026-04-11T15:03:17.111Z</time></trkpt><trkpt lat="40.11473" lon="18.2990617"><ele>84.0</ele><time>2026-04-11T15:03:18.111Z</time></trkpt><trkpt lat="40.11484" lon="18.2990617"><ele>84.25</ele><time>2026-04-11T15:03:19.11Z</time></trkpt><trkpt lat="40.114955" lon="18.2990567"><ele>84.5</ele><time>2026-04-11T15:03:20.11Z</time></trkpt><trkpt lat="40.1150967" lon="18.2990533"><ele>84.75</ele><time>2026-04-11T15:03:21.111Z</time></trkpt><trkpt lat="40.1152117" lon="18.2990467"><ele>85.0</ele><time>2026-04-11T15:03:22.11Z</time></trkpt><trkpt lat="40.1153133" lon="18.2990317"><ele>85.0</ele><time>2026-04-11T15:03:23.11Z</time></trkpt><trkpt lat="40.115395" lon="18.299025"><ele>85.0</ele><time>2026-04-11T15:03:24.11Z</time></trkpt><trkpt lat="40.1154717" lon="18.2990017"><ele>85.0</ele><time>2026-04-11T15:03:28.11Z</time></trkpt><trkpt lat="40.1155567" lon="18.2989817"><ele>85.0</ele><time>2026-04-11T15:03:31.11Z</time></trkpt><trkpt lat="40.1156483" lon="18.2989517"><ele>85.0</ele><time>2026-04-11T15:03:34.111Z</time></trkpt><trkpt lat="40.1157033" lon="18.29891"><ele>85.0</ele><time>2026-04-11T15:03:38.11Z</time></trkpt><trkpt lat="40.1157217" lon="18.2988117"><ele>85.16666666666666</ele><time>2026-04-11T15:03:41.111Z</time></trkpt><trkpt lat="40.1157067" lon="18.2987117"><ele>85.33333333333333</ele><time>2026-04-11T15:03:43.11Z</time></trkpt><trkpt lat="40.1156633" lon="18.2986467"><ele>85.5</ele><time>2026-04-11T15:03:45.11Z</time></trkpt><trkpt lat="40.1156033" lon="18.29857"><ele>85.66666666666667</ele><time>2026-04-11T15:03:47.11Z</time></trkpt><trkpt lat="40.115545" lon="18.2984183"><ele>85.83333333333334</ele><time>2026-04-11T15:03:49.111Z</time></trkpt><trkpt lat="40.1155217" lon="18.29832"><ele>86.0</ele><time>2026-04-11T15:03:50.11Z</time></trkpt><trkpt lat="40.1154917" lon="18.2982383"><ele>86.0</ele><time>2026-04-11T15:03:51.111Z</time></trkpt><trkpt lat="40.115425" lon="18.2980933"><ele>86.0</ele><time>2026-04-11T15:03:53.111Z</time></trkpt><trkpt lat="40.11542" lon="18.2979817"><ele>86.0</ele><time>2026-04-11T15:03:54.111Z</time></trkpt><trkpt lat="40.115395" lon="18.2978483"><ele>86.0</ele><time>2026-04-11T15:03:56.11Z</time></trkpt><trkpt lat="40.1154167" lon="18.2977633"><ele>86.0</ele><time>2026-04-11T15:03:57.11Z</time></trkpt><trkpt lat="40.1154633" lon="18.2976733"><ele>86.19999999999999</ele><time>2026-04-11T15:03:58.111Z</time></trkpt><trkpt lat="40.1155117" lon="18.2975783"><ele>86.39999999999999</ele><time>2026-04-11T15:03:59.111Z</time></trkpt><trkpt lat="40.115565" lon="18.2974817"><ele>86.6</ele><time>2026-04-11T15:04:00.11Z</time></trkpt><trkpt lat="40.115625" lon="18.29738"><ele>86.8</ele><time>2026-04-11T15:04:01.11Z</time></trkpt><trkpt lat="40.115705" lon="18.297235"><ele>87.0</ele><time>2026-04-11T15:04:02.111Z</time></trkpt><trkpt lat="40.115795" lon="18.297065"><ele>87.5</ele><time>2026-04-11T15:04:03.111Z</time></trkpt><trkpt lat="40.11589" lon="18.29689"><ele>88.0</ele><time>2026-04-11T15:04:04.11Z</time></trkpt><trkpt lat="40.11597" lon="18.2967367"><ele>88.5</ele><time>2026-04-11T15:04:05.11Z</time></trkpt><trkpt lat="40.1160383" lon="18.296605"><ele>89.0</ele><time>2026-04-11T15:04:06.11Z</time></trkpt><trkpt lat="40.116095" lon="18.2965017"><ele>88.66666666666667</ele><time>2026-04-11T15:04:07.11Z</time></trkpt><trkpt lat="40.116145" lon="18.2964183"><ele>88.33333333333334</ele><time>2026-04-11T15:04:08.11Z</time></trkpt><trkpt lat="40.11621" lon="18.29632"><ele>88.0</ele><time>2026-04-11T15:04:10.11Z</time></trkpt><trkpt lat="40.1162467" lon="18.2962083"><ele>87.66666666666667</ele><time>2026-04-11T15:04:12.11Z</time></trkpt><trkpt lat="40.1162333" lon="18.29612"><ele>87.33333333333333</ele><time>2026-04-11T15:04:13.11Z</time></trkpt><trkpt lat="40.1162067" lon="18.2960167"><ele>87.0</ele><time>2026-04-11T15:04:14.11Z</time></trkpt><trkpt lat="40.1161783" lon="18.2959117"><ele>87.0</ele><time>2026-04-11T15:04:15.11Z</time></trkpt><trkpt lat="40.116155" lon="18.2958117"><ele>87.0</ele><time>2026-04-11T15:04:16.11Z</time></trkpt><trkpt lat="40.11614" lon="18.295725"><ele>87.0</ele><time>2026-04-11T15:04:17.11Z</time></trkpt><trkpt lat="40.1161517" lon="18.2955967"><ele>87.0</ele><time>2026-04-11T15:04:19.11Z</time></trkpt><trkpt lat="40.1162367" lon="18.2954783"><ele>87.0</ele><time>2026-04-11T15:04:21.11Z</time></trkpt><trkpt lat="40.1163067" lon="18.2954383"><ele>87.0</ele><time>2026-04-11T15:04:22.11Z</time></trkpt><trkpt lat="40.11641" lon="18.29541"><ele>86.75</ele><time>2026-04-11T15:04:23.11Z</time></trkpt><trkpt lat="40.1165167" lon="18.2953733"><ele>86.5</ele><time>2026-04-11T15:04:24.11Z</time></trkpt><trkpt lat="40.11663" lon="18.29533"><ele>86.25</ele><time>2026-04-11T15:04:25.11Z</time></trkpt><trkpt lat="40.116745" lon="18.2952817"><ele>86.0</ele><time>2026-04-11T15:04:26.11Z</time></trkpt><trkpt lat="40.1168683" lon="18.29524"><ele>86.0</ele><time>2026-04-11T15:04:27.11Z</time></trkpt><trkpt lat="40.1169833" lon="18.2951817"><ele>86.0</ele><time>2026-04-11T15:04:28.11Z</time></trkpt><trkpt lat="40.1170817" lon="18.295135"><ele>86.0</ele><time>2026-04-11T15:04:29.111Z</time></trkpt><trkpt lat="40.11716" lon="18.295105"><ele>86.0</ele><time>2026-04-11T15:04:30.11Z</time></trkpt><trkpt lat="40.11725" lon="18.2950667"><ele>86.0</ele><time>2026-04-11T15:04:32.111Z</time></trkpt><trkpt lat="40.11731" lon="18.2949767"><ele>86.0</ele><time>2026-04-11T15:04:35.11Z</time></trkpt><trkpt lat="40.1173133" lon="18.29483"><ele>86.0</ele><time>2026-04-11T15:04:37.11Z</time></trkpt><trkpt lat="40.1172883" lon="18.294745"><ele>86.0</ele><time>2026-04-11T15:04:38.11Z</time></trkpt><trkpt lat="40.11723" lon="18.2945917"><ele>86.0</ele><time>2026-04-11T15:04:39.111Z</time></trkpt><trkpt lat="40.1172" lon="18.2944567"><ele>86.0</ele><time>2026-04-11T15:04:40.11Z</time></trkpt><trkpt lat="40.11716" lon="18.2942967"><ele>86.75</ele><time>2026-04-11T15:04:41.11Z</time></trkpt><trkpt lat="40.1171467" lon="18.2941383"><ele>87.5</ele><time>2026-04-11T15:04:42.11Z</time></trkpt><trkpt lat="40.1171783" lon="18.2939967"><ele>88.25</ele><time>2026-04-11T15:04:43.11Z</time></trkpt><trkpt lat="40.11715" lon="18.293835"><ele>89.0</ele><time>2026-04-11T15:04:44.111Z</time></trkpt><trkpt lat="40.11712" lon="18.293695"><ele>89.16666666666667</ele><time>2026-04-11T15:04:45.11Z</time></trkpt><trkpt lat="40.1170983" lon="18.2935833"><ele>89.33333333333334</ele><time>2026-04-11T15:04:46.11Z</time></trkpt><trkpt lat="40.1170967" lon="18.2935"><ele>89.5</ele><time>2026-04-11T15:04:47.11Z</time></trkpt><trkpt lat="40.1170783" lon="18.293375"><ele>89.66666666666667</ele><time>2026-04-11T15:04:49.11Z</time></trkpt><trkpt lat="40.1170467" lon="18.29329"><ele>89.83333333333333</ele><time>2026-04-11T15:04:50.11Z</time></trkpt><trkpt lat="40.1169917" lon="18.2931983"><ele>90.0</ele><time>2026-04-11T15:04:51.11Z</time></trkpt><trkpt lat="40.1169433" lon="18.2931217"><ele>90.0</ele><time>2026-04-11T15:04:52.11Z</time></trkpt><trkpt lat="40.1168983" lon="18.2930033"><ele>90.0</ele><time>2026-04-11T15:04:54.11Z</time></trkpt><trkpt lat="40.1168333" lon="18.292895"><ele>90.0</ele><time>2026-04-11T15:05:20.111Z</time></trkpt><trkpt lat="40.116785" lon="18.2927617"><ele>90.0</ele><time>2026-04-11T15:05:22.111Z</time></trkpt><trkpt lat="40.1167117" lon="18.2926333"><ele>90.0</ele><time>2026-04-11T15:05:23.111Z</time></trkpt><trkpt lat="40.11665" lon="18.29254"><ele>90.0</ele><time>2026-04-11T15:05:24.111Z</time></trkpt><trkpt lat="40.11659" lon="18.2923967"><ele>90.0</ele><time>2026-04-11T15:05:25.111Z</time></trkpt><trkpt lat="40.1165233" lon="18.2922617"><ele>90.0</ele><time>2026-04-11T15:05:26.11Z</time></trkpt><trkpt lat="40.1164583" lon="18.2923067"><ele>90.0</ele><time>2026-04-11T15:05:27.11Z</time></trkpt><trkpt lat="40.1163983" lon="18.292095"><ele>90.0</ele><time>2026-04-11T15:05:28.111Z</time></trkpt><trkpt lat="40.11634" lon="18.2919883"><ele>90.0</ele><time>2026-04-11T15:05:29.11Z</time></trkpt><trkpt lat="40.11626" lon="18.2918483"><ele>90.0</ele><time>2026-04-11T15:05:30.11Z</time></trkpt><trkpt lat="40.1161467" lon="18.29186"><ele>90.0</ele><time>2026-04-11T15:05:31.11Z</time></trkpt><trkpt lat="40.116165" lon="18.2917417"><ele>90.0</ele><time>2026-04-11T15:05:32.11Z</time></trkpt><trkpt lat="40.1160967" lon="18.29163"><ele>90.0</ele><time>2026-04-11T15:05:33.111Z</time></trkpt><trkpt lat="40.1160683" lon="18.29153"><ele>90.0</ele><time>2026-04-11T15:05:34.11Z</time></trkpt><trkpt lat="40.1160667" lon="18.2914267"><ele>90.0</ele><time>2026-04-11T15:05:36.11Z</time></trkpt><trkpt lat="40.1161583" lon="18.2913967"><ele>90.0</ele><time>2026-04-11T15:05:38.111Z</time></trkpt><trkpt lat="40.11626" lon="18.2912533"><ele>90.0</ele><time>2026-04-11T15:05:39.111Z</time></trkpt><trkpt lat="40.1163433" lon="18.2911767"><ele>90.0</ele><time>2026-04-11T15:05:40.111Z</time></trkpt><trkpt lat="40.1164967" lon="18.2910733"><ele>90.0</ele><time>2026-04-11T15:05:42.11Z</time></trkpt><trkpt lat="40.1166567" lon="18.2908983"><ele>90.0</ele><time>2026-04-11T15:05:43.11Z</time></trkpt><trkpt lat="40.1167517" lon="18.2907933"><ele>90.0</ele><time>2026-04-11T15:05:44.11Z</time></trkpt><trkpt lat="40.1168333" lon="18.290705"><ele>90.0</ele><time>2026-04-11T15:05:45.11Z</time></trkpt><trkpt lat="40.11691" lon="18.2907417"><ele>90.0</ele><time>2026-04-11T15:05:47.11Z</time></trkpt><trkpt lat="40.1169883" lon="18.2906067"><ele>90.0</ele><time>2026-04-11T15:05:51.111Z</time></trkpt><trkpt lat="40.1170433" lon="18.29056"><ele>90.0</ele><time>2026-04-11T15:05:52.11Z</time></trkpt><trkpt lat="40.117155" lon="18.2904567"><ele>90.0</ele><time>2026-04-11T15:05:54.11Z</time></trkpt><trkpt lat="40.1172167" lon="18.2903667"><ele>90.0</ele><time>2026-04-11T15:05:55.11Z</time></trkpt><trkpt lat="40.117255" lon="18.2902933"><ele>90.0</ele><time>2026-04-11T15:05:56.11Z</time></trkpt><trkpt lat="40.117315" lon="18.2902483"><ele>90.0</ele><time>2026-04-11T15:05:58.11Z</time></trkpt><trkpt lat="40.1173017" lon="18.2901317"><ele>90.0</ele><time>2026-04-11T15:06:10.11Z</time></trkpt><trkpt lat="40.1172967" lon="18.2900367"><ele>90.0</ele><time>2026-04-11T15:06:13.11Z</time></trkpt><trkpt lat="40.117295" lon="18.2899517"><ele>90.0</ele><time>2026-04-11T15:06:16.11Z</time></trkpt><trkpt lat="40.1172967" lon="18.2898317"><ele>90.0</ele><time>2026-04-11T15:06:19.11Z</time></trkpt><trkpt lat="40.1173233" lon="18.2897017"><ele>90.0</ele><time>2026-04-11T15:06:22.11Z</time></trkpt><trkpt lat="40.1173233" lon="18.289605"><ele>90.0</ele><time>2026-04-11T15:06:24.11Z</time></trkpt><trkpt lat="40.1173167" lon="18.2894883"><ele>90.0</ele><time>2026-04-11T15:06:27.111Z</time></trkpt><trkpt lat="40.1172683" lon="18.28941"><ele>90.0</ele><time>2026-04-11T15:06:29.11Z</time></trkpt><trkpt lat="40.1172317" lon="18.2893183"><ele>89.0</ele><time>2026-04-11T15:06:31.11Z</time></trkpt><trkpt lat="40.1172133" lon="18.28923"><ele>88.0</ele><time>2026-04-11T15:06:33.111Z</time></trkpt><trkpt lat="40.117125" lon="18.2891217"><ele>87.0</ele><time>2026-04-11T15:06:38.11Z</time></trkpt><trkpt lat="40.1170283" lon="18.28909"><ele>86.0</ele><time>2026-04-11T15:06:40.11Z</time></trkpt><trkpt lat="40.11696" lon="18.2891067"><ele>85.0</ele><time>2026-04-11T15:06:41.111Z</time></trkpt><trkpt lat="40.116875" lon="18.2891433"><ele>85.0</ele><time>2026-04-11T15:06:42.11Z</time></trkpt><trkpt lat="40.1167783" lon="18.2891217"><ele>85.0</ele><time>2026-04-11T15:06:43.111Z</time></trkpt><trkpt lat="40.116705" lon="18.289075"><ele>85.0</ele><time>2026-04-11T15:06:45.11Z</time></trkpt><trkpt lat="40.1166383" lon="18.2889333"><ele>85.0</ele><time>2026-04-11T15:06:47.111Z</time></trkpt><trkpt lat="40.11661" lon="18.28884"><ele>85.0</ele><time>2026-04-11T15:06:48.11Z</time></trkpt><trkpt lat="40.1165767" lon="18.2887383"><ele>84.6</ele><time>2026-04-11T15:06:49.111Z</time></trkpt><trkpt lat="40.1165617" lon="18.2886417"><ele>84.2</ele><time>2026-04-11T15:06:50.11Z</time></trkpt><trkpt lat="40.116505" lon="18.2885567"><ele>83.80000000000001</ele><time>2026-04-11T15:06:51.11Z</time></trkpt><trkpt lat="40.1164367" lon="18.288495"><ele>83.4</ele><time>2026-04-11T15:06:52.11Z</time></trkpt><trkpt lat="40.116345" lon="18.288425"><ele>83.0</ele><time>2026-04-11T15:06:54.11Z</time></trkpt><trkpt lat="40.1162417" lon="18.2883767"><ele>83.0</ele><time>2026-04-11T15:06:56.11Z</time></trkpt><trkpt lat="40.116145" lon="18.2883633"><ele>83.0</ele><time>2026-04-11T15:06:58.11Z</time></trkpt><trkpt lat="40.1160667" lon="18.2883683"><ele>83.0</ele><time>2026-04-11T15:06:59.11Z</time></trkpt><trkpt lat="40.1159383" lon="18.28831"><ele>83.0</ele><time>2026-04-11T15:07:01.111Z</time></trkpt><trkpt lat="40.11583" lon="18.2883"><ele>83.0</ele><time>2026-04-11T15:07:02.111Z</time></trkpt><trkpt lat="40.1157417" lon="18.2882583"><ele>82.66666666666667</ele><time>2026-04-11T15:07:03.11Z</time></trkpt><trkpt lat="40.11569" lon="18.28821"><ele>82.33333333333334</ele><time>2026-04-11T15:07:04.111Z</time></trkpt><trkpt lat="40.1156533" lon="18.28814"><ele>82.0</ele><time>2026-04-11T15:07:05.111Z</time></trkpt><trkpt lat="40.1156" lon="18.28804"><ele>81.66666666666667</ele><time>2026-04-11T15:07:06.11Z</time></trkpt><trkpt lat="40.1155133" lon="18.2879483"><ele>81.33333333333333</ele><time>2026-04-11T15:07:07.111Z</time></trkpt><trkpt lat="40.1154383" lon="18.2878467"><ele>81.0</ele><time>2026-04-11T15:07:08.111Z</time></trkpt><trkpt lat="40.1153783" lon="18.28772"><ele>81.0</ele><time>2026-04-11T15:07:09.11Z</time></trkpt><trkpt lat="40.11526" lon="18.2876017"><ele>81.0</ele><time>2026-04-11T15:07:10.111Z</time></trkpt><trkpt lat="40.115165" lon="18.287475"><ele>81.0</ele><time>2026-04-11T15:07:11.111Z</time></trkpt><trkpt lat="40.1150567" lon="18.2873733"><ele>81.0</ele><time>2026-04-11T15:07:12.111Z</time></trkpt><trkpt lat="40.1149933" lon="18.2872933"><ele>80.83333333333333</ele><time>2026-04-11T15:07:13.11Z</time></trkpt><trkpt lat="40.1149083" lon="18.287225"><ele>80.66666666666667</ele><time>2026-04-11T15:07:14.11Z</time></trkpt><trkpt lat="40.1148417" lon="18.287185"><ele>80.5</ele><time>2026-04-11T15:07:15.111Z</time></trkpt><trkpt lat="40.1147667" lon="18.28718"><ele>80.33333333333334</ele><time>2026-04-11T15:07:16.11Z</time></trkpt><trkpt lat="40.1146733" lon="18.28718"><ele>80.16666666666667</ele><time>2026-04-11T15:07:17.11Z</time></trkpt><trkpt lat="40.1145733" lon="18.2871667"><ele>80.0</ele><time>2026-04-11T15:07:18.111Z</time></trkpt><trkpt lat="40.1144867" lon="18.2871233"><ele>80.8</ele><time>2026-04-11T15:07:19.11Z</time></trkpt><trkpt lat="40.1144117" lon="18.2870383"><ele>81.6</ele><time>2026-04-11T15:07:20.11Z</time></trkpt><trkpt lat="40.114355" lon="18.28692"><ele>82.4</ele><time>2026-04-11T15:07:21.11Z</time></trkpt><trkpt lat="40.1143217" lon="18.2867933"><ele>83.2</ele><time>2026-04-11T15:07:22.11Z</time></trkpt><trkpt lat="40.1143133" lon="18.286665"><ele>84.0</ele><time>2026-04-11T15:07:23.111Z</time></trkpt><trkpt lat="40.1143217" lon="18.2865383"><ele>84.0</ele><time>2026-04-11T15:07:24.111Z</time></trkpt><trkpt lat="40.1143517" lon="18.2864167"><ele>84.0</ele><time>2026-04-11T15:07:25.111Z</time></trkpt><trkpt lat="40.1143967" lon="18.286295"><ele>84.0</ele><time>2026-04-11T15:07:26.11Z</time></trkpt><trkpt lat="40.1144367" lon="18.2861717"><ele>84.0</ele><time>2026-04-11T15:07:27.111Z</time></trkpt><trkpt lat="40.11446" lon="18.2860533"><ele>84.0</ele><time>2026-04-11T15:07:28.111Z</time></trkpt><trkpt lat="40.1144667" lon="18.28593"><ele>84.0</ele><time>2026-04-11T15:07:29.11Z</time></trkpt><trkpt lat="40.11446" lon="18.2857933"><ele>84.0</ele><time>2026-04-11T15:07:30.11Z</time></trkpt><trkpt lat="40.1144417" lon="18.28565"><ele>84.0</ele><time>2026-04-11T15:07:31.11Z</time></trkpt><trkpt lat="40.114415" lon="18.2855017"><ele>84.0</ele><time>2026-04-11T15:07:32.11Z</time></trkpt><trkpt lat="40.1143867" lon="18.2853467"><ele>84.0</ele><time>2026-04-11T15:07:33.111Z</time></trkpt><trkpt lat="40.1143583" lon="18.285185"><ele>84.0</ele><time>2026-04-11T15:07:34.111Z</time></trkpt><trkpt lat="40.1143333" lon="18.2850233"><ele>84.0</ele><time>2026-04-11T15:07:35.11Z</time></trkpt><trkpt lat="40.11431" lon="18.2848767"><ele>84.0</ele><time>2026-04-11T15:07:36.11Z</time></trkpt><trkpt lat="40.11428" lon="18.2847483"><ele>84.0</ele><time>2026-04-11T15:07:37.111Z</time></trkpt><trkpt lat="40.1142367" lon="18.2846317"><ele>84.0</ele><time>2026-04-11T15:07:38.111Z</time></trkpt><trkpt lat="40.114175" lon="18.2845233"><ele>84.0</ele><time>2026-04-11T15:07:39.111Z</time></trkpt><trkpt lat="40.1141367" lon="18.2843867"><ele>84.0</ele><time>2026-04-11T15:07:40.11Z</time></trkpt><trkpt lat="40.1140633" lon="18.2842933"><ele>84.0</ele><time>2026-04-11T15:07:41.11Z</time></trkpt><trkpt lat="40.11399" lon="18.28418"><ele>84.0</ele><time>2026-04-11T15:07:42.11Z</time></trkpt><trkpt lat="40.11394" lon="18.2840533"><ele>84.0</ele><time>2026-04-11T15:07:43.11Z</time></trkpt><trkpt lat="40.11393" lon="18.2838967"><ele>84.0</ele><time>2026-04-11T15:07:44.11Z</time></trkpt><trkpt lat="40.1138967" lon="18.2837633"><ele>84.0</ele><time>2026-04-11T15:07:45.11Z</time></trkpt><trkpt lat="40.1138433" lon="18.283625"><ele>84.0</ele><time>2026-04-11T15:07:46.11Z</time></trkpt><trkpt lat="40.113805" lon="18.2834883"><ele>84.0</ele><time>2026-04-11T15:07:47.111Z</time></trkpt><trkpt lat="40.1137683" lon="18.283315"><ele>84.0</ele><time>2026-04-11T15:07:48.11Z</time></trkpt><trkpt lat="40.1137933" lon="18.2831683"><ele>84.0</ele><time>2026-04-11T15:07:49.11Z</time></trkpt><trkpt lat="40.1137683" lon="18.2830483"><ele>84.0</ele><time>2026-04-11T15:07:50.11Z</time></trkpt><trkpt lat="40.11373" lon="18.282935"><ele>84.0</ele><time>2026-04-11T15:07:51.111Z</time></trkpt><trkpt lat="40.113685" lon="18.28286"><ele>84.0</ele><time>2026-04-11T15:07:52.111Z</time></trkpt><trkpt lat="40.113625" lon="18.2828167"><ele>84.0</ele><time>2026-04-11T15:07:53.11Z</time></trkpt><trkpt lat="40.1135867" lon="18.28272"><ele>84.0</ele><time>2026-04-11T15:07:54.11Z</time></trkpt><trkpt lat="40.113525" lon="18.282645"><ele>84.0</ele><time>2026-04-11T15:07:55.11Z</time></trkpt><trkpt lat="40.11348" lon="18.2825667"><ele>84.0</ele><time>2026-04-11T15:07:56.111Z</time></trkpt><trkpt lat="40.1134517" lon="18.2824883"><ele>84.0</ele><time>2026-04-11T15:07:57.11Z</time></trkpt><trkpt lat="40.1134" lon="18.2823783"><ele>84.0</ele><time>2026-04-11T15:07:59.109Z</time></trkpt><trkpt lat="40.1133233" lon="18.282325"><ele>84.0</ele><time>2026-04-11T15:08:01.109Z</time></trkpt><trkpt lat="40.1132567" lon="18.2823083"><ele>84.0</ele><time>2026-04-11T15:08:03.109Z</time></trkpt><trkpt lat="40.1131667" lon="18.2823067"><ele>84.0</ele><time>2026-04-11T15:08:06.109Z</time></trkpt><trkpt lat="40.1130833" lon="18.28227"><ele>84.66666666666667</ele><time>2026-04-11T15:08:09.109Z</time></trkpt><trkpt lat="40.1130333" lon="18.282215"><ele>85.33333333333333</ele><time>2026-04-11T15:08:11.109Z</time></trkpt><trkpt lat="40.1129917" lon="18.2821267"><ele>86.0</ele><time>2026-04-11T15:08:13.109Z</time></trkpt><trkpt lat="40.1129633" lon="18.2820317"><ele>86.66666666666666</ele><time>2026-04-11T15:08:15.109Z</time></trkpt><trkpt lat="40.1129017" lon="18.2819217"><ele>87.33333333333333</ele><time>2026-04-11T15:08:17.109Z</time></trkpt><trkpt lat="40.112865" lon="18.28184"><ele>88.0</ele><time>2026-04-11T15:08:19.109Z</time></trkpt><trkpt lat="40.1127983" lon="18.2817533"><ele>88.0</ele><time>2026-04-11T15:08:22.109Z</time></trkpt><trkpt lat="40.1127033" lon="18.2816383"><ele>88.0</ele><time>2026-04-11T15:08:55.109Z</time></trkpt><trkpt lat="40.1126633" lon="18.2815567"><ele>88.0</ele><time>2026-04-11T15:08:57.109Z</time></trkpt><trkpt lat="40.1125717" lon="18.2814433"><ele>88.0</ele><time>2026-04-11T15:09:00.11Z</time></trkpt><trkpt lat="40.1125033" lon="18.2813217"><ele>88.0</ele><time>2026-04-11T15:09:03.109Z</time></trkpt><trkpt lat="40.1124333" lon="18.2812683"><ele>88.2</ele><time>2026-04-11T15:09:06.109Z</time></trkpt><trkpt lat="40.1123617" lon="18.2813183"><ele>88.4</ele><time>2026-04-11T15:09:09.109Z</time></trkpt><trkpt lat="40.1122583" lon="18.2814467"><ele>88.60000000000001</ele><time>2026-04-11T15:09:11.11Z</time></trkpt><trkpt lat="40.1122017" lon="18.2815367"><ele>88.80000000000001</ele><time>2026-04-11T15:09:12.109Z</time></trkpt><trkpt lat="40.1121433" lon="18.2816117"><ele>89.0</ele><time>2026-04-11T15:09:13.11Z</time></trkpt><trkpt lat="40.112115" lon="18.28169"><ele>88.6</ele><time>2026-04-11T15:09:14.109Z</time></trkpt><trkpt lat="40.1120333" lon="18.2818183"><ele>88.2</ele><time>2026-04-11T15:09:16.109Z</time></trkpt><trkpt lat="40.1119617" lon="18.2819333"><ele>87.8</ele><time>2026-04-11T15:09:18.109Z</time></trkpt><trkpt lat="40.1119117" lon="18.2820083"><ele>87.39999999999999</ele><time>2026-04-11T15:09:19.109Z</time></trkpt><trkpt lat="40.1118383" lon="18.2820717"><ele>87.0</ele><time>2026-04-11T15:09:20.109Z</time></trkpt><trkpt lat="40.1117833" lon="18.2821483"><ele>87.0</ele><time>2026-04-11T15:09:21.11Z</time></trkpt><trkpt lat="40.11174" lon="18.2822617"><ele>87.0</ele><time>2026-04-11T15:09:22.11Z</time></trkpt><trkpt lat="40.1116783" lon="18.2823433"><ele>87.0</ele><time>2026-04-11T15:09:23.11Z</time></trkpt><trkpt lat="40.1115883" lon="18.282425"><ele>87.0</ele><time>2026-04-11T15:09:24.11Z</time></trkpt><trkpt lat="40.1114933" lon="18.2824817"><ele>87.0</ele><time>2026-04-11T15:09:25.11Z</time></trkpt><trkpt lat="40.1113733" lon="18.2825583"><ele>87.33333333333333</ele><time>2026-04-11T15:09:26.11Z</time></trkpt><trkpt lat="40.1112933" lon="18.2826033"><ele>87.66666666666667</ele><time>2026-04-11T15:09:27.109Z</time></trkpt><trkpt lat="40.1112283" lon="18.2826417"><ele>88.0</ele><time>2026-04-11T15:09:28.109Z</time></trkpt><trkpt lat="40.111155" lon="18.2826833"><ele>88.33333333333334</ele><time>2026-04-11T15:09:30.11Z</time></trkpt><trkpt lat="40.1110933" lon="18.28265"><ele>88.66666666666667</ele><time>2026-04-11T15:09:35.11Z</time></trkpt><trkpt lat="40.1110483" lon="18.28258"><ele>89.0</ele><time>2026-04-11T15:09:36.11Z</time></trkpt><trkpt lat="40.1109733" lon="18.2824517"><ele>89.0</ele><time>2026-04-11T15:09:37.11Z</time></trkpt><trkpt lat="40.1108767" lon="18.28228"><ele>89.0</ele><time>2026-04-11T15:09:38.109Z</time></trkpt><trkpt lat="40.1107533" lon="18.2820583"><ele>89.0</ele><time>2026-04-11T15:09:39.11Z</time></trkpt><trkpt lat="40.110615" lon="18.2818183"><ele>89.5</ele><time>2026-04-11T15:09:40.11Z</time></trkpt><trkpt lat="40.11047" lon="18.28156"><ele>90.0</ele><time>2026-04-11T15:09:41.11Z</time></trkpt><trkpt lat="40.1103133" lon="18.2812867"><ele>90.0</ele><time>2026-04-11T15:09:42.11Z</time></trkpt><trkpt lat="40.1101517" lon="18.2809983"><ele>90.0</ele><time>2026-04-11T15:09:43.109Z</time></trkpt><trkpt lat="40.1099933" lon="18.28071"><ele>88.5</ele><time>2026-04-11T15:09:44.109Z</time></trkpt><trkpt lat="40.1098317" lon="18.28042"><ele>87.0</ele><time>2026-04-11T15:09:45.11Z</time></trkpt><trkpt lat="40.1096633" lon="18.28012"><ele>87.0</ele><time>2026-04-11T15:09:46.109Z</time></trkpt><trkpt lat="40.1094933" lon="18.2798133"><ele>87.0</ele><time>2026-04-11T15:09:47.109Z</time></trkpt><trkpt lat="40.1093283" lon="18.2795167"><ele>86.0</ele><time>2026-04-11T15:09:48.109Z</time></trkpt><trkpt lat="40.109165" lon="18.2792233"><ele>85.0</ele><time>2026-04-11T15:09:49.109Z</time></trkpt><trkpt lat="40.109" lon="18.2789333"><ele>82.5</ele><time>2026-04-11T15:09:50.109Z</time></trkpt><trkpt lat="40.10884" lon="18.2786467"><ele>80.0</ele><time>2026-04-11T15:09:51.109Z</time></trkpt><trkpt lat="40.10869" lon="18.27838"><ele>80.0</ele><time>2026-04-11T15:09:52.109Z</time></trkpt><trkpt lat="40.10856" lon="18.2781533"><ele>80.0</ele><time>2026-04-11T15:09:53.109Z</time></trkpt><trkpt lat="40.10845" lon="18.27796"><ele>80.0</ele><time>2026-04-11T15:09:54.11Z</time></trkpt><trkpt lat="40.1083583" lon="18.2778083"><ele>79.83333333333334</ele><time>2026-04-11T15:09:55.11Z</time></trkpt><trkpt lat="40.108295" lon="18.277695"><ele>79.66666666666667</ele><time>2026-04-11T15:09:56.11Z</time></trkpt><trkpt lat="40.1082533" lon="18.2776233"><ele>79.5</ele><time>2026-04-11T15:09:57.109Z</time></trkpt><trkpt lat="40.1081933" lon="18.27757"><ele>79.33333333333333</ele><time>2026-04-11T15:10:00.109Z</time></trkpt><trkpt lat="40.1081317" lon="18.2775983"><ele>79.16666666666666</ele><time>2026-04-11T15:10:02.11Z</time></trkpt><trkpt lat="40.10803" lon="18.27769"><ele>79.0</ele><time>2026-04-11T15:10:04.109Z</time></trkpt><trkpt lat="40.1079583" lon="18.2777417"><ele>79.4</ele><time>2026-04-11T15:10:05.109Z</time></trkpt><trkpt lat="40.1078883" lon="18.2777917"><ele>79.80000000000001</ele><time>2026-04-11T15:10:06.109Z</time></trkpt><trkpt lat="40.1078133" lon="18.277845"><ele>80.19999999999999</ele><time>2026-04-11T15:10:07.109Z</time></trkpt><trkpt lat="40.107725" lon="18.277915"><ele>80.6</ele><time>2026-04-11T15:10:08.109Z</time></trkpt><trkpt lat="40.1076367" lon="18.277985"><ele>81.0</ele><time>2026-04-11T15:10:09.109Z</time></trkpt><trkpt lat="40.1075467" lon="18.2780567"><ele>81.0</ele><time>2026-04-11T15:10:10.109Z</time></trkpt><trkpt lat="40.107465" lon="18.2781217"><ele>81.0</ele><time>2026-04-11T15:10:11.109Z</time></trkpt><trkpt lat="40.107385" lon="18.278185"><ele>81.0</ele><time>2026-04-11T15:10:12.11Z</time></trkpt><trkpt lat="40.1073" lon="18.2782433"><ele>81.0</ele><time>2026-04-11T15:10:13.109Z</time></trkpt><trkpt lat="40.107215" lon="18.2783017"><ele>81.0</ele><time>2026-04-11T15:10:14.109Z</time></trkpt><trkpt lat="40.10714" lon="18.278355"><ele>81.0</ele><time>2026-04-11T15:10:15.109Z</time></trkpt><trkpt lat="40.1070767" lon="18.2784"><ele>81.0</ele><time>2026-04-11T15:10:16.109Z</time></trkpt><trkpt lat="40.1070183" lon="18.27844"><ele>81.0</ele><time>2026-04-11T15:10:17.109Z</time></trkpt><trkpt lat="40.1069617" lon="18.2784867"><ele>81.0</ele><time>2026-04-11T15:10:18.109Z</time></trkpt><trkpt lat="40.1069067" lon="18.2785317"><ele>81.0</ele><time>2026-04-11T15:10:19.109Z</time></trkpt><trkpt lat="40.1068433" lon="18.27858"><ele>81.0</ele><time>2026-04-11T15:10:20.109Z</time></trkpt><trkpt lat="40.1067733" lon="18.2786317"><ele>81.0</ele><time>2026-04-11T15:10:21.11Z</time></trkpt><trkpt lat="40.1067017" lon="18.2786917"><ele>81.0</ele><time>2026-04-11T15:10:22.11Z</time></trkpt><trkpt lat="40.1066283" lon="18.2787467"><ele>81.0</ele><time>2026-04-11T15:10:23.109Z</time></trkpt><trkpt lat="40.1065533" lon="18.2787983"><ele>81.0</ele><time>2026-04-11T15:10:24.11Z</time></trkpt><trkpt lat="40.1064817" lon="18.27885"><ele>81.0</ele><time>2026-04-11T15:10:25.109Z</time></trkpt><trkpt lat="40.106415" lon="18.2789033"><ele>81.0</ele><time>2026-04-11T15:10:26.109Z</time></trkpt><trkpt lat="40.106355" lon="18.2789533"><ele>81.0</ele><time>2026-04-11T15:10:27.11Z</time></trkpt><trkpt lat="40.1062583" lon="18.27904"><ele>80.66666666666667</ele><time>2026-04-11T15:10:29.11Z</time></trkpt><trkpt lat="40.10617" lon="18.279105"><ele>80.33333333333333</ele><time>2026-04-11T15:10:31.11Z</time></trkpt><trkpt lat="40.106085" lon="18.2791567"><ele>80.0</ele><time>2026-04-11T15:10:33.109Z</time></trkpt><trkpt lat="40.106015" lon="18.279215"><ele>79.66666666666666</ele><time>2026-04-11T15:10:35.109Z</time></trkpt><trkpt lat="40.10595" lon="18.2792633"><ele>79.33333333333333</ele><time>2026-04-11T15:10:37.109Z</time></trkpt><trkpt lat="40.10589" lon="18.2792367"><ele>79.0</ele><time>2026-04-11T15:10:39.11Z</time></trkpt><trkpt lat="40.1058433" lon="18.2791417"><ele>79.0</ele><time>2026-04-11T15:10:41.11Z</time></trkpt><trkpt lat="40.1057883" lon="18.2790067"><ele>79.0</ele><time>2026-04-11T15:10:43.109Z</time></trkpt><trkpt lat="40.10575" lon="18.2789133"><ele>79.0</ele><time>2026-04-11T15:10:44.109Z</time></trkpt><trkpt lat="40.1057133" lon="18.2788233"><ele>79.0</ele><time>2026-04-11T15:10:45.11Z</time></trkpt><trkpt lat="40.1056767" lon="18.2787333"><ele>79.0</ele><time>2026-04-11T15:10:46.109Z</time></trkpt><trkpt lat="40.1056333" lon="18.2786383"><ele>79.0</ele><time>2026-04-11T15:10:47.109Z</time></trkpt><trkpt lat="40.105595" lon="18.27854"><ele>79.0</ele><time>2026-04-11T15:10:48.109Z</time></trkpt><trkpt lat="40.1055533" lon="18.2784417"><ele>79.0</ele><time>2026-04-11T15:10:49.109Z</time></trkpt><trkpt lat="40.1055117" lon="18.2783467"><ele>79.0</ele><time>2026-04-11T15:10:50.109Z</time></trkpt><trkpt lat="40.105475" lon="18.2782567"><ele>79.0</ele><time>2026-04-11T15:10:51.11Z</time></trkpt><trkpt lat="40.1054417" lon="18.278165"><ele>79.0</ele><time>2026-04-11T15:10:52.109Z</time></trkpt><trkpt lat="40.1054017" lon="18.27806"><ele>79.0</ele><time>2026-04-11T15:10:53.109Z</time></trkpt><trkpt lat="40.1053583" lon="18.2779533"><ele>79.0</ele><time>2026-04-11T15:10:54.109Z</time></trkpt><trkpt lat="40.1053167" lon="18.2778533"><ele>79.0</ele><time>2026-04-11T15:10:55.109Z</time></trkpt><trkpt lat="40.105275" lon="18.27775"><ele>79.0</ele><time>2026-04-11T15:10:56.11Z</time></trkpt><trkpt lat="40.1052283" lon="18.2776467"><ele>79.0</ele><time>2026-04-11T15:10:57.11Z</time></trkpt><trkpt lat="40.105185" lon="18.2775383"><ele>79.0</ele><time>2026-04-11T15:10:58.109Z</time></trkpt><trkpt lat="40.1051417" lon="18.277435"><ele>79.0</ele><time>2026-04-11T15:10:59.11Z</time></trkpt><trkpt lat="40.1050967" lon="18.2773317"><ele>79.0</ele><time>2026-04-11T15:11:00.109Z</time></trkpt><trkpt lat="40.105055" lon="18.2772367"><ele>79.0</ele><time>2026-04-11T15:11:01.11Z</time></trkpt><trkpt lat="40.105015" lon="18.2771533"><ele>79.0</ele><time>2026-04-11T15:11:02.11Z</time></trkpt><trkpt lat="40.10498" lon="18.2770833"><ele>79.0</ele><time>2026-04-11T15:11:03.11Z</time></trkpt><trkpt lat="40.1049333" lon="18.2769967"><ele>79.0</ele><time>2026-04-11T15:11:05.109Z</time></trkpt><trkpt lat="40.1048417" lon="18.277"><ele>79.5</ele><time>2026-04-11T15:11:12.109Z</time></trkpt><trkpt lat="40.104765" lon="18.277155"><ele>80.0</ele><time>2026-04-11T15:11:14.109Z</time></trkpt><trkpt lat="40.1047033" lon="18.2772583"><ele>80.5</ele><time>2026-04-11T15:11:15.109Z</time></trkpt><trkpt lat="40.1046383" lon="18.277365"><ele>81.0</ele><time>2026-04-11T15:11:16.11Z</time></trkpt><trkpt lat="40.1045617" lon="18.27748"><ele>81.0</ele><time>2026-04-11T15:11:17.11Z</time></trkpt><trkpt lat="40.1044767" lon="18.2775967"><ele>81.0</ele><time>2026-04-11T15:11:18.11Z</time></trkpt><trkpt lat="40.104395" lon="18.27771"><ele>81.0</ele><time>2026-04-11T15:11:19.109Z</time></trkpt><trkpt lat="40.1043217" lon="18.2778083"><ele>81.0</ele><time>2026-04-11T15:11:20.109Z</time></trkpt><trkpt lat="40.1042567" lon="18.2778967"><ele>81.0</ele><time>2026-04-11T15:11:21.11Z</time></trkpt><trkpt lat="40.1042033" lon="18.2779733"><ele>81.0</ele><time>2026-04-11T15:11:22.109Z</time></trkpt><trkpt lat="40.1041333" lon="18.27807"><ele>81.0</ele><time>2026-04-11T15:11:24.109Z</time></trkpt><trkpt lat="40.104045" lon="18.2781783"><ele>81.0</ele><time>2026-04-11T15:11:47.11Z</time></trkpt><trkpt lat="40.1039483" lon="18.2783083"><ele>81.0</ele><time>2026-04-11T15:11:49.11Z</time></trkpt><trkpt lat="40.103885" lon="18.27839"><ele>80.6</ele><time>2026-04-11T15:11:50.11Z</time></trkpt><trkpt lat="40.103815" lon="18.2784817"><ele>80.19999999999999</ele><time>2026-04-11T15:11:51.11Z</time></trkpt><trkpt lat="40.10374" lon="18.2785783"><ele>79.80000000000001</ele><time>2026-04-11T15:11:52.11Z</time></trkpt><trkpt lat="40.1036633" lon="18.2786817"><ele>79.4</ele><time>2026-04-11T15:11:53.111Z</time></trkpt><trkpt lat="40.1035833" lon="18.2787883"><ele>79.0</ele><time>2026-04-11T15:11:54.11Z</time></trkpt><trkpt lat="40.1035017" lon="18.2788983"><ele>79.0</ele><time>2026-04-11T15:11:55.111Z</time></trkpt><trkpt lat="40.103415" lon="18.2790117"><ele>79.0</ele><time>2026-04-11T15:11:56.111Z</time></trkpt><trkpt lat="40.10333" lon="18.2791283"><ele>79.0</ele><time>2026-04-11T15:11:57.11Z</time></trkpt><trkpt lat="40.1032433" lon="18.2792433"><ele>79.0</ele><time>2026-04-11T15:11:58.11Z</time></trkpt><trkpt lat="40.1031533" lon="18.2793617"><ele>78.75</ele><time>2026-04-11T15:11:59.111Z</time></trkpt><trkpt lat="40.10306" lon="18.2794817"><ele>78.5</ele><time>2026-04-11T15:12:00.11Z</time></trkpt><trkpt lat="40.1029633" lon="18.2796"><ele>78.25</ele><time>2026-04-11T15:12:01.111Z</time></trkpt><trkpt lat="40.102865" lon="18.27972"><ele>78.0</ele><time>2026-04-11T15:12:02.11Z</time></trkpt><trkpt lat="40.102765" lon="18.2798433"><ele>78.0</ele><time>2026-04-11T15:12:03.111Z</time></trkpt><trkpt lat="40.1026617" lon="18.2799683"><ele>78.0</ele><time>2026-04-11T15:12:04.111Z</time></trkpt><trkpt lat="40.1025567" lon="18.2800933"><ele>78.0</ele><time>2026-04-11T15:12:05.11Z</time></trkpt><trkpt lat="40.1024467" lon="18.280225"><ele>78.0</ele><time>2026-04-11T15:12:06.11Z</time></trkpt><trkpt lat="40.102335" lon="18.2803567"><ele>78.0</ele><time>2026-04-11T15:12:07.111Z</time></trkpt><trkpt lat="40.10223" lon="18.280475"><ele>78.0</ele><time>2026-04-11T15:12:08.11Z</time></trkpt><trkpt lat="40.102135" lon="18.28058"><ele>78.0</ele><time>2026-04-11T15:12:09.111Z</time></trkpt><trkpt lat="40.10205" lon="18.2806683"><ele>78.0</ele><time>2026-04-11T15:12:10.11Z</time></trkpt><trkpt lat="40.1019833" lon="18.2807383"><ele>78.0</ele><time>2026-04-11T15:12:11.11Z</time></trkpt><trkpt lat="40.101905" lon="18.2808067"><ele>78.0</ele><time>2026-04-11T15:12:13.111Z</time></trkpt><trkpt lat="40.101835" lon="18.2807633"><ele>78.0</ele><time>2026-04-11T15:12:16.11Z</time></trkpt><trkpt lat="40.101815" lon="18.2806083"><ele>78.0</ele><time>2026-04-11T15:12:18.11Z</time></trkpt><trkpt lat="40.1017917" lon="18.2805"><ele>78.0</ele><time>2026-04-11T15:12:19.11Z</time></trkpt><trkpt lat="40.1017483" lon="18.280375"><ele>78.0</ele><time>2026-04-11T15:12:20.11Z</time></trkpt><trkpt lat="40.1016917" lon="18.280245"><ele>78.0</ele><time>2026-04-11T15:12:21.11Z</time></trkpt><trkpt lat="40.1016183" lon="18.2801167"><ele>78.0</ele><time>2026-04-11T15:12:22.111Z</time></trkpt><trkpt lat="40.10154" lon="18.2799883"><ele>78.0</ele><time>2026-04-11T15:12:23.11Z</time></trkpt><trkpt lat="40.1014617" lon="18.27986"><ele>78.5</ele><time>2026-04-11T15:12:24.11Z</time></trkpt><trkpt lat="40.1013817" lon="18.279725"><ele>79.0</ele><time>2026-04-11T15:12:25.11Z</time></trkpt><trkpt lat="40.1013017" lon="18.2795917"><ele>79.5</ele><time>2026-04-11T15:12:26.11Z</time></trkpt><trkpt lat="40.1012183" lon="18.2794583"><ele>80.0</ele><time>2026-04-11T15:12:27.11Z</time></trkpt><trkpt lat="40.101145" lon="18.27933"><ele>80.0</ele><time>2026-04-11T15:12:28.111Z</time></trkpt><trkpt lat="40.1010733" lon="18.279205"><ele>80.0</ele><time>2026-04-11T15:12:29.111Z</time></trkpt><trkpt lat="40.101005" lon="18.2790917"><ele>80.0</ele><time>2026-04-11T15:12:30.11Z</time></trkpt><trkpt lat="40.1009433" lon="18.27899"><ele>80.0</ele><time>2026-04-11T15:12:31.11Z</time></trkpt><trkpt lat="40.100885" lon="18.278905"><ele>80.0</ele><time>2026-04-11T15:12:32.111Z</time></trkpt><trkpt lat="40.1008267" lon="18.278835"><ele>80.33333333333334</ele><time>2026-04-11T15:12:33.11Z</time></trkpt><trkpt lat="40.1007633" lon="18.2787917"><ele>80.66666666666667</ele><time>2026-04-11T15:12:34.11Z</time></trkpt><trkpt lat="40.1007" lon="18.2787783"><ele>81.0</ele><time>2026-04-11T15:12:35.11Z</time></trkpt><trkpt lat="40.1006267" lon="18.2787967"><ele>81.33333333333333</ele><time>2026-04-11T15:12:36.111Z</time></trkpt><trkpt lat="40.100545" lon="18.2788283"><ele>81.66666666666666</ele><time>2026-04-11T15:12:37.11Z</time></trkpt><trkpt lat="40.10045" lon="18.2788567"><ele>82.0</ele><time>2026-04-11T15:12:38.11Z</time></trkpt><trkpt lat="40.1003533" lon="18.2788717"><ele>82.16666666666666</ele><time>2026-04-11T15:12:39.111Z</time></trkpt><trkpt lat="40.100265" lon="18.278865"><ele>82.33333333333333</ele><time>2026-04-11T15:12:40.111Z</time></trkpt><trkpt lat="40.1001867" lon="18.2788417"><ele>82.5</ele><time>2026-04-11T15:12:41.111Z</time></trkpt><trkpt lat="40.1001233" lon="18.2788083"><ele>82.66666666666667</ele><time>2026-04-11T15:12:42.11Z</time></trkpt><trkpt lat="40.1000117" lon="18.2787267"><ele>82.83333333333334</ele><time>2026-04-11T15:12:44.11Z</time></trkpt><trkpt lat="40.09995" lon="18.278695"><ele>83.0</ele><time>2026-04-11T15:12:45.111Z</time></trkpt><trkpt lat="40.0998867" lon="18.278685"><ele>83.0</ele><time>2026-04-11T15:12:46.11Z</time></trkpt><trkpt lat="40.0998217" lon="18.2786933"><ele>83.0</ele><time>2026-04-11T15:12:47.11Z</time></trkpt><trkpt lat="40.099755" lon="18.2787117"><ele>83.0</ele><time>2026-04-11T15:12:48.111Z</time></trkpt><trkpt lat="40.0996917" lon="18.2787333"><ele>83.0</ele><time>2026-04-11T15:12:49.11Z</time></trkpt><trkpt lat="40.099625" lon="18.2787383"><ele>83.0</ele><time>2026-04-11T15:12:50.11Z</time></trkpt><trkpt lat="40.0995567" lon="18.2787267"><ele>83.0</ele><time>2026-04-11T15:12:51.11Z</time></trkpt><trkpt lat="40.0994867" lon="18.2786917"><ele>83.0</ele><time>2026-04-11T15:12:52.111Z</time></trkpt><trkpt lat="40.0994217" lon="18.2786383"><ele>83.0</ele><time>2026-04-11T15:12:53.11Z</time></trkpt><trkpt lat="40.0993617" lon="18.2785667"><ele>83.0</ele><time>2026-04-11T15:12:54.11Z</time></trkpt><trkpt lat="40.09931" lon="18.2784767"><ele>83.0</ele><time>2026-04-11T15:12:55.111Z</time></trkpt><trkpt lat="40.0992667" lon="18.2783733"><ele>83.0</ele><time>2026-04-11T15:12:56.11Z</time></trkpt><trkpt lat="40.0992183" lon="18.2782617"><ele>83.0</ele><time>2026-04-11T15:12:57.11Z</time></trkpt><trkpt lat="40.0991683" lon="18.2781467"><ele>83.0</ele><time>2026-04-11T15:12:58.11Z</time></trkpt><trkpt lat="40.0991183" lon="18.2780333"><ele>83.0</ele><time>2026-04-11T15:12:59.111Z</time></trkpt><trkpt lat="40.09907" lon="18.27792"><ele>83.0</ele><time>2026-04-11T15:13:00.11Z</time></trkpt><trkpt lat="40.0990217" lon="18.2778033"><ele>83.0</ele><time>2026-04-11T15:13:01.11Z</time></trkpt><trkpt lat="40.098975" lon="18.277695"><ele>83.0</ele><time>2026-04-11T15:13:02.11Z</time></trkpt><trkpt lat="40.0989333" lon="18.2776033"><ele>83.0</ele><time>2026-04-11T15:13:03.111Z</time></trkpt><trkpt lat="40.0988933" lon="18.2775267"><ele>83.0</ele><time>2026-04-11T15:13:04.111Z</time></trkpt><trkpt lat="40.0988383" lon="18.2774233"><ele>83.0</ele><time>2026-04-11T15:13:06.11Z</time></trkpt><trkpt lat="40.0988333" lon="18.2773083"><ele>83.0</ele><time>2026-04-11T15:13:09.111Z</time></trkpt><trkpt lat="40.0988767" lon="18.2772433"><ele>83.0</ele><time>2026-04-11T15:13:11.11Z</time></trkpt><trkpt lat="40.0988233" lon="18.2773433"><ele>83.0</ele><time>2026-04-11T15:13:33.11Z</time></trkpt><trkpt lat="40.0987417" lon="18.2772983"><ele>83.0</ele><time>2026-04-11T15:13:36.111Z</time></trkpt><trkpt lat="40.0986433" lon="18.2772117"><ele>83.0</ele><time>2026-04-11T15:13:38.111Z</time></trkpt><trkpt lat="40.0985833" lon="18.277165"><ele>83.0</ele><time>2026-04-11T15:13:39.11Z</time></trkpt><trkpt lat="40.09852" lon="18.277115"><ele>83.0</ele><time>2026-04-11T15:13:40.111Z</time></trkpt><trkpt lat="40.0984567" lon="18.2770533"><ele>83.0</ele><time>2026-04-11T15:13:41.11Z</time></trkpt><trkpt lat="40.09839" lon="18.276985"><ele>83.0</ele><time>2026-04-11T15:13:42.11Z</time></trkpt><trkpt lat="40.09833" lon="18.276915"><ele>83.0</ele><time>2026-04-11T15:13:43.111Z</time></trkpt><trkpt lat="40.098265" lon="18.276855"><ele>83.0</ele><time>2026-04-11T15:13:44.111Z</time></trkpt><trkpt lat="40.0981933" lon="18.2768017"><ele>83.0</ele><time>2026-04-11T15:13:45.11Z</time></trkpt><trkpt lat="40.09812" lon="18.2767517"><ele>83.0</ele><time>2026-04-11T15:13:46.11Z</time></trkpt><trkpt lat="40.0980467" lon="18.27671"><ele>83.0</ele><time>2026-04-11T15:13:47.111Z</time></trkpt><trkpt lat="40.0979683" lon="18.2766633"><ele>83.0</ele><time>2026-04-11T15:13:48.11Z</time></trkpt><trkpt lat="40.09789" lon="18.2766167"><ele>83.16666666666667</ele><time>2026-04-11T15:13:49.11Z</time></trkpt><trkpt lat="40.097815" lon="18.2765767"><ele>83.33333333333334</ele><time>2026-04-11T15:13:50.111Z</time></trkpt><trkpt lat="40.0977467" lon="18.2765383"><ele>83.5</ele><time>2026-04-11T15:13:51.111Z</time></trkpt><trkpt lat="40.0976817" lon="18.2764917"><ele>83.66666666666667</ele><time>2026-04-11T15:13:52.11Z</time></trkpt><trkpt lat="40.097615" lon="18.2764317"><ele>83.83333333333333</ele><time>2026-04-11T15:13:53.11Z</time></trkpt><trkpt lat="40.09754" lon="18.27636"><ele>84.0</ele><time>2026-04-11T15:13:54.111Z</time></trkpt><trkpt lat="40.09746" lon="18.2762817"><ele>84.16666666666667</ele><time>2026-04-11T15:13:55.11Z</time></trkpt><trkpt lat="40.09738" lon="18.2762017"><ele>84.33333333333333</ele><time>2026-04-11T15:13:56.11Z</time></trkpt><trkpt lat="40.0973083" lon="18.27612"><ele>84.5</ele><time>2026-04-11T15:13:57.11Z</time></trkpt><trkpt lat="40.0972467" lon="18.276045"><ele>84.66666666666666</ele><time>2026-04-11T15:13:58.111Z</time></trkpt><trkpt lat="40.0971917" lon="18.2759783"><ele>84.83333333333333</ele><time>2026-04-11T15:13:59.11Z</time></trkpt><trkpt lat="40.0971417" lon="18.2759067"><ele>85.0</ele><time>2026-04-11T15:14:00.11Z</time></trkpt><trkpt lat="40.0970933" lon="18.275825"><ele>85.0</ele><time>2026-04-11T15:14:01.111Z</time></trkpt><trkpt lat="40.097045" lon="18.2757283"><ele>85.0</ele><time>2026-04-11T15:14:02.11Z</time></trkpt><trkpt lat="40.096995" lon="18.2756317"><ele>85.0</ele><time>2026-04-11T15:14:03.111Z</time></trkpt><trkpt lat="40.0969433" lon="18.275535"><ele>85.0</ele><time>2026-04-11T15:14:04.11Z</time></trkpt><trkpt lat="40.0968867" lon="18.2754433"><ele>85.0</ele><time>2026-04-11T15:14:05.111Z</time></trkpt><trkpt lat="40.0968283" lon="18.2753533"><ele>85.0</ele><time>2026-04-11T15:14:06.11Z</time></trkpt><trkpt lat="40.0967667" lon="18.27527"><ele>84.8</ele><time>2026-04-11T15:14:07.111Z</time></trkpt><trkpt lat="40.0967083" lon="18.2751867"><ele>84.6</ele><time>2026-04-11T15:14:08.111Z</time></trkpt><trkpt lat="40.0966433" lon="18.2750983"><ele>84.4</ele><time>2026-04-11T15:14:09.111Z</time></trkpt><trkpt lat="40.096575" lon="18.275005"><ele>84.2</ele><time>2026-04-11T15:14:10.11Z</time></trkpt><trkpt lat="40.09651" lon="18.2749217"><ele>84.0</ele><time>2026-04-11T15:14:11.11Z</time></trkpt><trkpt lat="40.096445" lon="18.2748433"><ele>84.4</ele><time>2026-04-11T15:14:12.11Z</time></trkpt><trkpt lat="40.096385" lon="18.27477"><ele>84.80000000000001</ele><time>2026-04-11T15:14:13.111Z</time></trkpt><trkpt lat="40.0963167" lon="18.274695"><ele>85.19999999999999</ele><time>2026-04-11T15:14:14.11Z</time></trkpt><trkpt lat="40.096235" lon="18.2746083"><ele>85.6</ele><time>2026-04-11T15:14:15.11Z</time></trkpt><trkpt lat="40.0961333" lon="18.2745033"><ele>86.0</ele><time>2026-04-11T15:14:16.11Z</time></trkpt><trkpt lat="40.09603" lon="18.2744033"><ele>86.0</ele><time>2026-04-11T15:14:17.111Z</time></trkpt><trkpt lat="40.0959383" lon="18.2743117"><ele>86.0</ele><time>2026-04-11T15:14:18.11Z</time></trkpt><trkpt lat="40.09585" lon="18.27422"><ele>86.0</ele><time>2026-04-11T15:14:19.11Z</time></trkpt><trkpt lat="40.09576" lon="18.2741233"><ele>86.0</ele><time>2026-04-11T15:14:20.11Z</time></trkpt><trkpt lat="40.09566" lon="18.2740183"><ele>86.19999999999999</ele><time>2026-04-11T15:14:21.11Z</time></trkpt><trkpt lat="40.0955617" lon="18.27392"><ele>86.39999999999999</ele><time>2026-04-11T15:14:22.11Z</time></trkpt><trkpt lat="40.09547" lon="18.273825"><ele>86.6</ele><time>2026-04-11T15:14:23.111Z</time></trkpt><trkpt lat="40.0953833" lon="18.27374"><ele>86.8</ele><time>2026-04-11T15:14:24.111Z</time></trkpt><trkpt lat="40.095305" lon="18.2736633"><ele>87.0</ele><time>2026-04-11T15:14:25.11Z</time></trkpt><trkpt lat="40.09524" lon="18.2735983"><ele>87.0</ele><time>2026-04-11T15:14:26.11Z</time></trkpt><trkpt lat="40.095175" lon="18.2735383"><ele>87.0</ele><time>2026-04-11T15:14:27.11Z</time></trkpt><trkpt lat="40.095105" lon="18.2734683"><ele>87.0</ele><time>2026-04-11T15:14:28.11Z</time></trkpt><trkpt lat="40.0950283" lon="18.2733967"><ele>87.0</ele><time>2026-04-11T15:14:29.111Z</time></trkpt><trkpt lat="40.094945" lon="18.273315"><ele>87.0</ele><time>2026-04-11T15:14:30.11Z</time></trkpt><trkpt lat="40.0948583" lon="18.2732233"><ele>86.83333333333333</ele><time>2026-04-11T15:14:31.11Z</time></trkpt><trkpt lat="40.0947817" lon="18.2731267"><ele>86.66666666666667</ele><time>2026-04-11T15:14:32.111Z</time></trkpt><trkpt lat="40.0947133" lon="18.2730333"><ele>86.5</ele><time>2026-04-11T15:14:33.11Z</time></trkpt><trkpt lat="40.0946533" lon="18.272945"><ele>86.33333333333334</ele><time>2026-04-11T15:14:34.11Z</time></trkpt><trkpt lat="40.0946017" lon="18.27287"><ele>86.16666666666667</ele><time>2026-04-11T15:14:35.11Z</time></trkpt><trkpt lat="40.0945567" lon="18.2727917"><ele>86.0</ele><time>2026-04-11T15:14:36.111Z</time></trkpt><trkpt lat="40.0945067" lon="18.2727"><ele>86.0</ele><time>2026-04-11T15:14:37.11Z</time></trkpt><trkpt lat="40.0944517" lon="18.2725967"><ele>86.0</ele><time>2026-04-11T15:14:38.11Z</time></trkpt><trkpt lat="40.0943917" lon="18.2724733"><ele>86.0</ele><time>2026-04-11T15:14:39.111Z</time></trkpt><trkpt lat="40.094325" lon="18.2723433"><ele>86.0</ele><time>2026-04-11T15:14:40.11Z</time></trkpt><trkpt lat="40.0942567" lon="18.272205"><ele>85.75</ele><time>2026-04-11T15:14:41.11Z</time></trkpt><trkpt lat="40.0941833" lon="18.2720617"><ele>85.5</ele><time>2026-04-11T15:14:42.11Z</time></trkpt><trkpt lat="40.09411" lon="18.271925"><ele>85.25</ele><time>2026-04-11T15:14:43.111Z</time></trkpt><trkpt lat="40.09404" lon="18.2717967"><ele>85.0</ele><time>2026-04-11T15:14:44.111Z</time></trkpt><trkpt lat="40.0939717" lon="18.2716683"><ele>85.5</ele><time>2026-04-11T15:14:45.11Z</time></trkpt><trkpt lat="40.0939083" lon="18.27154"><ele>86.0</ele><time>2026-04-11T15:14:46.111Z</time></trkpt><trkpt lat="40.0938417" lon="18.2714133"><ele>86.5</ele><time>2026-04-11T15:14:47.11Z</time></trkpt><trkpt lat="40.0937783" lon="18.2712917"><ele>87.0</ele><time>2026-04-11T15:14:48.11Z</time></trkpt><trkpt lat="40.0937133" lon="18.2711567"><ele>87.0</ele><time>2026-04-11T15:14:49.11Z</time></trkpt><trkpt lat="40.0936467" lon="18.2710233"><ele>87.0</ele><time>2026-04-11T15:14:50.111Z</time></trkpt><trkpt lat="40.0935817" lon="18.270895"><ele>87.0</ele><time>2026-04-11T15:14:51.11Z</time></trkpt><trkpt lat="40.093515" lon="18.27077"><ele>87.0</ele><time>2026-04-11T15:14:52.11Z</time></trkpt><trkpt lat="40.093455" lon="18.2706533"><ele>87.0</ele><time>2026-04-11T15:14:53.11Z</time></trkpt><trkpt lat="40.0934033" lon="18.2705467"><ele>87.0</ele><time>2026-04-11T15:14:54.11Z</time></trkpt><trkpt lat="40.0933583" lon="18.27045"><ele>87.0</ele><time>2026-04-11T15:14:55.11Z</time></trkpt><trkpt lat="40.09332" lon="18.2703683"><ele>87.0</ele><time>2026-04-11T15:14:56.11Z</time></trkpt><trkpt lat="40.0932517" lon="18.2702683"><ele>87.0</ele><time>2026-04-11T15:14:58.11Z</time></trkpt><trkpt lat="40.0931733" lon="18.27031"><ele>87.0</ele><time>2026-04-11T15:15:14.11Z</time></trkpt><trkpt lat="40.09312" lon="18.27049"><ele>87.16666666666667</ele><time>2026-04-11T15:15:16.11Z</time></trkpt><trkpt lat="40.0930933" lon="18.2706"><ele>87.33333333333333</ele><time>2026-04-11T15:15:17.11Z</time></trkpt><trkpt lat="40.0930617" lon="18.270695"><ele>87.5</ele><time>2026-04-11T15:15:18.11Z</time></trkpt><trkpt lat="40.093035" lon="18.27077"><ele>87.66666666666666</ele><time>2026-04-11T15:15:19.11Z</time></trkpt><trkpt lat="40.0929817" lon="18.2708267"><ele>87.83333333333333</ele><time>2026-04-11T15:15:21.11Z</time></trkpt><trkpt lat="40.09292" lon="18.2707767"><ele>88.0</ele><time>2026-04-11T15:15:23.11Z</time></trkpt><trkpt lat="40.0928433" lon="18.270665"><ele>88.0</ele><time>2026-04-11T15:15:25.11Z</time></trkpt><trkpt lat="40.0928" lon="18.2706"><ele>88.0</ele><time>2026-04-11T15:15:26.11Z</time></trkpt><trkpt lat="40.0927567" lon="18.2705317"><ele>88.0</ele><time>2026-04-11T15:15:27.11Z</time></trkpt><trkpt lat="40.0927067" lon="18.270465"><ele>88.0</ele><time>2026-04-11T15:15:28.111Z</time></trkpt><trkpt lat="40.0926533" lon="18.2703967"><ele>88.0</ele><time>2026-04-11T15:15:29.111Z</time></trkpt><trkpt lat="40.0925983" lon="18.2703217"><ele>88.0</ele><time>2026-04-11T15:15:30.11Z</time></trkpt><trkpt lat="40.0925417" lon="18.2702433"><ele>88.0</ele><time>2026-04-11T15:15:31.11Z</time></trkpt><trkpt lat="40.0924783" lon="18.2701583"><ele>87.80000000000001</ele><time>2026-04-11T15:15:32.11Z</time></trkpt><trkpt lat="40.09241" lon="18.2700667"><ele>87.6</ele><time>2026-04-11T15:15:33.11Z</time></trkpt><trkpt lat="40.0923417" lon="18.2699683"><ele>87.4</ele><time>2026-04-11T15:15:34.11Z</time></trkpt><trkpt lat="40.09227" lon="18.2698633"><ele>87.19999999999999</ele><time>2026-04-11T15:15:35.11Z</time></trkpt><trkpt lat="40.092195" lon="18.26975"><ele>87.0</ele><time>2026-04-11T15:15:36.111Z</time></trkpt><trkpt lat="40.0921133" lon="18.269635"><ele>87.0</ele><time>2026-04-11T15:15:37.111Z</time></trkpt><trkpt lat="40.0920317" lon="18.26952"><ele>87.0</ele><time>2026-04-11T15:15:38.11Z</time></trkpt><trkpt lat="40.091955" lon="18.269415"><ele>87.0</ele><time>2026-04-11T15:15:39.111Z</time></trkpt><trkpt lat="40.0918883" lon="18.26932"><ele>87.0</ele><time>2026-04-11T15:15:40.11Z</time></trkpt><trkpt lat="40.0918317" lon="18.269235"><ele>87.0</ele><time>2026-04-11T15:15:41.11Z</time></trkpt><trkpt lat="40.091775" lon="18.2691567"><ele>87.0</ele><time>2026-04-11T15:15:42.11Z</time></trkpt><trkpt lat="40.0917183" lon="18.2690833"><ele>87.0</ele><time>2026-04-11T15:15:43.11Z</time></trkpt><trkpt lat="40.0916633" lon="18.2690233"><ele>87.0</ele><time>2026-04-11T15:15:44.111Z</time></trkpt><trkpt lat="40.09161" lon="18.268975"><ele>87.0</ele><time>2026-04-11T15:15:45.111Z</time></trkpt><trkpt lat="40.0914983" lon="18.2689033"><ele>87.0</ele><time>2026-04-11T15:15:47.111Z</time></trkpt><trkpt lat="40.0914383" lon="18.2688783"><ele>87.0</ele><time>2026-04-11T15:15:48.11Z</time></trkpt><trkpt lat="40.0913767" lon="18.2688567"><ele>87.0</ele><time>2026-04-11T15:15:49.11Z</time></trkpt><trkpt lat="40.0913117" lon="18.26883"><ele>87.0</ele><time>2026-04-11T15:15:50.11Z</time></trkpt><trkpt lat="40.0912467" lon="18.2688"><ele>87.0</ele><time>2026-04-11T15:15:51.11Z</time></trkpt><trkpt lat="40.09118" lon="18.2687683"><ele>87.0</ele><time>2026-04-11T15:15:52.11Z</time></trkpt><trkpt lat="40.0911117" lon="18.26874"><ele>87.0</ele><time>2026-04-11T15:15:53.111Z</time></trkpt><trkpt lat="40.0910467" lon="18.2687117"><ele>87.0</ele><time>2026-04-11T15:15:54.11Z</time></trkpt><trkpt lat="40.0909833" lon="18.2686817"><ele>87.0</ele><time>2026-04-11T15:15:55.111Z</time></trkpt><trkpt lat="40.0909217" lon="18.268645"><ele>87.0</ele><time>2026-04-11T15:15:56.11Z</time></trkpt><trkpt lat="40.090865" lon="18.2685983"><ele>87.0</ele><time>2026-04-11T15:15:57.111Z</time></trkpt><trkpt lat="40.0908067" lon="18.26855"><ele>87.0</ele><time>2026-04-11T15:15:58.111Z</time></trkpt><trkpt lat="40.0907483" lon="18.2685017"><ele>87.0</ele><time>2026-04-11T15:15:59.11Z</time></trkpt><trkpt lat="40.09069" lon="18.2684517"><ele>87.0</ele><time>2026-04-11T15:16:00.111Z</time></trkpt><trkpt lat="40.0906333" lon="18.268395"><ele>87.0</ele><time>2026-04-11T15:16:01.11Z</time></trkpt><trkpt lat="40.0905867" lon="18.2683367"><ele>87.0</ele><time>2026-04-11T15:16:02.11Z</time></trkpt><trkpt lat="40.0905417" lon="18.2682717"><ele>87.0</ele><time>2026-04-11T15:16:03.11Z</time></trkpt><trkpt lat="40.090495" lon="18.2682033"><ele>87.0</ele><time>2026-04-11T15:16:04.111Z</time></trkpt><trkpt lat="40.0904383" lon="18.2681417"><ele>87.0</ele><time>2026-04-11T15:16:05.111Z</time></trkpt><trkpt lat="40.0903817" lon="18.2680933"><ele>87.0</ele><time>2026-04-11T15:16:06.111Z</time></trkpt><trkpt lat="40.0903217" lon="18.268055"><ele>87.0</ele><time>2026-04-11T15:16:07.11Z</time></trkpt><trkpt lat="40.09026" lon="18.26802"><ele>87.0</ele><time>2026-04-11T15:16:08.111Z</time></trkpt><trkpt lat="40.090195" lon="18.2679817"><ele>87.0</ele><time>2026-04-11T15:16:09.11Z</time></trkpt><trkpt lat="40.09013" lon="18.2679367"><ele>87.16666666666667</ele><time>2026-04-11T15:16:10.111Z</time></trkpt><trkpt lat="40.090065" lon="18.2678783"><ele>87.33333333333333</ele><time>2026-04-11T15:16:11.11Z</time></trkpt><trkpt lat="40.0900033" lon="18.267815"><ele>87.5</ele><time>2026-04-11T15:16:12.111Z</time></trkpt><trkpt lat="40.0899417" lon="18.2677567"><ele>87.66666666666666</ele><time>2026-04-11T15:16:13.111Z</time></trkpt><trkpt lat="40.0898783" lon="18.2676983"><ele>87.83333333333333</ele><time>2026-04-11T15:16:14.11Z</time></trkpt><trkpt lat="40.0898133" lon="18.26764"><ele>88.0</ele><time>2026-04-11T15:16:15.111Z</time></trkpt><trkpt lat="40.08975" lon="18.2675783"><ele>88.0</ele><time>2026-04-11T15:16:16.111Z</time></trkpt><trkpt lat="40.0896867" lon="18.267515"><ele>88.0</ele><time>2026-04-11T15:16:17.11Z</time></trkpt><trkpt lat="40.0896217" lon="18.2674517"><ele>88.0</ele><time>2026-04-11T15:16:18.111Z</time></trkpt><trkpt lat="40.08955" lon="18.2673867"><ele>88.0</ele><time>2026-04-11T15:16:19.111Z</time></trkpt><trkpt lat="40.089475" lon="18.26732"><ele>88.0</ele><time>2026-04-11T15:16:20.11Z</time></trkpt><trkpt lat="40.0894" lon="18.2672483"><ele>88.0</ele><time>2026-04-11T15:16:21.11Z</time></trkpt><trkpt lat="40.0893283" lon="18.267175"><ele>88.16666666666666</ele><time>2026-04-11T15:16:22.111Z</time></trkpt><trkpt lat="40.089265" lon="18.2671017"><ele>88.33333333333333</ele><time>2026-04-11T15:16:23.11Z</time></trkpt><trkpt lat="40.0892017" lon="18.2670333"><ele>88.5</ele><time>2026-04-11T15:16:24.11Z</time></trkpt><trkpt lat="40.0891367" lon="18.2669667"><ele>88.66666666666667</ele><time>2026-04-11T15:16:25.11Z</time></trkpt><trkpt lat="40.0890667" lon="18.2669"><ele>88.83333333333334</ele><time>2026-04-11T15:16:26.11Z</time></trkpt><trkpt lat="40.0889917" lon="18.26683"><ele>89.0</ele><time>2026-04-11T15:16:27.11Z</time></trkpt><trkpt lat="40.088915" lon="18.2667633"><ele>89.0</ele><time>2026-04-11T15:16:28.11Z</time></trkpt><trkpt lat="40.0888417" lon="18.2666983"><ele>89.0</ele><time>2026-04-11T15:16:29.11Z</time></trkpt><trkpt lat="40.0887733" lon="18.26664"><ele>89.0</ele><time>2026-04-11T15:16:30.11Z</time></trkpt><trkpt lat="40.0887017" lon="18.26658"><ele>89.0</ele><time>2026-04-11T15:16:31.11Z</time></trkpt><trkpt lat="40.0886333" lon="18.26652"><ele>89.0</ele><time>2026-04-11T15:16:32.11Z</time></trkpt><trkpt lat="40.0885683" lon="18.2664617"><ele>89.0</ele><time>2026-04-11T15:16:33.11Z</time></trkpt><trkpt lat="40.0885033" lon="18.2664033"><ele>89.33333333333334</ele><time>2026-04-11T15:16:34.11Z</time></trkpt><trkpt lat="40.0884383" lon="18.266345"><ele>89.66666666666667</ele><time>2026-04-11T15:16:35.11Z</time></trkpt><trkpt lat="40.088375" lon="18.266285"><ele>90.0</ele><time>2026-04-11T15:16:36.111Z</time></trkpt><trkpt lat="40.0883117" lon="18.2662217"><ele>90.33333333333333</ele><time>2026-04-11T15:16:37.11Z</time></trkpt><trkpt lat="40.0882433" lon="18.266155"><ele>90.66666666666666</ele><time>2026-04-11T15:16:38.11Z</time></trkpt><trkpt lat="40.0881717" lon="18.2660883"><ele>91.0</ele><time>2026-04-11T15:16:39.111Z</time></trkpt><trkpt lat="40.0880983" lon="18.2660217"><ele>91.0</ele><time>2026-04-11T15:16:40.111Z</time></trkpt><trkpt lat="40.08803" lon="18.2659567"><ele>91.0</ele><time>2026-04-11T15:16:41.111Z</time></trkpt><trkpt lat="40.087975" lon="18.2659033"><ele>91.0</ele><time>2026-04-11T15:16:42.11Z</time></trkpt><trkpt lat="40.087925" lon="18.2658533"><ele>91.0</ele><time>2026-04-11T15:16:43.11Z</time></trkpt><trkpt lat="40.0878367" lon="18.2657567"><ele>91.0</ele><time>2026-04-11T15:16:45.109Z</time></trkpt><trkpt lat="40.087765" lon="18.265685"><ele>91.0</ele><time>2026-04-11T15:16:47.109Z</time></trkpt><trkpt lat="40.0876767" lon="18.26564"><ele>91.0</ele><time>2026-04-11T15:16:49.11Z</time></trkpt><trkpt lat="40.08758" lon="18.2656933"><ele>91.0</ele><time>2026-04-11T15:16:51.109Z</time></trkpt><trkpt lat="40.0875383" lon="18.265755"><ele>91.0</ele><time>2026-04-11T15:16:52.11Z</time></trkpt><trkpt lat="40.0875067" lon="18.265835"><ele>91.0</ele><time>2026-04-11T15:16:53.109Z</time></trkpt><trkpt lat="40.0874833" lon="18.2659283"><ele>91.0</ele><time>2026-04-11T15:16:54.109Z</time></trkpt><trkpt lat="40.0874667" lon="18.2660367"><ele>91.0</ele><time>2026-04-11T15:16:55.109Z</time></trkpt><trkpt lat="40.08745" lon="18.2661567"><ele>91.0</ele><time>2026-04-11T15:16:56.109Z</time></trkpt><trkpt lat="40.087435" lon="18.2662817"><ele>91.0</ele><time>2026-04-11T15:16:57.109Z</time></trkpt><trkpt lat="40.0874167" lon="18.266415"><ele>91.0</ele><time>2026-04-11T15:16:58.11Z</time></trkpt><trkpt lat="40.0873933" lon="18.2665517"><ele>91.0</ele><time>2026-04-11T15:16:59.109Z</time></trkpt><trkpt lat="40.087365" lon="18.266695"><ele>91.0</ele><time>2026-04-11T15:17:00.109Z</time></trkpt><trkpt lat="40.087335" lon="18.26684"><ele>90.75</ele><time>2026-04-11T15:17:01.109Z</time></trkpt><trkpt lat="40.0873" lon="18.2669917"><ele>90.5</ele><time>2026-04-11T15:17:02.109Z</time></trkpt><trkpt lat="40.0872567" lon="18.2671483"><ele>90.25</ele><time>2026-04-11T15:17:03.109Z</time></trkpt><trkpt lat="40.0872067" lon="18.26731"><ele>90.0</ele><time>2026-04-11T15:17:04.109Z</time></trkpt><trkpt lat="40.08715" lon="18.2674783"><ele>90.0</ele><time>2026-04-11T15:17:05.109Z</time></trkpt><trkpt lat="40.0870967" lon="18.2676483"><ele>90.0</ele><time>2026-04-11T15:17:06.109Z</time></trkpt><trkpt lat="40.08704" lon="18.2678233"><ele>90.0</ele><time>2026-04-11T15:17:07.11Z</time></trkpt><trkpt lat="40.086985" lon="18.268005"><ele>90.0</ele><time>2026-04-11T15:17:08.109Z</time></trkpt><trkpt lat="40.0869267" lon="18.26819"><ele>90.0</ele><time>2026-04-11T15:17:09.11Z</time></trkpt><trkpt lat="40.08687" lon="18.2683783"><ele>90.0</ele><time>2026-04-11T15:17:10.109Z</time></trkpt><trkpt lat="40.086815" lon="18.26857"><ele>90.0</ele><time>2026-04-11T15:17:11.109Z</time></trkpt><trkpt lat="40.0867583" lon="18.2687633"><ele>90.0</ele><time>2026-04-11T15:17:12.109Z</time></trkpt><trkpt lat="40.0867017" lon="18.2689583"><ele>90.0</ele><time>2026-04-11T15:17:13.11Z</time></trkpt><trkpt lat="40.0866417" lon="18.2691533"><ele>90.0</ele><time>2026-04-11T15:17:14.109Z</time></trkpt><trkpt lat="40.08658" lon="18.2693483"><ele>90.0</ele><time>2026-04-11T15:17:15.11Z</time></trkpt><trkpt lat="40.0865183" lon="18.269545"><ele>90.0</ele><time>2026-04-11T15:17:16.109Z</time></trkpt><trkpt lat="40.08646" lon="18.2697383"><ele>90.0</ele><time>2026-04-11T15:17:17.11Z</time></trkpt><trkpt lat="40.0864083" lon="18.2699183"><ele>89.8</ele><time>2026-04-11T15:17:18.109Z</time></trkpt><trkpt lat="40.086365" lon="18.2700817"><ele>89.6</ele><time>2026-04-11T15:17:19.109Z</time></trkpt><trkpt lat="40.0863283" lon="18.2702167"><ele>89.4</ele><time>2026-04-11T15:17:20.109Z</time></trkpt><trkpt lat="40.0863" lon="18.2703217"><ele>89.2</ele><time>2026-04-11T15:17:21.109Z</time></trkpt><trkpt lat="40.0862733" lon="18.2704117"><ele>89.0</ele><time>2026-04-11T15:17:22.11Z</time></trkpt><trkpt lat="40.0862283" lon="18.27052"><ele>89.0</ele><time>2026-04-11T15:17:24.11Z</time></trkpt><trkpt lat="40.086165" lon="18.2705483"><ele>89.0</ele><time>2026-04-11T15:17:26.109Z</time></trkpt><trkpt lat="40.0860983" lon="18.27045"><ele>89.0</ele><time>2026-04-11T15:17:29.11Z</time></trkpt><trkpt lat="40.0860733" lon="18.2703733"><ele>89.0</ele><time>2026-04-11T15:17:30.11Z</time></trkpt><trkpt lat="40.086045" lon="18.2702767"><ele>89.0</ele><time>2026-04-11T15:17:31.109Z</time></trkpt><trkpt lat="40.08601" lon="18.27017"><ele>89.0</ele><time>2026-04-11T15:17:32.11Z</time></trkpt><trkpt lat="40.0859683" lon="18.270045"><ele>89.0</ele><time>2026-04-11T15:17:33.11Z</time></trkpt><trkpt lat="40.0859217" lon="18.2699017"><ele>89.0</ele><time>2026-04-11T15:17:34.109Z</time></trkpt><trkpt lat="40.0858733" lon="18.2697467"><ele>89.0</ele><time>2026-04-11T15:17:35.109Z</time></trkpt><trkpt lat="40.0858283" lon="18.269585"><ele>89.0</ele><time>2026-04-11T15:17:36.109Z</time></trkpt><trkpt lat="40.08578" lon="18.2694183"><ele>89.0</ele><time>2026-04-11T15:17:37.11Z</time></trkpt><trkpt lat="40.0857333" lon="18.2692467"><ele>89.0</ele><time>2026-04-11T15:17:38.109Z</time></trkpt><trkpt lat="40.085685" lon="18.269085"><ele>89.0</ele><time>2026-04-11T15:17:39.109Z</time></trkpt><trkpt lat="40.08564" lon="18.2689367"><ele>89.0</ele><time>2026-04-11T15:17:40.11Z</time></trkpt><trkpt lat="40.0855983" lon="18.2688033"><ele>89.2</ele><time>2026-04-11T15:17:41.11Z</time></trkpt><trkpt lat="40.085565" lon="18.2686783"><ele>89.4</ele><time>2026-04-11T15:17:42.11Z</time></trkpt><trkpt lat="40.0855333" lon="18.2685633"><ele>89.6</ele><time>2026-04-11T15:17:43.11Z</time></trkpt><trkpt lat="40.08551" lon="18.26845"><ele>89.8</ele><time>2026-04-11T15:17:44.11Z</time></trkpt><trkpt lat="40.0854817" lon="18.26832"><ele>90.0</ele><time>2026-04-11T15:17:45.11Z</time></trkpt><trkpt lat="40.0854467" lon="18.2681783"><ele>89.75</ele><time>2026-04-11T15:17:46.11Z</time></trkpt><trkpt lat="40.0854067" lon="18.268025"><ele>89.5</ele><time>2026-04-11T15:17:47.109Z</time></trkpt><trkpt lat="40.0853683" lon="18.2678617"><ele>89.25</ele><time>2026-04-11T15:17:48.109Z</time></trkpt><trkpt lat="40.08533" lon="18.2676917"><ele>89.0</ele><time>2026-04-11T15:17:49.109Z</time></trkpt><trkpt lat="40.0852867" lon="18.26752"><ele>89.0</ele><time>2026-04-11T15:17:50.11Z</time></trkpt><trkpt lat="40.0852417" lon="18.2673467"><ele>89.0</ele><time>2026-04-11T15:17:51.11Z</time></trkpt><trkpt lat="40.08519" lon="18.2671733"><ele>89.0</ele><time>2026-04-11T15:17:52.11Z</time></trkpt><trkpt lat="40.085125" lon="18.2669967"><ele>89.0</ele><time>2026-04-11T15:17:53.109Z</time></trkpt><trkpt lat="40.0850567" lon="18.2668183"><ele>89.0</ele><time>2026-04-11T15:17:54.109Z</time></trkpt><trkpt lat="40.0849933" lon="18.26664"><ele>89.0</ele><time>2026-04-11T15:17:55.11Z</time></trkpt><trkpt lat="40.0849333" lon="18.2664533"><ele>89.0</ele><time>2026-04-11T15:17:56.11Z</time></trkpt><trkpt lat="40.084875" lon="18.2662583"><ele>89.0</ele><time>2026-04-11T15:17:57.109Z</time></trkpt><trkpt lat="40.084815" lon="18.26606"><ele>89.0</ele><time>2026-04-11T15:17:58.11Z</time></trkpt><trkpt lat="40.0847533" lon="18.2658617"><ele>89.0</ele><time>2026-04-11T15:17:59.109Z</time></trkpt><trkpt lat="40.0846883" lon="18.265665"><ele>89.33333333333334</ele><time>2026-04-11T15:18:00.11Z</time></trkpt><trkpt lat="40.0846217" lon="18.26547"><ele>89.66666666666667</ele><time>2026-04-11T15:18:01.11Z</time></trkpt><trkpt lat="40.0845517" lon="18.265275"><ele>90.0</ele><time>2026-04-11T15:18:02.109Z</time></trkpt><trkpt lat="40.0844817" lon="18.26508"><ele>90.0</ele><time>2026-04-11T15:18:03.109Z</time></trkpt><trkpt lat="40.08441" lon="18.264885"><ele>90.0</ele><time>2026-04-11T15:18:04.11Z</time></trkpt><trkpt lat="40.0843383" lon="18.26469"><ele>90.0</ele><time>2026-04-11T15:18:05.11Z</time></trkpt><trkpt lat="40.084265" lon="18.2644967"><ele>90.0</ele><time>2026-04-11T15:18:06.11Z</time></trkpt><trkpt lat="40.0841933" lon="18.2643"><ele>90.0</ele><time>2026-04-11T15:18:07.11Z</time></trkpt><trkpt lat="40.08412" lon="18.2641033"><ele>90.0</ele><time>2026-04-11T15:18:08.109Z</time></trkpt><trkpt lat="40.0840433" lon="18.26391"><ele>89.66666666666667</ele><time>2026-04-11T15:18:09.11Z</time></trkpt><trkpt lat="40.0839667" lon="18.263715"><ele>89.33333333333334</ele><time>2026-04-11T15:18:10.11Z</time></trkpt><trkpt lat="40.0838933" lon="18.2635233"><ele>89.0</ele><time>2026-04-11T15:18:11.11Z</time></trkpt><trkpt lat="40.0838233" lon="18.26333"><ele>89.0</ele><time>2026-04-11T15:18:12.109Z</time></trkpt><trkpt lat="40.0837533" lon="18.2631383"><ele>89.0</ele><time>2026-04-11T15:18:13.109Z</time></trkpt><trkpt lat="40.0836817" lon="18.2629467"><ele>89.0</ele><time>2026-04-11T15:18:14.11Z</time></trkpt><trkpt lat="40.0836083" lon="18.262755"><ele>89.0</ele><time>2026-04-11T15:18:15.109Z</time></trkpt><trkpt lat="40.0835367" lon="18.2625683"><ele>89.0</ele><time>2026-04-11T15:18:16.109Z</time></trkpt><trkpt lat="40.08347" lon="18.2623983"><ele>89.0</ele><time>2026-04-11T15:18:17.109Z</time></trkpt><trkpt lat="40.0833967" lon="18.2622317"><ele>89.0</ele><time>2026-04-11T15:18:18.11Z</time></trkpt><trkpt lat="40.083315" lon="18.262065"><ele>89.0</ele><time>2026-04-11T15:18:19.109Z</time></trkpt><trkpt lat="40.0832283" lon="18.2618933"><ele>89.0</ele><time>2026-04-11T15:18:20.109Z</time></trkpt><trkpt lat="40.08314" lon="18.2617167"><ele>89.33333333333334</ele><time>2026-04-11T15:18:21.109Z</time></trkpt><trkpt lat="40.0830517" lon="18.2615317"><ele>89.66666666666667</ele><time>2026-04-11T15:18:22.109Z</time></trkpt><trkpt lat="40.082965" lon="18.2613467"><ele>90.0</ele><time>2026-04-11T15:18:23.109Z</time></trkpt><trkpt lat="40.082875" lon="18.2611617"><ele>90.0</ele><time>2026-04-11T15:18:24.109Z</time></trkpt><trkpt lat="40.0827833" lon="18.2609767"><ele>90.0</ele><time>2026-04-11T15:18:25.109Z</time></trkpt><trkpt lat="40.0826917" lon="18.26079"><ele>90.0</ele><time>2026-04-11T15:18:26.11Z</time></trkpt><trkpt lat="40.0826017" lon="18.2606117"><ele>89.75</ele><time>2026-04-11T15:18:27.109Z</time></trkpt><trkpt lat="40.0825183" lon="18.26045"><ele>89.5</ele><time>2026-04-11T15:18:28.109Z</time></trkpt><trkpt lat="40.0824333" lon="18.260305"><ele>89.25</ele><time>2026-04-11T15:18:29.11Z</time></trkpt><trkpt lat="40.0823467" lon="18.2601533"><ele>89.0</ele><time>2026-04-11T15:18:30.11Z</time></trkpt><trkpt lat="40.0822567" lon="18.260005"><ele>88.75</ele><time>2026-04-11T15:18:31.109Z</time></trkpt><trkpt lat="40.0821683" lon="18.2598567"><ele>88.5</ele><time>2026-04-11T15:18:32.11Z</time></trkpt><trkpt lat="40.0820767" lon="18.259705"><ele>88.25</ele><time>2026-04-11T15:18:33.109Z</time></trkpt><trkpt lat="40.0819783" lon="18.2595517"><ele>88.0</ele><time>2026-04-11T15:18:34.11Z</time></trkpt><trkpt lat="40.0818717" lon="18.2594"><ele>87.75</ele><time>2026-04-11T15:18:35.109Z</time></trkpt><trkpt lat="40.081765" lon="18.25925"><ele>87.5</ele><time>2026-04-11T15:18:36.109Z</time></trkpt><trkpt lat="40.0816717" lon="18.25911"><ele>87.25</ele><time>2026-04-11T15:18:37.109Z</time></trkpt><trkpt lat="40.0815933" lon="18.2589683"><ele>87.0</ele><time>2026-04-11T15:18:38.11Z</time></trkpt><trkpt lat="40.0815217" lon="18.258815"><ele>87.75</ele><time>2026-04-11T15:18:39.11Z</time></trkpt><trkpt lat="40.0814567" lon="18.2586717"><ele>88.5</ele><time>2026-04-11T15:18:40.109Z</time></trkpt><trkpt lat="40.0813983" lon="18.2585467"><ele>89.25</ele><time>2026-04-11T15:18:41.109Z</time></trkpt><trkpt lat="40.08134" lon="18.25843"><ele>90.0</ele><time>2026-04-11T15:18:42.109Z</time></trkpt><trkpt lat="40.0812867" lon="18.2583083"><ele>90.0</ele><time>2026-04-11T15:18:43.109Z</time></trkpt><trkpt lat="40.0812283" lon="18.2581817"><ele>90.0</ele><time>2026-04-11T15:18:44.109Z</time></trkpt><trkpt lat="40.081165" lon="18.2580467"><ele>90.0</ele><time>2026-04-11T15:18:45.109Z</time></trkpt><trkpt lat="40.08109" lon="18.2579033"><ele>90.0</ele><time>2026-04-11T15:18:46.11Z</time></trkpt><trkpt lat="40.081005" lon="18.2577467"><ele>90.33333333333333</ele><time>2026-04-11T15:18:47.11Z</time></trkpt><trkpt lat="40.0809167" lon="18.25758"><ele>90.66666666666666</ele><time>2026-04-11T15:18:48.109Z</time></trkpt><trkpt lat="40.08082" lon="18.2574067"><ele>91.0</ele><time>2026-04-11T15:18:49.11Z</time></trkpt><trkpt lat="40.08072" lon="18.25724"><ele>91.25</ele><time>2026-04-11T15:18:50.109Z</time></trkpt><trkpt lat="40.080625" lon="18.2570867"><ele>91.5</ele><time>2026-04-11T15:18:51.109Z</time></trkpt><trkpt lat="40.0805417" lon="18.2569467"><ele>91.75</ele><time>2026-04-11T15:18:52.109Z</time></trkpt><trkpt lat="40.080465" lon="18.2568217"><ele>92.0</ele><time>2026-04-11T15:18:53.11Z</time></trkpt><trkpt lat="40.080395" lon="18.2567083"><ele>92.0</ele><time>2026-04-11T15:18:54.109Z</time></trkpt><trkpt lat="40.0803317" lon="18.2566033"><ele>92.0</ele><time>2026-04-11T15:18:55.11Z</time></trkpt><trkpt lat="40.080275" lon="18.2565083"><ele>92.0</ele><time>2026-04-11T15:18:56.11Z</time></trkpt><trkpt lat="40.080225" lon="18.2564217"><ele>92.0</ele><time>2026-04-11T15:18:57.11Z</time></trkpt><trkpt lat="40.0801817" lon="18.2563417"><ele>92.0</ele><time>2026-04-11T15:18:58.109Z</time></trkpt><trkpt lat="40.080145" lon="18.2562717"><ele>92.0</ele><time>2026-04-11T15:18:59.11Z</time></trkpt><trkpt lat="40.08008" lon="18.2561517"><ele>92.16666666666667</ele><time>2026-04-11T15:19:01.109Z</time></trkpt><trkpt lat="40.0800233" lon="18.2560267"><ele>92.33333333333334</ele><time>2026-04-11T15:19:03.11Z</time></trkpt><trkpt lat="40.079985" lon="18.255945"><ele>92.5</ele><time>2026-04-11T15:19:04.109Z</time></trkpt><trkpt lat="40.079945" lon="18.255855"><ele>92.66666666666667</ele><time>2026-04-11T15:19:05.109Z</time></trkpt><trkpt lat="40.0799" lon="18.2557533"><ele>92.83333333333333</ele><time>2026-04-11T15:19:06.11Z</time></trkpt><trkpt lat="40.0798533" lon="18.255645"><ele>93.0</ele><time>2026-04-11T15:19:07.109Z</time></trkpt><trkpt lat="40.0798067" lon="18.2555333"><ele>93.4</ele><time>2026-04-11T15:19:08.109Z</time></trkpt><trkpt lat="40.0797583" lon="18.25542"><ele>93.80000000000001</ele><time>2026-04-11T15:19:09.109Z</time></trkpt><trkpt lat="40.0797067" lon="18.2553117"><ele>94.2</ele><time>2026-04-11T15:19:10.11Z</time></trkpt><trkpt lat="40.0796433" lon="18.25521"><ele>94.6</ele><time>2026-04-11T15:19:11.11Z</time></trkpt><trkpt lat="40.0795733" lon="18.255105"><ele>95.0</ele><time>2026-04-11T15:19:12.109Z</time></trkpt><trkpt lat="40.0795" lon="18.2549917"><ele>95.0</ele><time>2026-04-11T15:19:13.11Z</time></trkpt><trkpt lat="40.0794317" lon="18.2548783"><ele>95.0</ele><time>2026-04-11T15:19:14.11Z</time></trkpt><trkpt lat="40.0793717" lon="18.2547717"><ele>95.0</ele><time>2026-04-11T15:19:15.109Z</time></trkpt><trkpt lat="40.079315" lon="18.2546767"><ele>95.0</ele><time>2026-04-11T15:19:16.109Z</time></trkpt><trkpt lat="40.07926" lon="18.25459"><ele>95.0</ele><time>2026-04-11T15:19:17.109Z</time></trkpt><trkpt lat="40.0792067" lon="18.2545083"><ele>95.16666666666667</ele><time>2026-04-11T15:19:18.11Z</time></trkpt><trkpt lat="40.0791583" lon="18.2544317"><ele>95.33333333333334</ele><time>2026-04-11T15:19:19.109Z</time></trkpt><trkpt lat="40.0791117" lon="18.25435"><ele>95.5</ele><time>2026-04-11T15:19:20.11Z</time></trkpt><trkpt lat="40.0790617" lon="18.25426"><ele>95.66666666666667</ele><time>2026-04-11T15:19:21.109Z</time></trkpt><trkpt lat="40.0790083" lon="18.2541617"><ele>95.83333333333333</ele><time>2026-04-11T15:19:22.109Z</time></trkpt><trkpt lat="40.0789533" lon="18.25406"><ele>96.0</ele><time>2026-04-11T15:19:23.11Z</time></trkpt><trkpt lat="40.0788983" lon="18.253965"><ele>96.19999999999999</ele><time>2026-04-11T15:19:24.109Z</time></trkpt><trkpt lat="40.0788433" lon="18.2538733"><ele>96.39999999999999</ele><time>2026-04-11T15:19:25.109Z</time></trkpt><trkpt lat="40.0787867" lon="18.2537783"><ele>96.6</ele><time>2026-04-11T15:19:26.109Z</time></trkpt><trkpt lat="40.0787317" lon="18.2536767"><ele>96.8</ele><time>2026-04-11T15:19:27.11Z</time></trkpt><trkpt lat="40.07868" lon="18.2535767"><ele>97.0</ele><time>2026-04-11T15:19:28.11Z</time></trkpt><trkpt lat="40.0786383" lon="18.253485"><ele>97.00000000000001</ele><time>2026-04-11T15:19:29.109Z</time></trkpt><trkpt lat="40.078605" lon="18.2534117"><ele>97.0</ele><time>2026-04-11T15:19:30.109Z</time></trkpt><trkpt lat="40.078525" lon="18.2533317"><ele>97.0</ele><time>2026-04-11T15:19:32.109Z</time></trkpt><trkpt lat="40.0784133" lon="18.2533167"><ele>97.0</ele><time>2026-04-11T15:19:34.109Z</time></trkpt><trkpt lat="40.0783417" lon="18.253305"><ele>97.00000000000001</ele><time>2026-04-11T15:19:35.109Z</time></trkpt><trkpt lat="40.078265" lon="18.253285"><ele>97.0</ele><time>2026-04-11T15:19:36.109Z</time></trkpt><trkpt lat="40.0781817" lon="18.2532617"><ele>97.33333333333334</ele><time>2026-04-11T15:19:37.109Z</time></trkpt><trkpt lat="40.0780967" lon="18.253235"><ele>97.66666666666667</ele><time>2026-04-11T15:19:38.109Z</time></trkpt><trkpt lat="40.0780067" lon="18.2532083"><ele>98.0</ele><time>2026-04-11T15:19:39.109Z</time></trkpt><trkpt lat="40.0779267" lon="18.2531717"><ele>98.33333333333334</ele><time>2026-04-11T15:19:40.109Z</time></trkpt><trkpt lat="40.077855" lon="18.2531183"><ele>98.66666666666667</ele><time>2026-04-11T15:19:41.109Z</time></trkpt><trkpt lat="40.0777967" lon="18.2530467"><ele>99.0</ele><time>2026-04-11T15:19:42.109Z</time></trkpt><trkpt lat="40.0777483" lon="18.25295"><ele>99.0</ele><time>2026-04-11T15:19:43.11Z</time></trkpt><trkpt lat="40.0776983" lon="18.2528433"><ele>99.0</ele><time>2026-04-11T15:19:44.11Z</time></trkpt><trkpt lat="40.0776433" lon="18.25274"><ele>99.0</ele><time>2026-04-11T15:19:45.11Z</time></trkpt><trkpt lat="40.0775867" lon="18.252645"><ele>99.0</ele><time>2026-04-11T15:19:46.11Z</time></trkpt><trkpt lat="40.0775383" lon="18.2525567"><ele>99.0</ele><time>2026-04-11T15:19:47.109Z</time></trkpt><trkpt lat="40.0775033" lon="18.252465"><ele>99.0</ele><time>2026-04-11T15:19:48.11Z</time></trkpt><trkpt lat="40.0774783" lon="18.252365"><ele>98.80000000000001</ele><time>2026-04-11T15:19:49.109Z</time></trkpt><trkpt lat="40.0774467" lon="18.2522667"><ele>98.60000000000001</ele><time>2026-04-11T15:19:50.109Z</time></trkpt><trkpt lat="40.0773983" lon="18.2521683"><ele>98.4</ele><time>2026-04-11T15:19:51.109Z</time></trkpt><trkpt lat="40.0773417" lon="18.2520617"><ele>98.2</ele><time>2026-04-11T15:19:52.109Z</time></trkpt><trkpt lat="40.0772833" lon="18.2519483"><ele>98.0</ele><time>2026-04-11T15:19:53.109Z</time></trkpt><trkpt lat="40.07723" lon="18.25183"><ele>98.66666666666666</ele><time>2026-04-11T15:19:54.109Z</time></trkpt><trkpt lat="40.0771783" lon="18.2517233"><ele>99.33333333333333</ele><time>2026-04-11T15:19:55.11Z</time></trkpt><trkpt lat="40.07714" lon="18.25164"><ele>100.0</ele><time>2026-04-11T15:19:56.11Z</time></trkpt><trkpt lat="40.077055" lon="18.2515317"><ele>100.66666666666666</ele><time>2026-04-11T15:20:04.11Z</time></trkpt><trkpt lat="40.077005" lon="18.2514617"><ele>101.33333333333333</ele><time>2026-04-11T15:20:05.109Z</time></trkpt><trkpt lat="40.0769483" lon="18.2513867"><ele>102.0</ele><time>2026-04-11T15:20:06.109Z</time></trkpt><trkpt lat="40.07689" lon="18.25131"><ele>102.0</ele><time>2026-04-11T15:20:07.11Z</time></trkpt><trkpt lat="40.07683" lon="18.25124"><ele>102.0</ele><time>2026-04-11T15:20:08.11Z</time></trkpt><trkpt lat="40.0767733" lon="18.2511767"><ele>102.0</ele><time>2026-04-11T15:20:09.109Z</time></trkpt><trkpt lat="40.0767217" lon="18.2511183"><ele>102.0</ele><time>2026-04-11T15:20:10.109Z</time></trkpt><trkpt lat="40.0766717" lon="18.25106"><ele>102.0</ele><time>2026-04-11T15:20:11.109Z</time></trkpt><trkpt lat="40.07662" lon="18.251"><ele>102.0</ele><time>2026-04-11T15:20:12.109Z</time></trkpt><trkpt lat="40.0765717" lon="18.2509433"><ele>102.0</ele><time>2026-04-11T15:20:13.109Z</time></trkpt><trkpt lat="40.0765233" lon="18.2508833"><ele>102.16666666666667</ele><time>2026-04-11T15:20:14.11Z</time></trkpt><trkpt lat="40.076475" lon="18.2508217"><ele>102.33333333333334</ele><time>2026-04-11T15:20:15.11Z</time></trkpt><trkpt lat="40.0764233" lon="18.2507567"><ele>102.5</ele><time>2026-04-11T15:20:16.11Z</time></trkpt><trkpt lat="40.076375" lon="18.2506933"><ele>102.66666666666667</ele><time>2026-04-11T15:20:17.11Z</time></trkpt><trkpt lat="40.076295" lon="18.2505817"><ele>102.83333333333334</ele><time>2026-04-11T15:20:19.11Z</time></trkpt><trkpt lat="40.076215" lon="18.2504783"><ele>103.0</ele><time>2026-04-11T15:20:21.111Z</time></trkpt><trkpt lat="40.0761217" lon="18.2503883"><ele>103.00000000000001</ele><time>2026-04-11T15:20:23.11Z</time></trkpt><trkpt lat="40.0760183" lon="18.2503033"><ele>103.0</ele><time>2026-04-11T15:20:25.11Z</time></trkpt><trkpt lat="40.07596" lon="18.25027"><ele>103.0</ele><time>2026-04-11T15:20:26.11Z</time></trkpt><trkpt lat="40.0758917" lon="18.2502433"><ele>103.0</ele><time>2026-04-11T15:20:27.11Z</time></trkpt><trkpt lat="40.075815" lon="18.2502183"><ele>103.00000000000001</ele><time>2026-04-11T15:20:28.11Z</time></trkpt><trkpt lat="40.075735" lon="18.250195"><ele>103.0</ele><time>2026-04-11T15:20:29.111Z</time></trkpt><trkpt lat="40.0756533" lon="18.2501633"><ele>103.14285714285714</ele><time>2026-04-11T15:20:30.11Z</time></trkpt><trkpt lat="40.075575" lon="18.25013"><ele>103.28571428571428</ele><time>2026-04-11T15:20:31.111Z</time></trkpt><trkpt lat="40.0755" lon="18.2500917"><ele>103.42857142857142</ele><time>2026-04-11T15:20:32.111Z</time></trkpt><trkpt lat="40.0754283" lon="18.250055"><ele>103.57142857142857</ele><time>2026-04-11T15:20:33.111Z</time></trkpt><trkpt lat="40.0753633" lon="18.2500217"><ele>103.71428571428572</ele><time>2026-04-11T15:20:34.11Z</time></trkpt><trkpt lat="40.075305" lon="18.24999"><ele>103.85714285714285</ele><time>2026-04-11T15:20:35.11Z</time></trkpt><trkpt lat="40.0752467" lon="18.2499533"><ele>104.0</ele><time>2026-04-11T15:20:36.11Z</time></trkpt><trkpt lat="40.0751883" lon="18.2499017"><ele>103.99999999999999</ele><time>2026-04-11T15:20:37.111Z</time></trkpt><trkpt lat="40.07514" lon="18.24983"><ele>104.0</ele><time>2026-04-11T15:20:38.11Z</time></trkpt><trkpt lat="40.0751" lon="18.2497367"><ele>104.0</ele><time>2026-04-11T15:20:39.111Z</time></trkpt><trkpt lat="40.0750667" lon="18.2496317"><ele>104.0</ele><time>2026-04-11T15:20:40.11Z</time></trkpt><trkpt lat="40.075035" lon="18.2495267"><ele>103.99999999999999</ele><time>2026-04-11T15:20:41.111Z</time></trkpt><trkpt lat="40.075" lon="18.249435"><ele>104.0</ele><time>2026-04-11T15:20:42.11Z</time></trkpt><trkpt lat="40.07496" lon="18.2493617"><ele>104.33333333333333</ele><time>2026-04-11T15:20:43.11Z</time></trkpt><trkpt lat="40.07489" lon="18.2492767"><ele>104.66666666666666</ele><time>2026-04-11T15:20:45.111Z</time></trkpt><trkpt lat="40.0749433" lon="18.2493317"><ele>105.0</ele><time>2026-04-11T15:21:13.11Z</time></trkpt><trkpt lat="40.0749867" lon="18.2494117"><ele>105.33333333333334</ele><time>2026-04-11T15:22:35.11Z</time></trkpt><trkpt lat="40.0750217" lon="18.2495017"><ele>105.66666666666667</ele><time>2026-04-11T15:22:36.11Z</time></trkpt><trkpt lat="40.0750533" lon="18.24959"><ele>106.0</ele><time>2026-04-11T15:22:37.11Z</time></trkpt><trkpt lat="40.0750817" lon="18.249675"><ele>105.6</ele><time>2026-04-11T15:22:38.11Z</time></trkpt><trkpt lat="40.075135" lon="18.249815"><ele>105.19999999999999</ele><time>2026-04-11T15:22:40.11Z</time></trkpt><trkpt lat="40.075215" lon="18.2499217"><ele>104.80000000000001</ele><time>2026-04-11T15:22:42.11Z</time></trkpt><trkpt lat="40.0752733" lon="18.249965"><ele>104.4</ele><time>2026-04-11T15:22:43.11Z</time></trkpt><trkpt lat="40.07534" lon="18.250005"><ele>104.0</ele><time>2026-04-11T15:22:44.111Z</time></trkpt><trkpt lat="40.0754133" lon="18.2500433"><ele>103.99999999999999</ele><time>2026-04-11T15:22:45.111Z</time></trkpt><trkpt lat="40.0754783" lon="18.25008"><ele>104.0</ele><time>2026-04-11T15:22:46.11Z</time></trkpt><trkpt lat="40.0755383" lon="18.25011"><ele>104.0</ele><time>2026-04-11T15:22:47.111Z</time></trkpt><trkpt lat="40.075665" lon="18.2501583"><ele>104.0</ele><time>2026-04-11T15:22:49.111Z</time></trkpt><trkpt lat="40.0757367" lon="18.2501833"><ele>103.99999999999999</ele><time>2026-04-11T15:22:50.11Z</time></trkpt><trkpt lat="40.0758117" lon="18.2502067"><ele>104.0</ele><time>2026-04-11T15:22:51.11Z</time></trkpt><trkpt lat="40.075885" lon="18.2502283"><ele>103.85714285714285</ele><time>2026-04-11T15:22:52.11Z</time></trkpt><trkpt lat="40.0759517" lon="18.250255"><ele>103.71428571428572</ele><time>2026-04-11T15:22:53.11Z</time></trkpt><trkpt lat="40.0760167" lon="18.25029"><ele>103.57142857142857</ele><time>2026-04-11T15:22:54.111Z</time></trkpt><trkpt lat="40.0760783" lon="18.2503367"><ele>103.42857142857142</ele><time>2026-04-11T15:22:55.11Z</time></trkpt><trkpt lat="40.0761367" lon="18.2503917"><ele>103.28571428571428</ele><time>2026-04-11T15:22:56.11Z</time></trkpt><trkpt lat="40.0761933" lon="18.2504467"><ele>103.14285714285714</ele><time>2026-04-11T15:22:57.111Z</time></trkpt><trkpt lat="40.076245" lon="18.2505033"><ele>103.0</ele><time>2026-04-11T15:22:58.11Z</time></trkpt><trkpt lat="40.076295" lon="18.2505617"><ele>102.85714285714285</ele><time>2026-04-11T15:22:59.111Z</time></trkpt><trkpt lat="40.0763417" lon="18.2506267"><ele>102.71428571428571</ele><time>2026-04-11T15:23:00.11Z</time></trkpt><trkpt lat="40.076385" lon="18.2506917"><ele>102.57142857142857</ele><time>2026-04-11T15:23:01.11Z</time></trkpt><trkpt lat="40.0764317" lon="18.25075"><ele>102.42857142857142</ele><time>2026-04-11T15:23:02.11Z</time></trkpt><trkpt lat="40.076485" lon="18.2508133"><ele>102.28571428571429</ele><time>2026-04-11T15:23:03.111Z</time></trkpt><trkpt lat="40.0765417" lon="18.2508817"><ele>102.14285714285714</ele><time>2026-04-11T15:23:04.111Z</time></trkpt><trkpt lat="40.0766033" lon="18.250955"><ele>102.0</ele><time>2026-04-11T15:23:05.11Z</time></trkpt><trkpt lat="40.0766667" lon="18.2510267"><ele>102.0</ele><time>2026-04-11T15:23:06.11Z</time></trkpt><trkpt lat="40.0767283" lon="18.2510983"><ele>102.0</ele><time>2026-04-11T15:23:07.11Z</time></trkpt><trkpt lat="40.076795" lon="18.2511733"><ele>102.0</ele><time>2026-04-11T15:23:08.111Z</time></trkpt><trkpt lat="40.076865" lon="18.25125"><ele>102.0</ele><time>2026-04-11T15:23:09.111Z</time></trkpt><trkpt lat="40.0769317" lon="18.2513333"><ele>102.0</ele><time>2026-04-11T15:23:10.11Z</time></trkpt><trkpt lat="40.0769967" lon="18.2514217"><ele>102.0</ele><time>2026-04-11T15:23:11.111Z</time></trkpt><trkpt lat="40.0770583" lon="18.25151"><ele>102.19999999999999</ele><time>2026-04-11T15:23:12.11Z</time></trkpt><trkpt lat="40.077115" lon="18.2516033"><ele>102.4</ele><time>2026-04-11T15:23:13.11Z</time></trkpt><trkpt lat="40.077175" lon="18.2517067"><ele>102.6</ele><time>2026-04-11T15:23:14.11Z</time></trkpt><trkpt lat="40.07723" lon="18.25182"><ele>102.80000000000001</ele><time>2026-04-11T15:23:15.111Z</time></trkpt><trkpt lat="40.0772867" lon="18.2519367"><ele>103.0</ele><time>2026-04-11T15:23:16.11Z</time></trkpt><trkpt lat="40.0773467" lon="18.2520517"><ele>103.00000000000001</ele><time>2026-04-11T15:23:17.111Z</time></trkpt><trkpt lat="40.0774067" lon="18.2521567"><ele>103.0</ele><time>2026-04-11T15:23:18.111Z</time></trkpt><trkpt lat="40.0774583" lon="18.2522533"><ele>103.0</ele><time>2026-04-11T15:23:19.11Z</time></trkpt><trkpt lat="40.0774917" lon="18.2523517"><ele>103.0</ele><time>2026-04-11T15:23:20.11Z</time></trkpt><trkpt lat="40.0775183" lon="18.2524567"><ele>103.00000000000001</ele><time>2026-04-11T15:23:21.11Z</time></trkpt><trkpt lat="40.0775533" lon="18.252565"><ele>103.0</ele><time>2026-04-11T15:23:22.11Z</time></trkpt><trkpt lat="40.07761" lon="18.2526717"><ele>102.2</ele><time>2026-04-11T15:23:23.11Z</time></trkpt><trkpt lat="40.0776717" lon="18.2527817"><ele>101.4</ele><time>2026-04-11T15:23:24.11Z</time></trkpt><trkpt lat="40.077725" lon="18.252895"><ele>100.60000000000001</ele><time>2026-04-11T15:23:25.11Z</time></trkpt><trkpt lat="40.0777767" lon="18.2530017"><ele>99.80000000000001</ele><time>2026-04-11T15:23:26.11Z</time></trkpt><trkpt lat="40.0778367" lon="18.2530917"><ele>99.0</ele><time>2026-04-11T15:23:27.111Z</time></trkpt><trkpt lat="40.0779167" lon="18.2531617"><ele>99.0</ele><time>2026-04-11T15:23:28.111Z</time></trkpt><trkpt lat="40.07801" lon="18.25321"><ele>99.0</ele><time>2026-04-11T15:23:29.111Z</time></trkpt><trkpt lat="40.078115" lon="18.2532417"><ele>99.0</ele><time>2026-04-11T15:23:30.11Z</time></trkpt><trkpt lat="40.0782233" lon="18.2532717"><ele>99.0</ele><time>2026-04-11T15:23:31.111Z</time></trkpt><trkpt lat="40.0783317" lon="18.2533"><ele>99.0</ele><time>2026-04-11T15:23:32.111Z</time></trkpt><trkpt lat="40.0784283" lon="18.2533183"><ele>98.6</ele><time>2026-04-11T15:23:33.11Z</time></trkpt><trkpt lat="40.0785083" lon="18.2533317"><ele>98.2</ele><time>2026-04-11T15:23:34.11Z</time></trkpt><trkpt lat="40.078605" lon="18.25341"><ele>97.8</ele><time>2026-04-11T15:23:36.11Z</time></trkpt><trkpt lat="40.0786467" lon="18.2534883"><ele>97.39999999999999</ele><time>2026-04-11T15:23:37.11Z</time></trkpt><trkpt lat="40.0786917" lon="18.25359"><ele>97.0</ele><time>2026-04-11T15:23:38.111Z</time></trkpt><trkpt lat="40.0787483" lon="18.2537"><ele>97.0</ele><time>2026-04-11T15:23:39.11Z</time></trkpt><trkpt lat="40.0788117" lon="18.2538167"><ele>97.0</ele><time>2026-04-11T15:23:40.11Z</time></trkpt><trkpt lat="40.0788833" lon="18.2539383"><ele>97.0</ele><time>2026-04-11T15:23:41.11Z</time></trkpt><trkpt lat="40.0789567" lon="18.2540683"><ele>97.0</ele><time>2026-04-11T15:23:42.111Z</time></trkpt><trkpt lat="40.0790317" lon="18.2541983"><ele>95.75</ele><time>2026-04-11T15:23:43.11Z</time></trkpt><trkpt lat="40.0791033" lon="18.2543283"><ele>94.5</ele><time>2026-04-11T15:23:44.11Z</time></trkpt><trkpt lat="40.079175" lon="18.254455"><ele>93.25</ele><time>2026-04-11T15:23:45.111Z</time></trkpt><trkpt lat="40.0792517" lon="18.2545717"><ele>92.0</ele><time>2026-04-11T15:23:46.111Z</time></trkpt><trkpt lat="40.0793267" lon="18.254685"><ele>92.75</ele><time>2026-04-11T15:23:47.11Z</time></trkpt><trkpt lat="40.0794" lon="18.2548067"><ele>93.5</ele><time>2026-04-11T15:23:48.111Z</time></trkpt><trkpt lat="40.0794733" lon="18.25493"><ele>94.25</ele><time>2026-04-11T15:23:49.11Z</time></trkpt><trkpt lat="40.0795467" lon="18.2550467"><ele>95.0</ele><time>2026-04-11T15:23:50.11Z</time></trkpt><trkpt lat="40.0796217" lon="18.2551583"><ele>95.0</ele><time>2026-04-11T15:23:51.11Z</time></trkpt><trkpt lat="40.07969" lon="18.255265"><ele>95.0</ele><time>2026-04-11T15:23:52.11Z</time></trkpt><trkpt lat="40.0797533" lon="18.2553817"><ele>95.0</ele><time>2026-04-11T15:23:53.11Z</time></trkpt><trkpt lat="40.07981" lon="18.25551"><ele>95.0</ele><time>2026-04-11T15:23:54.111Z</time></trkpt><trkpt lat="40.0798633" lon="18.25564"><ele>95.0</ele><time>2026-04-11T15:23:55.11Z</time></trkpt><trkpt lat="40.079915" lon="18.255765"><ele>94.66666666666667</ele><time>2026-04-11T15:23:56.11Z</time></trkpt><trkpt lat="40.079965" lon="18.2558733"><ele>94.33333333333334</ele><time>2026-04-11T15:23:57.11Z</time></trkpt><trkpt lat="40.0800117" lon="18.2559717"><ele>94.0</ele><time>2026-04-11T15:23:58.111Z</time></trkpt><trkpt lat="40.0800533" lon="18.2560567"><ele>93.66666666666667</ele><time>2026-04-11T15:23:59.11Z</time></trkpt><trkpt lat="40.0800917" lon="18.2561383"><ele>93.33333333333333</ele><time>2026-04-11T15:24:00.11Z</time></trkpt><trkpt lat="40.08013" lon="18.2562167"><ele>93.0</ele><time>2026-04-11T15:24:01.11Z</time></trkpt><trkpt lat="40.0801717" lon="18.256295"><ele>93.0</ele><time>2026-04-11T15:24:02.111Z</time></trkpt><trkpt lat="40.080215" lon="18.2563783"><ele>93.0</ele><time>2026-04-11T15:24:03.111Z</time></trkpt><trkpt lat="40.0802617" lon="18.2564633"><ele>93.0</ele><time>2026-04-11T15:24:04.11Z</time></trkpt><trkpt lat="40.0803117" lon="18.256545"><ele>93.0</ele><time>2026-04-11T15:24:05.111Z</time></trkpt><trkpt lat="40.08036" lon="18.2566233"><ele>93.0</ele><time>2026-04-11T15:24:06.111Z</time></trkpt><trkpt lat="40.0804067" lon="18.256705"><ele>93.0</ele><time>2026-04-11T15:24:07.111Z</time></trkpt><trkpt lat="40.0804567" lon="18.25679"><ele>92.80000000000001</ele><time>2026-04-11T15:24:08.11Z</time></trkpt><trkpt lat="40.0805117" lon="18.256885"><ele>92.6</ele><time>2026-04-11T15:24:09.111Z</time></trkpt><trkpt lat="40.0805717" lon="18.256985"><ele>92.4</ele><time>2026-04-11T15:24:10.11Z</time></trkpt><trkpt lat="40.0806367" lon="18.2570917"><ele>92.19999999999999</ele><time>2026-04-11T15:24:11.111Z</time></trkpt><trkpt lat="40.0807067" lon="18.257205"><ele>92.0</ele><time>2026-04-11T15:24:12.11Z</time></trkpt><trkpt lat="40.080775" lon="18.2573267"><ele>91.75</ele><time>2026-04-11T15:24:13.11Z</time></trkpt><trkpt lat="40.0808467" lon="18.2574517"><ele>91.5</ele><time>2026-04-11T15:24:14.11Z</time></trkpt><trkpt lat="40.0809183" lon="18.2575817"><ele>91.25</ele><time>2026-04-11T15:24:15.11Z</time></trkpt><trkpt lat="40.0809917" lon="18.2577167"><ele>91.0</ele><time>2026-04-11T15:24:16.11Z</time></trkpt><trkpt lat="40.081065" lon="18.2578533"><ele>91.0</ele><time>2026-04-11T15:24:17.11Z</time></trkpt><trkpt lat="40.0811367" lon="18.2579883"><ele>91.0</ele><time>2026-04-11T15:24:18.11Z</time></trkpt><trkpt lat="40.0812033" lon="18.258125"><ele>91.0</ele><time>2026-04-11T15:24:19.11Z</time></trkpt><trkpt lat="40.081265" lon="18.2582617"><ele>91.0</ele><time>2026-04-11T15:24:20.111Z</time></trkpt><trkpt lat="40.08132" lon="18.2583967"><ele>90.8</ele><time>2026-04-11T15:24:21.11Z</time></trkpt><trkpt lat="40.08138" lon="18.2585183"><ele>90.6</ele><time>2026-04-11T15:24:22.11Z</time></trkpt><trkpt lat="40.0814383" lon="18.25864"><ele>90.4</ele><time>2026-04-11T15:24:23.11Z</time></trkpt><trkpt lat="40.081495" lon="18.2587617"><ele>90.2</ele><time>2026-04-11T15:24:24.11Z</time></trkpt><trkpt lat="40.081555" lon="18.2588867"><ele>90.0</ele><time>2026-04-11T15:24:25.11Z</time></trkpt><trkpt lat="40.0816183" lon="18.2590117"><ele>89.25</ele><time>2026-04-11T15:24:26.111Z</time></trkpt><trkpt lat="40.0816917" lon="18.2591333"><ele>88.5</ele><time>2026-04-11T15:24:27.111Z</time></trkpt><trkpt lat="40.08177" lon="18.2592483"><ele>87.75</ele><time>2026-04-11T15:24:28.111Z</time></trkpt><trkpt lat="40.0818533" lon="18.2593617"><ele>87.0</ele><time>2026-04-11T15:24:29.11Z</time></trkpt><trkpt lat="40.08194" lon="18.2594817"><ele>87.0</ele><time>2026-04-11T15:24:30.11Z</time></trkpt><trkpt lat="40.0820217" lon="18.2596"><ele>87.0</ele><time>2026-04-11T15:24:31.109Z</time></trkpt><trkpt lat="40.0821" lon="18.259715"><ele>87.0</ele><time>2026-04-11T15:24:32.109Z</time></trkpt><trkpt lat="40.0821733" lon="18.259825"><ele>87.0</ele><time>2026-04-11T15:24:33.109Z</time></trkpt><trkpt lat="40.0822433" lon="18.2599333"><ele>87.25</ele><time>2026-04-11T15:24:34.11Z</time></trkpt><trkpt lat="40.082315" lon="18.260045"><ele>87.5</ele><time>2026-04-11T15:24:35.109Z</time></trkpt><trkpt lat="40.0823817" lon="18.2601617"><ele>87.75</ele><time>2026-04-11T15:24:36.109Z</time></trkpt><trkpt lat="40.0824467" lon="18.26028"><ele>88.0</ele><time>2026-04-11T15:24:37.109Z</time></trkpt><trkpt lat="40.0825133" lon="18.2604067"><ele>88.25</ele><time>2026-04-11T15:24:38.109Z</time></trkpt><trkpt lat="40.0825817" lon="18.2605417"><ele>88.5</ele><time>2026-04-11T15:24:39.109Z</time></trkpt><trkpt lat="40.0826533" lon="18.2606767"><ele>88.75</ele><time>2026-04-11T15:24:40.109Z</time></trkpt><trkpt lat="40.082725" lon="18.260815"><ele>89.0</ele><time>2026-04-11T15:24:41.109Z</time></trkpt><trkpt lat="40.0827933" lon="18.2609517"><ele>89.25</ele><time>2026-04-11T15:24:42.11Z</time></trkpt><trkpt lat="40.0828583" lon="18.26109"><ele>89.5</ele><time>2026-04-11T15:24:43.109Z</time></trkpt><trkpt lat="40.0829283" lon="18.261225"><ele>89.75</ele><time>2026-04-11T15:24:44.109Z</time></trkpt><trkpt lat="40.083" lon="18.261365"><ele>90.0</ele><time>2026-04-11T15:24:45.109Z</time></trkpt><trkpt lat="40.08307" lon="18.26151"><ele>90.0</ele><time>2026-04-11T15:24:46.109Z</time></trkpt><trkpt lat="40.0831383" lon="18.2616533"><ele>90.0</ele><time>2026-04-11T15:24:47.109Z</time></trkpt><trkpt lat="40.0832067" lon="18.2617967"><ele>90.0</ele><time>2026-04-11T15:24:48.11Z</time></trkpt><trkpt lat="40.0832717" lon="18.2619383"><ele>90.0</ele><time>2026-04-11T15:24:49.109Z</time></trkpt><trkpt lat="40.0833317" lon="18.26207"><ele>89.75</ele><time>2026-04-11T15:24:50.109Z</time></trkpt><trkpt lat="40.0833933" lon="18.2622017"><ele>89.5</ele><time>2026-04-11T15:24:51.109Z</time></trkpt><trkpt lat="40.083455" lon="18.2623383"><ele>89.25</ele><time>2026-04-11T15:24:52.109Z</time></trkpt><trkpt lat="40.0835167" lon="18.2624867"><ele>89.0</ele><time>2026-04-11T15:24:53.109Z</time></trkpt><trkpt lat="40.0835767" lon="18.2626467"><ele>89.0</ele><time>2026-04-11T15:24:54.109Z</time></trkpt><trkpt lat="40.0836383" lon="18.2628167"><ele>89.0</ele><time>2026-04-11T15:24:55.11Z</time></trkpt><trkpt lat="40.0837033" lon="18.26299"><ele>89.0</ele><time>2026-04-11T15:24:56.109Z</time></trkpt><trkpt lat="40.08377" lon="18.2631683"><ele>89.0</ele><time>2026-04-11T15:24:57.109Z</time></trkpt><trkpt lat="40.0838383" lon="18.2633533"><ele>89.0</ele><time>2026-04-11T15:24:58.109Z</time></trkpt><trkpt lat="40.0839083" lon="18.26354"><ele>89.0</ele><time>2026-04-11T15:24:59.109Z</time></trkpt><trkpt lat="40.0839783" lon="18.2637267"><ele>89.0</ele><time>2026-04-11T15:25:00.109Z</time></trkpt><trkpt lat="40.0840483" lon="18.2639117"><ele>89.33333333333334</ele><time>2026-04-11T15:25:01.11Z</time></trkpt><trkpt lat="40.0841167" lon="18.2640967"><ele>89.66666666666667</ele><time>2026-04-11T15:25:02.109Z</time></trkpt><trkpt lat="40.0841867" lon="18.2642817"><ele>90.0</ele><time>2026-04-11T15:25:03.109Z</time></trkpt><trkpt lat="40.0842583" lon="18.2644683"><ele>90.0</ele><time>2026-04-11T15:25:04.109Z</time></trkpt><trkpt lat="40.0843317" lon="18.2646517"><ele>90.0</ele><time>2026-04-11T15:25:05.109Z</time></trkpt><trkpt lat="40.0844033" lon="18.2648367"><ele>90.0</ele><time>2026-04-11T15:25:06.109Z</time></trkpt><trkpt lat="40.0844733" lon="18.265025"><ele>90.0</ele><time>2026-04-11T15:25:07.109Z</time></trkpt><trkpt lat="40.0845467" lon="18.2652117"><ele>90.0</ele><time>2026-04-11T15:25:08.109Z</time></trkpt><trkpt lat="40.0846117" lon="18.2654"><ele>90.0</ele><time>2026-04-11T15:25:09.109Z</time></trkpt><trkpt lat="40.084665" lon="18.2655917"><ele>89.66666666666667</ele><time>2026-04-11T15:25:10.11Z</time></trkpt><trkpt lat="40.08472" lon="18.2657783"><ele>89.33333333333334</ele><time>2026-04-11T15:25:11.109Z</time></trkpt><trkpt lat="40.0847733" lon="18.265965"><ele>89.0</ele><time>2026-04-11T15:25:12.109Z</time></trkpt><trkpt lat="40.0848317" lon="18.266145"><ele>89.0</ele><time>2026-04-11T15:25:13.11Z</time></trkpt><trkpt lat="40.0848833" lon="18.26632"><ele>89.0</ele><time>2026-04-11T15:25:14.11Z</time></trkpt><trkpt lat="40.08494" lon="18.266475"><ele>89.0</ele><time>2026-04-11T15:25:15.109Z</time></trkpt><trkpt lat="40.084985" lon="18.266625"><ele>89.0</ele><time>2026-04-11T15:25:16.109Z</time></trkpt><trkpt lat="40.08503" lon="18.2667633"><ele>89.0</ele><time>2026-04-11T15:25:17.109Z</time></trkpt><trkpt lat="40.08508" lon="18.2668933"><ele>89.0</ele><time>2026-04-11T15:25:18.109Z</time></trkpt><trkpt lat="40.0851367" lon="18.2670183"><ele>89.0</ele><time>2026-04-11T15:25:19.11Z</time></trkpt><trkpt lat="40.0851983" lon="18.267145"><ele>89.0</ele><time>2026-04-11T15:25:20.109Z</time></trkpt><trkpt lat="40.0852417" lon="18.2672867"><ele>89.0</ele><time>2026-04-11T15:25:21.109Z</time></trkpt><trkpt lat="40.0852783" lon="18.2674383"><ele>89.0</ele><time>2026-04-11T15:25:22.109Z</time></trkpt><trkpt lat="40.085315" lon="18.2675933"><ele>89.0</ele><time>2026-04-11T15:25:23.109Z</time></trkpt><trkpt lat="40.08535" lon="18.267755"><ele>89.0</ele><time>2026-04-11T15:25:24.11Z</time></trkpt><trkpt lat="40.0854083" lon="18.26792"><ele>89.0</ele><time>2026-04-11T15:25:25.109Z</time></trkpt><trkpt lat="40.0854517" lon="18.2680883"><ele>89.0</ele><time>2026-04-11T15:25:26.109Z</time></trkpt><trkpt lat="40.0854833" lon="18.2682617"><ele>89.0</ele><time>2026-04-11T15:25:27.11Z</time></trkpt><trkpt lat="40.0855233" lon="18.2684367"><ele>89.0</ele><time>2026-04-11T15:25:28.109Z</time></trkpt><trkpt lat="40.0855567" lon="18.2686167"><ele>89.0</ele><time>2026-04-11T15:25:29.11Z</time></trkpt><trkpt lat="40.08558" lon="18.2688083"><ele>89.0</ele><time>2026-04-11T15:25:30.11Z</time></trkpt><trkpt lat="40.085635" lon="18.2689817"><ele>89.0</ele><time>2026-04-11T15:25:31.109Z</time></trkpt><trkpt lat="40.0857017" lon="18.2691583"><ele>89.0</ele><time>2026-04-11T15:25:32.109Z</time></trkpt><trkpt lat="40.08575" lon="18.2693433"><ele>89.0</ele><time>2026-04-11T15:25:33.109Z</time></trkpt><trkpt lat="40.0857983" lon="18.2695333"><ele>89.0</ele><time>2026-04-11T15:25:34.11Z</time></trkpt><trkpt lat="40.085855" lon="18.26972"><ele>89.0</ele><time>2026-04-11T15:25:35.109Z</time></trkpt><trkpt lat="40.08591" lon="18.2699067"><ele>89.0</ele><time>2026-04-11T15:25:36.109Z</time></trkpt><trkpt lat="40.085955" lon="18.270085"><ele>89.0</ele><time>2026-04-11T15:25:37.11Z</time></trkpt><trkpt lat="40.08599" lon="18.2702417"><ele>89.0</ele><time>2026-04-11T15:25:38.109Z</time></trkpt><trkpt lat="40.0860233" lon="18.2703717"><ele>89.0</ele><time>2026-04-11T15:25:39.109Z</time></trkpt><trkpt lat="40.08605" lon="18.2704717"><ele>89.0</ele><time>2026-04-11T15:25:40.109Z</time></trkpt><trkpt lat="40.08606" lon="18.2705533"><ele>89.0</ele><time>2026-04-11T15:25:41.109Z</time></trkpt><trkpt lat="40.0861083" lon="18.2706083"><ele>89.0</ele><time>2026-04-11T15:25:43.11Z</time></trkpt><trkpt lat="40.086195" lon="18.270555"><ele>89.0</ele><time>2026-04-11T15:25:46.109Z</time></trkpt><trkpt lat="40.08624" lon="18.27044"><ele>89.0</ele><time>2026-04-11T15:25:48.109Z</time></trkpt><trkpt lat="40.08627" lon="18.2703517"><ele>89.0</ele><time>2026-04-11T15:25:49.11Z</time></trkpt><trkpt lat="40.0863117" lon="18.2702517"><ele>89.0</ele><time>2026-04-11T15:25:50.11Z</time></trkpt><trkpt lat="40.08634" lon="18.2701333"><ele>89.0</ele><time>2026-04-11T15:25:51.11Z</time></trkpt><trkpt lat="40.0863867" lon="18.2700117"><ele>89.0</ele><time>2026-04-11T15:25:52.109Z</time></trkpt><trkpt lat="40.08642" lon="18.2698417"><ele>89.0</ele><time>2026-04-11T15:25:53.109Z</time></trkpt><trkpt lat="40.086455" lon="18.2696933"><ele>89.0</ele><time>2026-04-11T15:25:54.109Z</time></trkpt><trkpt lat="40.086515" lon="18.2695417"><ele>89.0</ele><time>2026-04-11T15:25:55.109Z</time></trkpt><trkpt lat="40.0865617" lon="18.26937"><ele>89.0</ele><time>2026-04-11T15:25:56.11Z</time></trkpt><trkpt lat="40.0866517" lon="18.2692383"><ele>89.0</ele><time>2026-04-11T15:25:57.109Z</time></trkpt><trkpt lat="40.086705" lon="18.2690617"><ele>89.25</ele><time>2026-04-11T15:25:58.11Z</time></trkpt><trkpt lat="40.0867683" lon="18.2688933"><ele>89.5</ele><time>2026-04-11T15:25:59.11Z</time></trkpt><trkpt lat="40.08681" lon="18.268705"><ele>89.75</ele><time>2026-04-11T15:26:00.11Z</time></trkpt><trkpt lat="40.0868833" lon="18.2685383"><ele>90.0</ele><time>2026-04-11T15:26:01.109Z</time></trkpt><trkpt lat="40.0870217" lon="18.2684433"><ele>90.0</ele><time>2026-04-11T15:26:02.109Z</time></trkpt><trkpt lat="40.0869917" lon="18.2682317"><ele>90.0</ele><time>2026-04-11T15:26:03.109Z</time></trkpt><trkpt lat="40.087075" lon="18.268085"><ele>90.0</ele><time>2026-04-11T15:26:04.109Z</time></trkpt><trkpt lat="40.08711" lon="18.2678817"><ele>90.0</ele><time>2026-04-11T15:26:05.109Z</time></trkpt><trkpt lat="40.0871533" lon="18.267685"><ele>90.0</ele><time>2026-04-11T15:26:06.11Z</time></trkpt><trkpt lat="40.0872183" lon="18.2674983"><ele>90.0</ele><time>2026-04-11T15:26:07.109Z</time></trkpt><trkpt lat="40.0872733" lon="18.26731"><ele>90.0</ele><time>2026-04-11T15:26:08.109Z</time></trkpt><trkpt lat="40.0873433" lon="18.2671267"><ele>90.0</ele><time>2026-04-11T15:26:09.109Z</time></trkpt><trkpt lat="40.0873967" lon="18.2669333"><ele>90.0</ele><time>2026-04-11T15:26:10.11Z</time></trkpt><trkpt lat="40.0874183" lon="18.2667467"><ele>90.0</ele><time>2026-04-11T15:26:11.11Z</time></trkpt><trkpt lat="40.08745" lon="18.2665667"><ele>90.0</ele><time>2026-04-11T15:26:12.109Z</time></trkpt><trkpt lat="40.0874933" lon="18.2663917"><ele>90.0</ele><time>2026-04-11T15:26:13.11Z</time></trkpt><trkpt lat="40.0875183" lon="18.2662317"><ele>90.0</ele><time>2026-04-11T15:26:14.11Z</time></trkpt><trkpt lat="40.0875367" lon="18.2660883"><ele>90.16666666666667</ele><time>2026-04-11T15:26:15.11Z</time></trkpt><trkpt lat="40.087555" lon="18.265965"><ele>90.33333333333333</ele><time>2026-04-11T15:26:16.109Z</time></trkpt><trkpt lat="40.0875583" lon="18.2658583"><ele>90.5</ele><time>2026-04-11T15:26:17.11Z</time></trkpt><trkpt lat="40.08758" lon="18.2657683"><ele>90.66666666666666</ele><time>2026-04-11T15:26:18.11Z</time></trkpt><trkpt lat="40.087645" lon="18.265665"><ele>90.83333333333333</ele><time>2026-04-11T15:26:20.11Z</time></trkpt><trkpt lat="40.08771" lon="18.2656633"><ele>91.0</ele><time>2026-04-11T15:26:22.109Z</time></trkpt><trkpt lat="40.0877817" lon="18.265705"><ele>91.0</ele><time>2026-04-11T15:26:25.11Z</time></trkpt><trkpt lat="40.08785" lon="18.2656783"><ele>91.0</ele><time>2026-04-11T15:26:28.109Z</time></trkpt><trkpt lat="40.08792" lon="18.265585"><ele>91.0</ele><time>2026-04-11T15:26:30.11Z</time></trkpt><trkpt lat="40.0879633" lon="18.2655117"><ele>91.0</ele><time>2026-04-11T15:26:31.11Z</time></trkpt><trkpt lat="40.08803" lon="18.2654417"><ele>91.0</ele><time>2026-04-11T15:26:32.109Z</time></trkpt><trkpt lat="40.08808" lon="18.2653333"><ele>91.0</ele><time>2026-04-11T15:26:33.111Z</time></trkpt><trkpt lat="40.0881467" lon="18.2652317"><ele>91.0</ele><time>2026-04-11T15:26:34.111Z</time></trkpt><trkpt lat="40.0882167" lon="18.2651283"><ele>91.0</ele><time>2026-04-11T15:26:35.11Z</time></trkpt><trkpt lat="40.088285" lon="18.265025"><ele>91.0</ele><time>2026-04-11T15:26:36.111Z</time></trkpt><trkpt lat="40.0883517" lon="18.2649183"><ele>91.0</ele><time>2026-04-11T15:26:37.11Z</time></trkpt><trkpt lat="40.0884067" lon="18.2648"><ele>91.0</ele><time>2026-04-11T15:26:38.11Z</time></trkpt><trkpt lat="40.0884583" lon="18.2646717"><ele>91.0</ele><time>2026-04-11T15:26:39.11Z</time></trkpt><trkpt lat="40.0885033" lon="18.2645317"><ele>91.0</ele><time>2026-04-11T15:26:40.11Z</time></trkpt><trkpt lat="40.0885383" lon="18.264385"><ele>91.0</ele><time>2026-04-11T15:26:41.111Z</time></trkpt><trkpt lat="40.088585" lon="18.2642417"><ele>91.0</ele><time>2026-04-11T15:26:42.11Z</time></trkpt><trkpt lat="40.0886233" lon="18.264095"><ele>90.75</ele><time>2026-04-11T15:26:43.111Z</time></trkpt><trkpt lat="40.08867" lon="18.2639417"><ele>90.5</ele><time>2026-04-11T15:26:44.11Z</time></trkpt><trkpt lat="40.0887833" lon="18.263845"><ele>90.25</ele><time>2026-04-11T15:26:45.111Z</time></trkpt><trkpt lat="40.0888483" lon="18.2637067"><ele>90.0</ele><time>2026-04-11T15:26:46.11Z</time></trkpt><trkpt lat="40.0889267" lon="18.263565"><ele>90.0</ele><time>2026-04-11T15:26:47.111Z</time></trkpt><trkpt lat="40.08902" lon="18.263425"><ele>90.0</ele><time>2026-04-11T15:26:48.111Z</time></trkpt><trkpt lat="40.08911" lon="18.2632817"><ele>90.0</ele><time>2026-04-11T15:26:49.111Z</time></trkpt><trkpt lat="40.0891983" lon="18.263115"><ele>90.0</ele><time>2026-04-11T15:26:50.11Z</time></trkpt><trkpt lat="40.0893033" lon="18.26298"><ele>89.66666666666667</ele><time>2026-04-11T15:26:51.11Z</time></trkpt><trkpt lat="40.0894067" lon="18.262835"><ele>89.33333333333334</ele><time>2026-04-11T15:26:52.111Z</time></trkpt><trkpt lat="40.0894983" lon="18.2626767"><ele>89.0</ele><time>2026-04-11T15:26:53.11Z</time></trkpt><trkpt lat="40.08959" lon="18.2625217"><ele>89.0</ele><time>2026-04-11T15:26:54.111Z</time></trkpt><trkpt lat="40.0896917" lon="18.2623933"><ele>89.0</ele><time>2026-04-11T15:26:55.11Z</time></trkpt><trkpt lat="40.089785" lon="18.2622683"><ele>89.0</ele><time>2026-04-11T15:26:56.111Z</time></trkpt><trkpt lat="40.08987" lon="18.2621433"><ele>89.0</ele><time>2026-04-11T15:26:57.11Z</time></trkpt><trkpt lat="40.089905" lon="18.2619817"><ele>89.0</ele><time>2026-04-11T15:26:58.11Z</time></trkpt><trkpt lat="40.089985" lon="18.261835"><ele>89.0</ele><time>2026-04-11T15:26:59.11Z</time></trkpt><trkpt lat="40.0900633" lon="18.26168"><ele>89.0</ele><time>2026-04-11T15:27:00.11Z</time></trkpt><trkpt lat="40.0901417" lon="18.261525"><ele>89.0</ele><time>2026-04-11T15:27:01.11Z</time></trkpt><trkpt lat="40.09022" lon="18.26139"><ele>89.0</ele><time>2026-04-11T15:27:02.11Z</time></trkpt><trkpt lat="40.0902983" lon="18.2612667"><ele>89.0</ele><time>2026-04-11T15:27:03.11Z</time></trkpt><trkpt lat="40.0904" lon="18.261155"><ele>89.0</ele><time>2026-04-11T15:27:04.111Z</time></trkpt><trkpt lat="40.0905017" lon="18.2610417"><ele>89.0</ele><time>2026-04-11T15:27:05.11Z</time></trkpt><trkpt lat="40.090605" lon="18.2609183"><ele>89.0</ele><time>2026-04-11T15:27:06.11Z</time></trkpt><trkpt lat="40.0907083" lon="18.2607867"><ele>89.0</ele><time>2026-04-11T15:27:07.11Z</time></trkpt><trkpt lat="40.09082" lon="18.260655"><ele>89.0</ele><time>2026-04-11T15:27:08.11Z</time></trkpt><trkpt lat="40.090935" lon="18.2605217"><ele>89.0</ele><time>2026-04-11T15:27:09.11Z</time></trkpt><trkpt lat="40.0910483" lon="18.2603867"><ele>88.5</ele><time>2026-04-11T15:27:10.11Z</time></trkpt><trkpt lat="40.0911483" lon="18.2602367"><ele>88.0</ele><time>2026-04-11T15:27:11.11Z</time></trkpt><trkpt lat="40.09125" lon="18.2601033"><ele>87.5</ele><time>2026-04-11T15:27:12.111Z</time></trkpt><trkpt lat="40.0913533" lon="18.25999"><ele>87.0</ele><time>2026-04-11T15:27:13.11Z</time></trkpt><trkpt lat="40.0914483" lon="18.2598817"><ele>87.0</ele><time>2026-04-11T15:27:14.11Z</time></trkpt><trkpt lat="40.0915467" lon="18.2597817"><ele>87.0</ele><time>2026-04-11T15:27:15.11Z</time></trkpt><trkpt lat="40.0916367" lon="18.259685"><ele>87.0</ele><time>2026-04-11T15:27:16.11Z</time></trkpt><trkpt lat="40.0917117" lon="18.2596"><ele>87.0</ele><time>2026-04-11T15:27:17.11Z</time></trkpt><trkpt lat="40.09177" lon="18.25953"><ele>87.0</ele><time>2026-04-11T15:27:18.111Z</time></trkpt><trkpt lat="40.0918217" lon="18.2594767"><ele>87.0</ele><time>2026-04-11T15:27:19.11Z</time></trkpt><trkpt lat="40.091915" lon="18.2593767"><ele>87.0</ele><time>2026-04-11T15:27:21.111Z</time></trkpt><trkpt lat="40.0920117" lon="18.2592767"><ele>87.0</ele><time>2026-04-11T15:27:23.11Z</time></trkpt><trkpt lat="40.0920567" lon="18.2592033"><ele>87.0</ele><time>2026-04-11T15:27:24.11Z</time></trkpt><trkpt lat="40.0921083" lon="18.2591217"><ele>87.0</ele><time>2026-04-11T15:27:25.11Z</time></trkpt><trkpt lat="40.092145" lon="18.25902"><ele>87.0</ele><time>2026-04-11T15:27:26.11Z</time></trkpt><trkpt lat="40.0921967" lon="18.25892"><ele>87.0</ele><time>2026-04-11T15:27:27.11Z</time></trkpt><trkpt lat="40.09224" lon="18.2587833"><ele>87.0</ele><time>2026-04-11T15:27:28.11Z</time></trkpt><trkpt lat="40.092225" lon="18.258655"><ele>87.0</ele><time>2026-04-11T15:27:29.111Z</time></trkpt><trkpt lat="40.09223" lon="18.2585167"><ele>87.0</ele><time>2026-04-11T15:27:30.111Z</time></trkpt><trkpt lat="40.0922883" lon="18.2583983"><ele>87.0</ele><time>2026-04-11T15:27:31.11Z</time></trkpt><trkpt lat="40.0922683" lon="18.2582767"><ele>87.0</ele><time>2026-04-11T15:27:32.111Z</time></trkpt><trkpt lat="40.0923" lon="18.25811"><ele>87.0</ele><time>2026-04-11T15:27:33.11Z</time></trkpt><trkpt lat="40.0923467" lon="18.257975"><ele>87.0</ele><time>2026-04-11T15:27:34.111Z</time></trkpt><trkpt lat="40.092365" lon="18.257835"><ele>87.0</ele><time>2026-04-11T15:27:35.111Z</time></trkpt><trkpt lat="40.0924067" lon="18.25767"><ele>87.25</ele><time>2026-04-11T15:27:36.11Z</time></trkpt><trkpt lat="40.092435" lon="18.25749"><ele>87.5</ele><time>2026-04-11T15:27:37.111Z</time></trkpt><trkpt lat="40.0924667" lon="18.2573"><ele>87.75</ele><time>2026-04-11T15:27:38.11Z</time></trkpt><trkpt lat="40.0925133" lon="18.25711"><ele>88.0</ele><time>2026-04-11T15:27:39.11Z</time></trkpt><trkpt lat="40.0925367" lon="18.25691"><ele>89.0</ele><time>2026-04-11T15:27:40.111Z</time></trkpt><trkpt lat="40.0925633" lon="18.2567017"><ele>90.0</ele><time>2026-04-11T15:27:41.11Z</time></trkpt><trkpt lat="40.092605" lon="18.2564967"><ele>91.0</ele><time>2026-04-11T15:27:42.11Z</time></trkpt><trkpt lat="40.0926417" lon="18.2562867"><ele>91.0</ele><time>2026-04-11T15:27:43.111Z</time></trkpt><trkpt lat="40.0926717" lon="18.256075"><ele>91.0</ele><time>2026-04-11T15:27:44.11Z</time></trkpt><trkpt lat="40.0927033" lon="18.2558617"><ele>91.0</ele><time>2026-04-11T15:27:45.111Z</time></trkpt><trkpt lat="40.0927283" lon="18.2556483"><ele>91.33333333333333</ele><time>2026-04-11T15:27:46.11Z</time></trkpt><trkpt lat="40.0927617" lon="18.2554383"><ele>91.66666666666667</ele><time>2026-04-11T15:27:47.11Z</time></trkpt><trkpt lat="40.0928167" lon="18.2552367"><ele>92.0</ele><time>2026-04-11T15:27:48.111Z</time></trkpt><trkpt lat="40.0928617" lon="18.2550317"><ele>92.0</ele><time>2026-04-11T15:27:49.11Z</time></trkpt><trkpt lat="40.0929017" lon="18.2548267"><ele>92.0</ele><time>2026-04-11T15:27:50.11Z</time></trkpt><trkpt lat="40.092965" lon="18.2546483"><ele>92.0</ele><time>2026-04-11T15:27:51.11Z</time></trkpt><trkpt lat="40.0930217" lon="18.254485"><ele>92.0</ele><time>2026-04-11T15:27:52.11Z</time></trkpt><trkpt lat="40.09305" lon="18.2543017"><ele>90.8</ele><time>2026-04-11T15:27:53.11Z</time></trkpt><trkpt lat="40.093125" lon="18.2541667"><ele>89.6</ele><time>2026-04-11T15:27:54.111Z</time></trkpt><trkpt lat="40.093095" lon="18.2540883"><ele>88.39999999999999</ele><time>2026-04-11T15:27:56.111Z</time></trkpt><trkpt lat="40.093195" lon="18.2540167"><ele>87.19999999999999</ele><time>2026-04-11T15:27:59.11Z</time></trkpt><trkpt lat="40.0932617" lon="18.2539883"><ele>86.0</ele><time>2026-04-11T15:28:00.111Z</time></trkpt><trkpt lat="40.0933367" lon="18.253945"><ele>86.0</ele><time>2026-04-11T15:28:01.111Z</time></trkpt></trkseg></trk></gpx>